<?xml version="1.0" encoding="UTF-8"?>
<gpx version="1.1" creator="https://www.youtrack.es" xsi:schemaLocation="http://www.topografix.com/GPX/1/1 http://www.topografix.com/GPX/1/1/gpx.xsd http://www.garmin.com/xmlschemas/GpxExtensions/v3 http://www.garmin.com/xmlschemas/GpxExtensionsv3.xsd http://www.garmin.com/xmlschemas/TrackPointExtension/v1 http://www.garmin.com/xmlschemas/TrackPointExtensionv1.xsd" xmlns:gpxtpx="http://www.garmin.com/xmlschemas/TrackPointExtension/v1" xmlns:gpxx="http://www.garmin.com/xmlschemas/GpxExtensions/v3" xmlns:xsi="http://www.w3.org/2001/XMLSchema-instance">
  <metadata>
    <link href="https://www.youtrack.es">
      <text>YouTrack.es</text>
    </link>
    <time>2026-05-08T13:03:29Z</time>
  </metadata>
  <trk>
    <src>https://www.youtrack.es</src>
    <link href="https://www.youtrack.es/ruta/38863-ida-quebradilla-">
      <text>YouTrack.es</text>
    </link>
    <trkseg>
      <trkpt lat="9.8466890" lon="-83.9917980">
        <ele>1413.7</ele>
        <time>2022-10-21T13:12:03Z</time>
      </trkpt>
      <trkpt lat="9.8463960" lon="-83.9919490">
        <ele>1413.2</ele>
        <time>2022-10-21T13:12:04Z</time>
      </trkpt>
      <trkpt lat="9.8461040" lon="-83.9921000">
        <ele>1412.9</ele>
        <time>2022-10-21T13:12:07Z</time>
      </trkpt>
      <trkpt lat="9.8458110" lon="-83.9922510">
        <ele>1412.7</ele>
        <time>2022-10-21T13:12:11Z</time>
      </trkpt>
      <trkpt lat="9.8457790" lon="-83.9922990">
        <ele>1412.7</ele>
        <time>2022-10-21T13:12:12Z</time>
      </trkpt>
      <trkpt lat="9.8456590" lon="-83.9923780">
        <ele>1412.6</ele>
        <time>2022-10-21T13:12:13Z</time>
      </trkpt>
      <trkpt lat="9.8456230" lon="-83.9924240">
        <ele>1412.6</ele>
        <time>2022-10-21T13:12:14Z</time>
      </trkpt>
      <trkpt lat="9.8456810" lon="-83.9923990">
        <ele>1412.6</ele>
        <time>2022-10-21T13:12:15Z</time>
      </trkpt>
      <trkpt lat="9.8456420" lon="-83.9924400">
        <ele>1412.6</ele>
        <time>2022-10-21T13:12:16Z</time>
      </trkpt>
      <trkpt lat="9.8456020" lon="-83.9924620">
        <ele>1412.6</ele>
        <time>2022-10-21T13:12:17Z</time>
      </trkpt>
      <trkpt lat="9.8455630" lon="-83.9924850">
        <ele>1412.6</ele>
        <time>2022-10-21T13:12:18Z</time>
      </trkpt>
      <trkpt lat="9.8455220" lon="-83.9925190">
        <ele>1412.6</ele>
        <time>2022-10-21T13:12:19Z</time>
      </trkpt>
      <trkpt lat="9.8455790" lon="-83.9924700">
        <ele>1412.6</ele>
        <time>2022-10-21T13:12:20Z</time>
      </trkpt>
      <trkpt lat="9.8455380" lon="-83.9924990">
        <ele>1412.7</ele>
        <time>2022-10-21T13:12:21Z</time>
      </trkpt>
      <trkpt lat="9.8454970" lon="-83.9925260">
        <ele>1412.7</ele>
        <time>2022-10-21T13:12:22Z</time>
      </trkpt>
      <trkpt lat="9.8455560" lon="-83.9924670">
        <ele>1412.7</ele>
        <time>2022-10-21T13:12:23Z</time>
      </trkpt>
      <trkpt lat="9.8456160" lon="-83.9924070">
        <ele>1412.7</ele>
        <time>2022-10-21T13:12:24Z</time>
      </trkpt>
      <trkpt lat="9.8456750" lon="-83.9923470">
        <ele>1412.7</ele>
        <time>2022-10-21T13:12:25Z</time>
      </trkpt>
      <trkpt lat="9.8456390" lon="-83.9923560">
        <ele>1412.7</ele>
        <time>2022-10-21T13:12:26Z</time>
      </trkpt>
      <trkpt lat="9.8457000" lon="-83.9922960">
        <ele>1412.7</ele>
        <time>2022-10-21T13:12:27Z</time>
      </trkpt>
      <trkpt lat="9.8457640" lon="-83.9922360">
        <ele>1412.8</ele>
        <time>2022-10-21T13:12:28Z</time>
      </trkpt>
      <trkpt lat="9.8457310" lon="-83.9922490">
        <ele>1412.8</ele>
        <time>2022-10-21T13:12:29Z</time>
      </trkpt>
      <trkpt lat="9.8457950" lon="-83.9921820">
        <ele>1412.8</ele>
        <time>2022-10-21T13:12:30Z</time>
      </trkpt>
      <trkpt lat="9.8457600" lon="-83.9921940">
        <ele>1412.8</ele>
        <time>2022-10-21T13:12:31Z</time>
      </trkpt>
      <trkpt lat="9.8458240" lon="-83.9921190">
        <ele>1412.8</ele>
        <time>2022-10-21T13:12:32Z</time>
      </trkpt>
      <trkpt lat="9.8458880" lon="-83.9920420">
        <ele>1412.8</ele>
        <time>2022-10-21T13:12:33Z</time>
      </trkpt>
      <trkpt lat="9.8458530" lon="-83.9920470">
        <ele>1412.8</ele>
        <time>2022-10-21T13:12:34Z</time>
      </trkpt>
      <trkpt lat="9.8458180" lon="-83.9920480">
        <ele>1412.8</ele>
        <time>2022-10-21T13:12:35Z</time>
      </trkpt>
      <trkpt lat="9.8457850" lon="-83.9920460">
        <ele>1412.8</ele>
        <time>2022-10-21T13:12:36Z</time>
      </trkpt>
      <trkpt lat="9.8457520" lon="-83.9920410">
        <ele>1412.8</ele>
        <time>2022-10-21T13:12:37Z</time>
      </trkpt>
      <trkpt lat="9.8457190" lon="-83.9920330">
        <ele>1412.8</ele>
        <time>2022-10-21T13:12:38Z</time>
      </trkpt>
      <trkpt lat="9.8456840" lon="-83.9920230">
        <ele>1412.9</ele>
        <time>2022-10-21T13:12:39Z</time>
      </trkpt>
      <trkpt lat="9.8456500" lon="-83.9920100">
        <ele>1412.9</ele>
        <time>2022-10-21T13:12:40Z</time>
      </trkpt>
      <trkpt lat="9.8456150" lon="-83.9919960">
        <ele>1412.9</ele>
        <time>2022-10-21T13:12:41Z</time>
      </trkpt>
      <trkpt lat="9.8455800" lon="-83.9919800">
        <ele>1412.9</ele>
        <time>2022-10-21T13:12:42Z</time>
      </trkpt>
      <trkpt lat="9.8455460" lon="-83.9919650">
        <ele>1413.0</ele>
        <time>2022-10-21T13:12:43Z</time>
      </trkpt>
      <trkpt lat="9.8455120" lon="-83.9919490">
        <ele>1413.0</ele>
        <time>2022-10-21T13:12:44Z</time>
      </trkpt>
      <trkpt lat="9.8454780" lon="-83.9919320">
        <ele>1413.1</ele>
        <time>2022-10-21T13:12:45Z</time>
      </trkpt>
      <trkpt lat="9.8454440" lon="-83.9919160">
        <ele>1413.1</ele>
        <time>2022-10-21T13:12:46Z</time>
      </trkpt>
      <trkpt lat="9.8454090" lon="-83.9918990">
        <ele>1413.2</ele>
        <time>2022-10-21T13:12:47Z</time>
      </trkpt>
      <trkpt lat="9.8453310" lon="-83.9919250">
        <ele>1413.3</ele>
        <time>2022-10-21T13:12:48Z</time>
      </trkpt>
      <trkpt lat="9.8452530" lon="-83.9919520">
        <ele>1413.5</ele>
        <time>2022-10-21T13:12:49Z</time>
      </trkpt>
      <trkpt lat="9.8452200" lon="-83.9919360">
        <ele>1413.5</ele>
        <time>2022-10-21T13:12:50Z</time>
      </trkpt>
      <trkpt lat="9.8451860" lon="-83.9919220">
        <ele>1413.6</ele>
        <time>2022-10-21T13:12:51Z</time>
      </trkpt>
      <trkpt lat="9.8451510" lon="-83.9919080">
        <ele>1413.7</ele>
        <time>2022-10-21T13:12:52Z</time>
      </trkpt>
      <trkpt lat="9.8451170" lon="-83.9918960">
        <ele>1413.8</ele>
        <time>2022-10-21T13:12:53Z</time>
      </trkpt>
      <trkpt lat="9.8450830" lon="-83.9918840">
        <ele>1413.9</ele>
        <time>2022-10-21T13:12:54Z</time>
      </trkpt>
      <trkpt lat="9.8450490" lon="-83.9918710">
        <ele>1414.0</ele>
        <time>2022-10-21T13:12:55Z</time>
      </trkpt>
      <trkpt lat="9.8450140" lon="-83.9918580">
        <ele>1414.1</ele>
        <time>2022-10-21T13:12:56Z</time>
      </trkpt>
      <trkpt lat="9.8449800" lon="-83.9918460">
        <ele>1414.1</ele>
        <time>2022-10-21T13:12:57Z</time>
      </trkpt>
      <trkpt lat="9.8449470" lon="-83.9918340">
        <ele>1414.2</ele>
        <time>2022-10-21T13:12:58Z</time>
      </trkpt>
      <trkpt lat="9.8449140" lon="-83.9918090">
        <ele>1414.3</ele>
        <time>2022-10-21T13:12:59Z</time>
      </trkpt>
      <trkpt lat="9.8448800" lon="-83.9917990">
        <ele>1414.4</ele>
        <time>2022-10-21T13:13:00Z</time>
      </trkpt>
      <trkpt lat="9.8448480" lon="-83.9917900">
        <ele>1414.5</ele>
        <time>2022-10-21T13:13:01Z</time>
      </trkpt>
      <trkpt lat="9.8448170" lon="-83.9917810">
        <ele>1414.6</ele>
        <time>2022-10-21T13:13:02Z</time>
      </trkpt>
      <trkpt lat="9.8447870" lon="-83.9917730">
        <ele>1414.6</ele>
        <time>2022-10-21T13:13:03Z</time>
      </trkpt>
      <trkpt lat="9.8447590" lon="-83.9917650">
        <ele>1414.7</ele>
        <time>2022-10-21T13:13:04Z</time>
      </trkpt>
      <trkpt lat="9.8447310" lon="-83.9917580">
        <ele>1414.7</ele>
        <time>2022-10-21T13:13:05Z</time>
      </trkpt>
      <trkpt lat="9.8447030" lon="-83.9917530">
        <ele>1414.8</ele>
        <time>2022-10-21T13:13:06Z</time>
      </trkpt>
      <trkpt lat="9.8446760" lon="-83.9917500">
        <ele>1415.0</ele>
        <time>2022-10-21T13:13:07Z</time>
      </trkpt>
      <trkpt lat="9.8446490" lon="-83.9917470">
        <ele>1415.0</ele>
        <time>2022-10-21T13:13:08Z</time>
      </trkpt>
      <trkpt lat="9.8446230" lon="-83.9917450">
        <ele>1415.1</ele>
        <time>2022-10-21T13:13:09Z</time>
      </trkpt>
      <trkpt lat="9.8446840" lon="-83.9916730">
        <ele>1415.1</ele>
        <time>2022-10-21T13:13:10Z</time>
      </trkpt>
      <trkpt lat="9.8446580" lon="-83.9916720">
        <ele>1415.1</ele>
        <time>2022-10-21T13:13:11Z</time>
      </trkpt>
      <trkpt lat="9.8446310" lon="-83.9916710">
        <ele>1415.1</ele>
        <time>2022-10-21T13:13:12Z</time>
      </trkpt>
      <trkpt lat="9.8446040" lon="-83.9916710">
        <ele>1415.1</ele>
        <time>2022-10-21T13:13:13Z</time>
      </trkpt>
      <trkpt lat="9.8445340" lon="-83.9917020">
        <ele>1415.1</ele>
        <time>2022-10-21T13:13:14Z</time>
      </trkpt>
      <trkpt lat="9.8444640" lon="-83.9917330">
        <ele>1415.1</ele>
        <time>2022-10-21T13:13:15Z</time>
      </trkpt>
      <trkpt lat="9.8444350" lon="-83.9917310">
        <ele>1415.1</ele>
        <time>2022-10-21T13:13:16Z</time>
      </trkpt>
      <trkpt lat="9.8444070" lon="-83.9917280">
        <ele>1415.1</ele>
        <time>2022-10-21T13:13:17Z</time>
      </trkpt>
      <trkpt lat="9.8443790" lon="-83.9917230">
        <ele>1415.1</ele>
        <time>2022-10-21T13:13:18Z</time>
      </trkpt>
      <trkpt lat="9.8443520" lon="-83.9917170">
        <ele>1415.1</ele>
        <time>2022-10-21T13:13:19Z</time>
      </trkpt>
      <trkpt lat="9.8443260" lon="-83.9917090">
        <ele>1415.1</ele>
        <time>2022-10-21T13:13:20Z</time>
      </trkpt>
      <trkpt lat="9.8443010" lon="-83.9916990">
        <ele>1415.1</ele>
        <time>2022-10-21T13:13:21Z</time>
      </trkpt>
      <trkpt lat="9.8442330" lon="-83.9917060">
        <ele>1415.0</ele>
        <time>2022-10-21T13:13:22Z</time>
      </trkpt>
      <trkpt lat="9.8442100" lon="-83.9916920">
        <ele>1414.9</ele>
        <time>2022-10-21T13:13:23Z</time>
      </trkpt>
      <trkpt lat="9.8441890" lon="-83.9916740">
        <ele>1414.9</ele>
        <time>2022-10-21T13:13:24Z</time>
      </trkpt>
      <trkpt lat="9.8442530" lon="-83.9915910">
        <ele>1414.9</ele>
        <time>2022-10-21T13:13:25Z</time>
      </trkpt>
      <trkpt lat="9.8442350" lon="-83.9915700">
        <ele>1414.8</ele>
        <time>2022-10-21T13:13:26Z</time>
      </trkpt>
      <trkpt lat="9.8442180" lon="-83.9915460">
        <ele>1414.8</ele>
        <time>2022-10-21T13:13:27Z</time>
      </trkpt>
      <trkpt lat="9.8442030" lon="-83.9915210">
        <ele>1414.8</ele>
        <time>2022-10-21T13:13:28Z</time>
      </trkpt>
      <trkpt lat="9.8441880" lon="-83.9914940">
        <ele>1414.8</ele>
        <time>2022-10-21T13:13:29Z</time>
      </trkpt>
      <trkpt lat="9.8441740" lon="-83.9914660">
        <ele>1414.7</ele>
        <time>2022-10-21T13:13:30Z</time>
      </trkpt>
      <trkpt lat="9.8441590" lon="-83.9914370">
        <ele>1414.7</ele>
        <time>2022-10-21T13:13:31Z</time>
      </trkpt>
      <trkpt lat="9.8441450" lon="-83.9914060">
        <ele>1414.7</ele>
        <time>2022-10-21T13:13:32Z</time>
      </trkpt>
      <trkpt lat="9.8441760" lon="-83.9913550">
        <ele>1414.7</ele>
        <time>2022-10-21T13:13:33Z</time>
      </trkpt>
      <trkpt lat="9.8441620" lon="-83.9913220">
        <ele>1414.7</ele>
        <time>2022-10-21T13:13:34Z</time>
      </trkpt>
      <trkpt lat="9.8441470" lon="-83.9912880">
        <ele>1414.6</ele>
        <time>2022-10-21T13:13:35Z</time>
      </trkpt>
      <trkpt lat="9.8441320" lon="-83.9912530">
        <ele>1414.6</ele>
        <time>2022-10-21T13:13:36Z</time>
      </trkpt>
      <trkpt lat="9.8441170" lon="-83.9912170">
        <ele>1414.6</ele>
        <time>2022-10-21T13:13:37Z</time>
      </trkpt>
      <trkpt lat="9.8441000" lon="-83.9911800">
        <ele>1414.5</ele>
        <time>2022-10-21T13:13:38Z</time>
      </trkpt>
      <trkpt lat="9.8440840" lon="-83.9911410">
        <ele>1414.5</ele>
        <time>2022-10-21T13:13:39Z</time>
      </trkpt>
      <trkpt lat="9.8440670" lon="-83.9911010">
        <ele>1414.4</ele>
        <time>2022-10-21T13:13:40Z</time>
      </trkpt>
      <trkpt lat="9.8440490" lon="-83.9910600">
        <ele>1414.4</ele>
        <time>2022-10-21T13:13:41Z</time>
      </trkpt>
      <trkpt lat="9.8440310" lon="-83.9910160">
        <ele>1414.3</ele>
        <time>2022-10-21T13:13:42Z</time>
      </trkpt>
      <trkpt lat="9.8440130" lon="-83.9909720">
        <ele>1414.3</ele>
        <time>2022-10-21T13:13:43Z</time>
      </trkpt>
      <trkpt lat="9.8439940" lon="-83.9909260">
        <ele>1414.2</ele>
        <time>2022-10-21T13:13:44Z</time>
      </trkpt>
      <trkpt lat="9.8439750" lon="-83.9908790">
        <ele>1414.2</ele>
        <time>2022-10-21T13:13:45Z</time>
      </trkpt>
      <trkpt lat="9.8439420" lon="-83.9908100">
        <ele>1414.0</ele>
        <time>2022-10-21T13:13:46Z</time>
      </trkpt>
      <trkpt lat="9.8439210" lon="-83.9907580">
        <ele>1413.9</ele>
        <time>2022-10-21T13:13:47Z</time>
      </trkpt>
      <trkpt lat="9.8438990" lon="-83.9906980">
        <ele>1413.8</ele>
        <time>2022-10-21T13:13:48Z</time>
      </trkpt>
      <trkpt lat="9.8438740" lon="-83.9906330">
        <ele>1413.7</ele>
        <time>2022-10-21T13:13:49Z</time>
      </trkpt>
      <trkpt lat="9.8438470" lon="-83.9905630">
        <ele>1413.5</ele>
        <time>2022-10-21T13:13:50Z</time>
      </trkpt>
      <trkpt lat="9.8438180" lon="-83.9904890">
        <ele>1413.4</ele>
        <time>2022-10-21T13:13:51Z</time>
      </trkpt>
      <trkpt lat="9.8437860" lon="-83.9904170">
        <ele>1413.3</ele>
        <time>2022-10-21T13:13:52Z</time>
      </trkpt>
      <trkpt lat="9.8437540" lon="-83.9903390">
        <ele>1413.3</ele>
        <time>2022-10-21T13:13:53Z</time>
      </trkpt>
      <trkpt lat="9.8437210" lon="-83.9902590">
        <ele>1413.2</ele>
        <time>2022-10-21T13:13:54Z</time>
      </trkpt>
      <trkpt lat="9.8436880" lon="-83.9901880">
        <ele>1413.1</ele>
        <time>2022-10-21T13:13:55Z</time>
      </trkpt>
      <trkpt lat="9.8436550" lon="-83.9901110">
        <ele>1413.0</ele>
        <time>2022-10-21T13:13:56Z</time>
      </trkpt>
      <trkpt lat="9.8436360" lon="-83.9900590">
        <ele>1413.0</ele>
        <time>2022-10-21T13:13:57Z</time>
      </trkpt>
      <trkpt lat="9.8436060" lon="-83.9899880">
        <ele>1412.9</ele>
        <time>2022-10-21T13:13:58Z</time>
      </trkpt>
      <trkpt lat="9.8435770" lon="-83.9899230">
        <ele>1412.9</ele>
        <time>2022-10-21T13:13:59Z</time>
      </trkpt>
      <trkpt lat="9.8435510" lon="-83.9898610">
        <ele>1412.8</ele>
        <time>2022-10-21T13:14:00Z</time>
      </trkpt>
      <trkpt lat="9.8435300" lon="-83.9898030">
        <ele>1412.8</ele>
        <time>2022-10-21T13:14:01Z</time>
      </trkpt>
      <trkpt lat="9.8435110" lon="-83.9897460">
        <ele>1412.7</ele>
        <time>2022-10-21T13:14:02Z</time>
      </trkpt>
      <trkpt lat="9.8434970" lon="-83.9896860">
        <ele>1412.7</ele>
        <time>2022-10-21T13:14:03Z</time>
      </trkpt>
      <trkpt lat="9.8434860" lon="-83.9896300">
        <ele>1412.6</ele>
        <time>2022-10-21T13:14:04Z</time>
      </trkpt>
      <trkpt lat="9.8434780" lon="-83.9895750">
        <ele>1412.5</ele>
        <time>2022-10-21T13:14:05Z</time>
      </trkpt>
      <trkpt lat="9.8434740" lon="-83.9895110">
        <ele>1412.4</ele>
        <time>2022-10-21T13:14:06Z</time>
      </trkpt>
      <trkpt lat="9.8434710" lon="-83.9894500">
        <ele>1412.2</ele>
        <time>2022-10-21T13:14:07Z</time>
      </trkpt>
      <trkpt lat="9.8434730" lon="-83.9893840">
        <ele>1412.1</ele>
        <time>2022-10-21T13:14:08Z</time>
      </trkpt>
      <trkpt lat="9.8434750" lon="-83.9893180">
        <ele>1411.9</ele>
        <time>2022-10-21T13:14:09Z</time>
      </trkpt>
      <trkpt lat="9.8434800" lon="-83.9892520">
        <ele>1411.6</ele>
        <time>2022-10-21T13:14:10Z</time>
      </trkpt>
      <trkpt lat="9.8434870" lon="-83.9891850">
        <ele>1411.4</ele>
        <time>2022-10-21T13:14:11Z</time>
      </trkpt>
      <trkpt lat="9.8434970" lon="-83.9891180">
        <ele>1411.2</ele>
        <time>2022-10-21T13:14:12Z</time>
      </trkpt>
      <trkpt lat="9.8435030" lon="-83.9890650">
        <ele>1411.0</ele>
        <time>2022-10-21T13:14:13Z</time>
      </trkpt>
      <trkpt lat="9.8435100" lon="-83.9890130">
        <ele>1410.8</ele>
        <time>2022-10-21T13:14:14Z</time>
      </trkpt>
      <trkpt lat="9.8435240" lon="-83.9889490">
        <ele>1410.6</ele>
        <time>2022-10-21T13:14:15Z</time>
      </trkpt>
      <trkpt lat="9.8435380" lon="-83.9888840">
        <ele>1410.4</ele>
        <time>2022-10-21T13:14:16Z</time>
      </trkpt>
      <trkpt lat="9.8435520" lon="-83.9888190">
        <ele>1410.2</ele>
        <time>2022-10-21T13:14:17Z</time>
      </trkpt>
      <trkpt lat="9.8435650" lon="-83.9887540">
        <ele>1410.0</ele>
        <time>2022-10-21T13:14:18Z</time>
      </trkpt>
      <trkpt lat="9.8435780" lon="-83.9886870">
        <ele>1409.9</ele>
        <time>2022-10-21T13:14:19Z</time>
      </trkpt>
      <trkpt lat="9.8435910" lon="-83.9886200">
        <ele>1409.7</ele>
        <time>2022-10-21T13:14:20Z</time>
      </trkpt>
      <trkpt lat="9.8436030" lon="-83.9885510">
        <ele>1409.6</ele>
        <time>2022-10-21T13:14:21Z</time>
      </trkpt>
      <trkpt lat="9.8436130" lon="-83.9884800">
        <ele>1409.4</ele>
        <time>2022-10-21T13:14:22Z</time>
      </trkpt>
      <trkpt lat="9.8436220" lon="-83.9884080">
        <ele>1409.3</ele>
        <time>2022-10-21T13:14:23Z</time>
      </trkpt>
      <trkpt lat="9.8436350" lon="-83.9883210">
        <ele>1409.2</ele>
        <time>2022-10-21T13:14:24Z</time>
      </trkpt>
      <trkpt lat="9.8436490" lon="-83.9882330">
        <ele>1409.1</ele>
        <time>2022-10-21T13:14:25Z</time>
      </trkpt>
      <trkpt lat="9.8436550" lon="-83.9881560">
        <ele>1409.1</ele>
        <time>2022-10-21T13:14:26Z</time>
      </trkpt>
      <trkpt lat="9.8436590" lon="-83.9880910">
        <ele>1409.1</ele>
        <time>2022-10-21T13:14:27Z</time>
      </trkpt>
      <trkpt lat="9.8436630" lon="-83.9880250">
        <ele>1408.9</ele>
        <time>2022-10-21T13:14:28Z</time>
      </trkpt>
      <trkpt lat="9.8436670" lon="-83.9879570">
        <ele>1408.8</ele>
        <time>2022-10-21T13:14:29Z</time>
      </trkpt>
      <trkpt lat="9.8436710" lon="-83.9878880">
        <ele>1408.7</ele>
        <time>2022-10-21T13:14:30Z</time>
      </trkpt>
      <trkpt lat="9.8436740" lon="-83.9878200">
        <ele>1408.5</ele>
        <time>2022-10-21T13:14:31Z</time>
      </trkpt>
      <trkpt lat="9.8436760" lon="-83.9877510">
        <ele>1408.4</ele>
        <time>2022-10-21T13:14:32Z</time>
      </trkpt>
      <trkpt lat="9.8436780" lon="-83.9876840">
        <ele>1408.3</ele>
        <time>2022-10-21T13:14:33Z</time>
      </trkpt>
      <trkpt lat="9.8436810" lon="-83.9876170">
        <ele>1408.1</ele>
        <time>2022-10-21T13:14:34Z</time>
      </trkpt>
      <trkpt lat="9.8436820" lon="-83.9875500">
        <ele>1408.0</ele>
        <time>2022-10-21T13:14:35Z</time>
      </trkpt>
      <trkpt lat="9.8436820" lon="-83.9874820">
        <ele>1407.9</ele>
        <time>2022-10-21T13:14:36Z</time>
      </trkpt>
      <trkpt lat="9.8436810" lon="-83.9874130">
        <ele>1407.8</ele>
        <time>2022-10-21T13:14:37Z</time>
      </trkpt>
      <trkpt lat="9.8436800" lon="-83.9873310">
        <ele>1407.7</ele>
        <time>2022-10-21T13:14:38Z</time>
      </trkpt>
      <trkpt lat="9.8436770" lon="-83.9872490">
        <ele>1407.5</ele>
        <time>2022-10-21T13:14:39Z</time>
      </trkpt>
      <trkpt lat="9.8436740" lon="-83.9871680">
        <ele>1407.4</ele>
        <time>2022-10-21T13:14:40Z</time>
      </trkpt>
      <trkpt lat="9.8436700" lon="-83.9870870">
        <ele>1407.3</ele>
        <time>2022-10-21T13:14:41Z</time>
      </trkpt>
      <trkpt lat="9.8436670" lon="-83.9870060">
        <ele>1407.1</ele>
        <time>2022-10-21T13:14:42Z</time>
      </trkpt>
      <trkpt lat="9.8436630" lon="-83.9869250">
        <ele>1406.9</ele>
        <time>2022-10-21T13:14:43Z</time>
      </trkpt>
      <trkpt lat="9.8436600" lon="-83.9868450">
        <ele>1406.7</ele>
        <time>2022-10-21T13:14:44Z</time>
      </trkpt>
      <trkpt lat="9.8436570" lon="-83.9867640">
        <ele>1406.5</ele>
        <time>2022-10-21T13:14:45Z</time>
      </trkpt>
      <trkpt lat="9.8436540" lon="-83.9866850">
        <ele>1406.3</ele>
        <time>2022-10-21T13:14:46Z</time>
      </trkpt>
      <trkpt lat="9.8436520" lon="-83.9866050">
        <ele>1406.1</ele>
        <time>2022-10-21T13:14:47Z</time>
      </trkpt>
      <trkpt lat="9.8436500" lon="-83.9865270">
        <ele>1405.9</ele>
        <time>2022-10-21T13:14:48Z</time>
      </trkpt>
      <trkpt lat="9.8436490" lon="-83.9864490">
        <ele>1405.8</ele>
        <time>2022-10-21T13:14:49Z</time>
      </trkpt>
      <trkpt lat="9.8436480" lon="-83.9863710">
        <ele>1405.6</ele>
        <time>2022-10-21T13:14:50Z</time>
      </trkpt>
      <trkpt lat="9.8436470" lon="-83.9862930">
        <ele>1405.4</ele>
        <time>2022-10-21T13:14:51Z</time>
      </trkpt>
      <trkpt lat="9.8436460" lon="-83.9862150">
        <ele>1405.3</ele>
        <time>2022-10-21T13:14:52Z</time>
      </trkpt>
      <trkpt lat="9.8436450" lon="-83.9861380">
        <ele>1405.1</ele>
        <time>2022-10-21T13:14:53Z</time>
      </trkpt>
      <trkpt lat="9.8436440" lon="-83.9860600">
        <ele>1405.0</ele>
        <time>2022-10-21T13:14:54Z</time>
      </trkpt>
      <trkpt lat="9.8436420" lon="-83.9859810">
        <ele>1404.9</ele>
        <time>2022-10-21T13:14:55Z</time>
      </trkpt>
      <trkpt lat="9.8436410" lon="-83.9859030">
        <ele>1404.7</ele>
        <time>2022-10-21T13:14:56Z</time>
      </trkpt>
      <trkpt lat="9.8436410" lon="-83.9858240">
        <ele>1404.6</ele>
        <time>2022-10-21T13:14:57Z</time>
      </trkpt>
      <trkpt lat="9.8436400" lon="-83.9857440">
        <ele>1404.5</ele>
        <time>2022-10-21T13:14:58Z</time>
      </trkpt>
      <trkpt lat="9.8436380" lon="-83.9856650">
        <ele>1404.4</ele>
        <time>2022-10-21T13:14:59Z</time>
      </trkpt>
      <trkpt lat="9.8436360" lon="-83.9855860">
        <ele>1404.3</ele>
        <time>2022-10-21T13:15:00Z</time>
      </trkpt>
      <trkpt lat="9.8436340" lon="-83.9855070">
        <ele>1404.3</ele>
        <time>2022-10-21T13:15:01Z</time>
      </trkpt>
      <trkpt lat="9.8436320" lon="-83.9854290">
        <ele>1404.2</ele>
        <time>2022-10-21T13:15:02Z</time>
      </trkpt>
      <trkpt lat="9.8436310" lon="-83.9853500">
        <ele>1404.1</ele>
        <time>2022-10-21T13:15:03Z</time>
      </trkpt>
      <trkpt lat="9.8436300" lon="-83.9852710">
        <ele>1403.9</ele>
        <time>2022-10-21T13:15:04Z</time>
      </trkpt>
      <trkpt lat="9.8436290" lon="-83.9851920">
        <ele>1403.8</ele>
        <time>2022-10-21T13:15:05Z</time>
      </trkpt>
      <trkpt lat="9.8436300" lon="-83.9851120">
        <ele>1403.7</ele>
        <time>2022-10-21T13:15:06Z</time>
      </trkpt>
      <trkpt lat="9.8436310" lon="-83.9850320">
        <ele>1403.6</ele>
        <time>2022-10-21T13:15:07Z</time>
      </trkpt>
      <trkpt lat="9.8436350" lon="-83.9849530">
        <ele>1403.4</ele>
        <time>2022-10-21T13:15:08Z</time>
      </trkpt>
      <trkpt lat="9.8436410" lon="-83.9848740">
        <ele>1403.2</ele>
        <time>2022-10-21T13:15:09Z</time>
      </trkpt>
      <trkpt lat="9.8436500" lon="-83.9847950">
        <ele>1402.9</ele>
        <time>2022-10-21T13:15:10Z</time>
      </trkpt>
      <trkpt lat="9.8436620" lon="-83.9847160">
        <ele>1402.7</ele>
        <time>2022-10-21T13:15:11Z</time>
      </trkpt>
      <trkpt lat="9.8436770" lon="-83.9846370">
        <ele>1402.5</ele>
        <time>2022-10-21T13:15:12Z</time>
      </trkpt>
      <trkpt lat="9.8436960" lon="-83.9845590">
        <ele>1402.4</ele>
        <time>2022-10-21T13:15:13Z</time>
      </trkpt>
      <trkpt lat="9.8437180" lon="-83.9844820">
        <ele>1402.2</ele>
        <time>2022-10-21T13:15:14Z</time>
      </trkpt>
      <trkpt lat="9.8437430" lon="-83.9844080">
        <ele>1402.1</ele>
        <time>2022-10-21T13:15:15Z</time>
      </trkpt>
      <trkpt lat="9.8437700" lon="-83.9843350">
        <ele>1402.1</ele>
        <time>2022-10-21T13:15:16Z</time>
      </trkpt>
      <trkpt lat="9.8438000" lon="-83.9842640">
        <ele>1402.0</ele>
        <time>2022-10-21T13:15:17Z</time>
      </trkpt>
      <trkpt lat="9.8438320" lon="-83.9841940">
        <ele>1401.9</ele>
        <time>2022-10-21T13:15:18Z</time>
      </trkpt>
      <trkpt lat="9.8438650" lon="-83.9841260">
        <ele>1401.8</ele>
        <time>2022-10-21T13:15:19Z</time>
      </trkpt>
      <trkpt lat="9.8439000" lon="-83.9840600">
        <ele>1401.8</ele>
        <time>2022-10-21T13:15:20Z</time>
      </trkpt>
      <trkpt lat="9.8439350" lon="-83.9839950">
        <ele>1401.7</ele>
        <time>2022-10-21T13:15:21Z</time>
      </trkpt>
      <trkpt lat="9.8439720" lon="-83.9839320">
        <ele>1401.7</ele>
        <time>2022-10-21T13:15:22Z</time>
      </trkpt>
      <trkpt lat="9.8440100" lon="-83.9838710">
        <ele>1401.7</ele>
        <time>2022-10-21T13:15:23Z</time>
      </trkpt>
      <trkpt lat="9.8440490" lon="-83.9838110">
        <ele>1401.7</ele>
        <time>2022-10-21T13:15:24Z</time>
      </trkpt>
      <trkpt lat="9.8440890" lon="-83.9837530">
        <ele>1401.7</ele>
        <time>2022-10-21T13:15:25Z</time>
      </trkpt>
      <trkpt lat="9.8441300" lon="-83.9836950">
        <ele>1401.8</ele>
        <time>2022-10-21T13:15:26Z</time>
      </trkpt>
      <trkpt lat="9.8441720" lon="-83.9836390">
        <ele>1401.8</ele>
        <time>2022-10-21T13:15:27Z</time>
      </trkpt>
      <trkpt lat="9.8442140" lon="-83.9835830">
        <ele>1401.8</ele>
        <time>2022-10-21T13:15:28Z</time>
      </trkpt>
      <trkpt lat="9.8442560" lon="-83.9835280">
        <ele>1401.8</ele>
        <time>2022-10-21T13:15:29Z</time>
      </trkpt>
      <trkpt lat="9.8442980" lon="-83.9834730">
        <ele>1401.8</ele>
        <time>2022-10-21T13:15:30Z</time>
      </trkpt>
      <trkpt lat="9.8443380" lon="-83.9834160">
        <ele>1401.8</ele>
        <time>2022-10-21T13:15:31Z</time>
      </trkpt>
      <trkpt lat="9.8443760" lon="-83.9833580">
        <ele>1401.8</ele>
        <time>2022-10-21T13:15:32Z</time>
      </trkpt>
      <trkpt lat="9.8444100" lon="-83.9832980">
        <ele>1401.8</ele>
        <time>2022-10-21T13:15:33Z</time>
      </trkpt>
      <trkpt lat="9.8444390" lon="-83.9832360">
        <ele>1401.7</ele>
        <time>2022-10-21T13:15:34Z</time>
      </trkpt>
      <trkpt lat="9.8444630" lon="-83.9831730">
        <ele>1401.7</ele>
        <time>2022-10-21T13:15:35Z</time>
      </trkpt>
      <trkpt lat="9.8444810" lon="-83.9831080">
        <ele>1401.6</ele>
        <time>2022-10-21T13:15:36Z</time>
      </trkpt>
      <trkpt lat="9.8444930" lon="-83.9830410">
        <ele>1401.6</ele>
        <time>2022-10-21T13:15:37Z</time>
      </trkpt>
      <trkpt lat="9.8445000" lon="-83.9829730">
        <ele>1401.5</ele>
        <time>2022-10-21T13:15:38Z</time>
      </trkpt>
      <trkpt lat="9.8445020" lon="-83.9829030">
        <ele>1401.4</ele>
        <time>2022-10-21T13:15:39Z</time>
      </trkpt>
      <trkpt lat="9.8444990" lon="-83.9828310">
        <ele>1401.3</ele>
        <time>2022-10-21T13:15:40Z</time>
      </trkpt>
      <trkpt lat="9.8444920" lon="-83.9827580">
        <ele>1401.2</ele>
        <time>2022-10-21T13:15:41Z</time>
      </trkpt>
      <trkpt lat="9.8444820" lon="-83.9826860">
        <ele>1401.1</ele>
        <time>2022-10-21T13:15:42Z</time>
      </trkpt>
      <trkpt lat="9.8444700" lon="-83.9826130">
        <ele>1400.9</ele>
        <time>2022-10-21T13:15:43Z</time>
      </trkpt>
      <trkpt lat="9.8444550" lon="-83.9825410">
        <ele>1400.8</ele>
        <time>2022-10-21T13:15:44Z</time>
      </trkpt>
      <trkpt lat="9.8444400" lon="-83.9824680">
        <ele>1400.7</ele>
        <time>2022-10-21T13:15:45Z</time>
      </trkpt>
      <trkpt lat="9.8444260" lon="-83.9823960">
        <ele>1400.6</ele>
        <time>2022-10-21T13:15:46Z</time>
      </trkpt>
      <trkpt lat="9.8444110" lon="-83.9823230">
        <ele>1400.5</ele>
        <time>2022-10-21T13:15:47Z</time>
      </trkpt>
      <trkpt lat="9.8443950" lon="-83.9822510">
        <ele>1400.4</ele>
        <time>2022-10-21T13:15:48Z</time>
      </trkpt>
      <trkpt lat="9.8443800" lon="-83.9821780">
        <ele>1400.4</ele>
        <time>2022-10-21T13:15:49Z</time>
      </trkpt>
      <trkpt lat="9.8443640" lon="-83.9821050">
        <ele>1400.3</ele>
        <time>2022-10-21T13:15:50Z</time>
      </trkpt>
      <trkpt lat="9.8443480" lon="-83.9820320">
        <ele>1400.2</ele>
        <time>2022-10-21T13:15:51Z</time>
      </trkpt>
      <trkpt lat="9.8443320" lon="-83.9819580">
        <ele>1400.1</ele>
        <time>2022-10-21T13:15:52Z</time>
      </trkpt>
      <trkpt lat="9.8443170" lon="-83.9818840">
        <ele>1400.0</ele>
        <time>2022-10-21T13:15:53Z</time>
      </trkpt>
      <trkpt lat="9.8443020" lon="-83.9818100">
        <ele>1399.9</ele>
        <time>2022-10-21T13:15:54Z</time>
      </trkpt>
      <trkpt lat="9.8442880" lon="-83.9817360">
        <ele>1399.8</ele>
        <time>2022-10-21T13:15:55Z</time>
      </trkpt>
      <trkpt lat="9.8442740" lon="-83.9816610">
        <ele>1399.7</ele>
        <time>2022-10-21T13:15:56Z</time>
      </trkpt>
      <trkpt lat="9.8442590" lon="-83.9815850">
        <ele>1399.6</ele>
        <time>2022-10-21T13:15:57Z</time>
      </trkpt>
      <trkpt lat="9.8442460" lon="-83.9815080">
        <ele>1399.4</ele>
        <time>2022-10-21T13:15:58Z</time>
      </trkpt>
      <trkpt lat="9.8442330" lon="-83.9814310">
        <ele>1399.3</ele>
        <time>2022-10-21T13:15:59Z</time>
      </trkpt>
      <trkpt lat="9.8442200" lon="-83.9813540">
        <ele>1399.1</ele>
        <time>2022-10-21T13:16:00Z</time>
      </trkpt>
      <trkpt lat="9.8442080" lon="-83.9812770">
        <ele>1399.0</ele>
        <time>2022-10-21T13:16:01Z</time>
      </trkpt>
      <trkpt lat="9.8441960" lon="-83.9812010">
        <ele>1398.9</ele>
        <time>2022-10-21T13:16:02Z</time>
      </trkpt>
      <trkpt lat="9.8441840" lon="-83.9811240">
        <ele>1398.8</ele>
        <time>2022-10-21T13:16:03Z</time>
      </trkpt>
      <trkpt lat="9.8441710" lon="-83.9810490">
        <ele>1398.7</ele>
        <time>2022-10-21T13:16:04Z</time>
      </trkpt>
      <trkpt lat="9.8441570" lon="-83.9809730">
        <ele>1398.6</ele>
        <time>2022-10-21T13:16:05Z</time>
      </trkpt>
      <trkpt lat="9.8441440" lon="-83.9808970">
        <ele>1398.4</ele>
        <time>2022-10-21T13:16:06Z</time>
      </trkpt>
      <trkpt lat="9.8441300" lon="-83.9808220">
        <ele>1398.2</ele>
        <time>2022-10-21T13:16:07Z</time>
      </trkpt>
      <trkpt lat="9.8441160" lon="-83.9807470">
        <ele>1398.1</ele>
        <time>2022-10-21T13:16:08Z</time>
      </trkpt>
      <trkpt lat="9.8441000" lon="-83.9806730">
        <ele>1398.0</ele>
        <time>2022-10-21T13:16:09Z</time>
      </trkpt>
      <trkpt lat="9.8440840" lon="-83.9806000">
        <ele>1397.9</ele>
        <time>2022-10-21T13:16:10Z</time>
      </trkpt>
      <trkpt lat="9.8440680" lon="-83.9805260">
        <ele>1397.7</ele>
        <time>2022-10-21T13:16:11Z</time>
      </trkpt>
      <trkpt lat="9.8440500" lon="-83.9804530">
        <ele>1397.6</ele>
        <time>2022-10-21T13:16:12Z</time>
      </trkpt>
      <trkpt lat="9.8440320" lon="-83.9803800">
        <ele>1397.5</ele>
        <time>2022-10-21T13:16:13Z</time>
      </trkpt>
      <trkpt lat="9.8440140" lon="-83.9803070">
        <ele>1397.4</ele>
        <time>2022-10-21T13:16:14Z</time>
      </trkpt>
      <trkpt lat="9.8439950" lon="-83.9802330">
        <ele>1397.3</ele>
        <time>2022-10-21T13:16:15Z</time>
      </trkpt>
      <trkpt lat="9.8439760" lon="-83.9801600">
        <ele>1397.2</ele>
        <time>2022-10-21T13:16:16Z</time>
      </trkpt>
      <trkpt lat="9.8439570" lon="-83.9800860">
        <ele>1397.1</ele>
        <time>2022-10-21T13:16:17Z</time>
      </trkpt>
      <trkpt lat="9.8439380" lon="-83.9800130">
        <ele>1396.9</ele>
        <time>2022-10-21T13:16:18Z</time>
      </trkpt>
      <trkpt lat="9.8439200" lon="-83.9799390">
        <ele>1396.8</ele>
        <time>2022-10-21T13:16:19Z</time>
      </trkpt>
      <trkpt lat="9.8439020" lon="-83.9798660">
        <ele>1396.7</ele>
        <time>2022-10-21T13:16:20Z</time>
      </trkpt>
      <trkpt lat="9.8438840" lon="-83.9797920">
        <ele>1396.6</ele>
        <time>2022-10-21T13:16:21Z</time>
      </trkpt>
      <trkpt lat="9.8438660" lon="-83.9797170">
        <ele>1396.5</ele>
        <time>2022-10-21T13:16:22Z</time>
      </trkpt>
      <trkpt lat="9.8438480" lon="-83.9796430">
        <ele>1396.4</ele>
        <time>2022-10-21T13:16:23Z</time>
      </trkpt>
      <trkpt lat="9.8438300" lon="-83.9795680">
        <ele>1396.2</ele>
        <time>2022-10-21T13:16:24Z</time>
      </trkpt>
      <trkpt lat="9.8438120" lon="-83.9794940">
        <ele>1396.1</ele>
        <time>2022-10-21T13:16:25Z</time>
      </trkpt>
      <trkpt lat="9.8437940" lon="-83.9794200">
        <ele>1396.0</ele>
        <time>2022-10-21T13:16:26Z</time>
      </trkpt>
      <trkpt lat="9.8437770" lon="-83.9793460">
        <ele>1395.9</ele>
        <time>2022-10-21T13:16:27Z</time>
      </trkpt>
      <trkpt lat="9.8437580" lon="-83.9792720">
        <ele>1395.8</ele>
        <time>2022-10-21T13:16:28Z</time>
      </trkpt>
      <trkpt lat="9.8437390" lon="-83.9791980">
        <ele>1395.6</ele>
        <time>2022-10-21T13:16:29Z</time>
      </trkpt>
      <trkpt lat="9.8437200" lon="-83.9791240">
        <ele>1395.5</ele>
        <time>2022-10-21T13:16:30Z</time>
      </trkpt>
      <trkpt lat="9.8437000" lon="-83.9790500">
        <ele>1395.4</ele>
        <time>2022-10-21T13:16:31Z</time>
      </trkpt>
      <trkpt lat="9.8436790" lon="-83.9789770">
        <ele>1395.3</ele>
        <time>2022-10-21T13:16:32Z</time>
      </trkpt>
      <trkpt lat="9.8436590" lon="-83.9789050">
        <ele>1395.3</ele>
        <time>2022-10-21T13:16:33Z</time>
      </trkpt>
      <trkpt lat="9.8436380" lon="-83.9788330">
        <ele>1395.2</ele>
        <time>2022-10-21T13:16:34Z</time>
      </trkpt>
      <trkpt lat="9.8436180" lon="-83.9787620">
        <ele>1395.2</ele>
        <time>2022-10-21T13:16:35Z</time>
      </trkpt>
      <trkpt lat="9.8435980" lon="-83.9786900">
        <ele>1395.1</ele>
        <time>2022-10-21T13:16:36Z</time>
      </trkpt>
      <trkpt lat="9.8435780" lon="-83.9786190">
        <ele>1395.0</ele>
        <time>2022-10-21T13:16:37Z</time>
      </trkpt>
      <trkpt lat="9.8435580" lon="-83.9785480">
        <ele>1394.9</ele>
        <time>2022-10-21T13:16:38Z</time>
      </trkpt>
      <trkpt lat="9.8435380" lon="-83.9784760">
        <ele>1394.8</ele>
        <time>2022-10-21T13:16:39Z</time>
      </trkpt>
      <trkpt lat="9.8435180" lon="-83.9784050">
        <ele>1394.8</ele>
        <time>2022-10-21T13:16:40Z</time>
      </trkpt>
      <trkpt lat="9.8434980" lon="-83.9783330">
        <ele>1394.7</ele>
        <time>2022-10-21T13:16:41Z</time>
      </trkpt>
      <trkpt lat="9.8434780" lon="-83.9782610">
        <ele>1394.6</ele>
        <time>2022-10-21T13:16:42Z</time>
      </trkpt>
      <trkpt lat="9.8434580" lon="-83.9781890">
        <ele>1394.6</ele>
        <time>2022-10-21T13:16:43Z</time>
      </trkpt>
      <trkpt lat="9.8434380" lon="-83.9781160">
        <ele>1394.5</ele>
        <time>2022-10-21T13:16:44Z</time>
      </trkpt>
      <trkpt lat="9.8434180" lon="-83.9780430">
        <ele>1394.4</ele>
        <time>2022-10-21T13:16:45Z</time>
      </trkpt>
      <trkpt lat="9.8433980" lon="-83.9779700">
        <ele>1394.3</ele>
        <time>2022-10-21T13:16:46Z</time>
      </trkpt>
      <trkpt lat="9.8433780" lon="-83.9778960">
        <ele>1394.2</ele>
        <time>2022-10-21T13:16:47Z</time>
      </trkpt>
      <trkpt lat="9.8433570" lon="-83.9778220">
        <ele>1394.1</ele>
        <time>2022-10-21T13:16:48Z</time>
      </trkpt>
      <trkpt lat="9.8433370" lon="-83.9777470">
        <ele>1394.1</ele>
        <time>2022-10-21T13:16:49Z</time>
      </trkpt>
      <trkpt lat="9.8433180" lon="-83.9776720">
        <ele>1394.0</ele>
        <time>2022-10-21T13:16:50Z</time>
      </trkpt>
      <trkpt lat="9.8432980" lon="-83.9775980">
        <ele>1394.0</ele>
        <time>2022-10-21T13:16:51Z</time>
      </trkpt>
      <trkpt lat="9.8432790" lon="-83.9775230">
        <ele>1393.9</ele>
        <time>2022-10-21T13:16:52Z</time>
      </trkpt>
      <trkpt lat="9.8432610" lon="-83.9774470">
        <ele>1393.9</ele>
        <time>2022-10-21T13:16:53Z</time>
      </trkpt>
      <trkpt lat="9.8432440" lon="-83.9773720">
        <ele>1393.8</ele>
        <time>2022-10-21T13:16:54Z</time>
      </trkpt>
      <trkpt lat="9.8432280" lon="-83.9772960">
        <ele>1393.8</ele>
        <time>2022-10-21T13:16:55Z</time>
      </trkpt>
      <trkpt lat="9.8432140" lon="-83.9772210">
        <ele>1393.7</ele>
        <time>2022-10-21T13:16:56Z</time>
      </trkpt>
      <trkpt lat="9.8432000" lon="-83.9771460">
        <ele>1393.7</ele>
        <time>2022-10-21T13:16:57Z</time>
      </trkpt>
      <trkpt lat="9.8431880" lon="-83.9770710">
        <ele>1393.6</ele>
        <time>2022-10-21T13:16:58Z</time>
      </trkpt>
      <trkpt lat="9.8431770" lon="-83.9769970">
        <ele>1393.6</ele>
        <time>2022-10-21T13:16:59Z</time>
      </trkpt>
      <trkpt lat="9.8431650" lon="-83.9769240">
        <ele>1393.5</ele>
        <time>2022-10-21T13:17:00Z</time>
      </trkpt>
      <trkpt lat="9.8431510" lon="-83.9768520">
        <ele>1393.4</ele>
        <time>2022-10-21T13:17:01Z</time>
      </trkpt>
      <trkpt lat="9.8431330" lon="-83.9767830">
        <ele>1393.3</ele>
        <time>2022-10-21T13:17:02Z</time>
      </trkpt>
      <trkpt lat="9.8431120" lon="-83.9767190">
        <ele>1393.3</ele>
        <time>2022-10-21T13:17:03Z</time>
      </trkpt>
      <trkpt lat="9.8430870" lon="-83.9766620">
        <ele>1393.3</ele>
        <time>2022-10-21T13:17:04Z</time>
      </trkpt>
      <trkpt lat="9.8430570" lon="-83.9766140">
        <ele>1393.3</ele>
        <time>2022-10-21T13:17:05Z</time>
      </trkpt>
      <trkpt lat="9.8430230" lon="-83.9765740">
        <ele>1393.3</ele>
        <time>2022-10-21T13:17:06Z</time>
      </trkpt>
      <trkpt lat="9.8429860" lon="-83.9765450">
        <ele>1393.2</ele>
        <time>2022-10-21T13:17:07Z</time>
      </trkpt>
      <trkpt lat="9.8429440" lon="-83.9765240">
        <ele>1393.3</ele>
        <time>2022-10-21T13:17:08Z</time>
      </trkpt>
      <trkpt lat="9.8428980" lon="-83.9765120">
        <ele>1393.3</ele>
        <time>2022-10-21T13:17:09Z</time>
      </trkpt>
      <trkpt lat="9.8428490" lon="-83.9765070">
        <ele>1393.3</ele>
        <time>2022-10-21T13:17:10Z</time>
      </trkpt>
      <trkpt lat="9.8427960" lon="-83.9765090">
        <ele>1393.3</ele>
        <time>2022-10-21T13:17:11Z</time>
      </trkpt>
      <trkpt lat="9.8427440" lon="-83.9765170">
        <ele>1393.3</ele>
        <time>2022-10-21T13:17:12Z</time>
      </trkpt>
      <trkpt lat="9.8426900" lon="-83.9765300">
        <ele>1393.3</ele>
        <time>2022-10-21T13:17:13Z</time>
      </trkpt>
      <trkpt lat="9.8426360" lon="-83.9765450">
        <ele>1393.3</ele>
        <time>2022-10-21T13:17:14Z</time>
      </trkpt>
      <trkpt lat="9.8425830" lon="-83.9765610">
        <ele>1393.3</ele>
        <time>2022-10-21T13:17:15Z</time>
      </trkpt>
      <trkpt lat="9.8425300" lon="-83.9765760">
        <ele>1393.3</ele>
        <time>2022-10-21T13:17:16Z</time>
      </trkpt>
      <trkpt lat="9.8424760" lon="-83.9765900">
        <ele>1393.3</ele>
        <time>2022-10-21T13:17:17Z</time>
      </trkpt>
      <trkpt lat="9.8424220" lon="-83.9766020">
        <ele>1393.3</ele>
        <time>2022-10-21T13:17:18Z</time>
      </trkpt>
      <trkpt lat="9.8423680" lon="-83.9766120">
        <ele>1393.3</ele>
        <time>2022-10-21T13:17:19Z</time>
      </trkpt>
      <trkpt lat="9.8423130" lon="-83.9766210">
        <ele>1393.2</ele>
        <time>2022-10-21T13:17:20Z</time>
      </trkpt>
      <trkpt lat="9.8422560" lon="-83.9766300">
        <ele>1393.2</ele>
        <time>2022-10-21T13:17:21Z</time>
      </trkpt>
      <trkpt lat="9.8421990" lon="-83.9766390">
        <ele>1393.2</ele>
        <time>2022-10-21T13:17:22Z</time>
      </trkpt>
      <trkpt lat="9.8421420" lon="-83.9766480">
        <ele>1393.2</ele>
        <time>2022-10-21T13:17:23Z</time>
      </trkpt>
      <trkpt lat="9.8420840" lon="-83.9766580">
        <ele>1393.2</ele>
        <time>2022-10-21T13:17:24Z</time>
      </trkpt>
      <trkpt lat="9.8420260" lon="-83.9766680">
        <ele>1393.2</ele>
        <time>2022-10-21T13:17:25Z</time>
      </trkpt>
      <trkpt lat="9.8419680" lon="-83.9766770">
        <ele>1393.2</ele>
        <time>2022-10-21T13:17:26Z</time>
      </trkpt>
      <trkpt lat="9.8419100" lon="-83.9766870">
        <ele>1393.2</ele>
        <time>2022-10-21T13:17:27Z</time>
      </trkpt>
      <trkpt lat="9.8418520" lon="-83.9766970">
        <ele>1393.2</ele>
        <time>2022-10-21T13:17:28Z</time>
      </trkpt>
      <trkpt lat="9.8417940" lon="-83.9767070">
        <ele>1393.2</ele>
        <time>2022-10-21T13:17:29Z</time>
      </trkpt>
      <trkpt lat="9.8417360" lon="-83.9767170">
        <ele>1393.2</ele>
        <time>2022-10-21T13:17:30Z</time>
      </trkpt>
      <trkpt lat="9.8416770" lon="-83.9767290">
        <ele>1393.2</ele>
        <time>2022-10-21T13:17:31Z</time>
      </trkpt>
      <trkpt lat="9.8416190" lon="-83.9767410">
        <ele>1393.3</ele>
        <time>2022-10-21T13:17:32Z</time>
      </trkpt>
      <trkpt lat="9.8415610" lon="-83.9767540">
        <ele>1393.3</ele>
        <time>2022-10-21T13:17:33Z</time>
      </trkpt>
      <trkpt lat="9.8415030" lon="-83.9767670">
        <ele>1393.3</ele>
        <time>2022-10-21T13:17:34Z</time>
      </trkpt>
      <trkpt lat="9.8414460" lon="-83.9767800">
        <ele>1393.3</ele>
        <time>2022-10-21T13:17:35Z</time>
      </trkpt>
      <trkpt lat="9.8413900" lon="-83.9767940">
        <ele>1393.3</ele>
        <time>2022-10-21T13:17:36Z</time>
      </trkpt>
      <trkpt lat="9.8413330" lon="-83.9768080">
        <ele>1393.4</ele>
        <time>2022-10-21T13:17:37Z</time>
      </trkpt>
      <trkpt lat="9.8412770" lon="-83.9768220">
        <ele>1393.5</ele>
        <time>2022-10-21T13:17:38Z</time>
      </trkpt>
      <trkpt lat="9.8412220" lon="-83.9768350">
        <ele>1393.6</ele>
        <time>2022-10-21T13:17:39Z</time>
      </trkpt>
      <trkpt lat="9.8411680" lon="-83.9768430">
        <ele>1393.7</ele>
        <time>2022-10-21T13:17:40Z</time>
      </trkpt>
      <trkpt lat="9.8411160" lon="-83.9768470">
        <ele>1393.8</ele>
        <time>2022-10-21T13:17:41Z</time>
      </trkpt>
      <trkpt lat="9.8410690" lon="-83.9768430">
        <ele>1393.8</ele>
        <time>2022-10-21T13:17:42Z</time>
      </trkpt>
      <trkpt lat="9.8410270" lon="-83.9768310">
        <ele>1393.9</ele>
        <time>2022-10-21T13:17:43Z</time>
      </trkpt>
      <trkpt lat="9.8409920" lon="-83.9768120">
        <ele>1394.0</ele>
        <time>2022-10-21T13:17:44Z</time>
      </trkpt>
      <trkpt lat="9.8409620" lon="-83.9767850">
        <ele>1393.8</ele>
        <time>2022-10-21T13:17:45Z</time>
      </trkpt>
      <trkpt lat="9.8409390" lon="-83.9767510">
        <ele>1393.6</ele>
        <time>2022-10-21T13:17:46Z</time>
      </trkpt>
      <trkpt lat="9.8409220" lon="-83.9767090">
        <ele>1393.4</ele>
        <time>2022-10-21T13:17:47Z</time>
      </trkpt>
      <trkpt lat="9.8409110" lon="-83.9766610">
        <ele>1393.2</ele>
        <time>2022-10-21T13:17:48Z</time>
      </trkpt>
      <trkpt lat="9.8409060" lon="-83.9766050">
        <ele>1392.9</ele>
        <time>2022-10-21T13:17:49Z</time>
      </trkpt>
      <trkpt lat="9.8409050" lon="-83.9765450">
        <ele>1392.8</ele>
        <time>2022-10-21T13:17:50Z</time>
      </trkpt>
      <trkpt lat="9.8409100" lon="-83.9764830">
        <ele>1392.6</ele>
        <time>2022-10-21T13:17:51Z</time>
      </trkpt>
      <trkpt lat="9.8409170" lon="-83.9764220">
        <ele>1392.5</ele>
        <time>2022-10-21T13:17:52Z</time>
      </trkpt>
      <trkpt lat="9.8409270" lon="-83.9763610">
        <ele>1392.4</ele>
        <time>2022-10-21T13:17:53Z</time>
      </trkpt>
      <trkpt lat="9.8409360" lon="-83.9763010">
        <ele>1392.3</ele>
        <time>2022-10-21T13:17:54Z</time>
      </trkpt>
      <trkpt lat="9.8409450" lon="-83.9762420">
        <ele>1392.2</ele>
        <time>2022-10-21T13:17:55Z</time>
      </trkpt>
      <trkpt lat="9.8409530" lon="-83.9761840">
        <ele>1392.1</ele>
        <time>2022-10-21T13:17:56Z</time>
      </trkpt>
      <trkpt lat="9.8409610" lon="-83.9761270">
        <ele>1392.1</ele>
        <time>2022-10-21T13:17:57Z</time>
      </trkpt>
      <trkpt lat="9.8409680" lon="-83.9760710">
        <ele>1392.1</ele>
        <time>2022-10-21T13:17:58Z</time>
      </trkpt>
      <trkpt lat="9.8409760" lon="-83.9760140">
        <ele>1392.0</ele>
        <time>2022-10-21T13:17:59Z</time>
      </trkpt>
      <trkpt lat="9.8409840" lon="-83.9759570">
        <ele>1392.0</ele>
        <time>2022-10-21T13:18:00Z</time>
      </trkpt>
      <trkpt lat="9.8409930" lon="-83.9759000">
        <ele>1392.0</ele>
        <time>2022-10-21T13:18:01Z</time>
      </trkpt>
      <trkpt lat="9.8410030" lon="-83.9758410">
        <ele>1392.0</ele>
        <time>2022-10-21T13:18:02Z</time>
      </trkpt>
      <trkpt lat="9.8410130" lon="-83.9757800">
        <ele>1391.9</ele>
        <time>2022-10-21T13:18:03Z</time>
      </trkpt>
      <trkpt lat="9.8410230" lon="-83.9757160">
        <ele>1391.8</ele>
        <time>2022-10-21T13:18:04Z</time>
      </trkpt>
      <trkpt lat="9.8410320" lon="-83.9756520">
        <ele>1391.7</ele>
        <time>2022-10-21T13:18:05Z</time>
      </trkpt>
      <trkpt lat="9.8410420" lon="-83.9755860">
        <ele>1391.5</ele>
        <time>2022-10-21T13:18:06Z</time>
      </trkpt>
      <trkpt lat="9.8410500" lon="-83.9755200">
        <ele>1391.4</ele>
        <time>2022-10-21T13:18:07Z</time>
      </trkpt>
      <trkpt lat="9.8410590" lon="-83.9754540">
        <ele>1391.4</ele>
        <time>2022-10-21T13:18:08Z</time>
      </trkpt>
      <trkpt lat="9.8410670" lon="-83.9753870">
        <ele>1391.3</ele>
        <time>2022-10-21T13:18:09Z</time>
      </trkpt>
      <trkpt lat="9.8410750" lon="-83.9753210">
        <ele>1391.2</ele>
        <time>2022-10-21T13:18:10Z</time>
      </trkpt>
      <trkpt lat="9.8410820" lon="-83.9752540">
        <ele>1391.2</ele>
        <time>2022-10-21T13:18:11Z</time>
      </trkpt>
      <trkpt lat="9.8410890" lon="-83.9751880">
        <ele>1391.1</ele>
        <time>2022-10-21T13:18:12Z</time>
      </trkpt>
      <trkpt lat="9.8410960" lon="-83.9751230">
        <ele>1391.1</ele>
        <time>2022-10-21T13:18:13Z</time>
      </trkpt>
      <trkpt lat="9.8411020" lon="-83.9750580">
        <ele>1391.1</ele>
        <time>2022-10-21T13:18:14Z</time>
      </trkpt>
      <trkpt lat="9.8411080" lon="-83.9749940">
        <ele>1391.1</ele>
        <time>2022-10-21T13:18:15Z</time>
      </trkpt>
      <trkpt lat="9.8411140" lon="-83.9749300">
        <ele>1391.0</ele>
        <time>2022-10-21T13:18:16Z</time>
      </trkpt>
      <trkpt lat="9.8411190" lon="-83.9748660">
        <ele>1391.0</ele>
        <time>2022-10-21T13:18:17Z</time>
      </trkpt>
      <trkpt lat="9.8411240" lon="-83.9748020">
        <ele>1391.0</ele>
        <time>2022-10-21T13:18:18Z</time>
      </trkpt>
      <trkpt lat="9.8411290" lon="-83.9747380">
        <ele>1390.9</ele>
        <time>2022-10-21T13:18:19Z</time>
      </trkpt>
      <trkpt lat="9.8411320" lon="-83.9746740">
        <ele>1390.9</ele>
        <time>2022-10-21T13:18:20Z</time>
      </trkpt>
      <trkpt lat="9.8411340" lon="-83.9746090">
        <ele>1390.9</ele>
        <time>2022-10-21T13:18:21Z</time>
      </trkpt>
      <trkpt lat="9.8411360" lon="-83.9745430">
        <ele>1390.9</ele>
        <time>2022-10-21T13:18:22Z</time>
      </trkpt>
      <trkpt lat="9.8411360" lon="-83.9744780">
        <ele>1390.9</ele>
        <time>2022-10-21T13:18:23Z</time>
      </trkpt>
      <trkpt lat="9.8411360" lon="-83.9744120">
        <ele>1390.9</ele>
        <time>2022-10-21T13:18:24Z</time>
      </trkpt>
      <trkpt lat="9.8411340" lon="-83.9743450">
        <ele>1390.8</ele>
        <time>2022-10-21T13:18:25Z</time>
      </trkpt>
      <trkpt lat="9.8411310" lon="-83.9742790">
        <ele>1390.8</ele>
        <time>2022-10-21T13:18:26Z</time>
      </trkpt>
      <trkpt lat="9.8411270" lon="-83.9742120">
        <ele>1390.7</ele>
        <time>2022-10-21T13:18:27Z</time>
      </trkpt>
      <trkpt lat="9.8411210" lon="-83.9741460">
        <ele>1390.6</ele>
        <time>2022-10-21T13:18:28Z</time>
      </trkpt>
      <trkpt lat="9.8411150" lon="-83.9740800">
        <ele>1390.6</ele>
        <time>2022-10-21T13:18:29Z</time>
      </trkpt>
      <trkpt lat="9.8411060" lon="-83.9740130">
        <ele>1390.5</ele>
        <time>2022-10-21T13:18:30Z</time>
      </trkpt>
      <trkpt lat="9.8410960" lon="-83.9739470">
        <ele>1390.4</ele>
        <time>2022-10-21T13:18:31Z</time>
      </trkpt>
      <trkpt lat="9.8410850" lon="-83.9738810">
        <ele>1390.3</ele>
        <time>2022-10-21T13:18:32Z</time>
      </trkpt>
      <trkpt lat="9.8410720" lon="-83.9738150">
        <ele>1390.2</ele>
        <time>2022-10-21T13:18:33Z</time>
      </trkpt>
      <trkpt lat="9.8410580" lon="-83.9737500">
        <ele>1390.1</ele>
        <time>2022-10-21T13:18:34Z</time>
      </trkpt>
      <trkpt lat="9.8410440" lon="-83.9736850">
        <ele>1390.1</ele>
        <time>2022-10-21T13:18:35Z</time>
      </trkpt>
      <trkpt lat="9.8410280" lon="-83.9736190">
        <ele>1390.0</ele>
        <time>2022-10-21T13:18:36Z</time>
      </trkpt>
      <trkpt lat="9.8410120" lon="-83.9735540">
        <ele>1389.9</ele>
        <time>2022-10-21T13:18:37Z</time>
      </trkpt>
      <trkpt lat="9.8409950" lon="-83.9734880">
        <ele>1389.9</ele>
        <time>2022-10-21T13:18:38Z</time>
      </trkpt>
      <trkpt lat="9.8409790" lon="-83.9734230">
        <ele>1389.9</ele>
        <time>2022-10-21T13:18:39Z</time>
      </trkpt>
      <trkpt lat="9.8409630" lon="-83.9733580">
        <ele>1389.8</ele>
        <time>2022-10-21T13:18:40Z</time>
      </trkpt>
      <trkpt lat="9.8409470" lon="-83.9732930">
        <ele>1389.8</ele>
        <time>2022-10-21T13:18:41Z</time>
      </trkpt>
      <trkpt lat="9.8409310" lon="-83.9732280">
        <ele>1389.8</ele>
        <time>2022-10-21T13:18:42Z</time>
      </trkpt>
      <trkpt lat="9.8409150" lon="-83.9731640">
        <ele>1389.8</ele>
        <time>2022-10-21T13:18:43Z</time>
      </trkpt>
      <trkpt lat="9.8408990" lon="-83.9730990">
        <ele>1389.7</ele>
        <time>2022-10-21T13:18:44Z</time>
      </trkpt>
      <trkpt lat="9.8408820" lon="-83.9730340">
        <ele>1389.7</ele>
        <time>2022-10-21T13:18:45Z</time>
      </trkpt>
      <trkpt lat="9.8408660" lon="-83.9729690">
        <ele>1389.6</ele>
        <time>2022-10-21T13:18:46Z</time>
      </trkpt>
      <trkpt lat="9.8408490" lon="-83.9729040">
        <ele>1389.5</ele>
        <time>2022-10-21T13:18:47Z</time>
      </trkpt>
      <trkpt lat="9.8408320" lon="-83.9728400">
        <ele>1389.5</ele>
        <time>2022-10-21T13:18:48Z</time>
      </trkpt>
      <trkpt lat="9.8408140" lon="-83.9727760">
        <ele>1389.4</ele>
        <time>2022-10-21T13:18:49Z</time>
      </trkpt>
      <trkpt lat="9.8407970" lon="-83.9727120">
        <ele>1389.4</ele>
        <time>2022-10-21T13:18:50Z</time>
      </trkpt>
      <trkpt lat="9.8407790" lon="-83.9726490">
        <ele>1389.4</ele>
        <time>2022-10-21T13:18:51Z</time>
      </trkpt>
      <trkpt lat="9.8407610" lon="-83.9725860">
        <ele>1389.3</ele>
        <time>2022-10-21T13:18:52Z</time>
      </trkpt>
      <trkpt lat="9.8407440" lon="-83.9725240">
        <ele>1389.3</ele>
        <time>2022-10-21T13:18:53Z</time>
      </trkpt>
      <trkpt lat="9.8407260" lon="-83.9724620">
        <ele>1389.3</ele>
        <time>2022-10-21T13:18:54Z</time>
      </trkpt>
      <trkpt lat="9.8407080" lon="-83.9724010">
        <ele>1389.2</ele>
        <time>2022-10-21T13:18:55Z</time>
      </trkpt>
      <trkpt lat="9.8406910" lon="-83.9723400">
        <ele>1389.2</ele>
        <time>2022-10-21T13:18:56Z</time>
      </trkpt>
      <trkpt lat="9.8406730" lon="-83.9722800">
        <ele>1389.2</ele>
        <time>2022-10-21T13:18:57Z</time>
      </trkpt>
      <trkpt lat="9.8406560" lon="-83.9722190">
        <ele>1389.1</ele>
        <time>2022-10-21T13:18:58Z</time>
      </trkpt>
      <trkpt lat="9.8406390" lon="-83.9721590">
        <ele>1389.1</ele>
        <time>2022-10-21T13:18:59Z</time>
      </trkpt>
      <trkpt lat="9.8406210" lon="-83.9720990">
        <ele>1389.1</ele>
        <time>2022-10-21T13:19:00Z</time>
      </trkpt>
      <trkpt lat="9.8406040" lon="-83.9720380">
        <ele>1389.0</ele>
        <time>2022-10-21T13:19:01Z</time>
      </trkpt>
      <trkpt lat="9.8405870" lon="-83.9719780">
        <ele>1389.0</ele>
        <time>2022-10-21T13:19:02Z</time>
      </trkpt>
      <trkpt lat="9.8405700" lon="-83.9719170">
        <ele>1388.9</ele>
        <time>2022-10-21T13:19:03Z</time>
      </trkpt>
      <trkpt lat="9.8405540" lon="-83.9718570">
        <ele>1388.9</ele>
        <time>2022-10-21T13:19:04Z</time>
      </trkpt>
      <trkpt lat="9.8405380" lon="-83.9717950">
        <ele>1388.8</ele>
        <time>2022-10-21T13:19:05Z</time>
      </trkpt>
      <trkpt lat="9.8405220" lon="-83.9717340">
        <ele>1388.8</ele>
        <time>2022-10-21T13:19:06Z</time>
      </trkpt>
      <trkpt lat="9.8405050" lon="-83.9716720">
        <ele>1388.7</ele>
        <time>2022-10-21T13:19:07Z</time>
      </trkpt>
      <trkpt lat="9.8404880" lon="-83.9716100">
        <ele>1388.6</ele>
        <time>2022-10-21T13:19:08Z</time>
      </trkpt>
      <trkpt lat="9.8404690" lon="-83.9715490">
        <ele>1388.5</ele>
        <time>2022-10-21T13:19:09Z</time>
      </trkpt>
      <trkpt lat="9.8404490" lon="-83.9714880">
        <ele>1388.5</ele>
        <time>2022-10-21T13:19:10Z</time>
      </trkpt>
      <trkpt lat="9.8404280" lon="-83.9714280">
        <ele>1388.5</ele>
        <time>2022-10-21T13:19:11Z</time>
      </trkpt>
      <trkpt lat="9.8404060" lon="-83.9713690">
        <ele>1388.5</ele>
        <time>2022-10-21T13:19:12Z</time>
      </trkpt>
      <trkpt lat="9.8403820" lon="-83.9713090">
        <ele>1388.5</ele>
        <time>2022-10-21T13:19:13Z</time>
      </trkpt>
      <trkpt lat="9.8403570" lon="-83.9712500">
        <ele>1388.6</ele>
        <time>2022-10-21T13:19:14Z</time>
      </trkpt>
      <trkpt lat="9.8403300" lon="-83.9711910">
        <ele>1388.6</ele>
        <time>2022-10-21T13:19:15Z</time>
      </trkpt>
      <trkpt lat="9.8403020" lon="-83.9711330">
        <ele>1388.6</ele>
        <time>2022-10-21T13:19:16Z</time>
      </trkpt>
      <trkpt lat="9.8402730" lon="-83.9710760">
        <ele>1388.7</ele>
        <time>2022-10-21T13:19:17Z</time>
      </trkpt>
      <trkpt lat="9.8402430" lon="-83.9710190">
        <ele>1388.7</ele>
        <time>2022-10-21T13:19:18Z</time>
      </trkpt>
      <trkpt lat="9.8402120" lon="-83.9709630">
        <ele>1388.8</ele>
        <time>2022-10-21T13:19:19Z</time>
      </trkpt>
      <trkpt lat="9.8401810" lon="-83.9709080">
        <ele>1388.8</ele>
        <time>2022-10-21T13:19:20Z</time>
      </trkpt>
      <trkpt lat="9.8401490" lon="-83.9708530">
        <ele>1388.8</ele>
        <time>2022-10-21T13:19:21Z</time>
      </trkpt>
      <trkpt lat="9.8401180" lon="-83.9707980">
        <ele>1388.9</ele>
        <time>2022-10-21T13:19:22Z</time>
      </trkpt>
      <trkpt lat="9.8400870" lon="-83.9707440">
        <ele>1388.9</ele>
        <time>2022-10-21T13:19:23Z</time>
      </trkpt>
      <trkpt lat="9.8400550" lon="-83.9706910">
        <ele>1388.9</ele>
        <time>2022-10-21T13:19:24Z</time>
      </trkpt>
      <trkpt lat="9.8400230" lon="-83.9706380">
        <ele>1389.0</ele>
        <time>2022-10-21T13:19:25Z</time>
      </trkpt>
      <trkpt lat="9.8399910" lon="-83.9705860">
        <ele>1389.0</ele>
        <time>2022-10-21T13:19:26Z</time>
      </trkpt>
      <trkpt lat="9.8399590" lon="-83.9705350">
        <ele>1389.1</ele>
        <time>2022-10-21T13:19:27Z</time>
      </trkpt>
      <trkpt lat="9.8399260" lon="-83.9704840">
        <ele>1389.1</ele>
        <time>2022-10-21T13:19:28Z</time>
      </trkpt>
      <trkpt lat="9.8398920" lon="-83.9704340">
        <ele>1389.2</ele>
        <time>2022-10-21T13:19:29Z</time>
      </trkpt>
      <trkpt lat="9.8398580" lon="-83.9703840">
        <ele>1389.2</ele>
        <time>2022-10-21T13:19:30Z</time>
      </trkpt>
      <trkpt lat="9.8398230" lon="-83.9703340">
        <ele>1389.2</ele>
        <time>2022-10-21T13:19:31Z</time>
      </trkpt>
      <trkpt lat="9.8397890" lon="-83.9702850">
        <ele>1389.3</ele>
        <time>2022-10-21T13:19:32Z</time>
      </trkpt>
      <trkpt lat="9.8397530" lon="-83.9702360">
        <ele>1389.3</ele>
        <time>2022-10-21T13:19:33Z</time>
      </trkpt>
      <trkpt lat="9.8397170" lon="-83.9701880">
        <ele>1389.3</ele>
        <time>2022-10-21T13:19:34Z</time>
      </trkpt>
      <trkpt lat="9.8396810" lon="-83.9701410">
        <ele>1389.3</ele>
        <time>2022-10-21T13:19:35Z</time>
      </trkpt>
      <trkpt lat="9.8396440" lon="-83.9700940">
        <ele>1389.4</ele>
        <time>2022-10-21T13:19:36Z</time>
      </trkpt>
      <trkpt lat="9.8396070" lon="-83.9700490">
        <ele>1389.5</ele>
        <time>2022-10-21T13:19:37Z</time>
      </trkpt>
      <trkpt lat="9.8395700" lon="-83.9700040">
        <ele>1389.6</ele>
        <time>2022-10-21T13:19:38Z</time>
      </trkpt>
      <trkpt lat="9.8395340" lon="-83.9699600">
        <ele>1389.8</ele>
        <time>2022-10-21T13:19:39Z</time>
      </trkpt>
      <trkpt lat="9.8394980" lon="-83.9699170">
        <ele>1389.9</ele>
        <time>2022-10-21T13:19:40Z</time>
      </trkpt>
      <trkpt lat="9.8394620" lon="-83.9698760">
        <ele>1390.1</ele>
        <time>2022-10-21T13:19:41Z</time>
      </trkpt>
      <trkpt lat="9.8394280" lon="-83.9698370">
        <ele>1390.3</ele>
        <time>2022-10-21T13:19:42Z</time>
      </trkpt>
      <trkpt lat="9.8393940" lon="-83.9697990">
        <ele>1390.5</ele>
        <time>2022-10-21T13:19:43Z</time>
      </trkpt>
      <trkpt lat="9.8393610" lon="-83.9697620">
        <ele>1390.7</ele>
        <time>2022-10-21T13:19:44Z</time>
      </trkpt>
      <trkpt lat="9.8393290" lon="-83.9697250">
        <ele>1390.9</ele>
        <time>2022-10-21T13:19:45Z</time>
      </trkpt>
      <trkpt lat="9.8392970" lon="-83.9696900">
        <ele>1391.0</ele>
        <time>2022-10-21T13:19:46Z</time>
      </trkpt>
      <trkpt lat="9.8392660" lon="-83.9696550">
        <ele>1391.0</ele>
        <time>2022-10-21T13:19:47Z</time>
      </trkpt>
      <trkpt lat="9.8392350" lon="-83.9696210">
        <ele>1391.0</ele>
        <time>2022-10-21T13:19:48Z</time>
      </trkpt>
      <trkpt lat="9.8392040" lon="-83.9695870">
        <ele>1391.0</ele>
        <time>2022-10-21T13:19:49Z</time>
      </trkpt>
      <trkpt lat="9.8391720" lon="-83.9695530">
        <ele>1391.0</ele>
        <time>2022-10-21T13:19:50Z</time>
      </trkpt>
      <trkpt lat="9.8391380" lon="-83.9695190">
        <ele>1390.9</ele>
        <time>2022-10-21T13:19:51Z</time>
      </trkpt>
      <trkpt lat="9.8391030" lon="-83.9694830">
        <ele>1390.7</ele>
        <time>2022-10-21T13:19:52Z</time>
      </trkpt>
      <trkpt lat="9.8390670" lon="-83.9694460">
        <ele>1390.5</ele>
        <time>2022-10-21T13:19:53Z</time>
      </trkpt>
      <trkpt lat="9.8390300" lon="-83.9694080">
        <ele>1390.3</ele>
        <time>2022-10-21T13:19:54Z</time>
      </trkpt>
      <trkpt lat="9.8389910" lon="-83.9693680">
        <ele>1390.1</ele>
        <time>2022-10-21T13:19:55Z</time>
      </trkpt>
      <trkpt lat="9.8389510" lon="-83.9693270">
        <ele>1389.9</ele>
        <time>2022-10-21T13:19:56Z</time>
      </trkpt>
      <trkpt lat="9.8389110" lon="-83.9692850">
        <ele>1389.7</ele>
        <time>2022-10-21T13:19:57Z</time>
      </trkpt>
      <trkpt lat="9.8388690" lon="-83.9692420">
        <ele>1389.6</ele>
        <time>2022-10-21T13:19:58Z</time>
      </trkpt>
      <trkpt lat="9.8388270" lon="-83.9691970">
        <ele>1389.6</ele>
        <time>2022-10-21T13:19:59Z</time>
      </trkpt>
      <trkpt lat="9.8387840" lon="-83.9691500">
        <ele>1389.5</ele>
        <time>2022-10-21T13:20:00Z</time>
      </trkpt>
      <trkpt lat="9.8387430" lon="-83.9691010">
        <ele>1389.5</ele>
        <time>2022-10-21T13:20:01Z</time>
      </trkpt>
      <trkpt lat="9.8387020" lon="-83.9690520">
        <ele>1389.5</ele>
        <time>2022-10-21T13:20:02Z</time>
      </trkpt>
      <trkpt lat="9.8386620" lon="-83.9690010">
        <ele>1389.5</ele>
        <time>2022-10-21T13:20:03Z</time>
      </trkpt>
      <trkpt lat="9.8386230" lon="-83.9689500">
        <ele>1389.5</ele>
        <time>2022-10-21T13:20:04Z</time>
      </trkpt>
      <trkpt lat="9.8385860" lon="-83.9688970">
        <ele>1389.6</ele>
        <time>2022-10-21T13:20:05Z</time>
      </trkpt>
      <trkpt lat="9.8385490" lon="-83.9688440">
        <ele>1389.6</ele>
        <time>2022-10-21T13:20:06Z</time>
      </trkpt>
      <trkpt lat="9.8385140" lon="-83.9687900">
        <ele>1389.6</ele>
        <time>2022-10-21T13:20:07Z</time>
      </trkpt>
      <trkpt lat="9.8384790" lon="-83.9687370">
        <ele>1389.7</ele>
        <time>2022-10-21T13:20:08Z</time>
      </trkpt>
      <trkpt lat="9.8384450" lon="-83.9686840">
        <ele>1389.8</ele>
        <time>2022-10-21T13:20:09Z</time>
      </trkpt>
      <trkpt lat="9.8384120" lon="-83.9686320">
        <ele>1389.9</ele>
        <time>2022-10-21T13:20:10Z</time>
      </trkpt>
      <trkpt lat="9.8383800" lon="-83.9685800">
        <ele>1390.1</ele>
        <time>2022-10-21T13:20:11Z</time>
      </trkpt>
      <trkpt lat="9.8383490" lon="-83.9685300">
        <ele>1390.2</ele>
        <time>2022-10-21T13:20:12Z</time>
      </trkpt>
      <trkpt lat="9.8383190" lon="-83.9684810">
        <ele>1390.3</ele>
        <time>2022-10-21T13:20:13Z</time>
      </trkpt>
      <trkpt lat="9.8382900" lon="-83.9684330">
        <ele>1390.4</ele>
        <time>2022-10-21T13:20:14Z</time>
      </trkpt>
      <trkpt lat="9.8382610" lon="-83.9683860">
        <ele>1390.5</ele>
        <time>2022-10-21T13:20:15Z</time>
      </trkpt>
      <trkpt lat="9.8382330" lon="-83.9683410">
        <ele>1390.6</ele>
        <time>2022-10-21T13:20:16Z</time>
      </trkpt>
      <trkpt lat="9.8382060" lon="-83.9682970">
        <ele>1390.7</ele>
        <time>2022-10-21T13:20:17Z</time>
      </trkpt>
      <trkpt lat="9.8381800" lon="-83.9682540">
        <ele>1390.9</ele>
        <time>2022-10-21T13:20:18Z</time>
      </trkpt>
      <trkpt lat="9.8381540" lon="-83.9682120">
        <ele>1391.0</ele>
        <time>2022-10-21T13:20:19Z</time>
      </trkpt>
      <trkpt lat="9.8381290" lon="-83.9681710">
        <ele>1391.2</ele>
        <time>2022-10-21T13:20:20Z</time>
      </trkpt>
      <trkpt lat="9.8381060" lon="-83.9681300">
        <ele>1391.3</ele>
        <time>2022-10-21T13:20:21Z</time>
      </trkpt>
      <trkpt lat="9.8380830" lon="-83.9680900">
        <ele>1391.5</ele>
        <time>2022-10-21T13:20:22Z</time>
      </trkpt>
      <trkpt lat="9.8380610" lon="-83.9680500">
        <ele>1391.6</ele>
        <time>2022-10-21T13:20:23Z</time>
      </trkpt>
      <trkpt lat="9.8380400" lon="-83.9680090">
        <ele>1391.8</ele>
        <time>2022-10-21T13:20:24Z</time>
      </trkpt>
      <trkpt lat="9.8380210" lon="-83.9679680">
        <ele>1391.9</ele>
        <time>2022-10-21T13:20:25Z</time>
      </trkpt>
      <trkpt lat="9.8380040" lon="-83.9679270">
        <ele>1392.1</ele>
        <time>2022-10-21T13:20:26Z</time>
      </trkpt>
      <trkpt lat="9.8379880" lon="-83.9678850">
        <ele>1392.2</ele>
        <time>2022-10-21T13:20:27Z</time>
      </trkpt>
      <trkpt lat="9.8379740" lon="-83.9678410">
        <ele>1392.4</ele>
        <time>2022-10-21T13:20:28Z</time>
      </trkpt>
      <trkpt lat="9.8379620" lon="-83.9677960">
        <ele>1392.6</ele>
        <time>2022-10-21T13:20:29Z</time>
      </trkpt>
      <trkpt lat="9.8379510" lon="-83.9677500">
        <ele>1392.8</ele>
        <time>2022-10-21T13:20:30Z</time>
      </trkpt>
      <trkpt lat="9.8379420" lon="-83.9677080">
        <ele>1393.0</ele>
        <time>2022-10-21T13:20:31Z</time>
      </trkpt>
      <trkpt lat="9.8379350" lon="-83.9676690">
        <ele>1393.2</ele>
        <time>2022-10-21T13:20:32Z</time>
      </trkpt>
      <trkpt lat="9.8379290" lon="-83.9676330">
        <ele>1393.4</ele>
        <time>2022-10-21T13:20:33Z</time>
      </trkpt>
      <trkpt lat="9.8379250" lon="-83.9676020">
        <ele>1393.5</ele>
        <time>2022-10-21T13:20:34Z</time>
      </trkpt>
      <trkpt lat="9.8379210" lon="-83.9675550">
        <ele>1393.7</ele>
        <time>2022-10-21T13:20:35Z</time>
      </trkpt>
      <trkpt lat="9.8379180" lon="-83.9675090">
        <ele>1393.9</ele>
        <time>2022-10-21T13:20:36Z</time>
      </trkpt>
      <trkpt lat="9.8379160" lon="-83.9674630">
        <ele>1394.1</ele>
        <time>2022-10-21T13:20:37Z</time>
      </trkpt>
      <trkpt lat="9.8379140" lon="-83.9674180">
        <ele>1394.3</ele>
        <time>2022-10-21T13:20:38Z</time>
      </trkpt>
      <trkpt lat="9.8379120" lon="-83.9673740">
        <ele>1394.5</ele>
        <time>2022-10-21T13:20:39Z</time>
      </trkpt>
      <trkpt lat="9.8379110" lon="-83.9673310">
        <ele>1394.7</ele>
        <time>2022-10-21T13:20:40Z</time>
      </trkpt>
      <trkpt lat="9.8379110" lon="-83.9672880">
        <ele>1394.9</ele>
        <time>2022-10-21T13:20:41Z</time>
      </trkpt>
      <trkpt lat="9.8379110" lon="-83.9672400">
        <ele>1395.0</ele>
        <time>2022-10-21T13:20:42Z</time>
      </trkpt>
      <trkpt lat="9.8379110" lon="-83.9671880">
        <ele>1395.1</ele>
        <time>2022-10-21T13:20:43Z</time>
      </trkpt>
      <trkpt lat="9.8379110" lon="-83.9671300">
        <ele>1395.2</ele>
        <time>2022-10-21T13:20:44Z</time>
      </trkpt>
      <trkpt lat="9.8379120" lon="-83.9670680">
        <ele>1395.2</ele>
        <time>2022-10-21T13:20:45Z</time>
      </trkpt>
      <trkpt lat="9.8379140" lon="-83.9670200">
        <ele>1395.2</ele>
        <time>2022-10-21T13:20:46Z</time>
      </trkpt>
      <trkpt lat="9.8379170" lon="-83.9669700">
        <ele>1395.2</ele>
        <time>2022-10-21T13:20:47Z</time>
      </trkpt>
      <trkpt lat="9.8379200" lon="-83.9669190">
        <ele>1395.2</ele>
        <time>2022-10-21T13:20:48Z</time>
      </trkpt>
      <trkpt lat="9.8379230" lon="-83.9668670">
        <ele>1395.2</ele>
        <time>2022-10-21T13:20:49Z</time>
      </trkpt>
      <trkpt lat="9.8379260" lon="-83.9668130">
        <ele>1395.2</ele>
        <time>2022-10-21T13:20:50Z</time>
      </trkpt>
      <trkpt lat="9.8379290" lon="-83.9667590">
        <ele>1395.2</ele>
        <time>2022-10-21T13:20:51Z</time>
      </trkpt>
      <trkpt lat="9.8379330" lon="-83.9667040">
        <ele>1395.2</ele>
        <time>2022-10-21T13:20:52Z</time>
      </trkpt>
      <trkpt lat="9.8379380" lon="-83.9666490">
        <ele>1395.2</ele>
        <time>2022-10-21T13:20:53Z</time>
      </trkpt>
      <trkpt lat="9.8379440" lon="-83.9665930">
        <ele>1395.2</ele>
        <time>2022-10-21T13:20:54Z</time>
      </trkpt>
      <trkpt lat="9.8379500" lon="-83.9665380">
        <ele>1395.1</ele>
        <time>2022-10-21T13:20:55Z</time>
      </trkpt>
      <trkpt lat="9.8379560" lon="-83.9664820">
        <ele>1395.1</ele>
        <time>2022-10-21T13:20:56Z</time>
      </trkpt>
      <trkpt lat="9.8379610" lon="-83.9664250">
        <ele>1395.0</ele>
        <time>2022-10-21T13:20:57Z</time>
      </trkpt>
      <trkpt lat="9.8379650" lon="-83.9663680">
        <ele>1395.0</ele>
        <time>2022-10-21T13:20:58Z</time>
      </trkpt>
      <trkpt lat="9.8379710" lon="-83.9663110">
        <ele>1394.9</ele>
        <time>2022-10-21T13:20:59Z</time>
      </trkpt>
      <trkpt lat="9.8379770" lon="-83.9662530">
        <ele>1394.9</ele>
        <time>2022-10-21T13:21:00Z</time>
      </trkpt>
      <trkpt lat="9.8379830" lon="-83.9661930">
        <ele>1394.8</ele>
        <time>2022-10-21T13:21:01Z</time>
      </trkpt>
      <trkpt lat="9.8379900" lon="-83.9661330">
        <ele>1394.8</ele>
        <time>2022-10-21T13:21:02Z</time>
      </trkpt>
      <trkpt lat="9.8379960" lon="-83.9660700">
        <ele>1394.7</ele>
        <time>2022-10-21T13:21:03Z</time>
      </trkpt>
      <trkpt lat="9.8380010" lon="-83.9660070">
        <ele>1394.6</ele>
        <time>2022-10-21T13:21:04Z</time>
      </trkpt>
      <trkpt lat="9.8380060" lon="-83.9659420">
        <ele>1394.5</ele>
        <time>2022-10-21T13:21:05Z</time>
      </trkpt>
      <trkpt lat="9.8380120" lon="-83.9658760">
        <ele>1394.4</ele>
        <time>2022-10-21T13:21:06Z</time>
      </trkpt>
      <trkpt lat="9.8380170" lon="-83.9658100">
        <ele>1394.3</ele>
        <time>2022-10-21T13:21:07Z</time>
      </trkpt>
      <trkpt lat="9.8380240" lon="-83.9657430">
        <ele>1394.2</ele>
        <time>2022-10-21T13:21:08Z</time>
      </trkpt>
      <trkpt lat="9.8380320" lon="-83.9656750">
        <ele>1394.1</ele>
        <time>2022-10-21T13:21:09Z</time>
      </trkpt>
      <trkpt lat="9.8380400" lon="-83.9656060">
        <ele>1394.0</ele>
        <time>2022-10-21T13:21:10Z</time>
      </trkpt>
      <trkpt lat="9.8380470" lon="-83.9655370">
        <ele>1393.8</ele>
        <time>2022-10-21T13:21:11Z</time>
      </trkpt>
      <trkpt lat="9.8380550" lon="-83.9654670">
        <ele>1393.6</ele>
        <time>2022-10-21T13:21:12Z</time>
      </trkpt>
      <trkpt lat="9.8380630" lon="-83.9653970">
        <ele>1393.4</ele>
        <time>2022-10-21T13:21:13Z</time>
      </trkpt>
      <trkpt lat="9.8380710" lon="-83.9653260">
        <ele>1393.2</ele>
        <time>2022-10-21T13:21:14Z</time>
      </trkpt>
      <trkpt lat="9.8380780" lon="-83.9652540">
        <ele>1393.0</ele>
        <time>2022-10-21T13:21:15Z</time>
      </trkpt>
      <trkpt lat="9.8380840" lon="-83.9651820">
        <ele>1392.9</ele>
        <time>2022-10-21T13:21:16Z</time>
      </trkpt>
      <trkpt lat="9.8380890" lon="-83.9651100">
        <ele>1392.7</ele>
        <time>2022-10-21T13:21:17Z</time>
      </trkpt>
      <trkpt lat="9.8380920" lon="-83.9650370">
        <ele>1392.6</ele>
        <time>2022-10-21T13:21:18Z</time>
      </trkpt>
      <trkpt lat="9.8380920" lon="-83.9649630">
        <ele>1392.4</ele>
        <time>2022-10-21T13:21:19Z</time>
      </trkpt>
      <trkpt lat="9.8380910" lon="-83.9648890">
        <ele>1392.3</ele>
        <time>2022-10-21T13:21:20Z</time>
      </trkpt>
      <trkpt lat="9.8380880" lon="-83.9648140">
        <ele>1392.2</ele>
        <time>2022-10-21T13:21:21Z</time>
      </trkpt>
      <trkpt lat="9.8380850" lon="-83.9647390">
        <ele>1392.0</ele>
        <time>2022-10-21T13:21:22Z</time>
      </trkpt>
      <trkpt lat="9.8380810" lon="-83.9646640">
        <ele>1391.9</ele>
        <time>2022-10-21T13:21:23Z</time>
      </trkpt>
      <trkpt lat="9.8380760" lon="-83.9645900">
        <ele>1391.7</ele>
        <time>2022-10-21T13:21:24Z</time>
      </trkpt>
      <trkpt lat="9.8380700" lon="-83.9645170">
        <ele>1391.6</ele>
        <time>2022-10-21T13:21:25Z</time>
      </trkpt>
      <trkpt lat="9.8380630" lon="-83.9644440">
        <ele>1391.5</ele>
        <time>2022-10-21T13:21:26Z</time>
      </trkpt>
      <trkpt lat="9.8380560" lon="-83.9643730">
        <ele>1391.4</ele>
        <time>2022-10-21T13:21:27Z</time>
      </trkpt>
      <trkpt lat="9.8380490" lon="-83.9643010">
        <ele>1391.4</ele>
        <time>2022-10-21T13:21:28Z</time>
      </trkpt>
      <trkpt lat="9.8380410" lon="-83.9642310">
        <ele>1391.3</ele>
        <time>2022-10-21T13:21:29Z</time>
      </trkpt>
      <trkpt lat="9.8380330" lon="-83.9641620">
        <ele>1391.2</ele>
        <time>2022-10-21T13:21:30Z</time>
      </trkpt>
      <trkpt lat="9.8380210" lon="-83.9640950">
        <ele>1391.1</ele>
        <time>2022-10-21T13:21:31Z</time>
      </trkpt>
      <trkpt lat="9.8380050" lon="-83.9640330">
        <ele>1391.0</ele>
        <time>2022-10-21T13:21:32Z</time>
      </trkpt>
      <trkpt lat="9.8379840" lon="-83.9639780">
        <ele>1390.9</ele>
        <time>2022-10-21T13:21:33Z</time>
      </trkpt>
      <trkpt lat="9.8379580" lon="-83.9639310">
        <ele>1390.9</ele>
        <time>2022-10-21T13:21:34Z</time>
      </trkpt>
      <trkpt lat="9.8379280" lon="-83.9638930">
        <ele>1390.8</ele>
        <time>2022-10-21T13:21:35Z</time>
      </trkpt>
      <trkpt lat="9.8378930" lon="-83.9638630">
        <ele>1390.8</ele>
        <time>2022-10-21T13:21:36Z</time>
      </trkpt>
      <trkpt lat="9.8378540" lon="-83.9638410">
        <ele>1390.4</ele>
        <time>2022-10-21T13:21:37Z</time>
      </trkpt>
      <trkpt lat="9.8378110" lon="-83.9638270">
        <ele>1390.4</ele>
        <time>2022-10-21T13:21:38Z</time>
      </trkpt>
      <trkpt lat="9.8377630" lon="-83.9638200">
        <ele>1390.3</ele>
        <time>2022-10-21T13:21:39Z</time>
      </trkpt>
      <trkpt lat="9.8377130" lon="-83.9638190">
        <ele>1390.2</ele>
        <time>2022-10-21T13:21:40Z</time>
      </trkpt>
      <trkpt lat="9.8376590" lon="-83.9638250">
        <ele>1390.2</ele>
        <time>2022-10-21T13:21:41Z</time>
      </trkpt>
      <trkpt lat="9.8376040" lon="-83.9638360">
        <ele>1390.1</ele>
        <time>2022-10-21T13:21:42Z</time>
      </trkpt>
      <trkpt lat="9.8375490" lon="-83.9638520">
        <ele>1390.1</ele>
        <time>2022-10-21T13:21:43Z</time>
      </trkpt>
      <trkpt lat="9.8374940" lon="-83.9638690">
        <ele>1390.1</ele>
        <time>2022-10-21T13:21:44Z</time>
      </trkpt>
      <trkpt lat="9.8374390" lon="-83.9638860">
        <ele>1390.1</ele>
        <time>2022-10-21T13:21:45Z</time>
      </trkpt>
      <trkpt lat="9.8373850" lon="-83.9639010">
        <ele>1390.2</ele>
        <time>2022-10-21T13:21:46Z</time>
      </trkpt>
      <trkpt lat="9.8373310" lon="-83.9639150">
        <ele>1390.2</ele>
        <time>2022-10-21T13:21:47Z</time>
      </trkpt>
      <trkpt lat="9.8372770" lon="-83.9639290">
        <ele>1390.3</ele>
        <time>2022-10-21T13:21:48Z</time>
      </trkpt>
      <trkpt lat="9.8372240" lon="-83.9639430">
        <ele>1390.3</ele>
        <time>2022-10-21T13:21:49Z</time>
      </trkpt>
      <trkpt lat="9.8371720" lon="-83.9639580">
        <ele>1390.4</ele>
        <time>2022-10-21T13:21:50Z</time>
      </trkpt>
      <trkpt lat="9.8371190" lon="-83.9639740">
        <ele>1390.4</ele>
        <time>2022-10-21T13:21:51Z</time>
      </trkpt>
      <trkpt lat="9.8370660" lon="-83.9639900">
        <ele>1390.5</ele>
        <time>2022-10-21T13:21:52Z</time>
      </trkpt>
      <trkpt lat="9.8370140" lon="-83.9640070">
        <ele>1390.6</ele>
        <time>2022-10-21T13:21:53Z</time>
      </trkpt>
      <trkpt lat="9.8369620" lon="-83.9640230">
        <ele>1390.6</ele>
        <time>2022-10-21T13:21:54Z</time>
      </trkpt>
      <trkpt lat="9.8369100" lon="-83.9640390">
        <ele>1390.7</ele>
        <time>2022-10-21T13:21:55Z</time>
      </trkpt>
      <trkpt lat="9.8368590" lon="-83.9640550">
        <ele>1390.8</ele>
        <time>2022-10-21T13:21:56Z</time>
      </trkpt>
      <trkpt lat="9.8368080" lon="-83.9640700">
        <ele>1390.9</ele>
        <time>2022-10-21T13:21:57Z</time>
      </trkpt>
      <trkpt lat="9.8367590" lon="-83.9640860">
        <ele>1391.0</ele>
        <time>2022-10-21T13:21:58Z</time>
      </trkpt>
      <trkpt lat="9.8367110" lon="-83.9641010">
        <ele>1391.1</ele>
        <time>2022-10-21T13:21:59Z</time>
      </trkpt>
      <trkpt lat="9.8366650" lon="-83.9641150">
        <ele>1391.2</ele>
        <time>2022-10-21T13:22:00Z</time>
      </trkpt>
      <trkpt lat="9.8366200" lon="-83.9641290">
        <ele>1391.3</ele>
        <time>2022-10-21T13:22:01Z</time>
      </trkpt>
      <trkpt lat="9.8365750" lon="-83.9641430">
        <ele>1391.4</ele>
        <time>2022-10-21T13:22:02Z</time>
      </trkpt>
      <trkpt lat="9.8365320" lon="-83.9641560">
        <ele>1391.5</ele>
        <time>2022-10-21T13:22:03Z</time>
      </trkpt>
      <trkpt lat="9.8364900" lon="-83.9641690">
        <ele>1391.5</ele>
        <time>2022-10-21T13:22:04Z</time>
      </trkpt>
      <trkpt lat="9.8364480" lon="-83.9641810">
        <ele>1391.6</ele>
        <time>2022-10-21T13:22:05Z</time>
      </trkpt>
      <trkpt lat="9.8364080" lon="-83.9641930">
        <ele>1391.7</ele>
        <time>2022-10-21T13:22:06Z</time>
      </trkpt>
      <trkpt lat="9.8363680" lon="-83.9642060">
        <ele>1391.8</ele>
        <time>2022-10-21T13:22:07Z</time>
      </trkpt>
      <trkpt lat="9.8363290" lon="-83.9642180">
        <ele>1392.0</ele>
        <time>2022-10-21T13:22:08Z</time>
      </trkpt>
      <trkpt lat="9.8362900" lon="-83.9642310">
        <ele>1392.1</ele>
        <time>2022-10-21T13:22:09Z</time>
      </trkpt>
      <trkpt lat="9.8362510" lon="-83.9642440">
        <ele>1392.2</ele>
        <time>2022-10-21T13:22:10Z</time>
      </trkpt>
      <trkpt lat="9.8362130" lon="-83.9642560">
        <ele>1392.4</ele>
        <time>2022-10-21T13:22:11Z</time>
      </trkpt>
      <trkpt lat="9.8361750" lon="-83.9642680">
        <ele>1392.5</ele>
        <time>2022-10-21T13:22:12Z</time>
      </trkpt>
      <trkpt lat="9.8361380" lon="-83.9642800">
        <ele>1392.6</ele>
        <time>2022-10-21T13:22:13Z</time>
      </trkpt>
      <trkpt lat="9.8361010" lon="-83.9642910">
        <ele>1392.8</ele>
        <time>2022-10-21T13:22:14Z</time>
      </trkpt>
      <trkpt lat="9.8360660" lon="-83.9643020">
        <ele>1392.9</ele>
        <time>2022-10-21T13:22:15Z</time>
      </trkpt>
      <trkpt lat="9.8360320" lon="-83.9643120">
        <ele>1393.1</ele>
        <time>2022-10-21T13:22:16Z</time>
      </trkpt>
      <trkpt lat="9.8359980" lon="-83.9643220">
        <ele>1393.2</ele>
        <time>2022-10-21T13:22:17Z</time>
      </trkpt>
      <trkpt lat="9.8359650" lon="-83.9643320">
        <ele>1393.3</ele>
        <time>2022-10-21T13:22:18Z</time>
      </trkpt>
      <trkpt lat="9.8359320" lon="-83.9643410">
        <ele>1393.5</ele>
        <time>2022-10-21T13:22:19Z</time>
      </trkpt>
      <trkpt lat="9.8359000" lon="-83.9643490">
        <ele>1393.6</ele>
        <time>2022-10-21T13:22:20Z</time>
      </trkpt>
      <trkpt lat="9.8358690" lon="-83.9643560">
        <ele>1393.7</ele>
        <time>2022-10-21T13:22:21Z</time>
      </trkpt>
      <trkpt lat="9.8358390" lon="-83.9643630">
        <ele>1393.9</ele>
        <time>2022-10-21T13:22:22Z</time>
      </trkpt>
      <trkpt lat="9.8358090" lon="-83.9643700">
        <ele>1394.0</ele>
        <time>2022-10-21T13:22:23Z</time>
      </trkpt>
      <trkpt lat="9.8357800" lon="-83.9643770">
        <ele>1394.2</ele>
        <time>2022-10-21T13:22:24Z</time>
      </trkpt>
      <trkpt lat="9.8357520" lon="-83.9643830">
        <ele>1394.3</ele>
        <time>2022-10-21T13:22:25Z</time>
      </trkpt>
      <trkpt lat="9.8357240" lon="-83.9643900">
        <ele>1394.4</ele>
        <time>2022-10-21T13:22:26Z</time>
      </trkpt>
      <trkpt lat="9.8356960" lon="-83.9643960">
        <ele>1394.6</ele>
        <time>2022-10-21T13:22:27Z</time>
      </trkpt>
      <trkpt lat="9.8356700" lon="-83.9644030">
        <ele>1394.7</ele>
        <time>2022-10-21T13:22:28Z</time>
      </trkpt>
      <trkpt lat="9.8356430" lon="-83.9644100">
        <ele>1394.8</ele>
        <time>2022-10-21T13:22:29Z</time>
      </trkpt>
      <trkpt lat="9.8356170" lon="-83.9644170">
        <ele>1395.0</ele>
        <time>2022-10-21T13:22:30Z</time>
      </trkpt>
      <trkpt lat="9.8355910" lon="-83.9644250">
        <ele>1395.1</ele>
        <time>2022-10-21T13:22:31Z</time>
      </trkpt>
      <trkpt lat="9.8355650" lon="-83.9644320">
        <ele>1395.2</ele>
        <time>2022-10-21T13:22:32Z</time>
      </trkpt>
      <trkpt lat="9.8355390" lon="-83.9644400">
        <ele>1395.4</ele>
        <time>2022-10-21T13:22:33Z</time>
      </trkpt>
      <trkpt lat="9.8355130" lon="-83.9644490">
        <ele>1395.5</ele>
        <time>2022-10-21T13:22:34Z</time>
      </trkpt>
      <trkpt lat="9.8354870" lon="-83.9644570">
        <ele>1395.7</ele>
        <time>2022-10-21T13:22:35Z</time>
      </trkpt>
      <trkpt lat="9.8354600" lon="-83.9644660">
        <ele>1395.8</ele>
        <time>2022-10-21T13:22:36Z</time>
      </trkpt>
      <trkpt lat="9.8354330" lon="-83.9644740">
        <ele>1395.9</ele>
        <time>2022-10-21T13:22:37Z</time>
      </trkpt>
      <trkpt lat="9.8354060" lon="-83.9644830">
        <ele>1396.1</ele>
        <time>2022-10-21T13:22:38Z</time>
      </trkpt>
      <trkpt lat="9.8353790" lon="-83.9644920">
        <ele>1396.2</ele>
        <time>2022-10-21T13:22:39Z</time>
      </trkpt>
      <trkpt lat="9.8353510" lon="-83.9645000">
        <ele>1396.4</ele>
        <time>2022-10-21T13:22:40Z</time>
      </trkpt>
      <trkpt lat="9.8353230" lon="-83.9645090">
        <ele>1396.5</ele>
        <time>2022-10-21T13:22:41Z</time>
      </trkpt>
      <trkpt lat="9.8352940" lon="-83.9645170">
        <ele>1396.7</ele>
        <time>2022-10-21T13:22:42Z</time>
      </trkpt>
      <trkpt lat="9.8352660" lon="-83.9645260">
        <ele>1396.8</ele>
        <time>2022-10-21T13:22:43Z</time>
      </trkpt>
      <trkpt lat="9.8352370" lon="-83.9645340">
        <ele>1397.0</ele>
        <time>2022-10-21T13:22:44Z</time>
      </trkpt>
      <trkpt lat="9.8352080" lon="-83.9645420">
        <ele>1397.1</ele>
        <time>2022-10-21T13:22:45Z</time>
      </trkpt>
      <trkpt lat="9.8351780" lon="-83.9645510">
        <ele>1397.3</ele>
        <time>2022-10-21T13:22:46Z</time>
      </trkpt>
      <trkpt lat="9.8351480" lon="-83.9645610">
        <ele>1397.4</ele>
        <time>2022-10-21T13:22:47Z</time>
      </trkpt>
      <trkpt lat="9.8351170" lon="-83.9645720">
        <ele>1397.6</ele>
        <time>2022-10-21T13:22:48Z</time>
      </trkpt>
      <trkpt lat="9.8350850" lon="-83.9645830">
        <ele>1397.8</ele>
        <time>2022-10-21T13:22:49Z</time>
      </trkpt>
      <trkpt lat="9.8350530" lon="-83.9645940">
        <ele>1397.9</ele>
        <time>2022-10-21T13:22:50Z</time>
      </trkpt>
      <trkpt lat="9.8350200" lon="-83.9646070">
        <ele>1398.0</ele>
        <time>2022-10-21T13:22:51Z</time>
      </trkpt>
      <trkpt lat="9.8349870" lon="-83.9646210">
        <ele>1398.2</ele>
        <time>2022-10-21T13:22:52Z</time>
      </trkpt>
      <trkpt lat="9.8349540" lon="-83.9646360">
        <ele>1398.3</ele>
        <time>2022-10-21T13:22:53Z</time>
      </trkpt>
      <trkpt lat="9.8349200" lon="-83.9646520">
        <ele>1398.5</ele>
        <time>2022-10-21T13:22:54Z</time>
      </trkpt>
      <trkpt lat="9.8348860" lon="-83.9646690">
        <ele>1398.6</ele>
        <time>2022-10-21T13:22:55Z</time>
      </trkpt>
      <trkpt lat="9.8348510" lon="-83.9646860">
        <ele>1398.8</ele>
        <time>2022-10-21T13:22:56Z</time>
      </trkpt>
      <trkpt lat="9.8348170" lon="-83.9647040">
        <ele>1398.9</ele>
        <time>2022-10-21T13:22:57Z</time>
      </trkpt>
      <trkpt lat="9.8347830" lon="-83.9647230">
        <ele>1399.1</ele>
        <time>2022-10-21T13:22:58Z</time>
      </trkpt>
      <trkpt lat="9.8347490" lon="-83.9647420">
        <ele>1399.3</ele>
        <time>2022-10-21T13:22:59Z</time>
      </trkpt>
      <trkpt lat="9.8347160" lon="-83.9647610">
        <ele>1399.4</ele>
        <time>2022-10-21T13:23:00Z</time>
      </trkpt>
      <trkpt lat="9.8346830" lon="-83.9647810">
        <ele>1399.6</ele>
        <time>2022-10-21T13:23:01Z</time>
      </trkpt>
      <trkpt lat="9.8346500" lon="-83.9648010">
        <ele>1399.7</ele>
        <time>2022-10-21T13:23:02Z</time>
      </trkpt>
      <trkpt lat="9.8346190" lon="-83.9648210">
        <ele>1399.8</ele>
        <time>2022-10-21T13:23:03Z</time>
      </trkpt>
      <trkpt lat="9.8345880" lon="-83.9648400">
        <ele>1400.0</ele>
        <time>2022-10-21T13:23:04Z</time>
      </trkpt>
      <trkpt lat="9.8345580" lon="-83.9648590">
        <ele>1400.1</ele>
        <time>2022-10-21T13:23:05Z</time>
      </trkpt>
      <trkpt lat="9.8345280" lon="-83.9648790">
        <ele>1400.2</ele>
        <time>2022-10-21T13:23:06Z</time>
      </trkpt>
      <trkpt lat="9.8345000" lon="-83.9648990">
        <ele>1400.3</ele>
        <time>2022-10-21T13:23:07Z</time>
      </trkpt>
      <trkpt lat="9.8344710" lon="-83.9649190">
        <ele>1400.5</ele>
        <time>2022-10-21T13:23:08Z</time>
      </trkpt>
      <trkpt lat="9.8344430" lon="-83.9649390">
        <ele>1400.6</ele>
        <time>2022-10-21T13:23:09Z</time>
      </trkpt>
      <trkpt lat="9.8344150" lon="-83.9649590">
        <ele>1400.7</ele>
        <time>2022-10-21T13:23:10Z</time>
      </trkpt>
      <trkpt lat="9.8343880" lon="-83.9649780">
        <ele>1400.9</ele>
        <time>2022-10-21T13:23:11Z</time>
      </trkpt>
      <trkpt lat="9.8343610" lon="-83.9649980">
        <ele>1401.0</ele>
        <time>2022-10-21T13:23:12Z</time>
      </trkpt>
      <trkpt lat="9.8343340" lon="-83.9650170">
        <ele>1401.1</ele>
        <time>2022-10-21T13:23:13Z</time>
      </trkpt>
      <trkpt lat="9.8343080" lon="-83.9650370">
        <ele>1401.3</ele>
        <time>2022-10-21T13:23:14Z</time>
      </trkpt>
      <trkpt lat="9.8342810" lon="-83.9650570">
        <ele>1401.4</ele>
        <time>2022-10-21T13:23:15Z</time>
      </trkpt>
      <trkpt lat="9.8342550" lon="-83.9650780">
        <ele>1401.6</ele>
        <time>2022-10-21T13:23:16Z</time>
      </trkpt>
      <trkpt lat="9.8342280" lon="-83.9650980">
        <ele>1401.7</ele>
        <time>2022-10-21T13:23:17Z</time>
      </trkpt>
      <trkpt lat="9.8342020" lon="-83.9651200">
        <ele>1401.8</ele>
        <time>2022-10-21T13:23:18Z</time>
      </trkpt>
      <trkpt lat="9.8341760" lon="-83.9651410">
        <ele>1402.0</ele>
        <time>2022-10-21T13:23:19Z</time>
      </trkpt>
      <trkpt lat="9.8341500" lon="-83.9651620">
        <ele>1402.1</ele>
        <time>2022-10-21T13:23:20Z</time>
      </trkpt>
      <trkpt lat="9.8341250" lon="-83.9651830">
        <ele>1402.3</ele>
        <time>2022-10-21T13:23:21Z</time>
      </trkpt>
      <trkpt lat="9.8341010" lon="-83.9652050">
        <ele>1402.4</ele>
        <time>2022-10-21T13:23:22Z</time>
      </trkpt>
      <trkpt lat="9.8340760" lon="-83.9652270">
        <ele>1402.5</ele>
        <time>2022-10-21T13:23:23Z</time>
      </trkpt>
      <trkpt lat="9.8340530" lon="-83.9652490">
        <ele>1402.7</ele>
        <time>2022-10-21T13:23:24Z</time>
      </trkpt>
      <trkpt lat="9.8340290" lon="-83.9652710">
        <ele>1402.8</ele>
        <time>2022-10-21T13:23:25Z</time>
      </trkpt>
      <trkpt lat="9.8340060" lon="-83.9652920">
        <ele>1403.0</ele>
        <time>2022-10-21T13:23:26Z</time>
      </trkpt>
      <trkpt lat="9.8339840" lon="-83.9653130">
        <ele>1403.1</ele>
        <time>2022-10-21T13:23:27Z</time>
      </trkpt>
      <trkpt lat="9.8339630" lon="-83.9653320">
        <ele>1403.3</ele>
        <time>2022-10-21T13:23:28Z</time>
      </trkpt>
      <trkpt lat="9.8339430" lon="-83.9653510">
        <ele>1403.5</ele>
        <time>2022-10-21T13:23:29Z</time>
      </trkpt>
      <trkpt lat="9.8339230" lon="-83.9653690">
        <ele>1403.6</ele>
        <time>2022-10-21T13:23:30Z</time>
      </trkpt>
      <trkpt lat="9.8339040" lon="-83.9653870">
        <ele>1403.8</ele>
        <time>2022-10-21T13:23:31Z</time>
      </trkpt>
      <trkpt lat="9.8338860" lon="-83.9654040">
        <ele>1404.0</ele>
        <time>2022-10-21T13:23:32Z</time>
      </trkpt>
      <trkpt lat="9.8338690" lon="-83.9654200">
        <ele>1404.2</ele>
        <time>2022-10-21T13:23:33Z</time>
      </trkpt>
      <trkpt lat="9.8338520" lon="-83.9654350">
        <ele>1404.5</ele>
        <time>2022-10-21T13:23:34Z</time>
      </trkpt>
      <trkpt lat="9.8338350" lon="-83.9654500">
        <ele>1404.7</ele>
        <time>2022-10-21T13:23:35Z</time>
      </trkpt>
      <trkpt lat="9.8338200" lon="-83.9654630">
        <ele>1404.9</ele>
        <time>2022-10-21T13:23:36Z</time>
      </trkpt>
      <trkpt lat="9.8338040" lon="-83.9654760">
        <ele>1405.1</ele>
        <time>2022-10-21T13:23:37Z</time>
      </trkpt>
      <trkpt lat="9.8337900" lon="-83.9654890">
        <ele>1405.3</ele>
        <time>2022-10-21T13:23:38Z</time>
      </trkpt>
      <trkpt lat="9.8337750" lon="-83.9655030">
        <ele>1405.6</ele>
        <time>2022-10-21T13:23:39Z</time>
      </trkpt>
      <trkpt lat="9.8337600" lon="-83.9655150">
        <ele>1405.8</ele>
        <time>2022-10-21T13:23:40Z</time>
      </trkpt>
      <trkpt lat="9.8337450" lon="-83.9655280">
        <ele>1406.1</ele>
        <time>2022-10-21T13:23:41Z</time>
      </trkpt>
      <trkpt lat="9.8337300" lon="-83.9655400">
        <ele>1406.3</ele>
        <time>2022-10-21T13:23:42Z</time>
      </trkpt>
      <trkpt lat="9.8337140" lon="-83.9655520">
        <ele>1406.6</ele>
        <time>2022-10-21T13:23:43Z</time>
      </trkpt>
      <trkpt lat="9.8336980" lon="-83.9655630">
        <ele>1406.9</ele>
        <time>2022-10-21T13:23:44Z</time>
      </trkpt>
      <trkpt lat="9.8336830" lon="-83.9655750">
        <ele>1407.2</ele>
        <time>2022-10-21T13:23:45Z</time>
      </trkpt>
      <trkpt lat="9.8336670" lon="-83.9655870">
        <ele>1407.4</ele>
        <time>2022-10-21T13:23:46Z</time>
      </trkpt>
      <trkpt lat="9.8336510" lon="-83.9656000">
        <ele>1407.7</ele>
        <time>2022-10-21T13:23:47Z</time>
      </trkpt>
      <trkpt lat="9.8336350" lon="-83.9656130">
        <ele>1408.1</ele>
        <time>2022-10-21T13:23:48Z</time>
      </trkpt>
      <trkpt lat="9.8336180" lon="-83.9656260">
        <ele>1408.4</ele>
        <time>2022-10-21T13:23:49Z</time>
      </trkpt>
      <trkpt lat="9.8336010" lon="-83.9656390">
        <ele>1408.7</ele>
        <time>2022-10-21T13:23:50Z</time>
      </trkpt>
      <trkpt lat="9.8335840" lon="-83.9656530">
        <ele>1409.1</ele>
        <time>2022-10-21T13:23:51Z</time>
      </trkpt>
      <trkpt lat="9.8335680" lon="-83.9656660">
        <ele>1409.4</ele>
        <time>2022-10-21T13:23:52Z</time>
      </trkpt>
      <trkpt lat="9.8335520" lon="-83.9656790">
        <ele>1409.7</ele>
        <time>2022-10-21T13:23:53Z</time>
      </trkpt>
      <trkpt lat="9.8335360" lon="-83.9656920">
        <ele>1410.1</ele>
        <time>2022-10-21T13:23:54Z</time>
      </trkpt>
      <trkpt lat="9.8335210" lon="-83.9657050">
        <ele>1410.4</ele>
        <time>2022-10-21T13:23:55Z</time>
      </trkpt>
      <trkpt lat="9.8335070" lon="-83.9657160">
        <ele>1410.7</ele>
        <time>2022-10-21T13:23:56Z</time>
      </trkpt>
      <trkpt lat="9.8334940" lon="-83.9657270">
        <ele>1411.0</ele>
        <time>2022-10-21T13:23:57Z</time>
      </trkpt>
      <trkpt lat="9.8334810" lon="-83.9657370">
        <ele>1411.2</ele>
        <time>2022-10-21T13:23:58Z</time>
      </trkpt>
      <trkpt lat="9.8334690" lon="-83.9657470">
        <ele>1411.5</ele>
        <time>2022-10-21T13:23:59Z</time>
      </trkpt>
      <trkpt lat="9.8334580" lon="-83.9657560">
        <ele>1411.8</ele>
        <time>2022-10-21T13:24:00Z</time>
      </trkpt>
      <trkpt lat="9.8334460" lon="-83.9657650">
        <ele>1412.0</ele>
        <time>2022-10-21T13:24:01Z</time>
      </trkpt>
      <trkpt lat="9.8334350" lon="-83.9657740">
        <ele>1412.3</ele>
        <time>2022-10-21T13:24:02Z</time>
      </trkpt>
      <trkpt lat="9.8334250" lon="-83.9657820">
        <ele>1412.5</ele>
        <time>2022-10-21T13:24:03Z</time>
      </trkpt>
      <trkpt lat="9.8334150" lon="-83.9657910">
        <ele>1412.7</ele>
        <time>2022-10-21T13:24:04Z</time>
      </trkpt>
      <trkpt lat="9.8334060" lon="-83.9657990">
        <ele>1412.9</ele>
        <time>2022-10-21T13:24:05Z</time>
      </trkpt>
      <trkpt lat="9.8333970" lon="-83.9658080">
        <ele>1413.1</ele>
        <time>2022-10-21T13:24:06Z</time>
      </trkpt>
      <trkpt lat="9.8333890" lon="-83.9658170">
        <ele>1413.4</ele>
        <time>2022-10-21T13:24:07Z</time>
      </trkpt>
      <trkpt lat="9.8333800" lon="-83.9658280">
        <ele>1413.6</ele>
        <time>2022-10-21T13:24:08Z</time>
      </trkpt>
      <trkpt lat="9.8333710" lon="-83.9658380">
        <ele>1413.8</ele>
        <time>2022-10-21T13:24:09Z</time>
      </trkpt>
      <trkpt lat="9.8333630" lon="-83.9658490">
        <ele>1414.1</ele>
        <time>2022-10-21T13:24:10Z</time>
      </trkpt>
      <trkpt lat="9.8333540" lon="-83.9658580">
        <ele>1414.3</ele>
        <time>2022-10-21T13:24:11Z</time>
      </trkpt>
      <trkpt lat="9.8333460" lon="-83.9658680">
        <ele>1414.5</ele>
        <time>2022-10-21T13:24:12Z</time>
      </trkpt>
      <trkpt lat="9.8333370" lon="-83.9658790">
        <ele>1414.8</ele>
        <time>2022-10-21T13:24:13Z</time>
      </trkpt>
      <trkpt lat="9.8333280" lon="-83.9658890">
        <ele>1415.0</ele>
        <time>2022-10-21T13:24:14Z</time>
      </trkpt>
      <trkpt lat="9.8333180" lon="-83.9659000">
        <ele>1415.3</ele>
        <time>2022-10-21T13:24:15Z</time>
      </trkpt>
      <trkpt lat="9.8333090" lon="-83.9659110">
        <ele>1415.5</ele>
        <time>2022-10-21T13:24:16Z</time>
      </trkpt>
      <trkpt lat="9.8332990" lon="-83.9659220">
        <ele>1415.8</ele>
        <time>2022-10-21T13:24:17Z</time>
      </trkpt>
      <trkpt lat="9.8332880" lon="-83.9659320">
        <ele>1416.1</ele>
        <time>2022-10-21T13:24:18Z</time>
      </trkpt>
      <trkpt lat="9.8332780" lon="-83.9659420">
        <ele>1416.3</ele>
        <time>2022-10-21T13:24:19Z</time>
      </trkpt>
      <trkpt lat="9.8332670" lon="-83.9659530">
        <ele>1416.6</ele>
        <time>2022-10-21T13:24:20Z</time>
      </trkpt>
      <trkpt lat="9.8332550" lon="-83.9659640">
        <ele>1416.9</ele>
        <time>2022-10-21T13:24:21Z</time>
      </trkpt>
      <trkpt lat="9.8332440" lon="-83.9659750">
        <ele>1417.1</ele>
        <time>2022-10-21T13:24:22Z</time>
      </trkpt>
      <trkpt lat="9.8332330" lon="-83.9659870">
        <ele>1417.4</ele>
        <time>2022-10-21T13:24:23Z</time>
      </trkpt>
      <trkpt lat="9.8332230" lon="-83.9659970">
        <ele>1417.6</ele>
        <time>2022-10-21T13:24:24Z</time>
      </trkpt>
      <trkpt lat="9.8332130" lon="-83.9660080">
        <ele>1417.9</ele>
        <time>2022-10-21T13:24:25Z</time>
      </trkpt>
      <trkpt lat="9.8332020" lon="-83.9660190">
        <ele>1418.2</ele>
        <time>2022-10-21T13:24:26Z</time>
      </trkpt>
      <trkpt lat="9.8331910" lon="-83.9660290">
        <ele>1418.4</ele>
        <time>2022-10-21T13:24:27Z</time>
      </trkpt>
      <trkpt lat="9.8331810" lon="-83.9660400">
        <ele>1418.7</ele>
        <time>2022-10-21T13:24:28Z</time>
      </trkpt>
      <trkpt lat="9.8331700" lon="-83.9660520">
        <ele>1419.0</ele>
        <time>2022-10-21T13:24:29Z</time>
      </trkpt>
      <trkpt lat="9.8331600" lon="-83.9660630">
        <ele>1419.2</ele>
        <time>2022-10-21T13:24:30Z</time>
      </trkpt>
      <trkpt lat="9.8331510" lon="-83.9660750">
        <ele>1419.5</ele>
        <time>2022-10-21T13:24:31Z</time>
      </trkpt>
      <trkpt lat="9.8331420" lon="-83.9660880">
        <ele>1419.8</ele>
        <time>2022-10-21T13:24:32Z</time>
      </trkpt>
      <trkpt lat="9.8331340" lon="-83.9661010">
        <ele>1420.0</ele>
        <time>2022-10-21T13:24:33Z</time>
      </trkpt>
      <trkpt lat="9.8331260" lon="-83.9661150">
        <ele>1420.3</ele>
        <time>2022-10-21T13:24:34Z</time>
      </trkpt>
      <trkpt lat="9.8331180" lon="-83.9661300">
        <ele>1420.6</ele>
        <time>2022-10-21T13:24:35Z</time>
      </trkpt>
      <trkpt lat="9.8331100" lon="-83.9661460">
        <ele>1420.9</ele>
        <time>2022-10-21T13:24:36Z</time>
      </trkpt>
      <trkpt lat="9.8331030" lon="-83.9661620">
        <ele>1421.2</ele>
        <time>2022-10-21T13:24:37Z</time>
      </trkpt>
      <trkpt lat="9.8330970" lon="-83.9661800">
        <ele>1421.5</ele>
        <time>2022-10-21T13:24:38Z</time>
      </trkpt>
      <trkpt lat="9.8330900" lon="-83.9661980">
        <ele>1421.8</ele>
        <time>2022-10-21T13:24:39Z</time>
      </trkpt>
      <trkpt lat="9.8330840" lon="-83.9662160">
        <ele>1422.1</ele>
        <time>2022-10-21T13:24:40Z</time>
      </trkpt>
      <trkpt lat="9.8330790" lon="-83.9662340">
        <ele>1422.4</ele>
        <time>2022-10-21T13:24:41Z</time>
      </trkpt>
      <trkpt lat="9.8330750" lon="-83.9662530">
        <ele>1422.6</ele>
        <time>2022-10-21T13:24:42Z</time>
      </trkpt>
      <trkpt lat="9.8330710" lon="-83.9662710">
        <ele>1422.9</ele>
        <time>2022-10-21T13:24:43Z</time>
      </trkpt>
      <trkpt lat="9.8330690" lon="-83.9662880">
        <ele>1423.1</ele>
        <time>2022-10-21T13:24:44Z</time>
      </trkpt>
      <trkpt lat="9.8330680" lon="-83.9663060">
        <ele>1423.3</ele>
        <time>2022-10-21T13:24:45Z</time>
      </trkpt>
      <trkpt lat="9.8330670" lon="-83.9663230">
        <ele>1423.5</ele>
        <time>2022-10-21T13:24:46Z</time>
      </trkpt>
      <trkpt lat="9.8330680" lon="-83.9663420">
        <ele>1423.8</ele>
        <time>2022-10-21T13:24:47Z</time>
      </trkpt>
      <trkpt lat="9.8330710" lon="-83.9663620">
        <ele>1424.0</ele>
        <time>2022-10-21T13:24:48Z</time>
      </trkpt>
      <trkpt lat="9.8330750" lon="-83.9663820">
        <ele>1424.2</ele>
        <time>2022-10-21T13:24:49Z</time>
      </trkpt>
      <trkpt lat="9.8330800" lon="-83.9664030">
        <ele>1424.4</ele>
        <time>2022-10-21T13:24:50Z</time>
      </trkpt>
      <trkpt lat="9.8330860" lon="-83.9664250">
        <ele>1424.6</ele>
        <time>2022-10-21T13:24:51Z</time>
      </trkpt>
      <trkpt lat="9.8330930" lon="-83.9664480">
        <ele>1424.7</ele>
        <time>2022-10-21T13:24:52Z</time>
      </trkpt>
      <trkpt lat="9.8331000" lon="-83.9664710">
        <ele>1424.9</ele>
        <time>2022-10-21T13:24:53Z</time>
      </trkpt>
      <trkpt lat="9.8331080" lon="-83.9664970">
        <ele>1425.1</ele>
        <time>2022-10-21T13:24:54Z</time>
      </trkpt>
      <trkpt lat="9.8331160" lon="-83.9665250">
        <ele>1425.2</ele>
        <time>2022-10-21T13:24:55Z</time>
      </trkpt>
      <trkpt lat="9.8331250" lon="-83.9665530">
        <ele>1425.4</ele>
        <time>2022-10-21T13:24:56Z</time>
      </trkpt>
      <trkpt lat="9.8331350" lon="-83.9665810">
        <ele>1425.5</ele>
        <time>2022-10-21T13:24:57Z</time>
      </trkpt>
      <trkpt lat="9.8331450" lon="-83.9666070">
        <ele>1425.6</ele>
        <time>2022-10-21T13:24:58Z</time>
      </trkpt>
      <trkpt lat="9.8331560" lon="-83.9666340">
        <ele>1425.7</ele>
        <time>2022-10-21T13:24:59Z</time>
      </trkpt>
      <trkpt lat="9.8331680" lon="-83.9666620">
        <ele>1425.8</ele>
        <time>2022-10-21T13:25:00Z</time>
      </trkpt>
      <trkpt lat="9.8331800" lon="-83.9666890">
        <ele>1425.9</ele>
        <time>2022-10-21T13:25:01Z</time>
      </trkpt>
      <trkpt lat="9.8331950" lon="-83.9667170">
        <ele>1426.0</ele>
        <time>2022-10-21T13:25:02Z</time>
      </trkpt>
      <trkpt lat="9.8332110" lon="-83.9667470">
        <ele>1426.1</ele>
        <time>2022-10-21T13:25:03Z</time>
      </trkpt>
      <trkpt lat="9.8332270" lon="-83.9667790">
        <ele>1426.2</ele>
        <time>2022-10-21T13:25:04Z</time>
      </trkpt>
      <trkpt lat="9.8332450" lon="-83.9668120">
        <ele>1426.3</ele>
        <time>2022-10-21T13:25:05Z</time>
      </trkpt>
      <trkpt lat="9.8332650" lon="-83.9668470">
        <ele>1426.1</ele>
        <time>2022-10-21T13:25:06Z</time>
      </trkpt>
      <trkpt lat="9.8332860" lon="-83.9668840">
        <ele>1425.9</ele>
        <time>2022-10-21T13:25:07Z</time>
      </trkpt>
      <trkpt lat="9.8333090" lon="-83.9669250">
        <ele>1425.6</ele>
        <time>2022-10-21T13:25:08Z</time>
      </trkpt>
      <trkpt lat="9.8333320" lon="-83.9669700">
        <ele>1425.3</ele>
        <time>2022-10-21T13:25:09Z</time>
      </trkpt>
      <trkpt lat="9.8333580" lon="-83.9670190">
        <ele>1425.0</ele>
        <time>2022-10-21T13:25:10Z</time>
      </trkpt>
      <trkpt lat="9.8333840" lon="-83.9670710">
        <ele>1424.6</ele>
        <time>2022-10-21T13:25:11Z</time>
      </trkpt>
      <trkpt lat="9.8334110" lon="-83.9671270">
        <ele>1424.2</ele>
        <time>2022-10-21T13:25:12Z</time>
      </trkpt>
      <trkpt lat="9.8334370" lon="-83.9671860">
        <ele>1423.7</ele>
        <time>2022-10-21T13:25:13Z</time>
      </trkpt>
      <trkpt lat="9.8334640" lon="-83.9672500">
        <ele>1423.1</ele>
        <time>2022-10-21T13:25:14Z</time>
      </trkpt>
      <trkpt lat="9.8334930" lon="-83.9673160">
        <ele>1422.5</ele>
        <time>2022-10-21T13:25:15Z</time>
      </trkpt>
      <trkpt lat="9.8335250" lon="-83.9673850">
        <ele>1422.0</ele>
        <time>2022-10-21T13:25:16Z</time>
      </trkpt>
      <trkpt lat="9.8335600" lon="-83.9674540">
        <ele>1421.3</ele>
        <time>2022-10-21T13:25:17Z</time>
      </trkpt>
      <trkpt lat="9.8335980" lon="-83.9675250">
        <ele>1420.7</ele>
        <time>2022-10-21T13:25:18Z</time>
      </trkpt>
      <trkpt lat="9.8336360" lon="-83.9675980">
        <ele>1420.1</ele>
        <time>2022-10-21T13:25:19Z</time>
      </trkpt>
      <trkpt lat="9.8336760" lon="-83.9676710">
        <ele>1419.6</ele>
        <time>2022-10-21T13:25:20Z</time>
      </trkpt>
      <trkpt lat="9.8337150" lon="-83.9677450">
        <ele>1419.1</ele>
        <time>2022-10-21T13:25:21Z</time>
      </trkpt>
      <trkpt lat="9.8337530" lon="-83.9678200">
        <ele>1418.6</ele>
        <time>2022-10-21T13:25:22Z</time>
      </trkpt>
      <trkpt lat="9.8337870" lon="-83.9678950">
        <ele>1418.3</ele>
        <time>2022-10-21T13:25:23Z</time>
      </trkpt>
      <trkpt lat="9.8338180" lon="-83.9679700">
        <ele>1418.1</ele>
        <time>2022-10-21T13:25:24Z</time>
      </trkpt>
      <trkpt lat="9.8338420" lon="-83.9680440">
        <ele>1418.0</ele>
        <time>2022-10-21T13:25:25Z</time>
      </trkpt>
      <trkpt lat="9.8338600" lon="-83.9681160">
        <ele>1418.0</ele>
        <time>2022-10-21T13:25:26Z</time>
      </trkpt>
      <trkpt lat="9.8338690" lon="-83.9681870">
        <ele>1418.1</ele>
        <time>2022-10-21T13:25:27Z</time>
      </trkpt>
      <trkpt lat="9.8338700" lon="-83.9682570">
        <ele>1418.2</ele>
        <time>2022-10-21T13:25:28Z</time>
      </trkpt>
      <trkpt lat="9.8338640" lon="-83.9683270">
        <ele>1418.3</ele>
        <time>2022-10-21T13:25:29Z</time>
      </trkpt>
      <trkpt lat="9.8338520" lon="-83.9683950">
        <ele>1418.4</ele>
        <time>2022-10-21T13:25:30Z</time>
      </trkpt>
      <trkpt lat="9.8338330" lon="-83.9684610">
        <ele>1418.6</ele>
        <time>2022-10-21T13:25:31Z</time>
      </trkpt>
      <trkpt lat="9.8338100" lon="-83.9685240">
        <ele>1418.8</ele>
        <time>2022-10-21T13:25:32Z</time>
      </trkpt>
      <trkpt lat="9.8337840" lon="-83.9685840">
        <ele>1419.1</ele>
        <time>2022-10-21T13:25:33Z</time>
      </trkpt>
      <trkpt lat="9.8337560" lon="-83.9686410">
        <ele>1419.3</ele>
        <time>2022-10-21T13:25:34Z</time>
      </trkpt>
      <trkpt lat="9.8337280" lon="-83.9686940">
        <ele>1419.5</ele>
        <time>2022-10-21T13:25:35Z</time>
      </trkpt>
      <trkpt lat="9.8337020" lon="-83.9687440">
        <ele>1419.8</ele>
        <time>2022-10-21T13:25:36Z</time>
      </trkpt>
      <trkpt lat="9.8336770" lon="-83.9687910">
        <ele>1420.1</ele>
        <time>2022-10-21T13:25:37Z</time>
      </trkpt>
      <trkpt lat="9.8336530" lon="-83.9688350">
        <ele>1420.5</ele>
        <time>2022-10-21T13:25:38Z</time>
      </trkpt>
      <trkpt lat="9.8336300" lon="-83.9688750">
        <ele>1420.8</ele>
        <time>2022-10-21T13:25:39Z</time>
      </trkpt>
      <trkpt lat="9.8336080" lon="-83.9689120">
        <ele>1421.1</ele>
        <time>2022-10-21T13:25:40Z</time>
      </trkpt>
      <trkpt lat="9.8335880" lon="-83.9689470">
        <ele>1421.5</ele>
        <time>2022-10-21T13:25:41Z</time>
      </trkpt>
      <trkpt lat="9.8335690" lon="-83.9689800">
        <ele>1421.8</ele>
        <time>2022-10-21T13:25:42Z</time>
      </trkpt>
      <trkpt lat="9.8335500" lon="-83.9690120">
        <ele>1422.2</ele>
        <time>2022-10-21T13:25:43Z</time>
      </trkpt>
      <trkpt lat="9.8335330" lon="-83.9690440">
        <ele>1422.5</ele>
        <time>2022-10-21T13:25:44Z</time>
      </trkpt>
      <trkpt lat="9.8335160" lon="-83.9690750">
        <ele>1422.9</ele>
        <time>2022-10-21T13:25:45Z</time>
      </trkpt>
      <trkpt lat="9.8335000" lon="-83.9691050">
        <ele>1423.2</ele>
        <time>2022-10-21T13:25:46Z</time>
      </trkpt>
      <trkpt lat="9.8334850" lon="-83.9691360">
        <ele>1423.6</ele>
        <time>2022-10-21T13:25:47Z</time>
      </trkpt>
      <trkpt lat="9.8334710" lon="-83.9691670">
        <ele>1424.0</ele>
        <time>2022-10-21T13:25:48Z</time>
      </trkpt>
      <trkpt lat="9.8334590" lon="-83.9691990">
        <ele>1424.4</ele>
        <time>2022-10-21T13:25:49Z</time>
      </trkpt>
      <trkpt lat="9.8334480" lon="-83.9692320">
        <ele>1424.7</ele>
        <time>2022-10-21T13:25:50Z</time>
      </trkpt>
      <trkpt lat="9.8334400" lon="-83.9692670">
        <ele>1425.1</ele>
        <time>2022-10-21T13:25:51Z</time>
      </trkpt>
      <trkpt lat="9.8334330" lon="-83.9693030">
        <ele>1425.5</ele>
        <time>2022-10-21T13:25:52Z</time>
      </trkpt>
      <trkpt lat="9.8334280" lon="-83.9693400">
        <ele>1425.9</ele>
        <time>2022-10-21T13:25:53Z</time>
      </trkpt>
      <trkpt lat="9.8334250" lon="-83.9693770">
        <ele>1426.3</ele>
        <time>2022-10-21T13:25:54Z</time>
      </trkpt>
      <trkpt lat="9.8334250" lon="-83.9694140">
        <ele>1426.7</ele>
        <time>2022-10-21T13:25:55Z</time>
      </trkpt>
      <trkpt lat="9.8334280" lon="-83.9694520">
        <ele>1427.0</ele>
        <time>2022-10-21T13:25:56Z</time>
      </trkpt>
      <trkpt lat="9.8334330" lon="-83.9694890">
        <ele>1427.3</ele>
        <time>2022-10-21T13:25:57Z</time>
      </trkpt>
      <trkpt lat="9.8334390" lon="-83.9695260">
        <ele>1427.5</ele>
        <time>2022-10-21T13:25:58Z</time>
      </trkpt>
      <trkpt lat="9.8334470" lon="-83.9695610">
        <ele>1427.8</ele>
        <time>2022-10-21T13:25:59Z</time>
      </trkpt>
      <trkpt lat="9.8334570" lon="-83.9695950">
        <ele>1428.0</ele>
        <time>2022-10-21T13:26:00Z</time>
      </trkpt>
      <trkpt lat="9.8334670" lon="-83.9696270">
        <ele>1428.2</ele>
        <time>2022-10-21T13:26:01Z</time>
      </trkpt>
      <trkpt lat="9.8334770" lon="-83.9696550">
        <ele>1428.4</ele>
        <time>2022-10-21T13:26:02Z</time>
      </trkpt>
      <trkpt lat="9.8334870" lon="-83.9696810">
        <ele>1428.6</ele>
        <time>2022-10-21T13:26:03Z</time>
      </trkpt>
      <trkpt lat="9.8334960" lon="-83.9697040">
        <ele>1428.8</ele>
        <time>2022-10-21T13:26:04Z</time>
      </trkpt>
      <trkpt lat="9.8335040" lon="-83.9697260">
        <ele>1429.0</ele>
        <time>2022-10-21T13:26:05Z</time>
      </trkpt>
      <trkpt lat="9.8335120" lon="-83.9697460">
        <ele>1429.2</ele>
        <time>2022-10-21T13:26:06Z</time>
      </trkpt>
      <trkpt lat="9.8335190" lon="-83.9697650">
        <ele>1429.4</ele>
        <time>2022-10-21T13:26:07Z</time>
      </trkpt>
      <trkpt lat="9.8335250" lon="-83.9697840">
        <ele>1429.6</ele>
        <time>2022-10-21T13:26:08Z</time>
      </trkpt>
      <trkpt lat="9.8335310" lon="-83.9698030">
        <ele>1429.7</ele>
        <time>2022-10-21T13:26:09Z</time>
      </trkpt>
      <trkpt lat="9.8335370" lon="-83.9698230">
        <ele>1429.9</ele>
        <time>2022-10-21T13:26:10Z</time>
      </trkpt>
      <trkpt lat="9.8335430" lon="-83.9698430">
        <ele>1430.2</ele>
        <time>2022-10-21T13:26:11Z</time>
      </trkpt>
      <trkpt lat="9.8335480" lon="-83.9698640">
        <ele>1430.4</ele>
        <time>2022-10-21T13:26:12Z</time>
      </trkpt>
      <trkpt lat="9.8335540" lon="-83.9698870">
        <ele>1430.6</ele>
        <time>2022-10-21T13:26:13Z</time>
      </trkpt>
      <trkpt lat="9.8335610" lon="-83.9699140">
        <ele>1430.9</ele>
        <time>2022-10-21T13:26:14Z</time>
      </trkpt>
      <trkpt lat="9.8335670" lon="-83.9699400">
        <ele>1431.2</ele>
        <time>2022-10-21T13:26:15Z</time>
      </trkpt>
      <trkpt lat="9.8335730" lon="-83.9699670">
        <ele>1431.5</ele>
        <time>2022-10-21T13:26:16Z</time>
      </trkpt>
      <trkpt lat="9.8335790" lon="-83.9699940">
        <ele>1431.8</ele>
        <time>2022-10-21T13:26:17Z</time>
      </trkpt>
      <trkpt lat="9.8335850" lon="-83.9700210">
        <ele>1432.1</ele>
        <time>2022-10-21T13:26:18Z</time>
      </trkpt>
      <trkpt lat="9.8335910" lon="-83.9700470">
        <ele>1432.3</ele>
        <time>2022-10-21T13:26:19Z</time>
      </trkpt>
      <trkpt lat="9.8335970" lon="-83.9700740">
        <ele>1432.6</ele>
        <time>2022-10-21T13:26:20Z</time>
      </trkpt>
      <trkpt lat="9.8336020" lon="-83.9701010">
        <ele>1432.9</ele>
        <time>2022-10-21T13:26:21Z</time>
      </trkpt>
      <trkpt lat="9.8336070" lon="-83.9701270">
        <ele>1433.1</ele>
        <time>2022-10-21T13:26:22Z</time>
      </trkpt>
      <trkpt lat="9.8336110" lon="-83.9701520">
        <ele>1433.4</ele>
        <time>2022-10-21T13:26:23Z</time>
      </trkpt>
      <trkpt lat="9.8336140" lon="-83.9701780">
        <ele>1433.7</ele>
        <time>2022-10-21T13:26:24Z</time>
      </trkpt>
      <trkpt lat="9.8336160" lon="-83.9702010">
        <ele>1433.9</ele>
        <time>2022-10-21T13:26:25Z</time>
      </trkpt>
      <trkpt lat="9.8336180" lon="-83.9702250">
        <ele>1434.1</ele>
        <time>2022-10-21T13:26:26Z</time>
      </trkpt>
      <trkpt lat="9.8336200" lon="-83.9702480">
        <ele>1434.4</ele>
        <time>2022-10-21T13:26:27Z</time>
      </trkpt>
      <trkpt lat="9.8336210" lon="-83.9702710">
        <ele>1434.6</ele>
        <time>2022-10-21T13:26:28Z</time>
      </trkpt>
      <trkpt lat="9.8336200" lon="-83.9702940">
        <ele>1434.9</ele>
        <time>2022-10-21T13:26:29Z</time>
      </trkpt>
      <trkpt lat="9.8336190" lon="-83.9703160">
        <ele>1435.1</ele>
        <time>2022-10-21T13:26:30Z</time>
      </trkpt>
      <trkpt lat="9.8336170" lon="-83.9703370">
        <ele>1435.4</ele>
        <time>2022-10-21T13:26:31Z</time>
      </trkpt>
      <trkpt lat="9.8336150" lon="-83.9703570">
        <ele>1435.6</ele>
        <time>2022-10-21T13:26:32Z</time>
      </trkpt>
      <trkpt lat="9.8336120" lon="-83.9703770">
        <ele>1435.8</ele>
        <time>2022-10-21T13:26:33Z</time>
      </trkpt>
      <trkpt lat="9.8336100" lon="-83.9703970">
        <ele>1436.0</ele>
        <time>2022-10-21T13:26:34Z</time>
      </trkpt>
      <trkpt lat="9.8336070" lon="-83.9704170">
        <ele>1436.3</ele>
        <time>2022-10-21T13:26:35Z</time>
      </trkpt>
      <trkpt lat="9.8336050" lon="-83.9704360">
        <ele>1436.5</ele>
        <time>2022-10-21T13:26:36Z</time>
      </trkpt>
      <trkpt lat="9.8336020" lon="-83.9704550">
        <ele>1436.7</ele>
        <time>2022-10-21T13:26:37Z</time>
      </trkpt>
      <trkpt lat="9.8335990" lon="-83.9704740">
        <ele>1437.0</ele>
        <time>2022-10-21T13:26:38Z</time>
      </trkpt>
      <trkpt lat="9.8335960" lon="-83.9704930">
        <ele>1437.2</ele>
        <time>2022-10-21T13:26:39Z</time>
      </trkpt>
      <trkpt lat="9.8335930" lon="-83.9705130">
        <ele>1437.4</ele>
        <time>2022-10-21T13:26:40Z</time>
      </trkpt>
      <trkpt lat="9.8335910" lon="-83.9705320">
        <ele>1437.7</ele>
        <time>2022-10-21T13:26:41Z</time>
      </trkpt>
      <trkpt lat="9.8335890" lon="-83.9705520">
        <ele>1437.9</ele>
        <time>2022-10-21T13:26:42Z</time>
      </trkpt>
      <trkpt lat="9.8335860" lon="-83.9705710">
        <ele>1438.1</ele>
        <time>2022-10-21T13:26:43Z</time>
      </trkpt>
      <trkpt lat="9.8335830" lon="-83.9705910">
        <ele>1438.4</ele>
        <time>2022-10-21T13:26:44Z</time>
      </trkpt>
      <trkpt lat="9.8335800" lon="-83.9706100">
        <ele>1438.6</ele>
        <time>2022-10-21T13:26:45Z</time>
      </trkpt>
      <trkpt lat="9.8335760" lon="-83.9706300">
        <ele>1438.8</ele>
        <time>2022-10-21T13:26:46Z</time>
      </trkpt>
      <trkpt lat="9.8335720" lon="-83.9706500">
        <ele>1439.1</ele>
        <time>2022-10-21T13:26:47Z</time>
      </trkpt>
      <trkpt lat="9.8335680" lon="-83.9706700">
        <ele>1439.3</ele>
        <time>2022-10-21T13:26:48Z</time>
      </trkpt>
      <trkpt lat="9.8335650" lon="-83.9706910">
        <ele>1439.5</ele>
        <time>2022-10-21T13:26:49Z</time>
      </trkpt>
      <trkpt lat="9.8335620" lon="-83.9707120">
        <ele>1439.7</ele>
        <time>2022-10-21T13:26:50Z</time>
      </trkpt>
      <trkpt lat="9.8335580" lon="-83.9707340">
        <ele>1439.9</ele>
        <time>2022-10-21T13:26:51Z</time>
      </trkpt>
      <trkpt lat="9.8335540" lon="-83.9707580">
        <ele>1440.0</ele>
        <time>2022-10-21T13:26:52Z</time>
      </trkpt>
      <trkpt lat="9.8335500" lon="-83.9707830">
        <ele>1440.2</ele>
        <time>2022-10-21T13:26:53Z</time>
      </trkpt>
      <trkpt lat="9.8335460" lon="-83.9708100">
        <ele>1440.4</ele>
        <time>2022-10-21T13:26:54Z</time>
      </trkpt>
      <trkpt lat="9.8335420" lon="-83.9708400">
        <ele>1440.5</ele>
        <time>2022-10-21T13:26:55Z</time>
      </trkpt>
      <trkpt lat="9.8335380" lon="-83.9708730">
        <ele>1440.6</ele>
        <time>2022-10-21T13:26:56Z</time>
      </trkpt>
      <trkpt lat="9.8335360" lon="-83.9709090">
        <ele>1440.7</ele>
        <time>2022-10-21T13:26:57Z</time>
      </trkpt>
      <trkpt lat="9.8335340" lon="-83.9709460">
        <ele>1440.7</ele>
        <time>2022-10-21T13:26:58Z</time>
      </trkpt>
      <trkpt lat="9.8335330" lon="-83.9709850">
        <ele>1440.7</ele>
        <time>2022-10-21T13:26:59Z</time>
      </trkpt>
      <trkpt lat="9.8335340" lon="-83.9710240">
        <ele>1440.6</ele>
        <time>2022-10-21T13:27:00Z</time>
      </trkpt>
      <trkpt lat="9.8335340" lon="-83.9710640">
        <ele>1440.6</ele>
        <time>2022-10-21T13:27:01Z</time>
      </trkpt>
      <trkpt lat="9.8335350" lon="-83.9711030">
        <ele>1440.6</ele>
        <time>2022-10-21T13:27:02Z</time>
      </trkpt>
      <trkpt lat="9.8335370" lon="-83.9711430">
        <ele>1440.7</ele>
        <time>2022-10-21T13:27:03Z</time>
      </trkpt>
      <trkpt lat="9.8335400" lon="-83.9711800">
        <ele>1440.7</ele>
        <time>2022-10-21T13:27:04Z</time>
      </trkpt>
      <trkpt lat="9.8335440" lon="-83.9712160">
        <ele>1440.9</ele>
        <time>2022-10-21T13:27:05Z</time>
      </trkpt>
      <trkpt lat="9.8335480" lon="-83.9712500">
        <ele>1441.0</ele>
        <time>2022-10-21T13:27:06Z</time>
      </trkpt>
      <trkpt lat="9.8335520" lon="-83.9712810">
        <ele>1441.2</ele>
        <time>2022-10-21T13:27:07Z</time>
      </trkpt>
      <trkpt lat="9.8335570" lon="-83.9713100">
        <ele>1441.5</ele>
        <time>2022-10-21T13:27:08Z</time>
      </trkpt>
      <trkpt lat="9.8335610" lon="-83.9713370">
        <ele>1441.7</ele>
        <time>2022-10-21T13:27:09Z</time>
      </trkpt>
      <trkpt lat="9.8335640" lon="-83.9713620">
        <ele>1441.9</ele>
        <time>2022-10-21T13:27:10Z</time>
      </trkpt>
      <trkpt lat="9.8335680" lon="-83.9713860">
        <ele>1442.1</ele>
        <time>2022-10-21T13:27:11Z</time>
      </trkpt>
      <trkpt lat="9.8335720" lon="-83.9714080">
        <ele>1442.4</ele>
        <time>2022-10-21T13:27:12Z</time>
      </trkpt>
      <trkpt lat="9.8335760" lon="-83.9714290">
        <ele>1442.6</ele>
        <time>2022-10-21T13:27:13Z</time>
      </trkpt>
      <trkpt lat="9.8335810" lon="-83.9714500">
        <ele>1442.9</ele>
        <time>2022-10-21T13:27:14Z</time>
      </trkpt>
      <trkpt lat="9.8335860" lon="-83.9714690">
        <ele>1443.1</ele>
        <time>2022-10-21T13:27:15Z</time>
      </trkpt>
      <trkpt lat="9.8335920" lon="-83.9714870">
        <ele>1443.4</ele>
        <time>2022-10-21T13:27:16Z</time>
      </trkpt>
      <trkpt lat="9.8335990" lon="-83.9715050">
        <ele>1443.6</ele>
        <time>2022-10-21T13:27:17Z</time>
      </trkpt>
      <trkpt lat="9.8336060" lon="-83.9715230">
        <ele>1443.9</ele>
        <time>2022-10-21T13:27:18Z</time>
      </trkpt>
      <trkpt lat="9.8336140" lon="-83.9715400">
        <ele>1444.2</ele>
        <time>2022-10-21T13:27:19Z</time>
      </trkpt>
      <trkpt lat="9.8336230" lon="-83.9715580">
        <ele>1444.4</ele>
        <time>2022-10-21T13:27:20Z</time>
      </trkpt>
      <trkpt lat="9.8336320" lon="-83.9715750">
        <ele>1444.7</ele>
        <time>2022-10-21T13:27:21Z</time>
      </trkpt>
      <trkpt lat="9.8336400" lon="-83.9715930">
        <ele>1445.0</ele>
        <time>2022-10-21T13:27:22Z</time>
      </trkpt>
      <trkpt lat="9.8336480" lon="-83.9716110">
        <ele>1445.3</ele>
        <time>2022-10-21T13:27:23Z</time>
      </trkpt>
      <trkpt lat="9.8336560" lon="-83.9716290">
        <ele>1445.6</ele>
        <time>2022-10-21T13:27:24Z</time>
      </trkpt>
      <trkpt lat="9.8336630" lon="-83.9716480">
        <ele>1445.9</ele>
        <time>2022-10-21T13:27:25Z</time>
      </trkpt>
      <trkpt lat="9.8336710" lon="-83.9716670">
        <ele>1446.2</ele>
        <time>2022-10-21T13:27:26Z</time>
      </trkpt>
      <trkpt lat="9.8336780" lon="-83.9716870">
        <ele>1446.5</ele>
        <time>2022-10-21T13:27:27Z</time>
      </trkpt>
      <trkpt lat="9.8336850" lon="-83.9717070">
        <ele>1446.8</ele>
        <time>2022-10-21T13:27:28Z</time>
      </trkpt>
      <trkpt lat="9.8336920" lon="-83.9717270">
        <ele>1447.1</ele>
        <time>2022-10-21T13:27:29Z</time>
      </trkpt>
      <trkpt lat="9.8336980" lon="-83.9717480">
        <ele>1447.4</ele>
        <time>2022-10-21T13:27:30Z</time>
      </trkpt>
      <trkpt lat="9.8337030" lon="-83.9717690">
        <ele>1447.7</ele>
        <time>2022-10-21T13:27:31Z</time>
      </trkpt>
      <trkpt lat="9.8337090" lon="-83.9717890">
        <ele>1447.9</ele>
        <time>2022-10-21T13:27:32Z</time>
      </trkpt>
      <trkpt lat="9.8337150" lon="-83.9718100">
        <ele>1448.2</ele>
        <time>2022-10-21T13:27:33Z</time>
      </trkpt>
      <trkpt lat="9.8337220" lon="-83.9718310">
        <ele>1448.5</ele>
        <time>2022-10-21T13:27:34Z</time>
      </trkpt>
      <trkpt lat="9.8337290" lon="-83.9718510">
        <ele>1448.7</ele>
        <time>2022-10-21T13:27:35Z</time>
      </trkpt>
      <trkpt lat="9.8337360" lon="-83.9718720">
        <ele>1448.9</ele>
        <time>2022-10-21T13:27:36Z</time>
      </trkpt>
      <trkpt lat="9.8337430" lon="-83.9718920">
        <ele>1449.1</ele>
        <time>2022-10-21T13:27:37Z</time>
      </trkpt>
      <trkpt lat="9.8337490" lon="-83.9719120">
        <ele>1449.4</ele>
        <time>2022-10-21T13:27:38Z</time>
      </trkpt>
      <trkpt lat="9.8337560" lon="-83.9719320">
        <ele>1449.6</ele>
        <time>2022-10-21T13:27:39Z</time>
      </trkpt>
      <trkpt lat="9.8337620" lon="-83.9719520">
        <ele>1449.8</ele>
        <time>2022-10-21T13:27:40Z</time>
      </trkpt>
      <trkpt lat="9.8337690" lon="-83.9719720">
        <ele>1450.0</ele>
        <time>2022-10-21T13:27:41Z</time>
      </trkpt>
      <trkpt lat="9.8337740" lon="-83.9719910">
        <ele>1450.2</ele>
        <time>2022-10-21T13:27:42Z</time>
      </trkpt>
      <trkpt lat="9.8337780" lon="-83.9720090">
        <ele>1450.4</ele>
        <time>2022-10-21T13:27:43Z</time>
      </trkpt>
      <trkpt lat="9.8337800" lon="-83.9720270">
        <ele>1450.6</ele>
        <time>2022-10-21T13:27:44Z</time>
      </trkpt>
      <trkpt lat="9.8337790" lon="-83.9720430">
        <ele>1451.1</ele>
        <time>2022-10-21T13:27:45Z</time>
      </trkpt>
      <trkpt lat="9.8337760" lon="-83.9720590">
        <ele>1451.2</ele>
        <time>2022-10-21T13:27:46Z</time>
      </trkpt>
      <trkpt lat="9.8337700" lon="-83.9720750">
        <ele>1451.2</ele>
        <time>2022-10-21T13:27:47Z</time>
      </trkpt>
      <trkpt lat="9.8337620" lon="-83.9720920">
        <ele>1451.2</ele>
        <time>2022-10-21T13:27:48Z</time>
      </trkpt>
      <trkpt lat="9.8337520" lon="-83.9721100">
        <ele>1451.2</ele>
        <time>2022-10-21T13:27:49Z</time>
      </trkpt>
      <trkpt lat="9.8337390" lon="-83.9721280">
        <ele>1451.2</ele>
        <time>2022-10-21T13:27:50Z</time>
      </trkpt>
      <trkpt lat="9.8337230" lon="-83.9721480">
        <ele>1451.2</ele>
        <time>2022-10-21T13:27:51Z</time>
      </trkpt>
      <trkpt lat="9.8337050" lon="-83.9721690">
        <ele>1451.2</ele>
        <time>2022-10-21T13:27:52Z</time>
      </trkpt>
      <trkpt lat="9.8336840" lon="-83.9721910">
        <ele>1451.1</ele>
        <time>2022-10-21T13:27:53Z</time>
      </trkpt>
      <trkpt lat="9.8336620" lon="-83.9722150">
        <ele>1451.1</ele>
        <time>2022-10-21T13:27:54Z</time>
      </trkpt>
      <trkpt lat="9.8336390" lon="-83.9722410">
        <ele>1451.1</ele>
        <time>2022-10-21T13:27:55Z</time>
      </trkpt>
      <trkpt lat="9.8336140" lon="-83.9722680">
        <ele>1451.1</ele>
        <time>2022-10-21T13:27:56Z</time>
      </trkpt>
      <trkpt lat="9.8335890" lon="-83.9722960">
        <ele>1451.0</ele>
        <time>2022-10-21T13:27:57Z</time>
      </trkpt>
      <trkpt lat="9.8335630" lon="-83.9723240">
        <ele>1451.0</ele>
        <time>2022-10-21T13:27:58Z</time>
      </trkpt>
      <trkpt lat="9.8335370" lon="-83.9723530">
        <ele>1451.0</ele>
        <time>2022-10-21T13:27:59Z</time>
      </trkpt>
      <trkpt lat="9.8335090" lon="-83.9723820">
        <ele>1451.0</ele>
        <time>2022-10-21T13:28:00Z</time>
      </trkpt>
      <trkpt lat="9.8334800" lon="-83.9724100">
        <ele>1451.0</ele>
        <time>2022-10-21T13:28:01Z</time>
      </trkpt>
      <trkpt lat="9.8334510" lon="-83.9724370">
        <ele>1451.1</ele>
        <time>2022-10-21T13:28:02Z</time>
      </trkpt>
      <trkpt lat="9.8334210" lon="-83.9724630">
        <ele>1451.1</ele>
        <time>2022-10-21T13:28:03Z</time>
      </trkpt>
      <trkpt lat="9.8333900" lon="-83.9724890">
        <ele>1451.2</ele>
        <time>2022-10-21T13:28:04Z</time>
      </trkpt>
      <trkpt lat="9.8333590" lon="-83.9725140">
        <ele>1451.2</ele>
        <time>2022-10-21T13:28:05Z</time>
      </trkpt>
      <trkpt lat="9.8333280" lon="-83.9725390">
        <ele>1451.3</ele>
        <time>2022-10-21T13:28:06Z</time>
      </trkpt>
      <trkpt lat="9.8332970" lon="-83.9725630">
        <ele>1451.4</ele>
        <time>2022-10-21T13:28:07Z</time>
      </trkpt>
      <trkpt lat="9.8332660" lon="-83.9725880">
        <ele>1451.4</ele>
        <time>2022-10-21T13:28:08Z</time>
      </trkpt>
      <trkpt lat="9.8332350" lon="-83.9726120">
        <ele>1451.5</ele>
        <time>2022-10-21T13:28:09Z</time>
      </trkpt>
      <trkpt lat="9.8332050" lon="-83.9726350">
        <ele>1451.6</ele>
        <time>2022-10-21T13:28:10Z</time>
      </trkpt>
      <trkpt lat="9.8331760" lon="-83.9726580">
        <ele>1451.7</ele>
        <time>2022-10-21T13:28:11Z</time>
      </trkpt>
      <trkpt lat="9.8331480" lon="-83.9726810">
        <ele>1451.8</ele>
        <time>2022-10-21T13:28:12Z</time>
      </trkpt>
      <trkpt lat="9.8331210" lon="-83.9727050">
        <ele>1451.9</ele>
        <time>2022-10-21T13:28:13Z</time>
      </trkpt>
      <trkpt lat="9.8330960" lon="-83.9727310">
        <ele>1452.1</ele>
        <time>2022-10-21T13:28:14Z</time>
      </trkpt>
      <trkpt lat="9.8330720" lon="-83.9727570">
        <ele>1452.2</ele>
        <time>2022-10-21T13:28:15Z</time>
      </trkpt>
      <trkpt lat="9.8330490" lon="-83.9727840">
        <ele>1452.4</ele>
        <time>2022-10-21T13:28:16Z</time>
      </trkpt>
      <trkpt lat="9.8330270" lon="-83.9728120">
        <ele>1452.5</ele>
        <time>2022-10-21T13:28:17Z</time>
      </trkpt>
      <trkpt lat="9.8330060" lon="-83.9728410">
        <ele>1452.7</ele>
        <time>2022-10-21T13:28:18Z</time>
      </trkpt>
      <trkpt lat="9.8329850" lon="-83.9728720">
        <ele>1452.8</ele>
        <time>2022-10-21T13:28:19Z</time>
      </trkpt>
      <trkpt lat="9.8329640" lon="-83.9729030">
        <ele>1453.0</ele>
        <time>2022-10-21T13:28:20Z</time>
      </trkpt>
      <trkpt lat="9.8329440" lon="-83.9729360">
        <ele>1453.2</ele>
        <time>2022-10-21T13:28:21Z</time>
      </trkpt>
      <trkpt lat="9.8329230" lon="-83.9729700">
        <ele>1453.3</ele>
        <time>2022-10-21T13:28:22Z</time>
      </trkpt>
      <trkpt lat="9.8329020" lon="-83.9730040">
        <ele>1453.5</ele>
        <time>2022-10-21T13:28:23Z</time>
      </trkpt>
      <trkpt lat="9.8328810" lon="-83.9730380">
        <ele>1453.7</ele>
        <time>2022-10-21T13:28:24Z</time>
      </trkpt>
      <trkpt lat="9.8328600" lon="-83.9730710">
        <ele>1453.8</ele>
        <time>2022-10-21T13:28:25Z</time>
      </trkpt>
      <trkpt lat="9.8328400" lon="-83.9731040">
        <ele>1454.0</ele>
        <time>2022-10-21T13:28:26Z</time>
      </trkpt>
      <trkpt lat="9.8328200" lon="-83.9731370">
        <ele>1454.2</ele>
        <time>2022-10-21T13:28:27Z</time>
      </trkpt>
      <trkpt lat="9.8328020" lon="-83.9731700">
        <ele>1454.4</ele>
        <time>2022-10-21T13:28:28Z</time>
      </trkpt>
      <trkpt lat="9.8327850" lon="-83.9732020">
        <ele>1454.5</ele>
        <time>2022-10-21T13:28:29Z</time>
      </trkpt>
      <trkpt lat="9.8327690" lon="-83.9732330">
        <ele>1454.7</ele>
        <time>2022-10-21T13:28:30Z</time>
      </trkpt>
      <trkpt lat="9.8327540" lon="-83.9732640">
        <ele>1454.9</ele>
        <time>2022-10-21T13:28:31Z</time>
      </trkpt>
      <trkpt lat="9.8327410" lon="-83.9732940">
        <ele>1455.1</ele>
        <time>2022-10-21T13:28:32Z</time>
      </trkpt>
      <trkpt lat="9.8327290" lon="-83.9733230">
        <ele>1455.3</ele>
        <time>2022-10-21T13:28:33Z</time>
      </trkpt>
      <trkpt lat="9.8327180" lon="-83.9733520">
        <ele>1455.5</ele>
        <time>2022-10-21T13:28:34Z</time>
      </trkpt>
      <trkpt lat="9.8327080" lon="-83.9733810">
        <ele>1455.7</ele>
        <time>2022-10-21T13:28:35Z</time>
      </trkpt>
      <trkpt lat="9.8326990" lon="-83.9734090">
        <ele>1455.9</ele>
        <time>2022-10-21T13:28:36Z</time>
      </trkpt>
      <trkpt lat="9.8326900" lon="-83.9734360">
        <ele>1456.2</ele>
        <time>2022-10-21T13:28:37Z</time>
      </trkpt>
      <trkpt lat="9.8326800" lon="-83.9734620">
        <ele>1456.4</ele>
        <time>2022-10-21T13:28:38Z</time>
      </trkpt>
      <trkpt lat="9.8326700" lon="-83.9734870">
        <ele>1456.6</ele>
        <time>2022-10-21T13:28:39Z</time>
      </trkpt>
      <trkpt lat="9.8326590" lon="-83.9735110">
        <ele>1456.9</ele>
        <time>2022-10-21T13:28:40Z</time>
      </trkpt>
      <trkpt lat="9.8326470" lon="-83.9735340">
        <ele>1457.2</ele>
        <time>2022-10-21T13:28:41Z</time>
      </trkpt>
      <trkpt lat="9.8326340" lon="-83.9735560">
        <ele>1457.5</ele>
        <time>2022-10-21T13:28:42Z</time>
      </trkpt>
      <trkpt lat="9.8326210" lon="-83.9735770">
        <ele>1457.8</ele>
        <time>2022-10-21T13:28:43Z</time>
      </trkpt>
      <trkpt lat="9.8326060" lon="-83.9735960">
        <ele>1458.1</ele>
        <time>2022-10-21T13:28:44Z</time>
      </trkpt>
      <trkpt lat="9.8325910" lon="-83.9736130">
        <ele>1458.3</ele>
        <time>2022-10-21T13:28:45Z</time>
      </trkpt>
      <trkpt lat="9.8325740" lon="-83.9736290">
        <ele>1458.6</ele>
        <time>2022-10-21T13:28:46Z</time>
      </trkpt>
      <trkpt lat="9.8325570" lon="-83.9736440">
        <ele>1458.9</ele>
        <time>2022-10-21T13:28:47Z</time>
      </trkpt>
      <trkpt lat="9.8325390" lon="-83.9736570">
        <ele>1459.2</ele>
        <time>2022-10-21T13:28:48Z</time>
      </trkpt>
      <trkpt lat="9.8325210" lon="-83.9736690">
        <ele>1459.4</ele>
        <time>2022-10-21T13:28:49Z</time>
      </trkpt>
      <trkpt lat="9.8325010" lon="-83.9736810">
        <ele>1459.7</ele>
        <time>2022-10-21T13:28:50Z</time>
      </trkpt>
      <trkpt lat="9.8324810" lon="-83.9736930">
        <ele>1460.0</ele>
        <time>2022-10-21T13:28:51Z</time>
      </trkpt>
      <trkpt lat="9.8324600" lon="-83.9737030">
        <ele>1460.3</ele>
        <time>2022-10-21T13:28:52Z</time>
      </trkpt>
      <trkpt lat="9.8324390" lon="-83.9737140">
        <ele>1460.6</ele>
        <time>2022-10-21T13:28:53Z</time>
      </trkpt>
      <trkpt lat="9.8324170" lon="-83.9737240">
        <ele>1460.8</ele>
        <time>2022-10-21T13:28:54Z</time>
      </trkpt>
      <trkpt lat="9.8323950" lon="-83.9737350">
        <ele>1461.1</ele>
        <time>2022-10-21T13:28:55Z</time>
      </trkpt>
      <trkpt lat="9.8323720" lon="-83.9737480">
        <ele>1461.4</ele>
        <time>2022-10-21T13:28:56Z</time>
      </trkpt>
      <trkpt lat="9.8323500" lon="-83.9737600">
        <ele>1461.7</ele>
        <time>2022-10-21T13:28:57Z</time>
      </trkpt>
      <trkpt lat="9.8323290" lon="-83.9737730">
        <ele>1462.0</ele>
        <time>2022-10-21T13:28:58Z</time>
      </trkpt>
      <trkpt lat="9.8323080" lon="-83.9737860">
        <ele>1462.2</ele>
        <time>2022-10-21T13:28:59Z</time>
      </trkpt>
      <trkpt lat="9.8322880" lon="-83.9738000">
        <ele>1462.5</ele>
        <time>2022-10-21T13:29:00Z</time>
      </trkpt>
      <trkpt lat="9.8322690" lon="-83.9738130">
        <ele>1462.7</ele>
        <time>2022-10-21T13:29:01Z</time>
      </trkpt>
      <trkpt lat="9.8322520" lon="-83.9738270">
        <ele>1463.0</ele>
        <time>2022-10-21T13:29:02Z</time>
      </trkpt>
      <trkpt lat="9.8322350" lon="-83.9738400">
        <ele>1463.2</ele>
        <time>2022-10-21T13:29:03Z</time>
      </trkpt>
      <trkpt lat="9.8322190" lon="-83.9738530">
        <ele>1463.4</ele>
        <time>2022-10-21T13:29:04Z</time>
      </trkpt>
      <trkpt lat="9.8322030" lon="-83.9738660">
        <ele>1463.5</ele>
        <time>2022-10-21T13:29:05Z</time>
      </trkpt>
      <trkpt lat="9.8321890" lon="-83.9738790">
        <ele>1463.7</ele>
        <time>2022-10-21T13:29:06Z</time>
      </trkpt>
      <trkpt lat="9.8321740" lon="-83.9738910">
        <ele>1463.9</ele>
        <time>2022-10-21T13:29:07Z</time>
      </trkpt>
      <trkpt lat="9.8321600" lon="-83.9739030">
        <ele>1464.0</ele>
        <time>2022-10-21T13:29:08Z</time>
      </trkpt>
      <trkpt lat="9.8321460" lon="-83.9739140">
        <ele>1464.2</ele>
        <time>2022-10-21T13:29:09Z</time>
      </trkpt>
      <trkpt lat="9.8321330" lon="-83.9739250">
        <ele>1464.3</ele>
        <time>2022-10-21T13:29:10Z</time>
      </trkpt>
      <trkpt lat="9.8321190" lon="-83.9739340">
        <ele>1464.5</ele>
        <time>2022-10-21T13:29:11Z</time>
      </trkpt>
      <trkpt lat="9.8321050" lon="-83.9739440">
        <ele>1464.6</ele>
        <time>2022-10-21T13:29:12Z</time>
      </trkpt>
      <trkpt lat="9.8320920" lon="-83.9739550">
        <ele>1464.8</ele>
        <time>2022-10-21T13:29:13Z</time>
      </trkpt>
      <trkpt lat="9.8320800" lon="-83.9739660">
        <ele>1464.9</ele>
        <time>2022-10-21T13:29:14Z</time>
      </trkpt>
      <trkpt lat="9.8320680" lon="-83.9739770">
        <ele>1465.0</ele>
        <time>2022-10-21T13:29:15Z</time>
      </trkpt>
      <trkpt lat="9.8320570" lon="-83.9739890">
        <ele>1465.1</ele>
        <time>2022-10-21T13:29:16Z</time>
      </trkpt>
      <trkpt lat="9.8320470" lon="-83.9740020">
        <ele>1465.3</ele>
        <time>2022-10-21T13:29:17Z</time>
      </trkpt>
      <trkpt lat="9.8320370" lon="-83.9740160">
        <ele>1465.4</ele>
        <time>2022-10-21T13:29:18Z</time>
      </trkpt>
      <trkpt lat="9.8320280" lon="-83.9740330">
        <ele>1465.5</ele>
        <time>2022-10-21T13:29:19Z</time>
      </trkpt>
      <trkpt lat="9.8320190" lon="-83.9740530">
        <ele>1465.7</ele>
        <time>2022-10-21T13:29:20Z</time>
      </trkpt>
      <trkpt lat="9.8320100" lon="-83.9740760">
        <ele>1465.9</ele>
        <time>2022-10-21T13:29:21Z</time>
      </trkpt>
      <trkpt lat="9.8320010" lon="-83.9741010">
        <ele>1466.1</ele>
        <time>2022-10-21T13:29:22Z</time>
      </trkpt>
      <trkpt lat="9.8319920" lon="-83.9741280">
        <ele>1466.3</ele>
        <time>2022-10-21T13:29:23Z</time>
      </trkpt>
      <trkpt lat="9.8319830" lon="-83.9741560">
        <ele>1466.5</ele>
        <time>2022-10-21T13:29:24Z</time>
      </trkpt>
      <trkpt lat="9.8319740" lon="-83.9741840">
        <ele>1466.7</ele>
        <time>2022-10-21T13:29:25Z</time>
      </trkpt>
      <trkpt lat="9.8319650" lon="-83.9742140">
        <ele>1467.0</ele>
        <time>2022-10-21T13:29:26Z</time>
      </trkpt>
      <trkpt lat="9.8319570" lon="-83.9742440">
        <ele>1467.2</ele>
        <time>2022-10-21T13:29:27Z</time>
      </trkpt>
      <trkpt lat="9.8319490" lon="-83.9742750">
        <ele>1467.5</ele>
        <time>2022-10-21T13:29:28Z</time>
      </trkpt>
      <trkpt lat="9.8319430" lon="-83.9743060">
        <ele>1467.7</ele>
        <time>2022-10-21T13:29:29Z</time>
      </trkpt>
      <trkpt lat="9.8319370" lon="-83.9743360">
        <ele>1468.0</ele>
        <time>2022-10-21T13:29:30Z</time>
      </trkpt>
      <trkpt lat="9.8319330" lon="-83.9743640">
        <ele>1468.2</ele>
        <time>2022-10-21T13:29:31Z</time>
      </trkpt>
      <trkpt lat="9.8319280" lon="-83.9743910">
        <ele>1468.5</ele>
        <time>2022-10-21T13:29:32Z</time>
      </trkpt>
      <trkpt lat="9.8319240" lon="-83.9744160">
        <ele>1468.7</ele>
        <time>2022-10-21T13:29:33Z</time>
      </trkpt>
      <trkpt lat="9.8319210" lon="-83.9744410">
        <ele>1468.9</ele>
        <time>2022-10-21T13:29:34Z</time>
      </trkpt>
      <trkpt lat="9.8319190" lon="-83.9744650">
        <ele>1469.2</ele>
        <time>2022-10-21T13:29:35Z</time>
      </trkpt>
      <trkpt lat="9.8319170" lon="-83.9744880">
        <ele>1469.4</ele>
        <time>2022-10-21T13:29:36Z</time>
      </trkpt>
      <trkpt lat="9.8319160" lon="-83.9745090">
        <ele>1469.6</ele>
        <time>2022-10-21T13:29:37Z</time>
      </trkpt>
      <trkpt lat="9.8319130" lon="-83.9745290">
        <ele>1469.9</ele>
        <time>2022-10-21T13:29:38Z</time>
      </trkpt>
      <trkpt lat="9.8319090" lon="-83.9745480">
        <ele>1470.1</ele>
        <time>2022-10-21T13:29:39Z</time>
      </trkpt>
      <trkpt lat="9.8319040" lon="-83.9745640">
        <ele>1470.3</ele>
        <time>2022-10-21T13:29:40Z</time>
      </trkpt>
      <trkpt lat="9.8319000" lon="-83.9745780">
        <ele>1470.4</ele>
        <time>2022-10-21T13:29:41Z</time>
      </trkpt>
      <trkpt lat="9.8318950" lon="-83.9745890">
        <ele>1470.6</ele>
        <time>2022-10-21T13:29:42Z</time>
      </trkpt>
      <trkpt lat="9.8318920" lon="-83.9745970">
        <ele>1470.7</ele>
        <time>2022-10-21T13:29:43Z</time>
      </trkpt>
      <trkpt lat="9.8318930" lon="-83.9746020">
        <ele>1470.7</ele>
        <time>2022-10-21T13:29:44Z</time>
      </trkpt>
      <trkpt lat="9.8318960" lon="-83.9746000">
        <ele>1470.8</ele>
        <time>2022-10-21T13:29:45Z</time>
      </trkpt>
      <trkpt lat="9.8319030" lon="-83.9745900">
        <ele>1470.9</ele>
        <time>2022-10-21T13:29:46Z</time>
      </trkpt>
      <trkpt lat="9.8319120" lon="-83.9745720">
        <ele>1471.2</ele>
        <time>2022-10-21T13:29:47Z</time>
      </trkpt>
      <trkpt lat="9.8319240" lon="-83.9745430">
        <ele>1471.6</ele>
        <time>2022-10-21T13:29:48Z</time>
      </trkpt>
      <trkpt lat="9.8319390" lon="-83.9745060">
        <ele>1472.1</ele>
        <time>2022-10-21T13:29:49Z</time>
      </trkpt>
      <trkpt lat="9.8319560" lon="-83.9744590">
        <ele>1471.6</ele>
        <time>2022-10-21T13:29:50Z</time>
      </trkpt>
      <trkpt lat="9.8319780" lon="-83.9744030">
        <ele>1470.8</ele>
        <time>2022-10-21T13:29:51Z</time>
      </trkpt>
      <trkpt lat="9.8320040" lon="-83.9743410">
        <ele>1469.9</ele>
        <time>2022-10-21T13:29:52Z</time>
      </trkpt>
      <trkpt lat="9.8320370" lon="-83.9742740">
        <ele>1469.1</ele>
        <time>2022-10-21T13:29:53Z</time>
      </trkpt>
      <trkpt lat="9.8320750" lon="-83.9742030">
        <ele>1468.2</ele>
        <time>2022-10-21T13:29:54Z</time>
      </trkpt>
      <trkpt lat="9.8321180" lon="-83.9741320">
        <ele>1467.4</ele>
        <time>2022-10-21T13:29:55Z</time>
      </trkpt>
      <trkpt lat="9.8321660" lon="-83.9740630">
        <ele>1466.7</ele>
        <time>2022-10-21T13:29:56Z</time>
      </trkpt>
      <trkpt lat="9.8322200" lon="-83.9739950">
        <ele>1466.0</ele>
        <time>2022-10-21T13:29:57Z</time>
      </trkpt>
      <trkpt lat="9.8322780" lon="-83.9739310">
        <ele>1465.3</ele>
        <time>2022-10-21T13:29:58Z</time>
      </trkpt>
      <trkpt lat="9.8323410" lon="-83.9738700">
        <ele>1464.5</ele>
        <time>2022-10-21T13:29:59Z</time>
      </trkpt>
      <trkpt lat="9.8324080" lon="-83.9738070">
        <ele>1463.7</ele>
        <time>2022-10-21T13:30:00Z</time>
      </trkpt>
      <trkpt lat="9.8324760" lon="-83.9737430">
        <ele>1462.7</ele>
        <time>2022-10-21T13:30:01Z</time>
      </trkpt>
      <trkpt lat="9.8325450" lon="-83.9736770">
        <ele>1461.6</ele>
        <time>2022-10-21T13:30:02Z</time>
      </trkpt>
      <trkpt lat="9.8326130" lon="-83.9736100">
        <ele>1460.4</ele>
        <time>2022-10-21T13:30:03Z</time>
      </trkpt>
      <trkpt lat="9.8326790" lon="-83.9735390">
        <ele>1459.1</ele>
        <time>2022-10-21T13:30:04Z</time>
      </trkpt>
      <trkpt lat="9.8327430" lon="-83.9734640">
        <ele>1457.8</ele>
        <time>2022-10-21T13:30:05Z</time>
      </trkpt>
      <trkpt lat="9.8328020" lon="-83.9733830">
        <ele>1456.6</ele>
        <time>2022-10-21T13:30:06Z</time>
      </trkpt>
      <trkpt lat="9.8328590" lon="-83.9732970">
        <ele>1455.6</ele>
        <time>2022-10-21T13:30:07Z</time>
      </trkpt>
      <trkpt lat="9.8329130" lon="-83.9732070">
        <ele>1454.9</ele>
        <time>2022-10-21T13:30:08Z</time>
      </trkpt>
      <trkpt lat="9.8329650" lon="-83.9731160">
        <ele>1454.3</ele>
        <time>2022-10-21T13:30:09Z</time>
      </trkpt>
      <trkpt lat="9.8330170" lon="-83.9730240">
        <ele>1453.8</ele>
        <time>2022-10-21T13:30:10Z</time>
      </trkpt>
      <trkpt lat="9.8330710" lon="-83.9729380">
        <ele>1453.3</ele>
        <time>2022-10-21T13:30:11Z</time>
      </trkpt>
      <trkpt lat="9.8331270" lon="-83.9728560">
        <ele>1452.8</ele>
        <time>2022-10-21T13:30:12Z</time>
      </trkpt>
      <trkpt lat="9.8331850" lon="-83.9727780">
        <ele>1452.4</ele>
        <time>2022-10-21T13:30:13Z</time>
      </trkpt>
      <trkpt lat="9.8332450" lon="-83.9727030">
        <ele>1452.0</ele>
        <time>2022-10-21T13:30:14Z</time>
      </trkpt>
      <trkpt lat="9.8333040" lon="-83.9726300">
        <ele>1451.6</ele>
        <time>2022-10-21T13:30:15Z</time>
      </trkpt>
      <trkpt lat="9.8333650" lon="-83.9725570">
        <ele>1451.4</ele>
        <time>2022-10-21T13:30:16Z</time>
      </trkpt>
      <trkpt lat="9.8334260" lon="-83.9724860">
        <ele>1451.2</ele>
        <time>2022-10-21T13:30:17Z</time>
      </trkpt>
      <trkpt lat="9.8334880" lon="-83.9724180">
        <ele>1451.1</ele>
        <time>2022-10-21T13:30:18Z</time>
      </trkpt>
      <trkpt lat="9.8335490" lon="-83.9723520">
        <ele>1451.0</ele>
        <time>2022-10-21T13:30:19Z</time>
      </trkpt>
      <trkpt lat="9.8336100" lon="-83.9722880">
        <ele>1451.0</ele>
        <time>2022-10-21T13:30:20Z</time>
      </trkpt>
      <trkpt lat="9.8336700" lon="-83.9722280">
        <ele>1451.1</ele>
        <time>2022-10-21T13:30:21Z</time>
      </trkpt>
      <trkpt lat="9.8337310" lon="-83.9721710">
        <ele>1451.2</ele>
        <time>2022-10-21T13:30:22Z</time>
      </trkpt>
      <trkpt lat="9.8337910" lon="-83.9721170">
        <ele>1451.2</ele>
        <time>2022-10-21T13:30:23Z</time>
      </trkpt>
      <trkpt lat="9.8338520" lon="-83.9720650">
        <ele>1451.1</ele>
        <time>2022-10-21T13:30:24Z</time>
      </trkpt>
      <trkpt lat="9.8339160" lon="-83.9720150">
        <ele>1450.8</ele>
        <time>2022-10-21T13:30:25Z</time>
      </trkpt>
      <trkpt lat="9.8339820" lon="-83.9719690">
        <ele>1450.4</ele>
        <time>2022-10-21T13:30:26Z</time>
      </trkpt>
      <trkpt lat="9.8340510" lon="-83.9719250">
        <ele>1449.9</ele>
        <time>2022-10-21T13:30:27Z</time>
      </trkpt>
      <trkpt lat="9.8341240" lon="-83.9718840">
        <ele>1449.4</ele>
        <time>2022-10-21T13:30:28Z</time>
      </trkpt>
      <trkpt lat="9.8342010" lon="-83.9718420">
        <ele>1448.7</ele>
        <time>2022-10-21T13:30:29Z</time>
      </trkpt>
      <trkpt lat="9.8342800" lon="-83.9717980">
        <ele>1447.8</ele>
        <time>2022-10-21T13:30:30Z</time>
      </trkpt>
      <trkpt lat="9.8343610" lon="-83.9717520">
        <ele>1446.7</ele>
        <time>2022-10-21T13:30:31Z</time>
      </trkpt>
      <trkpt lat="9.8344420" lon="-83.9717010">
        <ele>1445.5</ele>
        <time>2022-10-21T13:30:32Z</time>
      </trkpt>
      <trkpt lat="9.8345200" lon="-83.9716430">
        <ele>1444.5</ele>
        <time>2022-10-21T13:30:33Z</time>
      </trkpt>
      <trkpt lat="9.8345980" lon="-83.9715810">
        <ele>1443.8</ele>
        <time>2022-10-21T13:30:34Z</time>
      </trkpt>
      <trkpt lat="9.8346730" lon="-83.9715140">
        <ele>1443.4</ele>
        <time>2022-10-21T13:30:35Z</time>
      </trkpt>
      <trkpt lat="9.8347470" lon="-83.9714440">
        <ele>1443.2</ele>
        <time>2022-10-21T13:30:36Z</time>
      </trkpt>
      <trkpt lat="9.8348180" lon="-83.9713710">
        <ele>1442.9</ele>
        <time>2022-10-21T13:30:37Z</time>
      </trkpt>
      <trkpt lat="9.8348860" lon="-83.9712930">
        <ele>1442.6</ele>
        <time>2022-10-21T13:30:38Z</time>
      </trkpt>
      <trkpt lat="9.8349500" lon="-83.9712110">
        <ele>1442.2</ele>
        <time>2022-10-21T13:30:39Z</time>
      </trkpt>
      <trkpt lat="9.8350110" lon="-83.9711250">
        <ele>1441.6</ele>
        <time>2022-10-21T13:30:40Z</time>
      </trkpt>
      <trkpt lat="9.8350700" lon="-83.9710350">
        <ele>1440.8</ele>
        <time>2022-10-21T13:30:41Z</time>
      </trkpt>
      <trkpt lat="9.8351280" lon="-83.9709440">
        <ele>1439.8</ele>
        <time>2022-10-21T13:30:42Z</time>
      </trkpt>
      <trkpt lat="9.8351870" lon="-83.9708520">
        <ele>1438.9</ele>
        <time>2022-10-21T13:30:43Z</time>
      </trkpt>
      <trkpt lat="9.8352490" lon="-83.9707600">
        <ele>1438.0</ele>
        <time>2022-10-21T13:30:44Z</time>
      </trkpt>
      <trkpt lat="9.8353130" lon="-83.9706680">
        <ele>1437.2</ele>
        <time>2022-10-21T13:30:45Z</time>
      </trkpt>
      <trkpt lat="9.8353810" lon="-83.9705770">
        <ele>1436.2</ele>
        <time>2022-10-21T13:30:46Z</time>
      </trkpt>
      <trkpt lat="9.8354530" lon="-83.9704860">
        <ele>1435.2</ele>
        <time>2022-10-21T13:30:47Z</time>
      </trkpt>
      <trkpt lat="9.8355260" lon="-83.9703990">
        <ele>1434.3</ele>
        <time>2022-10-21T13:30:48Z</time>
      </trkpt>
      <trkpt lat="9.8356000" lon="-83.9703150">
        <ele>1433.6</ele>
        <time>2022-10-21T13:30:49Z</time>
      </trkpt>
      <trkpt lat="9.8356750" lon="-83.9702370">
        <ele>1433.0</ele>
        <time>2022-10-21T13:30:50Z</time>
      </trkpt>
      <trkpt lat="9.8357480" lon="-83.9701630">
        <ele>1432.4</ele>
        <time>2022-10-21T13:30:51Z</time>
      </trkpt>
      <trkpt lat="9.8358200" lon="-83.9700920">
        <ele>1431.5</ele>
        <time>2022-10-21T13:30:52Z</time>
      </trkpt>
      <trkpt lat="9.8358850" lon="-83.9700220">
        <ele>1430.3</ele>
        <time>2022-10-21T13:30:53Z</time>
      </trkpt>
      <trkpt lat="9.8359440" lon="-83.9699520">
        <ele>1429.1</ele>
        <time>2022-10-21T13:30:54Z</time>
      </trkpt>
      <trkpt lat="9.8359920" lon="-83.9698810">
        <ele>1427.8</ele>
        <time>2022-10-21T13:30:55Z</time>
      </trkpt>
      <trkpt lat="9.8360300" lon="-83.9698090">
        <ele>1426.5</ele>
        <time>2022-10-21T13:30:56Z</time>
      </trkpt>
      <trkpt lat="9.8360590" lon="-83.9697340">
        <ele>1425.2</ele>
        <time>2022-10-21T13:30:57Z</time>
      </trkpt>
      <trkpt lat="9.8360800" lon="-83.9696550">
        <ele>1423.9</ele>
        <time>2022-10-21T13:30:58Z</time>
      </trkpt>
      <trkpt lat="9.8360980" lon="-83.9695710">
        <ele>1422.6</ele>
        <time>2022-10-21T13:30:59Z</time>
      </trkpt>
      <trkpt lat="9.8361150" lon="-83.9694820">
        <ele>1421.2</ele>
        <time>2022-10-21T13:31:00Z</time>
      </trkpt>
      <trkpt lat="9.8361340" lon="-83.9693880">
        <ele>1419.8</ele>
        <time>2022-10-21T13:31:01Z</time>
      </trkpt>
      <trkpt lat="9.8361560" lon="-83.9692900">
        <ele>1418.3</ele>
        <time>2022-10-21T13:31:02Z</time>
      </trkpt>
      <trkpt lat="9.8361810" lon="-83.9691890">
        <ele>1416.9</ele>
        <time>2022-10-21T13:31:03Z</time>
      </trkpt>
      <trkpt lat="9.8362110" lon="-83.9690880">
        <ele>1415.7</ele>
        <time>2022-10-21T13:31:04Z</time>
      </trkpt>
      <trkpt lat="9.8362480" lon="-83.9689860">
        <ele>1414.4</ele>
        <time>2022-10-21T13:31:05Z</time>
      </trkpt>
      <trkpt lat="9.8362920" lon="-83.9688820">
        <ele>1413.2</ele>
        <time>2022-10-21T13:31:06Z</time>
      </trkpt>
      <trkpt lat="9.8363440" lon="-83.9687790">
        <ele>1412.2</ele>
        <time>2022-10-21T13:31:07Z</time>
      </trkpt>
      <trkpt lat="9.8364020" lon="-83.9686750">
        <ele>1411.4</ele>
        <time>2022-10-21T13:31:08Z</time>
      </trkpt>
      <trkpt lat="9.8364630" lon="-83.9685710">
        <ele>1410.7</ele>
        <time>2022-10-21T13:31:09Z</time>
      </trkpt>
      <trkpt lat="9.8365240" lon="-83.9684680">
        <ele>1410.3</ele>
        <time>2022-10-21T13:31:10Z</time>
      </trkpt>
      <trkpt lat="9.8365810" lon="-83.9683630">
        <ele>1409.9</ele>
        <time>2022-10-21T13:31:11Z</time>
      </trkpt>
      <trkpt lat="9.8366350" lon="-83.9682580">
        <ele>1409.6</ele>
        <time>2022-10-21T13:31:12Z</time>
      </trkpt>
      <trkpt lat="9.8366850" lon="-83.9681530">
        <ele>1409.3</ele>
        <time>2022-10-21T13:31:13Z</time>
      </trkpt>
      <trkpt lat="9.8367330" lon="-83.9680540">
        <ele>1408.8</ele>
        <time>2022-10-21T13:31:14Z</time>
      </trkpt>
      <trkpt lat="9.8367820" lon="-83.9679630">
        <ele>1408.2</ele>
        <time>2022-10-21T13:31:15Z</time>
      </trkpt>
      <trkpt lat="9.8368350" lon="-83.9678830">
        <ele>1407.5</ele>
        <time>2022-10-21T13:31:16Z</time>
      </trkpt>
      <trkpt lat="9.8368920" lon="-83.9678160">
        <ele>1406.8</ele>
        <time>2022-10-21T13:31:17Z</time>
      </trkpt>
      <trkpt lat="9.8369560" lon="-83.9677600">
        <ele>1406.0</ele>
        <time>2022-10-21T13:31:18Z</time>
      </trkpt>
      <trkpt lat="9.8370250" lon="-83.9677140">
        <ele>1405.2</ele>
        <time>2022-10-21T13:31:19Z</time>
      </trkpt>
      <trkpt lat="9.8371020" lon="-83.9676730">
        <ele>1404.2</ele>
        <time>2022-10-21T13:31:20Z</time>
      </trkpt>
      <trkpt lat="9.8371840" lon="-83.9676360">
        <ele>1403.1</ele>
        <time>2022-10-21T13:31:21Z</time>
      </trkpt>
      <trkpt lat="9.8372700" lon="-83.9675990">
        <ele>1402.0</ele>
        <time>2022-10-21T13:31:22Z</time>
      </trkpt>
      <trkpt lat="9.8373580" lon="-83.9675620">
        <ele>1400.8</ele>
        <time>2022-10-21T13:31:23Z</time>
      </trkpt>
      <trkpt lat="9.8374460" lon="-83.9675210">
        <ele>1399.6</ele>
        <time>2022-10-21T13:31:24Z</time>
      </trkpt>
      <trkpt lat="9.8375320" lon="-83.9674730">
        <ele>1398.5</ele>
        <time>2022-10-21T13:31:25Z</time>
      </trkpt>
      <trkpt lat="9.8376120" lon="-83.9674160">
        <ele>1397.6</ele>
        <time>2022-10-21T13:31:26Z</time>
      </trkpt>
      <trkpt lat="9.8376830" lon="-83.9673460">
        <ele>1396.8</ele>
        <time>2022-10-21T13:31:27Z</time>
      </trkpt>
      <trkpt lat="9.8377460" lon="-83.9672620">
        <ele>1396.3</ele>
        <time>2022-10-21T13:31:28Z</time>
      </trkpt>
      <trkpt lat="9.8377980" lon="-83.9671660">
        <ele>1395.8</ele>
        <time>2022-10-21T13:31:29Z</time>
      </trkpt>
      <trkpt lat="9.8378390" lon="-83.9670610">
        <ele>1395.5</ele>
        <time>2022-10-21T13:31:30Z</time>
      </trkpt>
      <trkpt lat="9.8378700" lon="-83.9669500">
        <ele>1395.2</ele>
        <time>2022-10-21T13:31:31Z</time>
      </trkpt>
      <trkpt lat="9.8378930" lon="-83.9668360">
        <ele>1395.2</ele>
        <time>2022-10-21T13:31:32Z</time>
      </trkpt>
      <trkpt lat="9.8379100" lon="-83.9667230">
        <ele>1395.2</ele>
        <time>2022-10-21T13:31:33Z</time>
      </trkpt>
      <trkpt lat="9.8379230" lon="-83.9666120">
        <ele>1395.2</ele>
        <time>2022-10-21T13:31:34Z</time>
      </trkpt>
      <trkpt lat="9.8379340" lon="-83.9665040">
        <ele>1395.1</ele>
        <time>2022-10-21T13:31:35Z</time>
      </trkpt>
      <trkpt lat="9.8379430" lon="-83.9663970">
        <ele>1395.0</ele>
        <time>2022-10-21T13:31:36Z</time>
      </trkpt>
      <trkpt lat="9.8379500" lon="-83.9662920">
        <ele>1394.9</ele>
        <time>2022-10-21T13:31:37Z</time>
      </trkpt>
      <trkpt lat="9.8379590" lon="-83.9661870">
        <ele>1394.8</ele>
        <time>2022-10-21T13:31:38Z</time>
      </trkpt>
      <trkpt lat="9.8379700" lon="-83.9660850">
        <ele>1394.7</ele>
        <time>2022-10-21T13:31:39Z</time>
      </trkpt>
      <trkpt lat="9.8379810" lon="-83.9659850">
        <ele>1394.6</ele>
        <time>2022-10-21T13:31:40Z</time>
      </trkpt>
      <trkpt lat="9.8379940" lon="-83.9658850">
        <ele>1394.5</ele>
        <time>2022-10-21T13:31:41Z</time>
      </trkpt>
      <trkpt lat="9.8380070" lon="-83.9657880">
        <ele>1394.3</ele>
        <time>2022-10-21T13:31:42Z</time>
      </trkpt>
      <trkpt lat="9.8380190" lon="-83.9656910">
        <ele>1394.1</ele>
        <time>2022-10-21T13:31:43Z</time>
      </trkpt>
      <trkpt lat="9.8380310" lon="-83.9655960">
        <ele>1394.0</ele>
        <time>2022-10-21T13:31:44Z</time>
      </trkpt>
      <trkpt lat="9.8380420" lon="-83.9655020">
        <ele>1393.7</ele>
        <time>2022-10-21T13:31:45Z</time>
      </trkpt>
      <trkpt lat="9.8380510" lon="-83.9654100">
        <ele>1393.5</ele>
        <time>2022-10-21T13:31:46Z</time>
      </trkpt>
      <trkpt lat="9.8380600" lon="-83.9653200">
        <ele>1393.2</ele>
        <time>2022-10-21T13:31:47Z</time>
      </trkpt>
      <trkpt lat="9.8380670" lon="-83.9652320">
        <ele>1393.0</ele>
        <time>2022-10-21T13:31:48Z</time>
      </trkpt>
      <trkpt lat="9.8380710" lon="-83.9651450">
        <ele>1392.8</ele>
        <time>2022-10-21T13:31:49Z</time>
      </trkpt>
      <trkpt lat="9.8380720" lon="-83.9650590">
        <ele>1392.6</ele>
        <time>2022-10-21T13:31:50Z</time>
      </trkpt>
      <trkpt lat="9.8380690" lon="-83.9649740">
        <ele>1392.5</ele>
        <time>2022-10-21T13:31:51Z</time>
      </trkpt>
      <trkpt lat="9.8380630" lon="-83.9648900">
        <ele>1392.3</ele>
        <time>2022-10-21T13:31:52Z</time>
      </trkpt>
      <trkpt lat="9.8380550" lon="-83.9648070">
        <ele>1392.1</ele>
        <time>2022-10-21T13:31:53Z</time>
      </trkpt>
      <trkpt lat="9.8380460" lon="-83.9647240">
        <ele>1392.0</ele>
        <time>2022-10-21T13:31:54Z</time>
      </trkpt>
      <trkpt lat="9.8380360" lon="-83.9646420">
        <ele>1391.8</ele>
        <time>2022-10-21T13:31:55Z</time>
      </trkpt>
      <trkpt lat="9.8380240" lon="-83.9645600">
        <ele>1391.7</ele>
        <time>2022-10-21T13:31:56Z</time>
      </trkpt>
      <trkpt lat="9.8380120" lon="-83.9644790">
        <ele>1391.6</ele>
        <time>2022-10-21T13:31:57Z</time>
      </trkpt>
      <trkpt lat="9.8379990" lon="-83.9643980">
        <ele>1391.5</ele>
        <time>2022-10-21T13:31:58Z</time>
      </trkpt>
      <trkpt lat="9.8379850" lon="-83.9643190">
        <ele>1391.4</ele>
        <time>2022-10-21T13:31:59Z</time>
      </trkpt>
      <trkpt lat="9.8379720" lon="-83.9642400">
        <ele>1391.3</ele>
        <time>2022-10-21T13:32:00Z</time>
      </trkpt>
      <trkpt lat="9.8379610" lon="-83.9641640">
        <ele>1391.2</ele>
        <time>2022-10-21T13:32:01Z</time>
      </trkpt>
      <trkpt lat="9.8379530" lon="-83.9640890">
        <ele>1391.1</ele>
        <time>2022-10-21T13:32:02Z</time>
      </trkpt>
      <trkpt lat="9.8379510" lon="-83.9640180">
        <ele>1391.0</ele>
        <time>2022-10-21T13:32:03Z</time>
      </trkpt>
      <trkpt lat="9.8379540" lon="-83.9639510">
        <ele>1390.9</ele>
        <time>2022-10-21T13:32:04Z</time>
      </trkpt>
      <trkpt lat="9.8379650" lon="-83.9638900">
        <ele>1390.8</ele>
        <time>2022-10-21T13:32:05Z</time>
      </trkpt>
      <trkpt lat="9.8379820" lon="-83.9638350">
        <ele>1390.8</ele>
        <time>2022-10-21T13:32:06Z</time>
      </trkpt>
      <trkpt lat="9.8380070" lon="-83.9637850">
        <ele>1390.7</ele>
        <time>2022-10-21T13:32:07Z</time>
      </trkpt>
      <trkpt lat="9.8380370" lon="-83.9637410">
        <ele>1390.6</ele>
        <time>2022-10-21T13:32:08Z</time>
      </trkpt>
      <trkpt lat="9.8380750" lon="-83.9637020">
        <ele>1389.9</ele>
        <time>2022-10-21T13:32:09Z</time>
      </trkpt>
      <trkpt lat="9.8381190" lon="-83.9636680">
        <ele>1389.7</ele>
        <time>2022-10-21T13:32:10Z</time>
      </trkpt>
      <trkpt lat="9.8381700" lon="-83.9636380">
        <ele>1389.4</ele>
        <time>2022-10-21T13:32:11Z</time>
      </trkpt>
      <trkpt lat="9.8382260" lon="-83.9636130">
        <ele>1389.2</ele>
        <time>2022-10-21T13:32:12Z</time>
      </trkpt>
      <trkpt lat="9.8382850" lon="-83.9635910">
        <ele>1389.0</ele>
        <time>2022-10-21T13:32:13Z</time>
      </trkpt>
      <trkpt lat="9.8383480" lon="-83.9635710">
        <ele>1388.8</ele>
        <time>2022-10-21T13:32:14Z</time>
      </trkpt>
      <trkpt lat="9.8384110" lon="-83.9635520">
        <ele>1388.6</ele>
        <time>2022-10-21T13:32:15Z</time>
      </trkpt>
      <trkpt lat="9.8384740" lon="-83.9635330">
        <ele>1388.5</ele>
        <time>2022-10-21T13:32:16Z</time>
      </trkpt>
      <trkpt lat="9.8385380" lon="-83.9635140">
        <ele>1388.3</ele>
        <time>2022-10-21T13:32:17Z</time>
      </trkpt>
      <trkpt lat="9.8386030" lon="-83.9634940">
        <ele>1388.2</ele>
        <time>2022-10-21T13:32:18Z</time>
      </trkpt>
      <trkpt lat="9.8386690" lon="-83.9634730">
        <ele>1388.1</ele>
        <time>2022-10-21T13:32:19Z</time>
      </trkpt>
      <trkpt lat="9.8387360" lon="-83.9634500">
        <ele>1387.9</ele>
        <time>2022-10-21T13:32:20Z</time>
      </trkpt>
      <trkpt lat="9.8388040" lon="-83.9634260">
        <ele>1387.7</ele>
        <time>2022-10-21T13:32:21Z</time>
      </trkpt>
      <trkpt lat="9.8388730" lon="-83.9634020">
        <ele>1387.6</ele>
        <time>2022-10-21T13:32:22Z</time>
      </trkpt>
      <trkpt lat="9.8389430" lon="-83.9633770">
        <ele>1387.4</ele>
        <time>2022-10-21T13:32:23Z</time>
      </trkpt>
      <trkpt lat="9.8390140" lon="-83.9633510">
        <ele>1387.2</ele>
        <time>2022-10-21T13:32:24Z</time>
      </trkpt>
      <trkpt lat="9.8390850" lon="-83.9633250">
        <ele>1387.0</ele>
        <time>2022-10-21T13:32:25Z</time>
      </trkpt>
      <trkpt lat="9.8391570" lon="-83.9632970">
        <ele>1386.8</ele>
        <time>2022-10-21T13:32:26Z</time>
      </trkpt>
      <trkpt lat="9.8392280" lon="-83.9632680">
        <ele>1386.7</ele>
        <time>2022-10-21T13:32:27Z</time>
      </trkpt>
      <trkpt lat="9.8392990" lon="-83.9632390">
        <ele>1386.5</ele>
        <time>2022-10-21T13:32:28Z</time>
      </trkpt>
      <trkpt lat="9.8393700" lon="-83.9632100">
        <ele>1386.4</ele>
        <time>2022-10-21T13:32:29Z</time>
      </trkpt>
      <trkpt lat="9.8394400" lon="-83.9631810">
        <ele>1386.3</ele>
        <time>2022-10-21T13:32:30Z</time>
      </trkpt>
      <trkpt lat="9.8395090" lon="-83.9631520">
        <ele>1386.2</ele>
        <time>2022-10-21T13:32:31Z</time>
      </trkpt>
      <trkpt lat="9.8395780" lon="-83.9631240">
        <ele>1386.1</ele>
        <time>2022-10-21T13:32:32Z</time>
      </trkpt>
      <trkpt lat="9.8396470" lon="-83.9630960">
        <ele>1386.1</ele>
        <time>2022-10-21T13:32:33Z</time>
      </trkpt>
      <trkpt lat="9.8397150" lon="-83.9630680">
        <ele>1386.0</ele>
        <time>2022-10-21T13:32:34Z</time>
      </trkpt>
      <trkpt lat="9.8397820" lon="-83.9630400">
        <ele>1385.9</ele>
        <time>2022-10-21T13:32:35Z</time>
      </trkpt>
      <trkpt lat="9.8398490" lon="-83.9630130">
        <ele>1385.8</ele>
        <time>2022-10-21T13:32:36Z</time>
      </trkpt>
      <trkpt lat="9.8399150" lon="-83.9629870">
        <ele>1385.7</ele>
        <time>2022-10-21T13:32:37Z</time>
      </trkpt>
      <trkpt lat="9.8399820" lon="-83.9629610">
        <ele>1385.7</ele>
        <time>2022-10-21T13:32:38Z</time>
      </trkpt>
      <trkpt lat="9.8400480" lon="-83.9629350">
        <ele>1385.6</ele>
        <time>2022-10-21T13:32:39Z</time>
      </trkpt>
      <trkpt lat="9.8401140" lon="-83.9629090">
        <ele>1385.6</ele>
        <time>2022-10-21T13:32:40Z</time>
      </trkpt>
      <trkpt lat="9.8401800" lon="-83.9628840">
        <ele>1385.6</ele>
        <time>2022-10-21T13:32:41Z</time>
      </trkpt>
      <trkpt lat="9.8402450" lon="-83.9628580">
        <ele>1385.5</ele>
        <time>2022-10-21T13:32:42Z</time>
      </trkpt>
      <trkpt lat="9.8403110" lon="-83.9628330">
        <ele>1385.5</ele>
        <time>2022-10-21T13:32:43Z</time>
      </trkpt>
      <trkpt lat="9.8403760" lon="-83.9628070">
        <ele>1385.5</ele>
        <time>2022-10-21T13:32:44Z</time>
      </trkpt>
      <trkpt lat="9.8404410" lon="-83.9627820">
        <ele>1385.5</ele>
        <time>2022-10-21T13:32:45Z</time>
      </trkpt>
      <trkpt lat="9.8405060" lon="-83.9627560">
        <ele>1385.5</ele>
        <time>2022-10-21T13:32:46Z</time>
      </trkpt>
      <trkpt lat="9.8405710" lon="-83.9627290">
        <ele>1385.5</ele>
        <time>2022-10-21T13:32:47Z</time>
      </trkpt>
      <trkpt lat="9.8406360" lon="-83.9627010">
        <ele>1385.6</ele>
        <time>2022-10-21T13:32:48Z</time>
      </trkpt>
      <trkpt lat="9.8407000" lon="-83.9626720">
        <ele>1385.6</ele>
        <time>2022-10-21T13:32:49Z</time>
      </trkpt>
      <trkpt lat="9.8407600" lon="-83.9626410">
        <ele>1385.6</ele>
        <time>2022-10-21T13:32:50Z</time>
      </trkpt>
      <trkpt lat="9.8408160" lon="-83.9626060">
        <ele>1385.6</ele>
        <time>2022-10-21T13:32:51Z</time>
      </trkpt>
      <trkpt lat="9.8408660" lon="-83.9625670">
        <ele>1385.7</ele>
        <time>2022-10-21T13:32:52Z</time>
      </trkpt>
      <trkpt lat="9.8409100" lon="-83.9625250">
        <ele>1385.6</ele>
        <time>2022-10-21T13:32:53Z</time>
      </trkpt>
      <trkpt lat="9.8409470" lon="-83.9624780">
        <ele>1385.6</ele>
        <time>2022-10-21T13:32:54Z</time>
      </trkpt>
      <trkpt lat="9.8409760" lon="-83.9624290">
        <ele>1385.6</ele>
        <time>2022-10-21T13:32:55Z</time>
      </trkpt>
      <trkpt lat="9.8409980" lon="-83.9623750">
        <ele>1385.6</ele>
        <time>2022-10-21T13:32:56Z</time>
      </trkpt>
      <trkpt lat="9.8410130" lon="-83.9623180">
        <ele>1385.5</ele>
        <time>2022-10-21T13:32:57Z</time>
      </trkpt>
      <trkpt lat="9.8410220" lon="-83.9622580">
        <ele>1385.4</ele>
        <time>2022-10-21T13:32:58Z</time>
      </trkpt>
      <trkpt lat="9.8410240" lon="-83.9621940">
        <ele>1385.4</ele>
        <time>2022-10-21T13:32:59Z</time>
      </trkpt>
      <trkpt lat="9.8410220" lon="-83.9621270">
        <ele>1385.3</ele>
        <time>2022-10-21T13:33:00Z</time>
      </trkpt>
      <trkpt lat="9.8410150" lon="-83.9620580">
        <ele>1385.3</ele>
        <time>2022-10-21T13:33:01Z</time>
      </trkpt>
      <trkpt lat="9.8410080" lon="-83.9619890">
        <ele>1385.2</ele>
        <time>2022-10-21T13:33:02Z</time>
      </trkpt>
      <trkpt lat="9.8409990" lon="-83.9619200">
        <ele>1385.1</ele>
        <time>2022-10-21T13:33:03Z</time>
      </trkpt>
      <trkpt lat="9.8409920" lon="-83.9618510">
        <ele>1385.0</ele>
        <time>2022-10-21T13:33:04Z</time>
      </trkpt>
      <trkpt lat="9.8409850" lon="-83.9617810">
        <ele>1385.0</ele>
        <time>2022-10-21T13:33:05Z</time>
      </trkpt>
      <trkpt lat="9.8409800" lon="-83.9617120">
        <ele>1384.9</ele>
        <time>2022-10-21T13:33:06Z</time>
      </trkpt>
      <trkpt lat="9.8409760" lon="-83.9616420">
        <ele>1384.9</ele>
        <time>2022-10-21T13:33:07Z</time>
      </trkpt>
      <trkpt lat="9.8409730" lon="-83.9615730">
        <ele>1384.9</ele>
        <time>2022-10-21T13:33:08Z</time>
      </trkpt>
      <trkpt lat="9.8409710" lon="-83.9615040">
        <ele>1384.9</ele>
        <time>2022-10-21T13:33:09Z</time>
      </trkpt>
      <trkpt lat="9.8409700" lon="-83.9614360">
        <ele>1384.8</ele>
        <time>2022-10-21T13:33:10Z</time>
      </trkpt>
      <trkpt lat="9.8409720" lon="-83.9613680">
        <ele>1384.8</ele>
        <time>2022-10-21T13:33:11Z</time>
      </trkpt>
      <trkpt lat="9.8409740" lon="-83.9613020">
        <ele>1384.8</ele>
        <time>2022-10-21T13:33:12Z</time>
      </trkpt>
      <trkpt lat="9.8409790" lon="-83.9612360">
        <ele>1384.7</ele>
        <time>2022-10-21T13:33:13Z</time>
      </trkpt>
      <trkpt lat="9.8409850" lon="-83.9611720">
        <ele>1384.7</ele>
        <time>2022-10-21T13:33:14Z</time>
      </trkpt>
      <trkpt lat="9.8409920" lon="-83.9611070">
        <ele>1384.7</ele>
        <time>2022-10-21T13:33:15Z</time>
      </trkpt>
      <trkpt lat="9.8410010" lon="-83.9610430">
        <ele>1384.7</ele>
        <time>2022-10-21T13:33:16Z</time>
      </trkpt>
      <trkpt lat="9.8410120" lon="-83.9609800">
        <ele>1384.7</ele>
        <time>2022-10-21T13:33:17Z</time>
      </trkpt>
      <trkpt lat="9.8410250" lon="-83.9609160">
        <ele>1384.6</ele>
        <time>2022-10-21T13:33:18Z</time>
      </trkpt>
      <trkpt lat="9.8410390" lon="-83.9608530">
        <ele>1384.6</ele>
        <time>2022-10-21T13:33:19Z</time>
      </trkpt>
      <trkpt lat="9.8410540" lon="-83.9607900">
        <ele>1384.6</ele>
        <time>2022-10-21T13:33:20Z</time>
      </trkpt>
      <trkpt lat="9.8410690" lon="-83.9607270">
        <ele>1384.6</ele>
        <time>2022-10-21T13:33:21Z</time>
      </trkpt>
      <trkpt lat="9.8410840" lon="-83.9606630">
        <ele>1384.6</ele>
        <time>2022-10-21T13:33:22Z</time>
      </trkpt>
      <trkpt lat="9.8410990" lon="-83.9605990">
        <ele>1384.5</ele>
        <time>2022-10-21T13:33:23Z</time>
      </trkpt>
      <trkpt lat="9.8411140" lon="-83.9605340">
        <ele>1384.5</ele>
        <time>2022-10-21T13:33:24Z</time>
      </trkpt>
      <trkpt lat="9.8411280" lon="-83.9604690">
        <ele>1384.5</ele>
        <time>2022-10-21T13:33:25Z</time>
      </trkpt>
      <trkpt lat="9.8411410" lon="-83.9604030">
        <ele>1384.4</ele>
        <time>2022-10-21T13:33:26Z</time>
      </trkpt>
      <trkpt lat="9.8411530" lon="-83.9603360">
        <ele>1384.4</ele>
        <time>2022-10-21T13:33:27Z</time>
      </trkpt>
      <trkpt lat="9.8411640" lon="-83.9602690">
        <ele>1384.4</ele>
        <time>2022-10-21T13:33:28Z</time>
      </trkpt>
      <trkpt lat="9.8411750" lon="-83.9602020">
        <ele>1384.3</ele>
        <time>2022-10-21T13:33:29Z</time>
      </trkpt>
      <trkpt lat="9.8411850" lon="-83.9601340">
        <ele>1384.3</ele>
        <time>2022-10-21T13:33:30Z</time>
      </trkpt>
      <trkpt lat="9.8411960" lon="-83.9600670">
        <ele>1384.2</ele>
        <time>2022-10-21T13:33:31Z</time>
      </trkpt>
      <trkpt lat="9.8412080" lon="-83.9600010">
        <ele>1384.1</ele>
        <time>2022-10-21T13:33:32Z</time>
      </trkpt>
      <trkpt lat="9.8412220" lon="-83.9599340">
        <ele>1384.1</ele>
        <time>2022-10-21T13:33:33Z</time>
      </trkpt>
      <trkpt lat="9.8412380" lon="-83.9598690">
        <ele>1384.2</ele>
        <time>2022-10-21T13:33:34Z</time>
      </trkpt>
      <trkpt lat="9.8412560" lon="-83.9598040">
        <ele>1384.2</ele>
        <time>2022-10-21T13:33:35Z</time>
      </trkpt>
      <trkpt lat="9.8412770" lon="-83.9597400">
        <ele>1384.3</ele>
        <time>2022-10-21T13:33:36Z</time>
      </trkpt>
      <trkpt lat="9.8412990" lon="-83.9596780">
        <ele>1384.3</ele>
        <time>2022-10-21T13:33:37Z</time>
      </trkpt>
      <trkpt lat="9.8413250" lon="-83.9596160">
        <ele>1384.3</ele>
        <time>2022-10-21T13:33:38Z</time>
      </trkpt>
      <trkpt lat="9.8413520" lon="-83.9595560">
        <ele>1384.4</ele>
        <time>2022-10-21T13:33:39Z</time>
      </trkpt>
      <trkpt lat="9.8413810" lon="-83.9594980">
        <ele>1384.4</ele>
        <time>2022-10-21T13:33:40Z</time>
      </trkpt>
      <trkpt lat="9.8414120" lon="-83.9594410">
        <ele>1384.5</ele>
        <time>2022-10-21T13:33:41Z</time>
      </trkpt>
      <trkpt lat="9.8414430" lon="-83.9593860">
        <ele>1384.6</ele>
        <time>2022-10-21T13:33:42Z</time>
      </trkpt>
      <trkpt lat="9.8414740" lon="-83.9593320">
        <ele>1384.8</ele>
        <time>2022-10-21T13:33:43Z</time>
      </trkpt>
      <trkpt lat="9.8415040" lon="-83.9592780">
        <ele>1384.9</ele>
        <time>2022-10-21T13:33:44Z</time>
      </trkpt>
      <trkpt lat="9.8415330" lon="-83.9592250">
        <ele>1384.9</ele>
        <time>2022-10-21T13:33:45Z</time>
      </trkpt>
      <trkpt lat="9.8415610" lon="-83.9591720">
        <ele>1384.9</ele>
        <time>2022-10-21T13:33:46Z</time>
      </trkpt>
      <trkpt lat="9.8415860" lon="-83.9591190">
        <ele>1384.9</ele>
        <time>2022-10-21T13:33:47Z</time>
      </trkpt>
      <trkpt lat="9.8416100" lon="-83.9590650">
        <ele>1384.9</ele>
        <time>2022-10-21T13:33:48Z</time>
      </trkpt>
      <trkpt lat="9.8416330" lon="-83.9590100">
        <ele>1384.8</ele>
        <time>2022-10-21T13:33:49Z</time>
      </trkpt>
      <trkpt lat="9.8416530" lon="-83.9589540">
        <ele>1384.7</ele>
        <time>2022-10-21T13:33:50Z</time>
      </trkpt>
      <trkpt lat="9.8416720" lon="-83.9588970">
        <ele>1384.6</ele>
        <time>2022-10-21T13:33:51Z</time>
      </trkpt>
      <trkpt lat="9.8416890" lon="-83.9588380">
        <ele>1384.6</ele>
        <time>2022-10-21T13:33:52Z</time>
      </trkpt>
      <trkpt lat="9.8417060" lon="-83.9587780">
        <ele>1384.5</ele>
        <time>2022-10-21T13:33:53Z</time>
      </trkpt>
      <trkpt lat="9.8417240" lon="-83.9587180">
        <ele>1384.4</ele>
        <time>2022-10-21T13:33:54Z</time>
      </trkpt>
      <trkpt lat="9.8417420" lon="-83.9586570">
        <ele>1384.2</ele>
        <time>2022-10-21T13:33:55Z</time>
      </trkpt>
      <trkpt lat="9.8417630" lon="-83.9585970">
        <ele>1384.1</ele>
        <time>2022-10-21T13:33:56Z</time>
      </trkpt>
      <trkpt lat="9.8417870" lon="-83.9585370">
        <ele>1384.0</ele>
        <time>2022-10-21T13:33:57Z</time>
      </trkpt>
      <trkpt lat="9.8418130" lon="-83.9584790">
        <ele>1384.0</ele>
        <time>2022-10-21T13:33:58Z</time>
      </trkpt>
      <trkpt lat="9.8418440" lon="-83.9584230">
        <ele>1383.9</ele>
        <time>2022-10-21T13:33:59Z</time>
      </trkpt>
      <trkpt lat="9.8418780" lon="-83.9583690">
        <ele>1383.9</ele>
        <time>2022-10-21T13:34:00Z</time>
      </trkpt>
      <trkpt lat="9.8419160" lon="-83.9583190">
        <ele>1383.9</ele>
        <time>2022-10-21T13:34:01Z</time>
      </trkpt>
      <trkpt lat="9.8419590" lon="-83.9582700">
        <ele>1383.9</ele>
        <time>2022-10-21T13:34:02Z</time>
      </trkpt>
      <trkpt lat="9.8420040" lon="-83.9582250">
        <ele>1384.0</ele>
        <time>2022-10-21T13:34:03Z</time>
      </trkpt>
      <trkpt lat="9.8420530" lon="-83.9581810">
        <ele>1384.0</ele>
        <time>2022-10-21T13:34:04Z</time>
      </trkpt>
      <trkpt lat="9.8421030" lon="-83.9581380">
        <ele>1384.1</ele>
        <time>2022-10-21T13:34:05Z</time>
      </trkpt>
      <trkpt lat="9.8421550" lon="-83.9580980">
        <ele>1384.1</ele>
        <time>2022-10-21T13:34:06Z</time>
      </trkpt>
      <trkpt lat="9.8422070" lon="-83.9580590">
        <ele>1384.1</ele>
        <time>2022-10-21T13:34:07Z</time>
      </trkpt>
      <trkpt lat="9.8422600" lon="-83.9580220">
        <ele>1384.1</ele>
        <time>2022-10-21T13:34:08Z</time>
      </trkpt>
      <trkpt lat="9.8423130" lon="-83.9579860">
        <ele>1384.2</ele>
        <time>2022-10-21T13:34:09Z</time>
      </trkpt>
      <trkpt lat="9.8423670" lon="-83.9579500">
        <ele>1384.2</ele>
        <time>2022-10-21T13:34:10Z</time>
      </trkpt>
      <trkpt lat="9.8424200" lon="-83.9579150">
        <ele>1384.2</ele>
        <time>2022-10-21T13:34:11Z</time>
      </trkpt>
      <trkpt lat="9.8424740" lon="-83.9578810">
        <ele>1384.2</ele>
        <time>2022-10-21T13:34:12Z</time>
      </trkpt>
      <trkpt lat="9.8425290" lon="-83.9578470">
        <ele>1384.3</ele>
        <time>2022-10-21T13:34:13Z</time>
      </trkpt>
      <trkpt lat="9.8425830" lon="-83.9578140">
        <ele>1384.3</ele>
        <time>2022-10-21T13:34:14Z</time>
      </trkpt>
      <trkpt lat="9.8426390" lon="-83.9577820">
        <ele>1384.4</ele>
        <time>2022-10-21T13:34:15Z</time>
      </trkpt>
      <trkpt lat="9.8426950" lon="-83.9577510">
        <ele>1384.4</ele>
        <time>2022-10-21T13:34:16Z</time>
      </trkpt>
      <trkpt lat="9.8427520" lon="-83.9577210">
        <ele>1384.5</ele>
        <time>2022-10-21T13:34:17Z</time>
      </trkpt>
      <trkpt lat="9.8428090" lon="-83.9576910">
        <ele>1384.5</ele>
        <time>2022-10-21T13:34:18Z</time>
      </trkpt>
      <trkpt lat="9.8428680" lon="-83.9576620">
        <ele>1384.6</ele>
        <time>2022-10-21T13:34:19Z</time>
      </trkpt>
      <trkpt lat="9.8429260" lon="-83.9576340">
        <ele>1384.7</ele>
        <time>2022-10-21T13:34:20Z</time>
      </trkpt>
      <trkpt lat="9.8429840" lon="-83.9576060">
        <ele>1384.8</ele>
        <time>2022-10-21T13:34:21Z</time>
      </trkpt>
      <trkpt lat="9.8430420" lon="-83.9575790">
        <ele>1384.9</ele>
        <time>2022-10-21T13:34:22Z</time>
      </trkpt>
      <trkpt lat="9.8431010" lon="-83.9575530">
        <ele>1385.0</ele>
        <time>2022-10-21T13:34:23Z</time>
      </trkpt>
      <trkpt lat="9.8431590" lon="-83.9575260">
        <ele>1385.1</ele>
        <time>2022-10-21T13:34:24Z</time>
      </trkpt>
      <trkpt lat="9.8432160" lon="-83.9575010">
        <ele>1385.2</ele>
        <time>2022-10-21T13:34:25Z</time>
      </trkpt>
      <trkpt lat="9.8432740" lon="-83.9574750">
        <ele>1385.3</ele>
        <time>2022-10-21T13:34:26Z</time>
      </trkpt>
      <trkpt lat="9.8433300" lon="-83.9574500">
        <ele>1385.4</ele>
        <time>2022-10-21T13:34:27Z</time>
      </trkpt>
      <trkpt lat="9.8433870" lon="-83.9574250">
        <ele>1385.5</ele>
        <time>2022-10-21T13:34:28Z</time>
      </trkpt>
      <trkpt lat="9.8434420" lon="-83.9574000">
        <ele>1385.6</ele>
        <time>2022-10-21T13:34:29Z</time>
      </trkpt>
      <trkpt lat="9.8434980" lon="-83.9573740">
        <ele>1385.7</ele>
        <time>2022-10-21T13:34:30Z</time>
      </trkpt>
      <trkpt lat="9.8435530" lon="-83.9573490">
        <ele>1385.8</ele>
        <time>2022-10-21T13:34:31Z</time>
      </trkpt>
      <trkpt lat="9.8436090" lon="-83.9573240">
        <ele>1385.9</ele>
        <time>2022-10-21T13:34:32Z</time>
      </trkpt>
      <trkpt lat="9.8436640" lon="-83.9573000">
        <ele>1385.9</ele>
        <time>2022-10-21T13:34:33Z</time>
      </trkpt>
      <trkpt lat="9.8437180" lon="-83.9572750">
        <ele>1386.0</ele>
        <time>2022-10-21T13:34:34Z</time>
      </trkpt>
      <trkpt lat="9.8437730" lon="-83.9572510">
        <ele>1386.1</ele>
        <time>2022-10-21T13:34:35Z</time>
      </trkpt>
      <trkpt lat="9.8438270" lon="-83.9572260">
        <ele>1386.1</ele>
        <time>2022-10-21T13:34:36Z</time>
      </trkpt>
      <trkpt lat="9.8438810" lon="-83.9572010">
        <ele>1386.1</ele>
        <time>2022-10-21T13:34:37Z</time>
      </trkpt>
      <trkpt lat="9.8439360" lon="-83.9571770">
        <ele>1386.2</ele>
        <time>2022-10-21T13:34:38Z</time>
      </trkpt>
      <trkpt lat="9.8439900" lon="-83.9571520">
        <ele>1386.2</ele>
        <time>2022-10-21T13:34:39Z</time>
      </trkpt>
      <trkpt lat="9.8440450" lon="-83.9571280">
        <ele>1386.2</ele>
        <time>2022-10-21T13:34:40Z</time>
      </trkpt>
      <trkpt lat="9.8441000" lon="-83.9571040">
        <ele>1386.3</ele>
        <time>2022-10-21T13:34:41Z</time>
      </trkpt>
      <trkpt lat="9.8441550" lon="-83.9570800">
        <ele>1386.3</ele>
        <time>2022-10-21T13:34:42Z</time>
      </trkpt>
      <trkpt lat="9.8442090" lon="-83.9570560">
        <ele>1386.3</ele>
        <time>2022-10-21T13:34:43Z</time>
      </trkpt>
      <trkpt lat="9.8442650" lon="-83.9570310">
        <ele>1386.4</ele>
        <time>2022-10-21T13:34:44Z</time>
      </trkpt>
      <trkpt lat="9.8443200" lon="-83.9570070">
        <ele>1386.4</ele>
        <time>2022-10-21T13:34:45Z</time>
      </trkpt>
      <trkpt lat="9.8443770" lon="-83.9569830">
        <ele>1386.4</ele>
        <time>2022-10-21T13:34:46Z</time>
      </trkpt>
      <trkpt lat="9.8444330" lon="-83.9569600">
        <ele>1386.5</ele>
        <time>2022-10-21T13:34:47Z</time>
      </trkpt>
      <trkpt lat="9.8444900" lon="-83.9569360">
        <ele>1386.5</ele>
        <time>2022-10-21T13:34:48Z</time>
      </trkpt>
      <trkpt lat="9.8445460" lon="-83.9569120">
        <ele>1386.6</ele>
        <time>2022-10-21T13:34:49Z</time>
      </trkpt>
      <trkpt lat="9.8446030" lon="-83.9568870">
        <ele>1386.6</ele>
        <time>2022-10-21T13:34:50Z</time>
      </trkpt>
      <trkpt lat="9.8446600" lon="-83.9568630">
        <ele>1386.6</ele>
        <time>2022-10-21T13:34:51Z</time>
      </trkpt>
      <trkpt lat="9.8447160" lon="-83.9568380">
        <ele>1386.7</ele>
        <time>2022-10-21T13:34:52Z</time>
      </trkpt>
      <trkpt lat="9.8447730" lon="-83.9568140">
        <ele>1386.7</ele>
        <time>2022-10-21T13:34:53Z</time>
      </trkpt>
      <trkpt lat="9.8448300" lon="-83.9567880">
        <ele>1386.8</ele>
        <time>2022-10-21T13:34:54Z</time>
      </trkpt>
      <trkpt lat="9.8448870" lon="-83.9567630">
        <ele>1386.8</ele>
        <time>2022-10-21T13:34:55Z</time>
      </trkpt>
      <trkpt lat="9.8449440" lon="-83.9567370">
        <ele>1386.9</ele>
        <time>2022-10-21T13:34:56Z</time>
      </trkpt>
      <trkpt lat="9.8450020" lon="-83.9567110">
        <ele>1386.9</ele>
        <time>2022-10-21T13:34:57Z</time>
      </trkpt>
      <trkpt lat="9.8450590" lon="-83.9566850">
        <ele>1387.0</ele>
        <time>2022-10-21T13:34:58Z</time>
      </trkpt>
      <trkpt lat="9.8451170" lon="-83.9566600">
        <ele>1387.0</ele>
        <time>2022-10-21T13:34:59Z</time>
      </trkpt>
      <trkpt lat="9.8451760" lon="-83.9566350">
        <ele>1387.0</ele>
        <time>2022-10-21T13:35:00Z</time>
      </trkpt>
      <trkpt lat="9.8452350" lon="-83.9566100">
        <ele>1387.0</ele>
        <time>2022-10-21T13:35:01Z</time>
      </trkpt>
      <trkpt lat="9.8452950" lon="-83.9565850">
        <ele>1387.0</ele>
        <time>2022-10-21T13:35:02Z</time>
      </trkpt>
      <trkpt lat="9.8453550" lon="-83.9565600">
        <ele>1387.0</ele>
        <time>2022-10-21T13:35:03Z</time>
      </trkpt>
      <trkpt lat="9.8454150" lon="-83.9565350">
        <ele>1387.0</ele>
        <time>2022-10-21T13:35:04Z</time>
      </trkpt>
      <trkpt lat="9.8454750" lon="-83.9565100">
        <ele>1387.0</ele>
        <time>2022-10-21T13:35:05Z</time>
      </trkpt>
      <trkpt lat="9.8455350" lon="-83.9564850">
        <ele>1387.1</ele>
        <time>2022-10-21T13:35:06Z</time>
      </trkpt>
      <trkpt lat="9.8455930" lon="-83.9564570">
        <ele>1387.1</ele>
        <time>2022-10-21T13:35:07Z</time>
      </trkpt>
      <trkpt lat="9.8456480" lon="-83.9564270">
        <ele>1387.1</ele>
        <time>2022-10-21T13:35:08Z</time>
      </trkpt>
      <trkpt lat="9.8456980" lon="-83.9563940">
        <ele>1387.2</ele>
        <time>2022-10-21T13:35:09Z</time>
      </trkpt>
      <trkpt lat="9.8457400" lon="-83.9563590">
        <ele>1387.3</ele>
        <time>2022-10-21T13:35:10Z</time>
      </trkpt>
      <trkpt lat="9.8457720" lon="-83.9563210">
        <ele>1387.4</ele>
        <time>2022-10-21T13:35:11Z</time>
      </trkpt>
      <trkpt lat="9.8457960" lon="-83.9562800">
        <ele>1387.5</ele>
        <time>2022-10-21T13:35:12Z</time>
      </trkpt>
      <trkpt lat="9.8458100" lon="-83.9562360">
        <ele>1387.9</ele>
        <time>2022-10-21T13:35:13Z</time>
      </trkpt>
      <trkpt lat="9.8458150" lon="-83.9561900">
        <ele>1387.9</ele>
        <time>2022-10-21T13:35:14Z</time>
      </trkpt>
      <trkpt lat="9.8458110" lon="-83.9561410">
        <ele>1387.9</ele>
        <time>2022-10-21T13:35:15Z</time>
      </trkpt>
      <trkpt lat="9.8458000" lon="-83.9560900">
        <ele>1387.9</ele>
        <time>2022-10-21T13:35:16Z</time>
      </trkpt>
      <trkpt lat="9.8457830" lon="-83.9560370">
        <ele>1387.9</ele>
        <time>2022-10-21T13:35:17Z</time>
      </trkpt>
      <trkpt lat="9.8457590" lon="-83.9559830">
        <ele>1387.9</ele>
        <time>2022-10-21T13:35:18Z</time>
      </trkpt>
      <trkpt lat="9.8457310" lon="-83.9559300">
        <ele>1387.9</ele>
        <time>2022-10-21T13:35:19Z</time>
      </trkpt>
      <trkpt lat="9.8457010" lon="-83.9558750">
        <ele>1388.0</ele>
        <time>2022-10-21T13:35:20Z</time>
      </trkpt>
      <trkpt lat="9.8456700" lon="-83.9558210">
        <ele>1388.0</ele>
        <time>2022-10-21T13:35:21Z</time>
      </trkpt>
      <trkpt lat="9.8456390" lon="-83.9557660">
        <ele>1388.0</ele>
        <time>2022-10-21T13:35:22Z</time>
      </trkpt>
      <trkpt lat="9.8456110" lon="-83.9557100">
        <ele>1388.0</ele>
        <time>2022-10-21T13:35:23Z</time>
      </trkpt>
      <trkpt lat="9.8455840" lon="-83.9556550">
        <ele>1388.0</ele>
        <time>2022-10-21T13:35:24Z</time>
      </trkpt>
      <trkpt lat="9.8455570" lon="-83.9555990">
        <ele>1388.0</ele>
        <time>2022-10-21T13:35:25Z</time>
      </trkpt>
      <trkpt lat="9.8455320" lon="-83.9555430">
        <ele>1388.0</ele>
        <time>2022-10-21T13:35:26Z</time>
      </trkpt>
      <trkpt lat="9.8455070" lon="-83.9554870">
        <ele>1388.0</ele>
        <time>2022-10-21T13:35:27Z</time>
      </trkpt>
      <trkpt lat="9.8454810" lon="-83.9554300">
        <ele>1388.0</ele>
        <time>2022-10-21T13:35:28Z</time>
      </trkpt>
      <trkpt lat="9.8454550" lon="-83.9553730">
        <ele>1388.0</ele>
        <time>2022-10-21T13:35:29Z</time>
      </trkpt>
      <trkpt lat="9.8454280" lon="-83.9553170">
        <ele>1388.0</ele>
        <time>2022-10-21T13:35:30Z</time>
      </trkpt>
      <trkpt lat="9.8454020" lon="-83.9552600">
        <ele>1388.1</ele>
        <time>2022-10-21T13:35:31Z</time>
      </trkpt>
      <trkpt lat="9.8453760" lon="-83.9552030">
        <ele>1388.1</ele>
        <time>2022-10-21T13:35:32Z</time>
      </trkpt>
      <trkpt lat="9.8453510" lon="-83.9551460">
        <ele>1388.1</ele>
        <time>2022-10-21T13:35:33Z</time>
      </trkpt>
      <trkpt lat="9.8453250" lon="-83.9550890">
        <ele>1388.1</ele>
        <time>2022-10-21T13:35:34Z</time>
      </trkpt>
      <trkpt lat="9.8453000" lon="-83.9550320">
        <ele>1388.1</ele>
        <time>2022-10-21T13:35:35Z</time>
      </trkpt>
      <trkpt lat="9.8452750" lon="-83.9549740">
        <ele>1388.1</ele>
        <time>2022-10-21T13:35:36Z</time>
      </trkpt>
      <trkpt lat="9.8452500" lon="-83.9549170">
        <ele>1388.0</ele>
        <time>2022-10-21T13:35:37Z</time>
      </trkpt>
      <trkpt lat="9.8452240" lon="-83.9548590">
        <ele>1388.0</ele>
        <time>2022-10-21T13:35:38Z</time>
      </trkpt>
      <trkpt lat="9.8451990" lon="-83.9548010">
        <ele>1388.0</ele>
        <time>2022-10-21T13:35:39Z</time>
      </trkpt>
      <trkpt lat="9.8451730" lon="-83.9547420">
        <ele>1388.0</ele>
        <time>2022-10-21T13:35:40Z</time>
      </trkpt>
      <trkpt lat="9.8451480" lon="-83.9546830">
        <ele>1387.9</ele>
        <time>2022-10-21T13:35:41Z</time>
      </trkpt>
      <trkpt lat="9.8451220" lon="-83.9546240">
        <ele>1387.9</ele>
        <time>2022-10-21T13:35:42Z</time>
      </trkpt>
      <trkpt lat="9.8450970" lon="-83.9545640">
        <ele>1387.9</ele>
        <time>2022-10-21T13:35:43Z</time>
      </trkpt>
      <trkpt lat="9.8450710" lon="-83.9545040">
        <ele>1387.9</ele>
        <time>2022-10-21T13:35:44Z</time>
      </trkpt>
      <trkpt lat="9.8450450" lon="-83.9544440">
        <ele>1387.9</ele>
        <time>2022-10-21T13:35:45Z</time>
      </trkpt>
      <trkpt lat="9.8450190" lon="-83.9543850">
        <ele>1388.0</ele>
        <time>2022-10-21T13:35:46Z</time>
      </trkpt>
      <trkpt lat="9.8449930" lon="-83.9543250">
        <ele>1388.0</ele>
        <time>2022-10-21T13:35:47Z</time>
      </trkpt>
      <trkpt lat="9.8449670" lon="-83.9542650">
        <ele>1388.0</ele>
        <time>2022-10-21T13:35:48Z</time>
      </trkpt>
      <trkpt lat="9.8449410" lon="-83.9542050">
        <ele>1388.0</ele>
        <time>2022-10-21T13:35:49Z</time>
      </trkpt>
      <trkpt lat="9.8449150" lon="-83.9541460">
        <ele>1388.1</ele>
        <time>2022-10-21T13:35:50Z</time>
      </trkpt>
      <trkpt lat="9.8448890" lon="-83.9540860">
        <ele>1388.1</ele>
        <time>2022-10-21T13:35:51Z</time>
      </trkpt>
      <trkpt lat="9.8448640" lon="-83.9540270">
        <ele>1388.1</ele>
        <time>2022-10-21T13:35:52Z</time>
      </trkpt>
      <trkpt lat="9.8448380" lon="-83.9539680">
        <ele>1388.1</ele>
        <time>2022-10-21T13:35:53Z</time>
      </trkpt>
      <trkpt lat="9.8448120" lon="-83.9539090">
        <ele>1388.1</ele>
        <time>2022-10-21T13:35:54Z</time>
      </trkpt>
      <trkpt lat="9.8447870" lon="-83.9538500">
        <ele>1388.1</ele>
        <time>2022-10-21T13:35:55Z</time>
      </trkpt>
      <trkpt lat="9.8447610" lon="-83.9537910">
        <ele>1388.1</ele>
        <time>2022-10-21T13:35:56Z</time>
      </trkpt>
      <trkpt lat="9.8447350" lon="-83.9537330">
        <ele>1388.1</ele>
        <time>2022-10-21T13:35:57Z</time>
      </trkpt>
      <trkpt lat="9.8447080" lon="-83.9536760">
        <ele>1388.1</ele>
        <time>2022-10-21T13:35:58Z</time>
      </trkpt>
      <trkpt lat="9.8446810" lon="-83.9536190">
        <ele>1388.1</ele>
        <time>2022-10-21T13:35:59Z</time>
      </trkpt>
      <trkpt lat="9.8446530" lon="-83.9535620">
        <ele>1388.2</ele>
        <time>2022-10-21T13:36:00Z</time>
      </trkpt>
      <trkpt lat="9.8446240" lon="-83.9535070">
        <ele>1388.2</ele>
        <time>2022-10-21T13:36:01Z</time>
      </trkpt>
      <trkpt lat="9.8445940" lon="-83.9534520">
        <ele>1388.2</ele>
        <time>2022-10-21T13:36:02Z</time>
      </trkpt>
      <trkpt lat="9.8445630" lon="-83.9533990">
        <ele>1388.2</ele>
        <time>2022-10-21T13:36:03Z</time>
      </trkpt>
      <trkpt lat="9.8445300" lon="-83.9533460">
        <ele>1388.2</ele>
        <time>2022-10-21T13:36:04Z</time>
      </trkpt>
      <trkpt lat="9.8444970" lon="-83.9532950">
        <ele>1388.2</ele>
        <time>2022-10-21T13:36:05Z</time>
      </trkpt>
      <trkpt lat="9.8444620" lon="-83.9532450">
        <ele>1388.2</ele>
        <time>2022-10-21T13:36:06Z</time>
      </trkpt>
      <trkpt lat="9.8444260" lon="-83.9531960">
        <ele>1388.2</ele>
        <time>2022-10-21T13:36:07Z</time>
      </trkpt>
      <trkpt lat="9.8443900" lon="-83.9531470">
        <ele>1388.2</ele>
        <time>2022-10-21T13:36:08Z</time>
      </trkpt>
      <trkpt lat="9.8443530" lon="-83.9530990">
        <ele>1388.2</ele>
        <time>2022-10-21T13:36:09Z</time>
      </trkpt>
      <trkpt lat="9.8443140" lon="-83.9530500">
        <ele>1388.2</ele>
        <time>2022-10-21T13:36:10Z</time>
      </trkpt>
      <trkpt lat="9.8442760" lon="-83.9530020">
        <ele>1388.2</ele>
        <time>2022-10-21T13:36:11Z</time>
      </trkpt>
      <trkpt lat="9.8442370" lon="-83.9529550">
        <ele>1388.1</ele>
        <time>2022-10-21T13:36:12Z</time>
      </trkpt>
      <trkpt lat="9.8441980" lon="-83.9529070">
        <ele>1388.1</ele>
        <time>2022-10-21T13:36:13Z</time>
      </trkpt>
      <trkpt lat="9.8441600" lon="-83.9528590">
        <ele>1388.1</ele>
        <time>2022-10-21T13:36:14Z</time>
      </trkpt>
      <trkpt lat="9.8441220" lon="-83.9528120">
        <ele>1388.0</ele>
        <time>2022-10-21T13:36:15Z</time>
      </trkpt>
      <trkpt lat="9.8440840" lon="-83.9527650">
        <ele>1388.0</ele>
        <time>2022-10-21T13:36:16Z</time>
      </trkpt>
      <trkpt lat="9.8440460" lon="-83.9527180">
        <ele>1388.0</ele>
        <time>2022-10-21T13:36:17Z</time>
      </trkpt>
      <trkpt lat="9.8440080" lon="-83.9526720">
        <ele>1388.0</ele>
        <time>2022-10-21T13:36:18Z</time>
      </trkpt>
      <trkpt lat="9.8439690" lon="-83.9526270">
        <ele>1388.0</ele>
        <time>2022-10-21T13:36:19Z</time>
      </trkpt>
      <trkpt lat="9.8439300" lon="-83.9525820">
        <ele>1387.9</ele>
        <time>2022-10-21T13:36:20Z</time>
      </trkpt>
      <trkpt lat="9.8438910" lon="-83.9525370">
        <ele>1387.9</ele>
        <time>2022-10-21T13:36:21Z</time>
      </trkpt>
      <trkpt lat="9.8438520" lon="-83.9524920">
        <ele>1387.8</ele>
        <time>2022-10-21T13:36:22Z</time>
      </trkpt>
      <trkpt lat="9.8438120" lon="-83.9524460">
        <ele>1387.8</ele>
        <time>2022-10-21T13:36:23Z</time>
      </trkpt>
      <trkpt lat="9.8437710" lon="-83.9524020">
        <ele>1387.7</ele>
        <time>2022-10-21T13:36:24Z</time>
      </trkpt>
      <trkpt lat="9.8437300" lon="-83.9523570">
        <ele>1387.7</ele>
        <time>2022-10-21T13:36:25Z</time>
      </trkpt>
      <trkpt lat="9.8436880" lon="-83.9523120">
        <ele>1387.6</ele>
        <time>2022-10-21T13:36:26Z</time>
      </trkpt>
      <trkpt lat="9.8436450" lon="-83.9522670">
        <ele>1387.6</ele>
        <time>2022-10-21T13:36:27Z</time>
      </trkpt>
      <trkpt lat="9.8436040" lon="-83.9522220">
        <ele>1387.6</ele>
        <time>2022-10-21T13:36:28Z</time>
      </trkpt>
      <trkpt lat="9.8435630" lon="-83.9521760">
        <ele>1387.6</ele>
        <time>2022-10-21T13:36:29Z</time>
      </trkpt>
      <trkpt lat="9.8435230" lon="-83.9521300">
        <ele>1387.6</ele>
        <time>2022-10-21T13:36:30Z</time>
      </trkpt>
      <trkpt lat="9.8434830" lon="-83.9520840">
        <ele>1387.6</ele>
        <time>2022-10-21T13:36:31Z</time>
      </trkpt>
      <trkpt lat="9.8434440" lon="-83.9520370">
        <ele>1387.6</ele>
        <time>2022-10-21T13:36:32Z</time>
      </trkpt>
      <trkpt lat="9.8434070" lon="-83.9519910">
        <ele>1387.6</ele>
        <time>2022-10-21T13:36:33Z</time>
      </trkpt>
      <trkpt lat="9.8433710" lon="-83.9519440">
        <ele>1387.6</ele>
        <time>2022-10-21T13:36:34Z</time>
      </trkpt>
      <trkpt lat="9.8433370" lon="-83.9518960">
        <ele>1387.6</ele>
        <time>2022-10-21T13:36:35Z</time>
      </trkpt>
      <trkpt lat="9.8433040" lon="-83.9518470">
        <ele>1387.6</ele>
        <time>2022-10-21T13:36:36Z</time>
      </trkpt>
      <trkpt lat="9.8432720" lon="-83.9517980">
        <ele>1387.6</ele>
        <time>2022-10-21T13:36:37Z</time>
      </trkpt>
      <trkpt lat="9.8432410" lon="-83.9517490">
        <ele>1387.5</ele>
        <time>2022-10-21T13:36:38Z</time>
      </trkpt>
      <trkpt lat="9.8432110" lon="-83.9516990">
        <ele>1387.5</ele>
        <time>2022-10-21T13:36:39Z</time>
      </trkpt>
      <trkpt lat="9.8431820" lon="-83.9516490">
        <ele>1387.6</ele>
        <time>2022-10-21T13:36:40Z</time>
      </trkpt>
      <trkpt lat="9.8431540" lon="-83.9515980">
        <ele>1387.6</ele>
        <time>2022-10-21T13:36:41Z</time>
      </trkpt>
      <trkpt lat="9.8431270" lon="-83.9515460">
        <ele>1387.6</ele>
        <time>2022-10-21T13:36:42Z</time>
      </trkpt>
      <trkpt lat="9.8431010" lon="-83.9514940">
        <ele>1387.6</ele>
        <time>2022-10-21T13:36:43Z</time>
      </trkpt>
      <trkpt lat="9.8430750" lon="-83.9514420">
        <ele>1387.6</ele>
        <time>2022-10-21T13:36:44Z</time>
      </trkpt>
      <trkpt lat="9.8430490" lon="-83.9513890">
        <ele>1387.6</ele>
        <time>2022-10-21T13:36:45Z</time>
      </trkpt>
      <trkpt lat="9.8430250" lon="-83.9513370">
        <ele>1387.6</ele>
        <time>2022-10-21T13:36:46Z</time>
      </trkpt>
      <trkpt lat="9.8430010" lon="-83.9512840">
        <ele>1387.6</ele>
        <time>2022-10-21T13:36:47Z</time>
      </trkpt>
      <trkpt lat="9.8429790" lon="-83.9512320">
        <ele>1387.7</ele>
        <time>2022-10-21T13:36:48Z</time>
      </trkpt>
      <trkpt lat="9.8429580" lon="-83.9511800">
        <ele>1387.7</ele>
        <time>2022-10-21T13:36:49Z</time>
      </trkpt>
      <trkpt lat="9.8429380" lon="-83.9511280">
        <ele>1387.7</ele>
        <time>2022-10-21T13:36:50Z</time>
      </trkpt>
      <trkpt lat="9.8429190" lon="-83.9510770">
        <ele>1387.8</ele>
        <time>2022-10-21T13:36:51Z</time>
      </trkpt>
      <trkpt lat="9.8429020" lon="-83.9510270">
        <ele>1387.8</ele>
        <time>2022-10-21T13:36:52Z</time>
      </trkpt>
      <trkpt lat="9.8428850" lon="-83.9509790">
        <ele>1387.8</ele>
        <time>2022-10-21T13:36:53Z</time>
      </trkpt>
      <trkpt lat="9.8428700" lon="-83.9509330">
        <ele>1387.8</ele>
        <time>2022-10-21T13:36:54Z</time>
      </trkpt>
      <trkpt lat="9.8428550" lon="-83.9508910">
        <ele>1387.8</ele>
        <time>2022-10-21T13:36:55Z</time>
      </trkpt>
      <trkpt lat="9.8428400" lon="-83.9508530">
        <ele>1387.8</ele>
        <time>2022-10-21T13:36:56Z</time>
      </trkpt>
      <trkpt lat="9.8428240" lon="-83.9508180">
        <ele>1387.8</ele>
        <time>2022-10-21T13:36:57Z</time>
      </trkpt>
      <trkpt lat="9.8428090" lon="-83.9507880">
        <ele>1387.8</ele>
        <time>2022-10-21T13:36:58Z</time>
      </trkpt>
      <trkpt lat="9.8427930" lon="-83.9507620">
        <ele>1387.8</ele>
        <time>2022-10-21T13:36:59Z</time>
      </trkpt>
      <trkpt lat="9.8427790" lon="-83.9507390">
        <ele>1387.8</ele>
        <time>2022-10-21T13:37:00Z</time>
      </trkpt>
      <trkpt lat="9.8427640" lon="-83.9507190">
        <ele>1387.8</ele>
        <time>2022-10-21T13:37:01Z</time>
      </trkpt>
      <trkpt lat="9.8427490" lon="-83.9507030">
        <ele>1387.7</ele>
        <time>2022-10-21T13:37:02Z</time>
      </trkpt>
      <trkpt lat="9.8427360" lon="-83.9506900">
        <ele>1387.7</ele>
        <time>2022-10-21T13:37:03Z</time>
      </trkpt>
      <trkpt lat="9.8427220" lon="-83.9506800">
        <ele>1387.7</ele>
        <time>2022-10-21T13:37:04Z</time>
      </trkpt>
      <trkpt lat="9.8427100" lon="-83.9506730">
        <ele>1387.7</ele>
        <time>2022-10-21T13:37:05Z</time>
      </trkpt>
      <trkpt lat="9.8427000" lon="-83.9506670">
        <ele>1387.7</ele>
        <time>2022-10-21T13:37:06Z</time>
      </trkpt>
      <trkpt lat="9.8426910" lon="-83.9506610">
        <ele>1387.7</ele>
        <time>2022-10-21T13:37:07Z</time>
      </trkpt>
      <trkpt lat="9.8426840" lon="-83.9506550">
        <ele>1387.7</ele>
        <time>2022-10-21T13:37:08Z</time>
      </trkpt>
      <trkpt lat="9.8426780" lon="-83.9506510">
        <ele>1387.7</ele>
        <time>2022-10-21T13:37:09Z</time>
      </trkpt>
      <trkpt lat="9.8426730" lon="-83.9506460">
        <ele>1387.7</ele>
        <time>2022-10-21T13:37:10Z</time>
      </trkpt>
      <trkpt lat="9.8426660" lon="-83.9506420">
        <ele>1387.7</ele>
        <time>2022-10-21T13:37:11Z</time>
      </trkpt>
      <trkpt lat="9.8426590" lon="-83.9506370">
        <ele>1387.7</ele>
        <time>2022-10-21T13:37:12Z</time>
      </trkpt>
      <trkpt lat="9.8426530" lon="-83.9506310">
        <ele>1387.7</ele>
        <time>2022-10-21T13:37:13Z</time>
      </trkpt>
      <trkpt lat="9.8426450" lon="-83.9506240">
        <ele>1387.7</ele>
        <time>2022-10-21T13:37:14Z</time>
      </trkpt>
      <trkpt lat="9.8426380" lon="-83.9506150">
        <ele>1387.7</ele>
        <time>2022-10-21T13:37:15Z</time>
      </trkpt>
      <trkpt lat="9.8426310" lon="-83.9506020">
        <ele>1387.7</ele>
        <time>2022-10-21T13:37:16Z</time>
      </trkpt>
      <trkpt lat="9.8426230" lon="-83.9505850">
        <ele>1387.7</ele>
        <time>2022-10-21T13:37:17Z</time>
      </trkpt>
      <trkpt lat="9.8426160" lon="-83.9505640">
        <ele>1387.7</ele>
        <time>2022-10-21T13:37:18Z</time>
      </trkpt>
      <trkpt lat="9.8426090" lon="-83.9505390">
        <ele>1387.7</ele>
        <time>2022-10-21T13:37:19Z</time>
      </trkpt>
      <trkpt lat="9.8426010" lon="-83.9505090">
        <ele>1387.7</ele>
        <time>2022-10-21T13:37:20Z</time>
      </trkpt>
      <trkpt lat="9.8425920" lon="-83.9504750">
        <ele>1387.7</ele>
        <time>2022-10-21T13:37:21Z</time>
      </trkpt>
      <trkpt lat="9.8425840" lon="-83.9504370">
        <ele>1387.7</ele>
        <time>2022-10-21T13:37:22Z</time>
      </trkpt>
      <trkpt lat="9.8425760" lon="-83.9503950">
        <ele>1387.7</ele>
        <time>2022-10-21T13:37:23Z</time>
      </trkpt>
      <trkpt lat="9.8425680" lon="-83.9503490">
        <ele>1387.6</ele>
        <time>2022-10-21T13:37:24Z</time>
      </trkpt>
      <trkpt lat="9.8425580" lon="-83.9502990">
        <ele>1387.6</ele>
        <time>2022-10-21T13:37:25Z</time>
      </trkpt>
      <trkpt lat="9.8425480" lon="-83.9502460">
        <ele>1387.6</ele>
        <time>2022-10-21T13:37:26Z</time>
      </trkpt>
      <trkpt lat="9.8425370" lon="-83.9501910">
        <ele>1387.5</ele>
        <time>2022-10-21T13:37:27Z</time>
      </trkpt>
      <trkpt lat="9.8425230" lon="-83.9501330">
        <ele>1387.5</ele>
        <time>2022-10-21T13:37:28Z</time>
      </trkpt>
      <trkpt lat="9.8425080" lon="-83.9500740">
        <ele>1387.5</ele>
        <time>2022-10-21T13:37:29Z</time>
      </trkpt>
      <trkpt lat="9.8424910" lon="-83.9500140">
        <ele>1387.4</ele>
        <time>2022-10-21T13:37:30Z</time>
      </trkpt>
      <trkpt lat="9.8424740" lon="-83.9499520">
        <ele>1387.4</ele>
        <time>2022-10-21T13:37:31Z</time>
      </trkpt>
      <trkpt lat="9.8424560" lon="-83.9498900">
        <ele>1387.4</ele>
        <time>2022-10-21T13:37:32Z</time>
      </trkpt>
      <trkpt lat="9.8424380" lon="-83.9498260">
        <ele>1387.3</ele>
        <time>2022-10-21T13:37:33Z</time>
      </trkpt>
      <trkpt lat="9.8424180" lon="-83.9497600">
        <ele>1387.3</ele>
        <time>2022-10-21T13:37:34Z</time>
      </trkpt>
      <trkpt lat="9.8423990" lon="-83.9496940">
        <ele>1387.2</ele>
        <time>2022-10-21T13:37:35Z</time>
      </trkpt>
      <trkpt lat="9.8423790" lon="-83.9496270">
        <ele>1387.2</ele>
        <time>2022-10-21T13:37:36Z</time>
      </trkpt>
      <trkpt lat="9.8423590" lon="-83.9495600">
        <ele>1387.1</ele>
        <time>2022-10-21T13:37:37Z</time>
      </trkpt>
      <trkpt lat="9.8423380" lon="-83.9494920">
        <ele>1387.1</ele>
        <time>2022-10-21T13:37:38Z</time>
      </trkpt>
      <trkpt lat="9.8423180" lon="-83.9494240">
        <ele>1387.0</ele>
        <time>2022-10-21T13:37:39Z</time>
      </trkpt>
      <trkpt lat="9.8422970" lon="-83.9493560">
        <ele>1387.0</ele>
        <time>2022-10-21T13:37:40Z</time>
      </trkpt>
      <trkpt lat="9.8422770" lon="-83.9492880">
        <ele>1387.0</ele>
        <time>2022-10-21T13:37:41Z</time>
      </trkpt>
      <trkpt lat="9.8422560" lon="-83.9492190">
        <ele>1386.9</ele>
        <time>2022-10-21T13:37:42Z</time>
      </trkpt>
      <trkpt lat="9.8422350" lon="-83.9491510">
        <ele>1386.9</ele>
        <time>2022-10-21T13:37:43Z</time>
      </trkpt>
      <trkpt lat="9.8422140" lon="-83.9490820">
        <ele>1386.9</ele>
        <time>2022-10-21T13:37:44Z</time>
      </trkpt>
      <trkpt lat="9.8421920" lon="-83.9490140">
        <ele>1386.8</ele>
        <time>2022-10-21T13:37:45Z</time>
      </trkpt>
      <trkpt lat="9.8421710" lon="-83.9489460">
        <ele>1386.8</ele>
        <time>2022-10-21T13:37:46Z</time>
      </trkpt>
      <trkpt lat="9.8421500" lon="-83.9488790">
        <ele>1386.8</ele>
        <time>2022-10-21T13:37:47Z</time>
      </trkpt>
      <trkpt lat="9.8421290" lon="-83.9488110">
        <ele>1386.8</ele>
        <time>2022-10-21T13:37:48Z</time>
      </trkpt>
      <trkpt lat="9.8421090" lon="-83.9487430">
        <ele>1386.8</ele>
        <time>2022-10-21T13:37:49Z</time>
      </trkpt>
      <trkpt lat="9.8420890" lon="-83.9486750">
        <ele>1386.7</ele>
        <time>2022-10-21T13:37:50Z</time>
      </trkpt>
      <trkpt lat="9.8420690" lon="-83.9486090">
        <ele>1386.7</ele>
        <time>2022-10-21T13:37:51Z</time>
      </trkpt>
      <trkpt lat="9.8420510" lon="-83.9485460">
        <ele>1386.6</ele>
        <time>2022-10-21T13:37:52Z</time>
      </trkpt>
      <trkpt lat="9.8420340" lon="-83.9484890">
        <ele>1386.6</ele>
        <time>2022-10-21T13:37:53Z</time>
      </trkpt>
      <trkpt lat="9.8420190" lon="-83.9484370">
        <ele>1386.6</ele>
        <time>2022-10-21T13:37:54Z</time>
      </trkpt>
      <trkpt lat="9.8420070" lon="-83.9483920">
        <ele>1386.5</ele>
        <time>2022-10-21T13:37:55Z</time>
      </trkpt>
      <trkpt lat="9.8419950" lon="-83.9483530">
        <ele>1386.5</ele>
        <time>2022-10-21T13:37:56Z</time>
      </trkpt>
      <trkpt lat="9.8419860" lon="-83.9483210">
        <ele>1386.5</ele>
        <time>2022-10-21T13:37:57Z</time>
      </trkpt>
      <trkpt lat="9.8419770" lon="-83.9482950">
        <ele>1386.5</ele>
        <time>2022-10-21T13:37:58Z</time>
      </trkpt>
      <trkpt lat="9.8419690" lon="-83.9482730">
        <ele>1386.4</ele>
        <time>2022-10-21T13:37:59Z</time>
      </trkpt>
      <trkpt lat="9.8419620" lon="-83.9482550">
        <ele>1386.4</ele>
        <time>2022-10-21T13:38:00Z</time>
      </trkpt>
      <trkpt lat="9.8419570" lon="-83.9482410">
        <ele>1386.4</ele>
        <time>2022-10-21T13:38:01Z</time>
      </trkpt>
      <trkpt lat="9.8419530" lon="-83.9482280">
        <ele>1386.4</ele>
        <time>2022-10-21T13:38:02Z</time>
      </trkpt>
      <trkpt lat="9.8419500" lon="-83.9482140">
        <ele>1386.4</ele>
        <time>2022-10-21T13:38:03Z</time>
      </trkpt>
      <trkpt lat="9.8419450" lon="-83.9481970">
        <ele>1386.4</ele>
        <time>2022-10-21T13:38:04Z</time>
      </trkpt>
      <trkpt lat="9.8419400" lon="-83.9481750">
        <ele>1386.4</ele>
        <time>2022-10-21T13:38:05Z</time>
      </trkpt>
      <trkpt lat="9.8419320" lon="-83.9481500">
        <ele>1386.4</ele>
        <time>2022-10-21T13:38:06Z</time>
      </trkpt>
      <trkpt lat="9.8419240" lon="-83.9481190">
        <ele>1386.3</ele>
        <time>2022-10-21T13:38:07Z</time>
      </trkpt>
      <trkpt lat="9.8419140" lon="-83.9480840">
        <ele>1386.3</ele>
        <time>2022-10-21T13:38:08Z</time>
      </trkpt>
      <trkpt lat="9.8419040" lon="-83.9480460">
        <ele>1386.3</ele>
        <time>2022-10-21T13:38:09Z</time>
      </trkpt>
      <trkpt lat="9.8418930" lon="-83.9480050">
        <ele>1386.3</ele>
        <time>2022-10-21T13:38:10Z</time>
      </trkpt>
      <trkpt lat="9.8418820" lon="-83.9479620">
        <ele>1386.2</ele>
        <time>2022-10-21T13:38:11Z</time>
      </trkpt>
      <trkpt lat="9.8418690" lon="-83.9479170">
        <ele>1386.2</ele>
        <time>2022-10-21T13:38:12Z</time>
      </trkpt>
      <trkpt lat="9.8418550" lon="-83.9478700">
        <ele>1386.2</ele>
        <time>2022-10-21T13:38:13Z</time>
      </trkpt>
      <trkpt lat="9.8418400" lon="-83.9478220">
        <ele>1386.1</ele>
        <time>2022-10-21T13:38:14Z</time>
      </trkpt>
      <trkpt lat="9.8418260" lon="-83.9477730">
        <ele>1386.1</ele>
        <time>2022-10-21T13:38:15Z</time>
      </trkpt>
      <trkpt lat="9.8418110" lon="-83.9477230">
        <ele>1386.1</ele>
        <time>2022-10-21T13:38:16Z</time>
      </trkpt>
      <trkpt lat="9.8417980" lon="-83.9476730">
        <ele>1386.0</ele>
        <time>2022-10-21T13:38:17Z</time>
      </trkpt>
      <trkpt lat="9.8417840" lon="-83.9476210">
        <ele>1386.0</ele>
        <time>2022-10-21T13:38:18Z</time>
      </trkpt>
      <trkpt lat="9.8417710" lon="-83.9475690">
        <ele>1386.0</ele>
        <time>2022-10-21T13:38:19Z</time>
      </trkpt>
      <trkpt lat="9.8417570" lon="-83.9475150">
        <ele>1385.9</ele>
        <time>2022-10-21T13:38:20Z</time>
      </trkpt>
      <trkpt lat="9.8417440" lon="-83.9474600">
        <ele>1385.9</ele>
        <time>2022-10-21T13:38:21Z</time>
      </trkpt>
      <trkpt lat="9.8417300" lon="-83.9474040">
        <ele>1385.9</ele>
        <time>2022-10-21T13:38:22Z</time>
      </trkpt>
      <trkpt lat="9.8417160" lon="-83.9473470">
        <ele>1385.8</ele>
        <time>2022-10-21T13:38:23Z</time>
      </trkpt>
      <trkpt lat="9.8417020" lon="-83.9472890">
        <ele>1385.8</ele>
        <time>2022-10-21T13:38:24Z</time>
      </trkpt>
      <trkpt lat="9.8416880" lon="-83.9472320">
        <ele>1385.7</ele>
        <time>2022-10-21T13:38:25Z</time>
      </trkpt>
      <trkpt lat="9.8416730" lon="-83.9471740">
        <ele>1385.6</ele>
        <time>2022-10-21T13:38:26Z</time>
      </trkpt>
      <trkpt lat="9.8416590" lon="-83.9471150">
        <ele>1385.6</ele>
        <time>2022-10-21T13:38:27Z</time>
      </trkpt>
      <trkpt lat="9.8416430" lon="-83.9470560">
        <ele>1385.5</ele>
        <time>2022-10-21T13:38:28Z</time>
      </trkpt>
      <trkpt lat="9.8416290" lon="-83.9469960">
        <ele>1385.5</ele>
        <time>2022-10-21T13:38:29Z</time>
      </trkpt>
      <trkpt lat="9.8416140" lon="-83.9469350">
        <ele>1385.5</ele>
        <time>2022-10-21T13:38:30Z</time>
      </trkpt>
      <trkpt lat="9.8416000" lon="-83.9468750">
        <ele>1385.4</ele>
        <time>2022-10-21T13:38:31Z</time>
      </trkpt>
      <trkpt lat="9.8415850" lon="-83.9468140">
        <ele>1385.4</ele>
        <time>2022-10-21T13:38:32Z</time>
      </trkpt>
      <trkpt lat="9.8415710" lon="-83.9467530">
        <ele>1385.3</ele>
        <time>2022-10-21T13:38:33Z</time>
      </trkpt>
      <trkpt lat="9.8415570" lon="-83.9466920">
        <ele>1385.3</ele>
        <time>2022-10-21T13:38:34Z</time>
      </trkpt>
      <trkpt lat="9.8415440" lon="-83.9466310">
        <ele>1385.2</ele>
        <time>2022-10-21T13:38:35Z</time>
      </trkpt>
      <trkpt lat="9.8415310" lon="-83.9465700">
        <ele>1385.2</ele>
        <time>2022-10-21T13:38:36Z</time>
      </trkpt>
      <trkpt lat="9.8415180" lon="-83.9465080">
        <ele>1385.2</ele>
        <time>2022-10-21T13:38:37Z</time>
      </trkpt>
      <trkpt lat="9.8415060" lon="-83.9464470">
        <ele>1385.1</ele>
        <time>2022-10-21T13:38:38Z</time>
      </trkpt>
      <trkpt lat="9.8414950" lon="-83.9463870">
        <ele>1385.1</ele>
        <time>2022-10-21T13:38:39Z</time>
      </trkpt>
      <trkpt lat="9.8414840" lon="-83.9463270">
        <ele>1385.1</ele>
        <time>2022-10-21T13:38:40Z</time>
      </trkpt>
      <trkpt lat="9.8414740" lon="-83.9462670">
        <ele>1385.0</ele>
        <time>2022-10-21T13:38:41Z</time>
      </trkpt>
      <trkpt lat="9.8414650" lon="-83.9462080">
        <ele>1385.0</ele>
        <time>2022-10-21T13:38:42Z</time>
      </trkpt>
      <trkpt lat="9.8414570" lon="-83.9461490">
        <ele>1385.0</ele>
        <time>2022-10-21T13:38:43Z</time>
      </trkpt>
      <trkpt lat="9.8414490" lon="-83.9460900">
        <ele>1384.9</ele>
        <time>2022-10-21T13:38:44Z</time>
      </trkpt>
      <trkpt lat="9.8414430" lon="-83.9460310">
        <ele>1384.9</ele>
        <time>2022-10-21T13:38:45Z</time>
      </trkpt>
      <trkpt lat="9.8414360" lon="-83.9459730">
        <ele>1384.9</ele>
        <time>2022-10-21T13:38:46Z</time>
      </trkpt>
      <trkpt lat="9.8414300" lon="-83.9459140">
        <ele>1384.9</ele>
        <time>2022-10-21T13:38:47Z</time>
      </trkpt>
      <trkpt lat="9.8414230" lon="-83.9458560">
        <ele>1384.8</ele>
        <time>2022-10-21T13:38:48Z</time>
      </trkpt>
      <trkpt lat="9.8414160" lon="-83.9457970">
        <ele>1384.8</ele>
        <time>2022-10-21T13:38:49Z</time>
      </trkpt>
      <trkpt lat="9.8414090" lon="-83.9457380">
        <ele>1384.8</ele>
        <time>2022-10-21T13:38:50Z</time>
      </trkpt>
      <trkpt lat="9.8414020" lon="-83.9456790">
        <ele>1384.7</ele>
        <time>2022-10-21T13:38:51Z</time>
      </trkpt>
      <trkpt lat="9.8413950" lon="-83.9456200">
        <ele>1384.7</ele>
        <time>2022-10-21T13:38:52Z</time>
      </trkpt>
      <trkpt lat="9.8413880" lon="-83.9455610">
        <ele>1384.7</ele>
        <time>2022-10-21T13:38:53Z</time>
      </trkpt>
      <trkpt lat="9.8413820" lon="-83.9455010">
        <ele>1384.6</ele>
        <time>2022-10-21T13:38:54Z</time>
      </trkpt>
      <trkpt lat="9.8413750" lon="-83.9454410">
        <ele>1384.6</ele>
        <time>2022-10-21T13:38:55Z</time>
      </trkpt>
      <trkpt lat="9.8413680" lon="-83.9453800">
        <ele>1384.5</ele>
        <time>2022-10-21T13:38:56Z</time>
      </trkpt>
      <trkpt lat="9.8413620" lon="-83.9453180">
        <ele>1384.5</ele>
        <time>2022-10-21T13:38:57Z</time>
      </trkpt>
      <trkpt lat="9.8413560" lon="-83.9452560">
        <ele>1384.5</ele>
        <time>2022-10-21T13:38:58Z</time>
      </trkpt>
      <trkpt lat="9.8413510" lon="-83.9451930">
        <ele>1384.4</ele>
        <time>2022-10-21T13:38:59Z</time>
      </trkpt>
      <trkpt lat="9.8413470" lon="-83.9451290">
        <ele>1384.4</ele>
        <time>2022-10-21T13:39:00Z</time>
      </trkpt>
      <trkpt lat="9.8413430" lon="-83.9450660">
        <ele>1384.3</ele>
        <time>2022-10-21T13:39:01Z</time>
      </trkpt>
      <trkpt lat="9.8413400" lon="-83.9450010">
        <ele>1384.3</ele>
        <time>2022-10-21T13:39:02Z</time>
      </trkpt>
      <trkpt lat="9.8413370" lon="-83.9449360">
        <ele>1384.3</ele>
        <time>2022-10-21T13:39:03Z</time>
      </trkpt>
      <trkpt lat="9.8413330" lon="-83.9448700">
        <ele>1384.2</ele>
        <time>2022-10-21T13:39:04Z</time>
      </trkpt>
      <trkpt lat="9.8413300" lon="-83.9448040">
        <ele>1384.2</ele>
        <time>2022-10-21T13:39:05Z</time>
      </trkpt>
      <trkpt lat="9.8413270" lon="-83.9447370">
        <ele>1384.1</ele>
        <time>2022-10-21T13:39:06Z</time>
      </trkpt>
      <trkpt lat="9.8413250" lon="-83.9446700">
        <ele>1384.0</ele>
        <time>2022-10-21T13:39:07Z</time>
      </trkpt>
      <trkpt lat="9.8413230" lon="-83.9446030">
        <ele>1383.9</ele>
        <time>2022-10-21T13:39:08Z</time>
      </trkpt>
      <trkpt lat="9.8413210" lon="-83.9445360">
        <ele>1383.9</ele>
        <time>2022-10-21T13:39:09Z</time>
      </trkpt>
      <trkpt lat="9.8413200" lon="-83.9444680">
        <ele>1383.8</ele>
        <time>2022-10-21T13:39:10Z</time>
      </trkpt>
      <trkpt lat="9.8413170" lon="-83.9444000">
        <ele>1383.7</ele>
        <time>2022-10-21T13:39:11Z</time>
      </trkpt>
      <trkpt lat="9.8413140" lon="-83.9443320">
        <ele>1383.7</ele>
        <time>2022-10-21T13:39:12Z</time>
      </trkpt>
      <trkpt lat="9.8413090" lon="-83.9442630">
        <ele>1383.6</ele>
        <time>2022-10-21T13:39:13Z</time>
      </trkpt>
      <trkpt lat="9.8413030" lon="-83.9441940">
        <ele>1383.5</ele>
        <time>2022-10-21T13:39:14Z</time>
      </trkpt>
      <trkpt lat="9.8412950" lon="-83.9441250">
        <ele>1383.5</ele>
        <time>2022-10-21T13:39:15Z</time>
      </trkpt>
      <trkpt lat="9.8412860" lon="-83.9440560">
        <ele>1383.4</ele>
        <time>2022-10-21T13:39:16Z</time>
      </trkpt>
      <trkpt lat="9.8412750" lon="-83.9439880">
        <ele>1383.3</ele>
        <time>2022-10-21T13:39:17Z</time>
      </trkpt>
      <trkpt lat="9.8412630" lon="-83.9439210">
        <ele>1383.3</ele>
        <time>2022-10-21T13:39:18Z</time>
      </trkpt>
      <trkpt lat="9.8412490" lon="-83.9438540">
        <ele>1383.2</ele>
        <time>2022-10-21T13:39:19Z</time>
      </trkpt>
      <trkpt lat="9.8412330" lon="-83.9437870">
        <ele>1383.2</ele>
        <time>2022-10-21T13:39:20Z</time>
      </trkpt>
      <trkpt lat="9.8412180" lon="-83.9437190">
        <ele>1383.1</ele>
        <time>2022-10-21T13:39:21Z</time>
      </trkpt>
      <trkpt lat="9.8412040" lon="-83.9436520">
        <ele>1383.1</ele>
        <time>2022-10-21T13:39:22Z</time>
      </trkpt>
      <trkpt lat="9.8411910" lon="-83.9435840">
        <ele>1383.0</ele>
        <time>2022-10-21T13:39:23Z</time>
      </trkpt>
      <trkpt lat="9.8411810" lon="-83.9435150">
        <ele>1383.0</ele>
        <time>2022-10-21T13:39:24Z</time>
      </trkpt>
      <trkpt lat="9.8411740" lon="-83.9434460">
        <ele>1382.9</ele>
        <time>2022-10-21T13:39:25Z</time>
      </trkpt>
      <trkpt lat="9.8411700" lon="-83.9433760">
        <ele>1382.7</ele>
        <time>2022-10-21T13:39:26Z</time>
      </trkpt>
      <trkpt lat="9.8411680" lon="-83.9433030">
        <ele>1382.6</ele>
        <time>2022-10-21T13:39:27Z</time>
      </trkpt>
      <trkpt lat="9.8411700" lon="-83.9432300">
        <ele>1382.5</ele>
        <time>2022-10-21T13:39:28Z</time>
      </trkpt>
      <trkpt lat="9.8411740" lon="-83.9431560">
        <ele>1382.3</ele>
        <time>2022-10-21T13:39:29Z</time>
      </trkpt>
      <trkpt lat="9.8411800" lon="-83.9430800">
        <ele>1382.2</ele>
        <time>2022-10-21T13:39:30Z</time>
      </trkpt>
      <trkpt lat="9.8411870" lon="-83.9430050">
        <ele>1382.1</ele>
        <time>2022-10-21T13:39:31Z</time>
      </trkpt>
      <trkpt lat="9.8411940" lon="-83.9429300">
        <ele>1382.0</ele>
        <time>2022-10-21T13:39:32Z</time>
      </trkpt>
      <trkpt lat="9.8412020" lon="-83.9428550">
        <ele>1381.9</ele>
        <time>2022-10-21T13:39:33Z</time>
      </trkpt>
      <trkpt lat="9.8412100" lon="-83.9427820">
        <ele>1381.7</ele>
        <time>2022-10-21T13:39:34Z</time>
      </trkpt>
      <trkpt lat="9.8412170" lon="-83.9427090">
        <ele>1381.6</ele>
        <time>2022-10-21T13:39:35Z</time>
      </trkpt>
      <trkpt lat="9.8412230" lon="-83.9426380">
        <ele>1381.5</ele>
        <time>2022-10-21T13:39:36Z</time>
      </trkpt>
      <trkpt lat="9.8412260" lon="-83.9425680">
        <ele>1381.4</ele>
        <time>2022-10-21T13:39:37Z</time>
      </trkpt>
      <trkpt lat="9.8412290" lon="-83.9424990">
        <ele>1381.3</ele>
        <time>2022-10-21T13:39:38Z</time>
      </trkpt>
      <trkpt lat="9.8412290" lon="-83.9424310">
        <ele>1381.2</ele>
        <time>2022-10-21T13:39:39Z</time>
      </trkpt>
      <trkpt lat="9.8412280" lon="-83.9423650">
        <ele>1381.1</ele>
        <time>2022-10-21T13:39:40Z</time>
      </trkpt>
      <trkpt lat="9.8412260" lon="-83.9422990">
        <ele>1381.0</ele>
        <time>2022-10-21T13:39:41Z</time>
      </trkpt>
      <trkpt lat="9.8412240" lon="-83.9422340">
        <ele>1381.0</ele>
        <time>2022-10-21T13:39:42Z</time>
      </trkpt>
      <trkpt lat="9.8412200" lon="-83.9421690">
        <ele>1381.0</ele>
        <time>2022-10-21T13:39:43Z</time>
      </trkpt>
      <trkpt lat="9.8412170" lon="-83.9421040">
        <ele>1381.0</ele>
        <time>2022-10-21T13:39:44Z</time>
      </trkpt>
      <trkpt lat="9.8412120" lon="-83.9420380">
        <ele>1381.0</ele>
        <time>2022-10-21T13:39:45Z</time>
      </trkpt>
      <trkpt lat="9.8412070" lon="-83.9419720">
        <ele>1381.0</ele>
        <time>2022-10-21T13:39:46Z</time>
      </trkpt>
      <trkpt lat="9.8412030" lon="-83.9419050">
        <ele>1381.1</ele>
        <time>2022-10-21T13:39:47Z</time>
      </trkpt>
      <trkpt lat="9.8411990" lon="-83.9418380">
        <ele>1381.1</ele>
        <time>2022-10-21T13:39:48Z</time>
      </trkpt>
      <trkpt lat="9.8411970" lon="-83.9417720">
        <ele>1381.0</ele>
        <time>2022-10-21T13:39:49Z</time>
      </trkpt>
      <trkpt lat="9.8411960" lon="-83.9417060">
        <ele>1381.0</ele>
        <time>2022-10-21T13:39:50Z</time>
      </trkpt>
      <trkpt lat="9.8411990" lon="-83.9416400">
        <ele>1380.9</ele>
        <time>2022-10-21T13:39:51Z</time>
      </trkpt>
      <trkpt lat="9.8412040" lon="-83.9415740">
        <ele>1380.8</ele>
        <time>2022-10-21T13:39:52Z</time>
      </trkpt>
      <trkpt lat="9.8412130" lon="-83.9415070">
        <ele>1380.7</ele>
        <time>2022-10-21T13:39:53Z</time>
      </trkpt>
      <trkpt lat="9.8412240" lon="-83.9414410">
        <ele>1380.7</ele>
        <time>2022-10-21T13:39:54Z</time>
      </trkpt>
      <trkpt lat="9.8412380" lon="-83.9413740">
        <ele>1380.6</ele>
        <time>2022-10-21T13:39:55Z</time>
      </trkpt>
      <trkpt lat="9.8412550" lon="-83.9413080">
        <ele>1380.5</ele>
        <time>2022-10-21T13:39:56Z</time>
      </trkpt>
      <trkpt lat="9.8412730" lon="-83.9412420">
        <ele>1380.4</ele>
        <time>2022-10-21T13:39:57Z</time>
      </trkpt>
      <trkpt lat="9.8412940" lon="-83.9411760">
        <ele>1380.3</ele>
        <time>2022-10-21T13:39:58Z</time>
      </trkpt>
      <trkpt lat="9.8413160" lon="-83.9411100">
        <ele>1380.3</ele>
        <time>2022-10-21T13:39:59Z</time>
      </trkpt>
      <trkpt lat="9.8413410" lon="-83.9410430">
        <ele>1380.2</ele>
        <time>2022-10-21T13:40:00Z</time>
      </trkpt>
      <trkpt lat="9.8413660" lon="-83.9409750">
        <ele>1380.1</ele>
        <time>2022-10-21T13:40:01Z</time>
      </trkpt>
      <trkpt lat="9.8413930" lon="-83.9409070">
        <ele>1380.0</ele>
        <time>2022-10-21T13:40:02Z</time>
      </trkpt>
      <trkpt lat="9.8414210" lon="-83.9408400">
        <ele>1379.8</ele>
        <time>2022-10-21T13:40:03Z</time>
      </trkpt>
      <trkpt lat="9.8414500" lon="-83.9407730">
        <ele>1379.7</ele>
        <time>2022-10-21T13:40:04Z</time>
      </trkpt>
      <trkpt lat="9.8414800" lon="-83.9407070">
        <ele>1379.6</ele>
        <time>2022-10-21T13:40:05Z</time>
      </trkpt>
      <trkpt lat="9.8415110" lon="-83.9406410">
        <ele>1379.4</ele>
        <time>2022-10-21T13:40:06Z</time>
      </trkpt>
      <trkpt lat="9.8415430" lon="-83.9405760">
        <ele>1379.3</ele>
        <time>2022-10-21T13:40:07Z</time>
      </trkpt>
      <trkpt lat="9.8415770" lon="-83.9405130">
        <ele>1379.3</ele>
        <time>2022-10-21T13:40:08Z</time>
      </trkpt>
      <trkpt lat="9.8416130" lon="-83.9404500">
        <ele>1379.2</ele>
        <time>2022-10-21T13:40:09Z</time>
      </trkpt>
      <trkpt lat="9.8416520" lon="-83.9403900">
        <ele>1379.2</ele>
        <time>2022-10-21T13:40:10Z</time>
      </trkpt>
      <trkpt lat="9.8416920" lon="-83.9403330">
        <ele>1379.2</ele>
        <time>2022-10-21T13:40:11Z</time>
      </trkpt>
      <trkpt lat="9.8417340" lon="-83.9402780">
        <ele>1379.2</ele>
        <time>2022-10-21T13:40:12Z</time>
      </trkpt>
      <trkpt lat="9.8417790" lon="-83.9402270">
        <ele>1379.2</ele>
        <time>2022-10-21T13:40:13Z</time>
      </trkpt>
      <trkpt lat="9.8418260" lon="-83.9401790">
        <ele>1379.3</ele>
        <time>2022-10-21T13:40:14Z</time>
      </trkpt>
      <trkpt lat="9.8418740" lon="-83.9401340">
        <ele>1379.3</ele>
        <time>2022-10-21T13:40:15Z</time>
      </trkpt>
      <trkpt lat="9.8419250" lon="-83.9400930">
        <ele>1379.3</ele>
        <time>2022-10-21T13:40:16Z</time>
      </trkpt>
      <trkpt lat="9.8419770" lon="-83.9400550">
        <ele>1379.4</ele>
        <time>2022-10-21T13:40:17Z</time>
      </trkpt>
      <trkpt lat="9.8420310" lon="-83.9400200">
        <ele>1379.4</ele>
        <time>2022-10-21T13:40:18Z</time>
      </trkpt>
      <trkpt lat="9.8420870" lon="-83.9399890">
        <ele>1379.4</ele>
        <time>2022-10-21T13:40:19Z</time>
      </trkpt>
      <trkpt lat="9.8421440" lon="-83.9399600">
        <ele>1379.5</ele>
        <time>2022-10-21T13:40:20Z</time>
      </trkpt>
      <trkpt lat="9.8422020" lon="-83.9399340">
        <ele>1379.5</ele>
        <time>2022-10-21T13:40:21Z</time>
      </trkpt>
      <trkpt lat="9.8422610" lon="-83.9399090">
        <ele>1379.5</ele>
        <time>2022-10-21T13:40:22Z</time>
      </trkpt>
      <trkpt lat="9.8423200" lon="-83.9398840">
        <ele>1379.6</ele>
        <time>2022-10-21T13:40:23Z</time>
      </trkpt>
      <trkpt lat="9.8423790" lon="-83.9398590">
        <ele>1379.6</ele>
        <time>2022-10-21T13:40:24Z</time>
      </trkpt>
      <trkpt lat="9.8424380" lon="-83.9398340">
        <ele>1379.7</ele>
        <time>2022-10-21T13:40:25Z</time>
      </trkpt>
      <trkpt lat="9.8424970" lon="-83.9398080">
        <ele>1379.8</ele>
        <time>2022-10-21T13:40:26Z</time>
      </trkpt>
      <trkpt lat="9.8425560" lon="-83.9397830">
        <ele>1379.8</ele>
        <time>2022-10-21T13:40:27Z</time>
      </trkpt>
      <trkpt lat="9.8426140" lon="-83.9397580">
        <ele>1379.9</ele>
        <time>2022-10-21T13:40:28Z</time>
      </trkpt>
      <trkpt lat="9.8426720" lon="-83.9397320">
        <ele>1379.9</ele>
        <time>2022-10-21T13:40:29Z</time>
      </trkpt>
      <trkpt lat="9.8427290" lon="-83.9397050">
        <ele>1379.9</ele>
        <time>2022-10-21T13:40:30Z</time>
      </trkpt>
      <trkpt lat="9.8427860" lon="-83.9396790">
        <ele>1380.0</ele>
        <time>2022-10-21T13:40:31Z</time>
      </trkpt>
      <trkpt lat="9.8428430" lon="-83.9396520">
        <ele>1380.1</ele>
        <time>2022-10-21T13:40:32Z</time>
      </trkpt>
      <trkpt lat="9.8428990" lon="-83.9396250">
        <ele>1380.1</ele>
        <time>2022-10-21T13:40:33Z</time>
      </trkpt>
      <trkpt lat="9.8429550" lon="-83.9396000">
        <ele>1380.2</ele>
        <time>2022-10-21T13:40:34Z</time>
      </trkpt>
      <trkpt lat="9.8430110" lon="-83.9395750">
        <ele>1380.3</ele>
        <time>2022-10-21T13:40:35Z</time>
      </trkpt>
      <trkpt lat="9.8430670" lon="-83.9395510">
        <ele>1380.3</ele>
        <time>2022-10-21T13:40:36Z</time>
      </trkpt>
      <trkpt lat="9.8431230" lon="-83.9395270">
        <ele>1380.4</ele>
        <time>2022-10-21T13:40:37Z</time>
      </trkpt>
      <trkpt lat="9.8431790" lon="-83.9395030">
        <ele>1380.5</ele>
        <time>2022-10-21T13:40:38Z</time>
      </trkpt>
      <trkpt lat="9.8432350" lon="-83.9394780">
        <ele>1380.5</ele>
        <time>2022-10-21T13:40:39Z</time>
      </trkpt>
      <trkpt lat="9.8432910" lon="-83.9394540">
        <ele>1380.6</ele>
        <time>2022-10-21T13:40:40Z</time>
      </trkpt>
      <trkpt lat="9.8433470" lon="-83.9394300">
        <ele>1380.6</ele>
        <time>2022-10-21T13:40:41Z</time>
      </trkpt>
      <trkpt lat="9.8434030" lon="-83.9394060">
        <ele>1380.7</ele>
        <time>2022-10-21T13:40:42Z</time>
      </trkpt>
      <trkpt lat="9.8434590" lon="-83.9393820">
        <ele>1380.7</ele>
        <time>2022-10-21T13:40:43Z</time>
      </trkpt>
      <trkpt lat="9.8435160" lon="-83.9393580">
        <ele>1380.7</ele>
        <time>2022-10-21T13:40:44Z</time>
      </trkpt>
      <trkpt lat="9.8435720" lon="-83.9393330">
        <ele>1380.8</ele>
        <time>2022-10-21T13:40:45Z</time>
      </trkpt>
      <trkpt lat="9.8436280" lon="-83.9393090">
        <ele>1380.8</ele>
        <time>2022-10-21T13:40:46Z</time>
      </trkpt>
      <trkpt lat="9.8436840" lon="-83.9392860">
        <ele>1380.9</ele>
        <time>2022-10-21T13:40:47Z</time>
      </trkpt>
      <trkpt lat="9.8437410" lon="-83.9392630">
        <ele>1380.9</ele>
        <time>2022-10-21T13:40:48Z</time>
      </trkpt>
      <trkpt lat="9.8437970" lon="-83.9392410">
        <ele>1381.0</ele>
        <time>2022-10-21T13:40:49Z</time>
      </trkpt>
      <trkpt lat="9.8438530" lon="-83.9392180">
        <ele>1381.1</ele>
        <time>2022-10-21T13:40:50Z</time>
      </trkpt>
      <trkpt lat="9.8439070" lon="-83.9391940">
        <ele>1381.1</ele>
        <time>2022-10-21T13:40:51Z</time>
      </trkpt>
      <trkpt lat="9.8439570" lon="-83.9391660">
        <ele>1381.2</ele>
        <time>2022-10-21T13:40:52Z</time>
      </trkpt>
      <trkpt lat="9.8440000" lon="-83.9391360">
        <ele>1381.3</ele>
        <time>2022-10-21T13:40:53Z</time>
      </trkpt>
      <trkpt lat="9.8440360" lon="-83.9391010">
        <ele>1381.3</ele>
        <time>2022-10-21T13:40:54Z</time>
      </trkpt>
      <trkpt lat="9.8440640" lon="-83.9390620">
        <ele>1381.4</ele>
        <time>2022-10-21T13:40:55Z</time>
      </trkpt>
      <trkpt lat="9.8440860" lon="-83.9390190">
        <ele>1381.5</ele>
        <time>2022-10-21T13:40:56Z</time>
      </trkpt>
      <trkpt lat="9.8441010" lon="-83.9389720">
        <ele>1381.4</ele>
        <time>2022-10-21T13:40:57Z</time>
      </trkpt>
      <trkpt lat="9.8441090" lon="-83.9389200">
        <ele>1381.4</ele>
        <time>2022-10-21T13:40:58Z</time>
      </trkpt>
      <trkpt lat="9.8441100" lon="-83.9388650">
        <ele>1381.3</ele>
        <time>2022-10-21T13:40:59Z</time>
      </trkpt>
      <trkpt lat="9.8441040" lon="-83.9388040">
        <ele>1381.3</ele>
        <time>2022-10-21T13:41:00Z</time>
      </trkpt>
      <trkpt lat="9.8440920" lon="-83.9387410">
        <ele>1381.3</ele>
        <time>2022-10-21T13:41:01Z</time>
      </trkpt>
      <trkpt lat="9.8440760" lon="-83.9386760">
        <ele>1381.2</ele>
        <time>2022-10-21T13:41:02Z</time>
      </trkpt>
      <trkpt lat="9.8440560" lon="-83.9386110">
        <ele>1381.2</ele>
        <time>2022-10-21T13:41:03Z</time>
      </trkpt>
      <trkpt lat="9.8440370" lon="-83.9385450">
        <ele>1381.2</ele>
        <time>2022-10-21T13:41:04Z</time>
      </trkpt>
      <trkpt lat="9.8440180" lon="-83.9384810">
        <ele>1381.2</ele>
        <time>2022-10-21T13:41:05Z</time>
      </trkpt>
      <trkpt lat="9.8440000" lon="-83.9384170">
        <ele>1381.1</ele>
        <time>2022-10-21T13:41:06Z</time>
      </trkpt>
      <trkpt lat="9.8439820" lon="-83.9383540">
        <ele>1381.0</ele>
        <time>2022-10-21T13:41:07Z</time>
      </trkpt>
      <trkpt lat="9.8439640" lon="-83.9382910">
        <ele>1380.9</ele>
        <time>2022-10-21T13:41:08Z</time>
      </trkpt>
      <trkpt lat="9.8439460" lon="-83.9382280">
        <ele>1380.9</ele>
        <time>2022-10-21T13:41:09Z</time>
      </trkpt>
      <trkpt lat="9.8439290" lon="-83.9381660">
        <ele>1380.8</ele>
        <time>2022-10-21T13:41:10Z</time>
      </trkpt>
      <trkpt lat="9.8439110" lon="-83.9381040">
        <ele>1380.7</ele>
        <time>2022-10-21T13:41:11Z</time>
      </trkpt>
      <trkpt lat="9.8438940" lon="-83.9380430">
        <ele>1380.6</ele>
        <time>2022-10-21T13:41:12Z</time>
      </trkpt>
      <trkpt lat="9.8438770" lon="-83.9379810">
        <ele>1380.5</ele>
        <time>2022-10-21T13:41:13Z</time>
      </trkpt>
      <trkpt lat="9.8438600" lon="-83.9379200">
        <ele>1380.5</ele>
        <time>2022-10-21T13:41:14Z</time>
      </trkpt>
      <trkpt lat="9.8438440" lon="-83.9378600">
        <ele>1380.4</ele>
        <time>2022-10-21T13:41:15Z</time>
      </trkpt>
      <trkpt lat="9.8438300" lon="-83.9378000">
        <ele>1380.4</ele>
        <time>2022-10-21T13:41:16Z</time>
      </trkpt>
      <trkpt lat="9.8438190" lon="-83.9377430">
        <ele>1380.3</ele>
        <time>2022-10-21T13:41:17Z</time>
      </trkpt>
      <trkpt lat="9.8438150" lon="-83.9376900">
        <ele>1380.3</ele>
        <time>2022-10-21T13:41:18Z</time>
      </trkpt>
      <trkpt lat="9.8438170" lon="-83.9376420">
        <ele>1380.3</ele>
        <time>2022-10-21T13:41:19Z</time>
      </trkpt>
      <trkpt lat="9.8438250" lon="-83.9375990">
        <ele>1380.3</ele>
        <time>2022-10-21T13:41:20Z</time>
      </trkpt>
      <trkpt lat="9.8438390" lon="-83.9375600">
        <ele>1380.3</ele>
        <time>2022-10-21T13:41:21Z</time>
      </trkpt>
      <trkpt lat="9.8438590" lon="-83.9375270">
        <ele>1380.2</ele>
        <time>2022-10-21T13:41:22Z</time>
      </trkpt>
      <trkpt lat="9.8438830" lon="-83.9374970">
        <ele>1380.2</ele>
        <time>2022-10-21T13:41:23Z</time>
      </trkpt>
      <trkpt lat="9.8439120" lon="-83.9374720">
        <ele>1380.2</ele>
        <time>2022-10-21T13:41:24Z</time>
      </trkpt>
      <trkpt lat="9.8439450" lon="-83.9374520">
        <ele>1380.2</ele>
        <time>2022-10-21T13:41:25Z</time>
      </trkpt>
      <trkpt lat="9.8439810" lon="-83.9374350">
        <ele>1380.2</ele>
        <time>2022-10-21T13:41:26Z</time>
      </trkpt>
      <trkpt lat="9.8440180" lon="-83.9374230">
        <ele>1380.2</ele>
        <time>2022-10-21T13:41:27Z</time>
      </trkpt>
      <trkpt lat="9.8440530" lon="-83.9374130">
        <ele>1380.2</ele>
        <time>2022-10-21T13:41:28Z</time>
      </trkpt>
      <trkpt lat="9.8440850" lon="-83.9374060">
        <ele>1380.3</ele>
        <time>2022-10-21T13:41:29Z</time>
      </trkpt>
      <trkpt lat="9.8441130" lon="-83.9373980">
        <ele>1380.3</ele>
        <time>2022-10-21T13:41:30Z</time>
      </trkpt>
      <trkpt lat="9.8441380" lon="-83.9373910">
        <ele>1380.3</ele>
        <time>2022-10-21T13:41:31Z</time>
      </trkpt>
      <trkpt lat="9.8441600" lon="-83.9373840">
        <ele>1380.4</ele>
        <time>2022-10-21T13:41:32Z</time>
      </trkpt>
      <trkpt lat="9.8441810" lon="-83.9373770">
        <ele>1380.4</ele>
        <time>2022-10-21T13:41:33Z</time>
      </trkpt>
      <trkpt lat="9.8442020" lon="-83.9373710">
        <ele>1380.5</ele>
        <time>2022-10-21T13:41:34Z</time>
      </trkpt>
      <trkpt lat="9.8442230" lon="-83.9373650">
        <ele>1380.5</ele>
        <time>2022-10-21T13:41:35Z</time>
      </trkpt>
      <trkpt lat="9.8442450" lon="-83.9373580">
        <ele>1380.5</ele>
        <time>2022-10-21T13:41:36Z</time>
      </trkpt>
      <trkpt lat="9.8442690" lon="-83.9373520">
        <ele>1380.6</ele>
        <time>2022-10-21T13:41:37Z</time>
      </trkpt>
      <trkpt lat="9.8442960" lon="-83.9373450">
        <ele>1380.7</ele>
        <time>2022-10-21T13:41:38Z</time>
      </trkpt>
      <trkpt lat="9.8443260" lon="-83.9373370">
        <ele>1380.7</ele>
        <time>2022-10-21T13:41:39Z</time>
      </trkpt>
      <trkpt lat="9.8443600" lon="-83.9373280">
        <ele>1380.8</ele>
        <time>2022-10-21T13:41:40Z</time>
      </trkpt>
      <trkpt lat="9.8443980" lon="-83.9373170">
        <ele>1380.9</ele>
        <time>2022-10-21T13:41:41Z</time>
      </trkpt>
      <trkpt lat="9.8444370" lon="-83.9373060">
        <ele>1381.0</ele>
        <time>2022-10-21T13:41:42Z</time>
      </trkpt>
      <trkpt lat="9.8444800" lon="-83.9372950">
        <ele>1381.1</ele>
        <time>2022-10-21T13:41:43Z</time>
      </trkpt>
      <trkpt lat="9.8445240" lon="-83.9372830">
        <ele>1381.2</ele>
        <time>2022-10-21T13:41:44Z</time>
      </trkpt>
      <trkpt lat="9.8445710" lon="-83.9372710">
        <ele>1381.2</ele>
        <time>2022-10-21T13:41:45Z</time>
      </trkpt>
      <trkpt lat="9.8446170" lon="-83.9372590">
        <ele>1381.3</ele>
        <time>2022-10-21T13:41:46Z</time>
      </trkpt>
      <trkpt lat="9.8446650" lon="-83.9372470">
        <ele>1381.3</ele>
        <time>2022-10-21T13:41:47Z</time>
      </trkpt>
      <trkpt lat="9.8447120" lon="-83.9372340">
        <ele>1381.3</ele>
        <time>2022-10-21T13:41:48Z</time>
      </trkpt>
      <trkpt lat="9.8447580" lon="-83.9372200">
        <ele>1381.3</ele>
        <time>2022-10-21T13:41:49Z</time>
      </trkpt>
      <trkpt lat="9.8448040" lon="-83.9372060">
        <ele>1381.3</ele>
        <time>2022-10-21T13:41:50Z</time>
      </trkpt>
      <trkpt lat="9.8448490" lon="-83.9371920">
        <ele>1381.4</ele>
        <time>2022-10-21T13:41:51Z</time>
      </trkpt>
      <trkpt lat="9.8448920" lon="-83.9371800">
        <ele>1381.4</ele>
        <time>2022-10-21T13:41:52Z</time>
      </trkpt>
      <trkpt lat="9.8449310" lon="-83.9371740">
        <ele>1381.5</ele>
        <time>2022-10-21T13:41:53Z</time>
      </trkpt>
      <trkpt lat="9.8449670" lon="-83.9371720">
        <ele>1381.5</ele>
        <time>2022-10-21T13:41:54Z</time>
      </trkpt>
      <trkpt lat="9.8450010" lon="-83.9371730">
        <ele>1381.6</ele>
        <time>2022-10-21T13:41:55Z</time>
      </trkpt>
      <trkpt lat="9.8450320" lon="-83.9371790">
        <ele>1381.7</ele>
        <time>2022-10-21T13:41:56Z</time>
      </trkpt>
      <trkpt lat="9.8450600" lon="-83.9371890">
        <ele>1382.1</ele>
        <time>2022-10-21T13:41:57Z</time>
      </trkpt>
      <trkpt lat="9.8450930" lon="-83.9371870">
        <ele>1382.1</ele>
        <time>2022-10-21T13:41:58Z</time>
      </trkpt>
      <trkpt lat="9.8451140" lon="-83.9372090">
        <ele>1382.1</ele>
        <time>2022-10-21T13:41:59Z</time>
      </trkpt>
      <trkpt lat="9.8451320" lon="-83.9372360">
        <ele>1382.1</ele>
        <time>2022-10-21T13:42:00Z</time>
      </trkpt>
      <trkpt lat="9.8451470" lon="-83.9372700">
        <ele>1382.1</ele>
        <time>2022-10-21T13:42:01Z</time>
      </trkpt>
      <trkpt lat="9.8451600" lon="-83.9373100">
        <ele>1382.1</ele>
        <time>2022-10-21T13:42:02Z</time>
      </trkpt>
      <trkpt lat="9.8451720" lon="-83.9373540">
        <ele>1382.2</ele>
        <time>2022-10-21T13:42:03Z</time>
      </trkpt>
      <trkpt lat="9.8451820" lon="-83.9374010">
        <ele>1382.2</ele>
        <time>2022-10-21T13:42:04Z</time>
      </trkpt>
      <trkpt lat="9.8451930" lon="-83.9374500">
        <ele>1382.3</ele>
        <time>2022-10-21T13:42:05Z</time>
      </trkpt>
      <trkpt lat="9.8452060" lon="-83.9374990">
        <ele>1382.3</ele>
        <time>2022-10-21T13:42:06Z</time>
      </trkpt>
      <trkpt lat="9.8452220" lon="-83.9375460">
        <ele>1382.4</ele>
        <time>2022-10-21T13:42:07Z</time>
      </trkpt>
      <trkpt lat="9.8452450" lon="-83.9375880">
        <ele>1382.4</ele>
        <time>2022-10-21T13:42:08Z</time>
      </trkpt>
      <trkpt lat="9.8452700" lon="-83.9376230">
        <ele>1382.5</ele>
        <time>2022-10-21T13:42:09Z</time>
      </trkpt>
      <trkpt lat="9.8452980" lon="-83.9376510">
        <ele>1382.5</ele>
        <time>2022-10-21T13:42:10Z</time>
      </trkpt>
      <trkpt lat="9.8453300" lon="-83.9376710">
        <ele>1382.5</ele>
        <time>2022-10-21T13:42:11Z</time>
      </trkpt>
      <trkpt lat="9.8453640" lon="-83.9376830">
        <ele>1382.6</ele>
        <time>2022-10-21T13:42:12Z</time>
      </trkpt>
      <trkpt lat="9.8454010" lon="-83.9376880">
        <ele>1382.6</ele>
        <time>2022-10-21T13:42:13Z</time>
      </trkpt>
      <trkpt lat="9.8454430" lon="-83.9376850">
        <ele>1382.8</ele>
        <time>2022-10-21T13:42:14Z</time>
      </trkpt>
      <trkpt lat="9.8454870" lon="-83.9376750">
        <ele>1382.9</ele>
        <time>2022-10-21T13:42:15Z</time>
      </trkpt>
      <trkpt lat="9.8455330" lon="-83.9376590">
        <ele>1382.9</ele>
        <time>2022-10-21T13:42:16Z</time>
      </trkpt>
      <trkpt lat="9.8455790" lon="-83.9376360">
        <ele>1382.9</ele>
        <time>2022-10-21T13:42:17Z</time>
      </trkpt>
      <trkpt lat="9.8456250" lon="-83.9376070">
        <ele>1383.0</ele>
        <time>2022-10-21T13:42:18Z</time>
      </trkpt>
      <trkpt lat="9.8456690" lon="-83.9375760">
        <ele>1383.0</ele>
        <time>2022-10-21T13:42:19Z</time>
      </trkpt>
      <trkpt lat="9.8457130" lon="-83.9375440">
        <ele>1383.1</ele>
        <time>2022-10-21T13:42:20Z</time>
      </trkpt>
      <trkpt lat="9.8457560" lon="-83.9375110">
        <ele>1383.1</ele>
        <time>2022-10-21T13:42:21Z</time>
      </trkpt>
      <trkpt lat="9.8457980" lon="-83.9374800">
        <ele>1383.2</ele>
        <time>2022-10-21T13:42:22Z</time>
      </trkpt>
      <trkpt lat="9.8458410" lon="-83.9374490">
        <ele>1383.2</ele>
        <time>2022-10-21T13:42:23Z</time>
      </trkpt>
      <trkpt lat="9.8458830" lon="-83.9374180">
        <ele>1383.3</ele>
        <time>2022-10-21T13:42:24Z</time>
      </trkpt>
      <trkpt lat="9.8459260" lon="-83.9373860">
        <ele>1383.3</ele>
        <time>2022-10-21T13:42:25Z</time>
      </trkpt>
      <trkpt lat="9.8459680" lon="-83.9373550">
        <ele>1383.4</ele>
        <time>2022-10-21T13:42:26Z</time>
      </trkpt>
      <trkpt lat="9.8460100" lon="-83.9373230">
        <ele>1383.4</ele>
        <time>2022-10-21T13:42:27Z</time>
      </trkpt>
      <trkpt lat="9.8460520" lon="-83.9372900">
        <ele>1383.5</ele>
        <time>2022-10-21T13:42:28Z</time>
      </trkpt>
      <trkpt lat="9.8460940" lon="-83.9372570">
        <ele>1383.5</ele>
        <time>2022-10-21T13:42:29Z</time>
      </trkpt>
      <trkpt lat="9.8461360" lon="-83.9372240">
        <ele>1383.6</ele>
        <time>2022-10-21T13:42:30Z</time>
      </trkpt>
      <trkpt lat="9.8461780" lon="-83.9371920">
        <ele>1383.6</ele>
        <time>2022-10-21T13:42:31Z</time>
      </trkpt>
      <trkpt lat="9.8462210" lon="-83.9371610">
        <ele>1383.7</ele>
        <time>2022-10-21T13:42:32Z</time>
      </trkpt>
      <trkpt lat="9.8462640" lon="-83.9371300">
        <ele>1383.7</ele>
        <time>2022-10-21T13:42:33Z</time>
      </trkpt>
      <trkpt lat="9.8463070" lon="-83.9370980">
        <ele>1383.8</ele>
        <time>2022-10-21T13:42:34Z</time>
      </trkpt>
      <trkpt lat="9.8463500" lon="-83.9370670">
        <ele>1383.8</ele>
        <time>2022-10-21T13:42:35Z</time>
      </trkpt>
      <trkpt lat="9.8463930" lon="-83.9370350">
        <ele>1383.9</ele>
        <time>2022-10-21T13:42:36Z</time>
      </trkpt>
      <trkpt lat="9.8464370" lon="-83.9370030">
        <ele>1383.9</ele>
        <time>2022-10-21T13:42:37Z</time>
      </trkpt>
      <trkpt lat="9.8464810" lon="-83.9369700">
        <ele>1384.0</ele>
        <time>2022-10-21T13:42:38Z</time>
      </trkpt>
      <trkpt lat="9.8465250" lon="-83.9369380">
        <ele>1384.1</ele>
        <time>2022-10-21T13:42:39Z</time>
      </trkpt>
      <trkpt lat="9.8465690" lon="-83.9369050">
        <ele>1384.2</ele>
        <time>2022-10-21T13:42:40Z</time>
      </trkpt>
      <trkpt lat="9.8466140" lon="-83.9368720">
        <ele>1384.3</ele>
        <time>2022-10-21T13:42:41Z</time>
      </trkpt>
      <trkpt lat="9.8466580" lon="-83.9368380">
        <ele>1384.4</ele>
        <time>2022-10-21T13:42:42Z</time>
      </trkpt>
      <trkpt lat="9.8467010" lon="-83.9368040">
        <ele>1384.5</ele>
        <time>2022-10-21T13:42:43Z</time>
      </trkpt>
      <trkpt lat="9.8467460" lon="-83.9367700">
        <ele>1384.5</ele>
        <time>2022-10-21T13:42:44Z</time>
      </trkpt>
      <trkpt lat="9.8467900" lon="-83.9367350">
        <ele>1384.6</ele>
        <time>2022-10-21T13:42:45Z</time>
      </trkpt>
      <trkpt lat="9.8468340" lon="-83.9367000">
        <ele>1384.7</ele>
        <time>2022-10-21T13:42:46Z</time>
      </trkpt>
      <trkpt lat="9.8468780" lon="-83.9366650">
        <ele>1384.8</ele>
        <time>2022-10-21T13:42:47Z</time>
      </trkpt>
      <trkpt lat="9.8469210" lon="-83.9366300">
        <ele>1384.9</ele>
        <time>2022-10-21T13:42:48Z</time>
      </trkpt>
      <trkpt lat="9.8469640" lon="-83.9365960">
        <ele>1385.0</ele>
        <time>2022-10-21T13:42:49Z</time>
      </trkpt>
      <trkpt lat="9.8470070" lon="-83.9365630">
        <ele>1385.1</ele>
        <time>2022-10-21T13:42:50Z</time>
      </trkpt>
      <trkpt lat="9.8470500" lon="-83.9365300">
        <ele>1385.2</ele>
        <time>2022-10-21T13:42:51Z</time>
      </trkpt>
      <trkpt lat="9.8470930" lon="-83.9364960">
        <ele>1385.3</ele>
        <time>2022-10-21T13:42:52Z</time>
      </trkpt>
      <trkpt lat="9.8471360" lon="-83.9364630">
        <ele>1385.4</ele>
        <time>2022-10-21T13:42:53Z</time>
      </trkpt>
      <trkpt lat="9.8471770" lon="-83.9364290">
        <ele>1385.5</ele>
        <time>2022-10-21T13:42:54Z</time>
      </trkpt>
      <trkpt lat="9.8472170" lon="-83.9363950">
        <ele>1385.7</ele>
        <time>2022-10-21T13:42:55Z</time>
      </trkpt>
      <trkpt lat="9.8472560" lon="-83.9363610">
        <ele>1385.8</ele>
        <time>2022-10-21T13:42:56Z</time>
      </trkpt>
      <trkpt lat="9.8472940" lon="-83.9363270">
        <ele>1385.9</ele>
        <time>2022-10-21T13:42:57Z</time>
      </trkpt>
      <trkpt lat="9.8473310" lon="-83.9362930">
        <ele>1385.9</ele>
        <time>2022-10-21T13:42:58Z</time>
      </trkpt>
      <trkpt lat="9.8473670" lon="-83.9362590">
        <ele>1385.9</ele>
        <time>2022-10-21T13:42:59Z</time>
      </trkpt>
      <trkpt lat="9.8474020" lon="-83.9362230">
        <ele>1385.9</ele>
        <time>2022-10-21T13:43:00Z</time>
      </trkpt>
      <trkpt lat="9.8474370" lon="-83.9361880">
        <ele>1385.9</ele>
        <time>2022-10-21T13:43:01Z</time>
      </trkpt>
      <trkpt lat="9.8474710" lon="-83.9361510">
        <ele>1385.9</ele>
        <time>2022-10-21T13:43:02Z</time>
      </trkpt>
      <trkpt lat="9.8475050" lon="-83.9361160">
        <ele>1386.0</ele>
        <time>2022-10-21T13:43:03Z</time>
      </trkpt>
      <trkpt lat="9.8475390" lon="-83.9360810">
        <ele>1386.0</ele>
        <time>2022-10-21T13:43:04Z</time>
      </trkpt>
      <trkpt lat="9.8475730" lon="-83.9360460">
        <ele>1386.1</ele>
        <time>2022-10-21T13:43:05Z</time>
      </trkpt>
      <trkpt lat="9.8476090" lon="-83.9360130">
        <ele>1386.1</ele>
        <time>2022-10-21T13:43:06Z</time>
      </trkpt>
      <trkpt lat="9.8476450" lon="-83.9359800">
        <ele>1386.2</ele>
        <time>2022-10-21T13:43:07Z</time>
      </trkpt>
      <trkpt lat="9.8476830" lon="-83.9359490">
        <ele>1386.2</ele>
        <time>2022-10-21T13:43:08Z</time>
      </trkpt>
      <trkpt lat="9.8477220" lon="-83.9359180">
        <ele>1386.3</ele>
        <time>2022-10-21T13:43:09Z</time>
      </trkpt>
      <trkpt lat="9.8477620" lon="-83.9358890">
        <ele>1386.4</ele>
        <time>2022-10-21T13:43:10Z</time>
      </trkpt>
      <trkpt lat="9.8478020" lon="-83.9358600">
        <ele>1386.4</ele>
        <time>2022-10-21T13:43:11Z</time>
      </trkpt>
      <trkpt lat="9.8478440" lon="-83.9358320">
        <ele>1386.5</ele>
        <time>2022-10-21T13:43:12Z</time>
      </trkpt>
      <trkpt lat="9.8478860" lon="-83.9358040">
        <ele>1386.6</ele>
        <time>2022-10-21T13:43:13Z</time>
      </trkpt>
      <trkpt lat="9.8479280" lon="-83.9357770">
        <ele>1386.7</ele>
        <time>2022-10-21T13:43:14Z</time>
      </trkpt>
      <trkpt lat="9.8479700" lon="-83.9357510">
        <ele>1386.8</ele>
        <time>2022-10-21T13:43:15Z</time>
      </trkpt>
      <trkpt lat="9.8480130" lon="-83.9357240">
        <ele>1386.9</ele>
        <time>2022-10-21T13:43:16Z</time>
      </trkpt>
      <trkpt lat="9.8480550" lon="-83.9356990">
        <ele>1387.0</ele>
        <time>2022-10-21T13:43:17Z</time>
      </trkpt>
      <trkpt lat="9.8480990" lon="-83.9356730">
        <ele>1387.0</ele>
        <time>2022-10-21T13:43:18Z</time>
      </trkpt>
      <trkpt lat="9.8481420" lon="-83.9356470">
        <ele>1387.1</ele>
        <time>2022-10-21T13:43:19Z</time>
      </trkpt>
      <trkpt lat="9.8481860" lon="-83.9356210">
        <ele>1387.2</ele>
        <time>2022-10-21T13:43:20Z</time>
      </trkpt>
      <trkpt lat="9.8482300" lon="-83.9355950">
        <ele>1387.2</ele>
        <time>2022-10-21T13:43:21Z</time>
      </trkpt>
      <trkpt lat="9.8482750" lon="-83.9355690">
        <ele>1387.3</ele>
        <time>2022-10-21T13:43:22Z</time>
      </trkpt>
      <trkpt lat="9.8483190" lon="-83.9355430">
        <ele>1387.4</ele>
        <time>2022-10-21T13:43:23Z</time>
      </trkpt>
      <trkpt lat="9.8483640" lon="-83.9355170">
        <ele>1387.5</ele>
        <time>2022-10-21T13:43:24Z</time>
      </trkpt>
      <trkpt lat="9.8484100" lon="-83.9354900">
        <ele>1387.5</ele>
        <time>2022-10-21T13:43:25Z</time>
      </trkpt>
      <trkpt lat="9.8484560" lon="-83.9354630">
        <ele>1387.6</ele>
        <time>2022-10-21T13:43:26Z</time>
      </trkpt>
      <trkpt lat="9.8485030" lon="-83.9354350">
        <ele>1387.7</ele>
        <time>2022-10-21T13:43:27Z</time>
      </trkpt>
      <trkpt lat="9.8485490" lon="-83.9354050">
        <ele>1387.8</ele>
        <time>2022-10-21T13:43:28Z</time>
      </trkpt>
      <trkpt lat="9.8485950" lon="-83.9353760">
        <ele>1387.9</ele>
        <time>2022-10-21T13:43:29Z</time>
      </trkpt>
      <trkpt lat="9.8486400" lon="-83.9353460">
        <ele>1388.0</ele>
        <time>2022-10-21T13:43:30Z</time>
      </trkpt>
      <trkpt lat="9.8486860" lon="-83.9353160">
        <ele>1388.1</ele>
        <time>2022-10-21T13:43:31Z</time>
      </trkpt>
      <trkpt lat="9.8487310" lon="-83.9352850">
        <ele>1388.3</ele>
        <time>2022-10-21T13:43:32Z</time>
      </trkpt>
      <trkpt lat="9.8487760" lon="-83.9352550">
        <ele>1388.4</ele>
        <time>2022-10-21T13:43:33Z</time>
      </trkpt>
      <trkpt lat="9.8488220" lon="-83.9352250">
        <ele>1388.5</ele>
        <time>2022-10-21T13:43:34Z</time>
      </trkpt>
      <trkpt lat="9.8488680" lon="-83.9351960">
        <ele>1388.6</ele>
        <time>2022-10-21T13:43:35Z</time>
      </trkpt>
      <trkpt lat="9.8489130" lon="-83.9351670">
        <ele>1388.7</ele>
        <time>2022-10-21T13:43:36Z</time>
      </trkpt>
      <trkpt lat="9.8489590" lon="-83.9351390">
        <ele>1388.8</ele>
        <time>2022-10-21T13:43:37Z</time>
      </trkpt>
      <trkpt lat="9.8490040" lon="-83.9351120">
        <ele>1388.9</ele>
        <time>2022-10-21T13:43:38Z</time>
      </trkpt>
      <trkpt lat="9.8490490" lon="-83.9350860">
        <ele>1389.0</ele>
        <time>2022-10-21T13:43:39Z</time>
      </trkpt>
      <trkpt lat="9.8490950" lon="-83.9350600">
        <ele>1389.1</ele>
        <time>2022-10-21T13:43:40Z</time>
      </trkpt>
      <trkpt lat="9.8491440" lon="-83.9350320">
        <ele>1389.2</ele>
        <time>2022-10-21T13:43:41Z</time>
      </trkpt>
      <trkpt lat="9.8491930" lon="-83.9350040">
        <ele>1389.3</ele>
        <time>2022-10-21T13:43:42Z</time>
      </trkpt>
      <trkpt lat="9.8492430" lon="-83.9349760">
        <ele>1389.4</ele>
        <time>2022-10-21T13:43:43Z</time>
      </trkpt>
      <trkpt lat="9.8492920" lon="-83.9349480">
        <ele>1389.6</ele>
        <time>2022-10-21T13:43:44Z</time>
      </trkpt>
      <trkpt lat="9.8493410" lon="-83.9349200">
        <ele>1389.7</ele>
        <time>2022-10-21T13:43:45Z</time>
      </trkpt>
      <trkpt lat="9.8493890" lon="-83.9348910">
        <ele>1389.8</ele>
        <time>2022-10-21T13:43:47Z</time>
      </trkpt>
      <trkpt lat="9.8494380" lon="-83.9348630">
        <ele>1389.9</ele>
        <time>2022-10-21T13:43:48Z</time>
      </trkpt>
      <trkpt lat="9.8494860" lon="-83.9348350">
        <ele>1390.1</ele>
        <time>2022-10-21T13:43:49Z</time>
      </trkpt>
      <trkpt lat="9.8495350" lon="-83.9348070">
        <ele>1390.2</ele>
        <time>2022-10-21T13:43:50Z</time>
      </trkpt>
      <trkpt lat="9.8495840" lon="-83.9347810">
        <ele>1390.3</ele>
        <time>2022-10-21T13:43:51Z</time>
      </trkpt>
      <trkpt lat="9.8496340" lon="-83.9347560">
        <ele>1390.5</ele>
        <time>2022-10-21T13:43:52Z</time>
      </trkpt>
      <trkpt lat="9.8496800" lon="-83.9347350">
        <ele>1390.6</ele>
        <time>2022-10-21T13:43:53Z</time>
      </trkpt>
      <trkpt lat="9.8497260" lon="-83.9347160">
        <ele>1390.7</ele>
        <time>2022-10-21T13:43:54Z</time>
      </trkpt>
      <trkpt lat="9.8497710" lon="-83.9346990">
        <ele>1390.8</ele>
        <time>2022-10-21T13:43:55Z</time>
      </trkpt>
      <trkpt lat="9.8498160" lon="-83.9346840">
        <ele>1390.9</ele>
        <time>2022-10-21T13:43:56Z</time>
      </trkpt>
      <trkpt lat="9.8498610" lon="-83.9346700">
        <ele>1391.0</ele>
        <time>2022-10-21T13:43:57Z</time>
      </trkpt>
      <trkpt lat="9.8499060" lon="-83.9346590">
        <ele>1391.1</ele>
        <time>2022-10-21T13:43:58Z</time>
      </trkpt>
      <trkpt lat="9.8499510" lon="-83.9346500">
        <ele>1391.3</ele>
        <time>2022-10-21T13:43:59Z</time>
      </trkpt>
      <trkpt lat="9.8499970" lon="-83.9346410">
        <ele>1391.4</ele>
        <time>2022-10-21T13:44:00Z</time>
      </trkpt>
      <trkpt lat="9.8500420" lon="-83.9346350">
        <ele>1391.5</ele>
        <time>2022-10-21T13:44:01Z</time>
      </trkpt>
      <trkpt lat="9.8500880" lon="-83.9346290">
        <ele>1391.6</ele>
        <time>2022-10-21T13:44:02Z</time>
      </trkpt>
      <trkpt lat="9.8501330" lon="-83.9346250">
        <ele>1391.7</ele>
        <time>2022-10-21T13:44:03Z</time>
      </trkpt>
      <trkpt lat="9.8501790" lon="-83.9346210">
        <ele>1391.7</ele>
        <time>2022-10-21T13:44:04Z</time>
      </trkpt>
      <trkpt lat="9.8502260" lon="-83.9346180">
        <ele>1391.8</ele>
        <time>2022-10-21T13:44:05Z</time>
      </trkpt>
      <trkpt lat="9.8502740" lon="-83.9346150">
        <ele>1391.9</ele>
        <time>2022-10-21T13:44:06Z</time>
      </trkpt>
      <trkpt lat="9.8503220" lon="-83.9346130">
        <ele>1392.0</ele>
        <time>2022-10-21T13:44:07Z</time>
      </trkpt>
      <trkpt lat="9.8503720" lon="-83.9346100">
        <ele>1392.1</ele>
        <time>2022-10-21T13:44:08Z</time>
      </trkpt>
      <trkpt lat="9.8504210" lon="-83.9346070">
        <ele>1392.1</ele>
        <time>2022-10-21T13:44:09Z</time>
      </trkpt>
      <trkpt lat="9.8504700" lon="-83.9346040">
        <ele>1392.2</ele>
        <time>2022-10-21T13:44:10Z</time>
      </trkpt>
      <trkpt lat="9.8505200" lon="-83.9346000">
        <ele>1392.3</ele>
        <time>2022-10-21T13:44:11Z</time>
      </trkpt>
      <trkpt lat="9.8505700" lon="-83.9345960">
        <ele>1392.4</ele>
        <time>2022-10-21T13:44:12Z</time>
      </trkpt>
      <trkpt lat="9.8506200" lon="-83.9345920">
        <ele>1392.5</ele>
        <time>2022-10-21T13:44:13Z</time>
      </trkpt>
      <trkpt lat="9.8506700" lon="-83.9345870">
        <ele>1392.6</ele>
        <time>2022-10-21T13:44:14Z</time>
      </trkpt>
      <trkpt lat="9.8507200" lon="-83.9345820">
        <ele>1392.7</ele>
        <time>2022-10-21T13:44:15Z</time>
      </trkpt>
      <trkpt lat="9.8507700" lon="-83.9345770">
        <ele>1392.7</ele>
        <time>2022-10-21T13:44:16Z</time>
      </trkpt>
      <trkpt lat="9.8508190" lon="-83.9345720">
        <ele>1392.8</ele>
        <time>2022-10-21T13:44:17Z</time>
      </trkpt>
      <trkpt lat="9.8508690" lon="-83.9345670">
        <ele>1392.9</ele>
        <time>2022-10-21T13:44:18Z</time>
      </trkpt>
      <trkpt lat="9.8509180" lon="-83.9345620">
        <ele>1392.9</ele>
        <time>2022-10-21T13:44:19Z</time>
      </trkpt>
      <trkpt lat="9.8509680" lon="-83.9345570">
        <ele>1393.0</ele>
        <time>2022-10-21T13:44:20Z</time>
      </trkpt>
      <trkpt lat="9.8510180" lon="-83.9345530">
        <ele>1393.1</ele>
        <time>2022-10-21T13:44:21Z</time>
      </trkpt>
      <trkpt lat="9.8510680" lon="-83.9345490">
        <ele>1393.2</ele>
        <time>2022-10-21T13:44:22Z</time>
      </trkpt>
      <trkpt lat="9.8511170" lon="-83.9345450">
        <ele>1393.2</ele>
        <time>2022-10-21T13:44:23Z</time>
      </trkpt>
      <trkpt lat="9.8511670" lon="-83.9345420">
        <ele>1393.3</ele>
        <time>2022-10-21T13:44:24Z</time>
      </trkpt>
      <trkpt lat="9.8512170" lon="-83.9345390">
        <ele>1393.4</ele>
        <time>2022-10-21T13:44:25Z</time>
      </trkpt>
      <trkpt lat="9.8512670" lon="-83.9345370">
        <ele>1393.5</ele>
        <time>2022-10-21T13:44:26Z</time>
      </trkpt>
      <trkpt lat="9.8513170" lon="-83.9345360">
        <ele>1393.6</ele>
        <time>2022-10-21T13:44:27Z</time>
      </trkpt>
      <trkpt lat="9.8513680" lon="-83.9345350">
        <ele>1393.7</ele>
        <time>2022-10-21T13:44:28Z</time>
      </trkpt>
      <trkpt lat="9.8514200" lon="-83.9345330">
        <ele>1393.8</ele>
        <time>2022-10-21T13:44:29Z</time>
      </trkpt>
      <trkpt lat="9.8514720" lon="-83.9345320">
        <ele>1393.9</ele>
        <time>2022-10-21T13:44:30Z</time>
      </trkpt>
      <trkpt lat="9.8515240" lon="-83.9345310">
        <ele>1394.0</ele>
        <time>2022-10-21T13:44:31Z</time>
      </trkpt>
      <trkpt lat="9.8515770" lon="-83.9345300">
        <ele>1394.1</ele>
        <time>2022-10-21T13:44:32Z</time>
      </trkpt>
      <trkpt lat="9.8516300" lon="-83.9345290">
        <ele>1394.2</ele>
        <time>2022-10-21T13:44:33Z</time>
      </trkpt>
      <trkpt lat="9.8516830" lon="-83.9345290">
        <ele>1394.3</ele>
        <time>2022-10-21T13:44:34Z</time>
      </trkpt>
      <trkpt lat="9.8517370" lon="-83.9345290">
        <ele>1394.4</ele>
        <time>2022-10-21T13:44:35Z</time>
      </trkpt>
      <trkpt lat="9.8517900" lon="-83.9345300">
        <ele>1394.5</ele>
        <time>2022-10-21T13:44:36Z</time>
      </trkpt>
      <trkpt lat="9.8518420" lon="-83.9345310">
        <ele>1394.6</ele>
        <time>2022-10-21T13:44:37Z</time>
      </trkpt>
      <trkpt lat="9.8518920" lon="-83.9345320">
        <ele>1394.7</ele>
        <time>2022-10-21T13:44:38Z</time>
      </trkpt>
      <trkpt lat="9.8519390" lon="-83.9345370">
        <ele>1394.8</ele>
        <time>2022-10-21T13:44:39Z</time>
      </trkpt>
      <trkpt lat="9.8519810" lon="-83.9345450">
        <ele>1394.9</ele>
        <time>2022-10-21T13:44:40Z</time>
      </trkpt>
      <trkpt lat="9.8520170" lon="-83.9345580">
        <ele>1395.0</ele>
        <time>2022-10-21T13:44:41Z</time>
      </trkpt>
      <trkpt lat="9.8520490" lon="-83.9345760">
        <ele>1395.0</ele>
        <time>2022-10-21T13:44:42Z</time>
      </trkpt>
      <trkpt lat="9.8520760" lon="-83.9345980">
        <ele>1395.1</ele>
        <time>2022-10-21T13:44:43Z</time>
      </trkpt>
      <trkpt lat="9.8520980" lon="-83.9346240">
        <ele>1395.1</ele>
        <time>2022-10-21T13:44:44Z</time>
      </trkpt>
      <trkpt lat="9.8521180" lon="-83.9346530">
        <ele>1395.0</ele>
        <time>2022-10-21T13:44:45Z</time>
      </trkpt>
      <trkpt lat="9.8521340" lon="-83.9346860">
        <ele>1395.0</ele>
        <time>2022-10-21T13:44:46Z</time>
      </trkpt>
      <trkpt lat="9.8521470" lon="-83.9347220">
        <ele>1395.0</ele>
        <time>2022-10-21T13:44:47Z</time>
      </trkpt>
      <trkpt lat="9.8521560" lon="-83.9347630">
        <ele>1395.0</ele>
        <time>2022-10-21T13:44:48Z</time>
      </trkpt>
      <trkpt lat="9.8521630" lon="-83.9348060">
        <ele>1395.0</ele>
        <time>2022-10-21T13:44:49Z</time>
      </trkpt>
      <trkpt lat="9.8521700" lon="-83.9348510">
        <ele>1395.0</ele>
        <time>2022-10-21T13:44:50Z</time>
      </trkpt>
      <trkpt lat="9.8521780" lon="-83.9348970">
        <ele>1395.0</ele>
        <time>2022-10-21T13:44:51Z</time>
      </trkpt>
      <trkpt lat="9.8521870" lon="-83.9349430">
        <ele>1395.0</ele>
        <time>2022-10-21T13:44:52Z</time>
      </trkpt>
      <trkpt lat="9.8521970" lon="-83.9349890">
        <ele>1395.0</ele>
        <time>2022-10-21T13:44:53Z</time>
      </trkpt>
      <trkpt lat="9.8522090" lon="-83.9350350">
        <ele>1395.0</ele>
        <time>2022-10-21T13:44:54Z</time>
      </trkpt>
      <trkpt lat="9.8522200" lon="-83.9350820">
        <ele>1395.1</ele>
        <time>2022-10-21T13:44:55Z</time>
      </trkpt>
      <trkpt lat="9.8522330" lon="-83.9351300">
        <ele>1395.1</ele>
        <time>2022-10-21T13:44:56Z</time>
      </trkpt>
      <trkpt lat="9.8522450" lon="-83.9351790">
        <ele>1395.1</ele>
        <time>2022-10-21T13:44:57Z</time>
      </trkpt>
      <trkpt lat="9.8522580" lon="-83.9352290">
        <ele>1395.1</ele>
        <time>2022-10-21T13:44:58Z</time>
      </trkpt>
      <trkpt lat="9.8522720" lon="-83.9352800">
        <ele>1395.2</ele>
        <time>2022-10-21T13:44:59Z</time>
      </trkpt>
      <trkpt lat="9.8522850" lon="-83.9353310">
        <ele>1395.2</ele>
        <time>2022-10-21T13:45:00Z</time>
      </trkpt>
      <trkpt lat="9.8522990" lon="-83.9353820">
        <ele>1395.2</ele>
        <time>2022-10-21T13:45:01Z</time>
      </trkpt>
      <trkpt lat="9.8523110" lon="-83.9354310">
        <ele>1395.3</ele>
        <time>2022-10-21T13:45:02Z</time>
      </trkpt>
      <trkpt lat="9.8523220" lon="-83.9354800">
        <ele>1395.3</ele>
        <time>2022-10-21T13:45:03Z</time>
      </trkpt>
      <trkpt lat="9.8523330" lon="-83.9355280">
        <ele>1395.4</ele>
        <time>2022-10-21T13:45:04Z</time>
      </trkpt>
      <trkpt lat="9.8523440" lon="-83.9355760">
        <ele>1395.4</ele>
        <time>2022-10-21T13:45:05Z</time>
      </trkpt>
      <trkpt lat="9.8523540" lon="-83.9356230">
        <ele>1395.5</ele>
        <time>2022-10-21T13:45:06Z</time>
      </trkpt>
      <trkpt lat="9.8523640" lon="-83.9356690">
        <ele>1395.5</ele>
        <time>2022-10-21T13:45:07Z</time>
      </trkpt>
      <trkpt lat="9.8523730" lon="-83.9357150">
        <ele>1395.5</ele>
        <time>2022-10-21T13:45:08Z</time>
      </trkpt>
      <trkpt lat="9.8523810" lon="-83.9357610">
        <ele>1395.5</ele>
        <time>2022-10-21T13:45:09Z</time>
      </trkpt>
      <trkpt lat="9.8523890" lon="-83.9358060">
        <ele>1395.4</ele>
        <time>2022-10-21T13:45:10Z</time>
      </trkpt>
      <trkpt lat="9.8523980" lon="-83.9358510">
        <ele>1395.4</ele>
        <time>2022-10-21T13:45:11Z</time>
      </trkpt>
      <trkpt lat="9.8524060" lon="-83.9358960">
        <ele>1395.4</ele>
        <time>2022-10-21T13:45:12Z</time>
      </trkpt>
      <trkpt lat="9.8524150" lon="-83.9359420">
        <ele>1395.4</ele>
        <time>2022-10-21T13:45:13Z</time>
      </trkpt>
      <trkpt lat="9.8524240" lon="-83.9359890">
        <ele>1395.3</ele>
        <time>2022-10-21T13:45:14Z</time>
      </trkpt>
      <trkpt lat="9.8524330" lon="-83.9360370">
        <ele>1395.3</ele>
        <time>2022-10-21T13:45:15Z</time>
      </trkpt>
      <trkpt lat="9.8524420" lon="-83.9360850">
        <ele>1395.3</ele>
        <time>2022-10-21T13:45:16Z</time>
      </trkpt>
      <trkpt lat="9.8524510" lon="-83.9361340">
        <ele>1395.1</ele>
        <time>2022-10-21T13:45:17Z</time>
      </trkpt>
      <trkpt lat="9.8524610" lon="-83.9361820">
        <ele>1394.9</ele>
        <time>2022-10-21T13:45:18Z</time>
      </trkpt>
      <trkpt lat="9.8524660" lon="-83.9362340">
        <ele>1394.6</ele>
        <time>2022-10-21T13:45:19Z</time>
      </trkpt>
      <trkpt lat="9.8524760" lon="-83.9362780">
        <ele>1394.4</ele>
        <time>2022-10-21T13:45:20Z</time>
      </trkpt>
      <trkpt lat="9.8524840" lon="-83.9363230">
        <ele>1394.1</ele>
        <time>2022-10-21T13:45:21Z</time>
      </trkpt>
      <trkpt lat="9.8524990" lon="-83.9363710">
        <ele>1393.8</ele>
        <time>2022-10-21T13:45:22Z</time>
      </trkpt>
      <trkpt lat="9.8525170" lon="-83.9364180">
        <ele>1393.6</ele>
        <time>2022-10-21T13:45:23Z</time>
      </trkpt>
      <trkpt lat="9.8413420" lon="-83.9439590">
        <ele>1383.3</ele>
        <time>2022-10-21T20:55:21Z</time>
      </trkpt>
      <trkpt lat="9.8413500" lon="-83.9440220">
        <ele>1383.4</ele>
        <time>2022-10-21T20:55:22Z</time>
      </trkpt>
      <trkpt lat="9.8413540" lon="-83.9440880">
        <ele>1383.4</ele>
        <time>2022-10-21T20:55:23Z</time>
      </trkpt>
      <trkpt lat="9.8413570" lon="-83.9441550">
        <ele>1383.5</ele>
        <time>2022-10-21T20:55:24Z</time>
      </trkpt>
      <trkpt lat="9.8413580" lon="-83.9442190">
        <ele>1383.6</ele>
        <time>2022-10-21T20:55:25Z</time>
      </trkpt>
      <trkpt lat="9.8413540" lon="-83.9442780">
        <ele>1383.6</ele>
        <time>2022-10-21T20:55:26Z</time>
      </trkpt>
      <trkpt lat="9.8413550" lon="-83.9443410">
        <ele>1383.7</ele>
        <time>2022-10-21T20:55:27Z</time>
      </trkpt>
      <trkpt lat="9.8413560" lon="-83.9444030">
        <ele>1383.7</ele>
        <time>2022-10-21T20:55:28Z</time>
      </trkpt>
      <trkpt lat="9.8413560" lon="-83.9444640">
        <ele>1383.8</ele>
        <time>2022-10-21T20:55:29Z</time>
      </trkpt>
      <trkpt lat="9.8413560" lon="-83.9445250">
        <ele>1383.9</ele>
        <time>2022-10-21T20:55:30Z</time>
      </trkpt>
      <trkpt lat="9.8413560" lon="-83.9445860">
        <ele>1383.9</ele>
        <time>2022-10-21T20:55:31Z</time>
      </trkpt>
      <trkpt lat="9.8413570" lon="-83.9446460">
        <ele>1384.0</ele>
        <time>2022-10-21T20:55:32Z</time>
      </trkpt>
      <trkpt lat="9.8413570" lon="-83.9447060">
        <ele>1384.0</ele>
        <time>2022-10-21T20:55:33Z</time>
      </trkpt>
      <trkpt lat="9.8413580" lon="-83.9447670">
        <ele>1384.1</ele>
        <time>2022-10-21T20:55:34Z</time>
      </trkpt>
      <trkpt lat="9.8413600" lon="-83.9448270">
        <ele>1384.2</ele>
        <time>2022-10-21T20:55:35Z</time>
      </trkpt>
      <trkpt lat="9.8413620" lon="-83.9448880">
        <ele>1384.2</ele>
        <time>2022-10-21T20:55:36Z</time>
      </trkpt>
      <trkpt lat="9.8413640" lon="-83.9449500">
        <ele>1384.3</ele>
        <time>2022-10-21T20:55:37Z</time>
      </trkpt>
      <trkpt lat="9.8413660" lon="-83.9450120">
        <ele>1384.3</ele>
        <time>2022-10-21T20:55:38Z</time>
      </trkpt>
      <trkpt lat="9.8413690" lon="-83.9450740">
        <ele>1384.3</ele>
        <time>2022-10-21T20:55:39Z</time>
      </trkpt>
      <trkpt lat="9.8413720" lon="-83.9451360">
        <ele>1384.4</ele>
        <time>2022-10-21T20:55:40Z</time>
      </trkpt>
      <trkpt lat="9.8413760" lon="-83.9451990">
        <ele>1384.4</ele>
        <time>2022-10-21T20:55:41Z</time>
      </trkpt>
      <trkpt lat="9.8413810" lon="-83.9452630">
        <ele>1384.5</ele>
        <time>2022-10-21T20:55:42Z</time>
      </trkpt>
      <trkpt lat="9.8413860" lon="-83.9453270">
        <ele>1384.5</ele>
        <time>2022-10-21T20:55:43Z</time>
      </trkpt>
      <trkpt lat="9.8413920" lon="-83.9453910">
        <ele>1384.5</ele>
        <time>2022-10-21T20:55:44Z</time>
      </trkpt>
      <trkpt lat="9.8413990" lon="-83.9454550">
        <ele>1384.6</ele>
        <time>2022-10-21T20:55:45Z</time>
      </trkpt>
      <trkpt lat="9.8414070" lon="-83.9455200">
        <ele>1384.6</ele>
        <time>2022-10-21T20:55:46Z</time>
      </trkpt>
      <trkpt lat="9.8414140" lon="-83.9455850">
        <ele>1384.7</ele>
        <time>2022-10-21T20:55:47Z</time>
      </trkpt>
      <trkpt lat="9.8414220" lon="-83.9456500">
        <ele>1384.7</ele>
        <time>2022-10-21T20:55:48Z</time>
      </trkpt>
      <trkpt lat="9.8414310" lon="-83.9457140">
        <ele>1384.8</ele>
        <time>2022-10-21T20:55:49Z</time>
      </trkpt>
      <trkpt lat="9.8414390" lon="-83.9457790">
        <ele>1384.8</ele>
        <time>2022-10-21T20:55:50Z</time>
      </trkpt>
      <trkpt lat="9.8414480" lon="-83.9458450">
        <ele>1384.8</ele>
        <time>2022-10-21T20:55:51Z</time>
      </trkpt>
      <trkpt lat="9.8414560" lon="-83.9459100">
        <ele>1384.9</ele>
        <time>2022-10-21T20:55:52Z</time>
      </trkpt>
      <trkpt lat="9.8414640" lon="-83.9459750">
        <ele>1384.9</ele>
        <time>2022-10-21T20:55:53Z</time>
      </trkpt>
      <trkpt lat="9.8414730" lon="-83.9460390">
        <ele>1384.9</ele>
        <time>2022-10-21T20:55:54Z</time>
      </trkpt>
      <trkpt lat="9.8414820" lon="-83.9461040">
        <ele>1385.0</ele>
        <time>2022-10-21T20:55:55Z</time>
      </trkpt>
      <trkpt lat="9.8414900" lon="-83.9461690">
        <ele>1385.0</ele>
        <time>2022-10-21T20:55:56Z</time>
      </trkpt>
      <trkpt lat="9.8414990" lon="-83.9462330">
        <ele>1385.0</ele>
        <time>2022-10-21T20:55:57Z</time>
      </trkpt>
      <trkpt lat="9.8415090" lon="-83.9462970">
        <ele>1385.1</ele>
        <time>2022-10-21T20:55:58Z</time>
      </trkpt>
      <trkpt lat="9.8415190" lon="-83.9463610">
        <ele>1385.1</ele>
        <time>2022-10-21T20:55:59Z</time>
      </trkpt>
      <trkpt lat="9.8415300" lon="-83.9464250">
        <ele>1385.1</ele>
        <time>2022-10-21T20:56:00Z</time>
      </trkpt>
      <trkpt lat="9.8415410" lon="-83.9464890">
        <ele>1385.2</ele>
        <time>2022-10-21T20:56:01Z</time>
      </trkpt>
      <trkpt lat="9.8415530" lon="-83.9465520">
        <ele>1385.2</ele>
        <time>2022-10-21T20:56:02Z</time>
      </trkpt>
      <trkpt lat="9.8415660" lon="-83.9466150">
        <ele>1385.2</ele>
        <time>2022-10-21T20:56:03Z</time>
      </trkpt>
      <trkpt lat="9.8415800" lon="-83.9466780">
        <ele>1385.3</ele>
        <time>2022-10-21T20:56:04Z</time>
      </trkpt>
      <trkpt lat="9.8415940" lon="-83.9467400">
        <ele>1385.3</ele>
        <time>2022-10-21T20:56:05Z</time>
      </trkpt>
      <trkpt lat="9.8416090" lon="-83.9468010">
        <ele>1385.4</ele>
        <time>2022-10-21T20:56:06Z</time>
      </trkpt>
      <trkpt lat="9.8416230" lon="-83.9468630">
        <ele>1385.4</ele>
        <time>2022-10-21T20:56:07Z</time>
      </trkpt>
      <trkpt lat="9.8416390" lon="-83.9469240">
        <ele>1385.5</ele>
        <time>2022-10-21T20:56:08Z</time>
      </trkpt>
      <trkpt lat="9.8416540" lon="-83.9469840">
        <ele>1385.5</ele>
        <time>2022-10-21T20:56:09Z</time>
      </trkpt>
      <trkpt lat="9.8416710" lon="-83.9470450">
        <ele>1385.5</ele>
        <time>2022-10-21T20:56:10Z</time>
      </trkpt>
      <trkpt lat="9.8416880" lon="-83.9471040">
        <ele>1385.6</ele>
        <time>2022-10-21T20:56:11Z</time>
      </trkpt>
      <trkpt lat="9.8417050" lon="-83.9471630">
        <ele>1385.6</ele>
        <time>2022-10-21T20:56:12Z</time>
      </trkpt>
      <trkpt lat="9.8417220" lon="-83.9472220">
        <ele>1385.7</ele>
        <time>2022-10-21T20:56:13Z</time>
      </trkpt>
      <trkpt lat="9.8417390" lon="-83.9472810">
        <ele>1385.8</ele>
        <time>2022-10-21T20:56:14Z</time>
      </trkpt>
      <trkpt lat="9.8417570" lon="-83.9473390">
        <ele>1385.8</ele>
        <time>2022-10-21T20:56:15Z</time>
      </trkpt>
      <trkpt lat="9.8417740" lon="-83.9473970">
        <ele>1385.9</ele>
        <time>2022-10-21T20:56:16Z</time>
      </trkpt>
      <trkpt lat="9.8417920" lon="-83.9474550">
        <ele>1385.9</ele>
        <time>2022-10-21T20:56:17Z</time>
      </trkpt>
      <trkpt lat="9.8418090" lon="-83.9475130">
        <ele>1385.9</ele>
        <time>2022-10-21T20:56:18Z</time>
      </trkpt>
      <trkpt lat="9.8418270" lon="-83.9475710">
        <ele>1386.0</ele>
        <time>2022-10-21T20:56:19Z</time>
      </trkpt>
      <trkpt lat="9.8418450" lon="-83.9476290">
        <ele>1386.0</ele>
        <time>2022-10-21T20:56:20Z</time>
      </trkpt>
      <trkpt lat="9.8418630" lon="-83.9476870">
        <ele>1386.1</ele>
        <time>2022-10-21T20:56:21Z</time>
      </trkpt>
      <trkpt lat="9.8418800" lon="-83.9477450">
        <ele>1386.1</ele>
        <time>2022-10-21T20:56:22Z</time>
      </trkpt>
      <trkpt lat="9.8418970" lon="-83.9478030">
        <ele>1386.1</ele>
        <time>2022-10-21T20:56:23Z</time>
      </trkpt>
      <trkpt lat="9.8419150" lon="-83.9478620">
        <ele>1386.2</ele>
        <time>2022-10-21T20:56:24Z</time>
      </trkpt>
      <trkpt lat="9.8419320" lon="-83.9479210">
        <ele>1386.2</ele>
        <time>2022-10-21T20:56:25Z</time>
      </trkpt>
      <trkpt lat="9.8419490" lon="-83.9479800">
        <ele>1386.3</ele>
        <time>2022-10-21T20:56:26Z</time>
      </trkpt>
      <trkpt lat="9.8419660" lon="-83.9480390">
        <ele>1386.3</ele>
        <time>2022-10-21T20:56:27Z</time>
      </trkpt>
      <trkpt lat="9.8419820" lon="-83.9480980">
        <ele>1386.3</ele>
        <time>2022-10-21T20:56:28Z</time>
      </trkpt>
      <trkpt lat="9.8419990" lon="-83.9481580">
        <ele>1386.4</ele>
        <time>2022-10-21T20:56:29Z</time>
      </trkpt>
      <trkpt lat="9.8420150" lon="-83.9482170">
        <ele>1386.4</ele>
        <time>2022-10-21T20:56:30Z</time>
      </trkpt>
      <trkpt lat="9.8420320" lon="-83.9482770">
        <ele>1386.5</ele>
        <time>2022-10-21T20:56:31Z</time>
      </trkpt>
      <trkpt lat="9.8420480" lon="-83.9483360">
        <ele>1386.5</ele>
        <time>2022-10-21T20:56:32Z</time>
      </trkpt>
      <trkpt lat="9.8420640" lon="-83.9483960">
        <ele>1386.5</ele>
        <time>2022-10-21T20:56:33Z</time>
      </trkpt>
      <trkpt lat="9.8420800" lon="-83.9484550">
        <ele>1386.6</ele>
        <time>2022-10-21T20:56:34Z</time>
      </trkpt>
      <trkpt lat="9.8420960" lon="-83.9485140">
        <ele>1386.6</ele>
        <time>2022-10-21T20:56:35Z</time>
      </trkpt>
      <trkpt lat="9.8421110" lon="-83.9485740">
        <ele>1386.7</ele>
        <time>2022-10-21T20:56:36Z</time>
      </trkpt>
      <trkpt lat="9.8421270" lon="-83.9486340">
        <ele>1386.7</ele>
        <time>2022-10-21T20:56:37Z</time>
      </trkpt>
      <trkpt lat="9.8421420" lon="-83.9486940">
        <ele>1386.7</ele>
        <time>2022-10-21T20:56:38Z</time>
      </trkpt>
      <trkpt lat="9.8421580" lon="-83.9487540">
        <ele>1386.8</ele>
        <time>2022-10-21T20:56:39Z</time>
      </trkpt>
      <trkpt lat="9.8421740" lon="-83.9488140">
        <ele>1386.8</ele>
        <time>2022-10-21T20:56:40Z</time>
      </trkpt>
      <trkpt lat="9.8421900" lon="-83.9488740">
        <ele>1386.8</ele>
        <time>2022-10-21T20:56:41Z</time>
      </trkpt>
      <trkpt lat="9.8422070" lon="-83.9489340">
        <ele>1386.8</ele>
        <time>2022-10-21T20:56:42Z</time>
      </trkpt>
      <trkpt lat="9.8422240" lon="-83.9489950">
        <ele>1386.8</ele>
        <time>2022-10-21T20:56:43Z</time>
      </trkpt>
      <trkpt lat="9.8422420" lon="-83.9490560">
        <ele>1386.9</ele>
        <time>2022-10-21T20:56:44Z</time>
      </trkpt>
      <trkpt lat="9.8422610" lon="-83.9491170">
        <ele>1386.9</ele>
        <time>2022-10-21T20:56:45Z</time>
      </trkpt>
      <trkpt lat="9.8422790" lon="-83.9491790">
        <ele>1386.9</ele>
        <time>2022-10-21T20:56:46Z</time>
      </trkpt>
      <trkpt lat="9.8422980" lon="-83.9492400">
        <ele>1386.9</ele>
        <time>2022-10-21T20:56:47Z</time>
      </trkpt>
      <trkpt lat="9.8423170" lon="-83.9493010">
        <ele>1387.0</ele>
        <time>2022-10-21T20:56:48Z</time>
      </trkpt>
      <trkpt lat="9.8423360" lon="-83.9493620">
        <ele>1387.0</ele>
        <time>2022-10-21T20:56:49Z</time>
      </trkpt>
      <trkpt lat="9.8423560" lon="-83.9494230">
        <ele>1387.1</ele>
        <time>2022-10-21T20:56:50Z</time>
      </trkpt>
      <trkpt lat="9.8423750" lon="-83.9494840">
        <ele>1387.1</ele>
        <time>2022-10-21T20:56:51Z</time>
      </trkpt>
      <trkpt lat="9.8423940" lon="-83.9495440">
        <ele>1387.1</ele>
        <time>2022-10-21T20:56:52Z</time>
      </trkpt>
      <trkpt lat="9.8424130" lon="-83.9496040">
        <ele>1387.2</ele>
        <time>2022-10-21T20:56:53Z</time>
      </trkpt>
      <trkpt lat="9.8424320" lon="-83.9496640">
        <ele>1387.2</ele>
        <time>2022-10-21T20:56:54Z</time>
      </trkpt>
      <trkpt lat="9.8424510" lon="-83.9497220">
        <ele>1387.3</ele>
        <time>2022-10-21T20:56:55Z</time>
      </trkpt>
      <trkpt lat="9.8424690" lon="-83.9497780">
        <ele>1387.3</ele>
        <time>2022-10-21T20:56:56Z</time>
      </trkpt>
      <trkpt lat="9.8424870" lon="-83.9498330">
        <ele>1387.3</ele>
        <time>2022-10-21T20:56:57Z</time>
      </trkpt>
      <trkpt lat="9.8425050" lon="-83.9498860">
        <ele>1387.4</ele>
        <time>2022-10-21T20:56:58Z</time>
      </trkpt>
      <trkpt lat="9.8425230" lon="-83.9499370">
        <ele>1387.4</ele>
        <time>2022-10-21T20:56:59Z</time>
      </trkpt>
      <trkpt lat="9.8425410" lon="-83.9499860">
        <ele>1387.4</ele>
        <time>2022-10-21T20:57:00Z</time>
      </trkpt>
      <trkpt lat="9.8425600" lon="-83.9500330">
        <ele>1387.4</ele>
        <time>2022-10-21T20:57:01Z</time>
      </trkpt>
      <trkpt lat="9.8425780" lon="-83.9500760">
        <ele>1387.5</ele>
        <time>2022-10-21T20:57:02Z</time>
      </trkpt>
      <trkpt lat="9.8425980" lon="-83.9501160">
        <ele>1387.5</ele>
        <time>2022-10-21T20:57:03Z</time>
      </trkpt>
      <trkpt lat="9.8426190" lon="-83.9501510">
        <ele>1387.5</ele>
        <time>2022-10-21T20:57:04Z</time>
      </trkpt>
      <trkpt lat="9.8426420" lon="-83.9501820">
        <ele>1387.5</ele>
        <time>2022-10-21T20:57:05Z</time>
      </trkpt>
      <trkpt lat="9.8426690" lon="-83.9502080">
        <ele>1387.6</ele>
        <time>2022-10-21T20:57:06Z</time>
      </trkpt>
      <trkpt lat="9.8426970" lon="-83.9502290">
        <ele>1387.6</ele>
        <time>2022-10-21T20:57:07Z</time>
      </trkpt>
      <trkpt lat="9.8427280" lon="-83.9502460">
        <ele>1387.6</ele>
        <time>2022-10-21T20:57:08Z</time>
      </trkpt>
      <trkpt lat="9.8427620" lon="-83.9502580">
        <ele>1387.7</ele>
        <time>2022-10-21T20:57:09Z</time>
      </trkpt>
      <trkpt lat="9.8427990" lon="-83.9502660">
        <ele>1387.7</ele>
        <time>2022-10-21T20:57:10Z</time>
      </trkpt>
      <trkpt lat="9.8428390" lon="-83.9502700">
        <ele>1387.7</ele>
        <time>2022-10-21T20:57:11Z</time>
      </trkpt>
      <trkpt lat="9.8428820" lon="-83.9502710">
        <ele>1387.7</ele>
        <time>2022-10-21T20:57:12Z</time>
      </trkpt>
      <trkpt lat="9.8429280" lon="-83.9502690">
        <ele>1387.7</ele>
        <time>2022-10-21T20:57:13Z</time>
      </trkpt>
      <trkpt lat="9.8429750" lon="-83.9502650">
        <ele>1387.7</ele>
        <time>2022-10-21T20:57:14Z</time>
      </trkpt>
      <trkpt lat="9.8430250" lon="-83.9502590">
        <ele>1387.7</ele>
        <time>2022-10-21T20:57:15Z</time>
      </trkpt>
      <trkpt lat="9.8430750" lon="-83.9502520">
        <ele>1387.7</ele>
        <time>2022-10-21T20:57:16Z</time>
      </trkpt>
      <trkpt lat="9.8431260" lon="-83.9502450">
        <ele>1387.8</ele>
        <time>2022-10-21T20:57:17Z</time>
      </trkpt>
      <trkpt lat="9.8431780" lon="-83.9502380">
        <ele>1387.8</ele>
        <time>2022-10-21T20:57:18Z</time>
      </trkpt>
      <trkpt lat="9.8432300" lon="-83.9502300">
        <ele>1387.8</ele>
        <time>2022-10-21T20:57:19Z</time>
      </trkpt>
      <trkpt lat="9.8432830" lon="-83.9502220">
        <ele>1387.8</ele>
        <time>2022-10-21T20:57:20Z</time>
      </trkpt>
      <trkpt lat="9.8433370" lon="-83.9502140">
        <ele>1387.8</ele>
        <time>2022-10-21T20:57:21Z</time>
      </trkpt>
      <trkpt lat="9.8433910" lon="-83.9502060">
        <ele>1387.8</ele>
        <time>2022-10-21T20:57:22Z</time>
      </trkpt>
      <trkpt lat="9.8434450" lon="-83.9501980">
        <ele>1387.8</ele>
        <time>2022-10-21T20:57:23Z</time>
      </trkpt>
      <trkpt lat="9.8434990" lon="-83.9501890">
        <ele>1387.8</ele>
        <time>2022-10-21T20:57:24Z</time>
      </trkpt>
      <trkpt lat="9.8435550" lon="-83.9501800">
        <ele>1387.8</ele>
        <time>2022-10-21T20:57:25Z</time>
      </trkpt>
      <trkpt lat="9.8436100" lon="-83.9501710">
        <ele>1387.9</ele>
        <time>2022-10-21T20:57:26Z</time>
      </trkpt>
      <trkpt lat="9.8436660" lon="-83.9501620">
        <ele>1387.9</ele>
        <time>2022-10-21T20:57:27Z</time>
      </trkpt>
      <trkpt lat="9.8437220" lon="-83.9501530">
        <ele>1387.9</ele>
        <time>2022-10-21T20:57:28Z</time>
      </trkpt>
      <trkpt lat="9.8437780" lon="-83.9501430">
        <ele>1387.9</ele>
        <time>2022-10-21T20:57:29Z</time>
      </trkpt>
      <trkpt lat="9.8438360" lon="-83.9501330">
        <ele>1387.9</ele>
        <time>2022-10-21T20:57:30Z</time>
      </trkpt>
      <trkpt lat="9.8438940" lon="-83.9501230">
        <ele>1387.9</ele>
        <time>2022-10-21T20:57:31Z</time>
      </trkpt>
      <trkpt lat="9.8439520" lon="-83.9501130">
        <ele>1388.0</ele>
        <time>2022-10-21T20:57:32Z</time>
      </trkpt>
      <trkpt lat="9.8440110" lon="-83.9501020">
        <ele>1388.0</ele>
        <time>2022-10-21T20:57:33Z</time>
      </trkpt>
      <trkpt lat="9.8440700" lon="-83.9500910">
        <ele>1388.0</ele>
        <time>2022-10-21T20:57:34Z</time>
      </trkpt>
      <trkpt lat="9.8441300" lon="-83.9500790">
        <ele>1388.0</ele>
        <time>2022-10-21T20:57:35Z</time>
      </trkpt>
      <trkpt lat="9.8441900" lon="-83.9500680">
        <ele>1388.0</ele>
        <time>2022-10-21T20:57:36Z</time>
      </trkpt>
      <trkpt lat="9.8442500" lon="-83.9500560">
        <ele>1388.1</ele>
        <time>2022-10-21T20:57:37Z</time>
      </trkpt>
      <trkpt lat="9.8443110" lon="-83.9500440">
        <ele>1388.1</ele>
        <time>2022-10-21T20:57:38Z</time>
      </trkpt>
      <trkpt lat="9.8443720" lon="-83.9500320">
        <ele>1388.1</ele>
        <time>2022-10-21T20:57:39Z</time>
      </trkpt>
      <trkpt lat="9.8444330" lon="-83.9500210">
        <ele>1388.1</ele>
        <time>2022-10-21T20:57:40Z</time>
      </trkpt>
      <trkpt lat="9.8444940" lon="-83.9500100">
        <ele>1388.2</ele>
        <time>2022-10-21T20:57:41Z</time>
      </trkpt>
      <trkpt lat="9.8445550" lon="-83.9499990">
        <ele>1388.2</ele>
        <time>2022-10-21T20:57:42Z</time>
      </trkpt>
      <trkpt lat="9.8446160" lon="-83.9499890">
        <ele>1388.2</ele>
        <time>2022-10-21T20:57:43Z</time>
      </trkpt>
      <trkpt lat="9.8446770" lon="-83.9499780">
        <ele>1388.3</ele>
        <time>2022-10-21T20:57:44Z</time>
      </trkpt>
      <trkpt lat="9.8447380" lon="-83.9499670">
        <ele>1388.3</ele>
        <time>2022-10-21T20:57:45Z</time>
      </trkpt>
      <trkpt lat="9.8447980" lon="-83.9499560">
        <ele>1388.3</ele>
        <time>2022-10-21T20:57:46Z</time>
      </trkpt>
      <trkpt lat="9.8448590" lon="-83.9499450">
        <ele>1388.4</ele>
        <time>2022-10-21T20:57:47Z</time>
      </trkpt>
      <trkpt lat="9.8449190" lon="-83.9499340">
        <ele>1388.4</ele>
        <time>2022-10-21T20:57:48Z</time>
      </trkpt>
      <trkpt lat="9.8449790" lon="-83.9499230">
        <ele>1388.4</ele>
        <time>2022-10-21T20:57:49Z</time>
      </trkpt>
      <trkpt lat="9.8450390" lon="-83.9499110">
        <ele>1388.5</ele>
        <time>2022-10-21T20:57:50Z</time>
      </trkpt>
      <trkpt lat="9.8450990" lon="-83.9498980">
        <ele>1388.5</ele>
        <time>2022-10-21T20:57:51Z</time>
      </trkpt>
      <trkpt lat="9.8451590" lon="-83.9498850">
        <ele>1388.6</ele>
        <time>2022-10-21T20:57:52Z</time>
      </trkpt>
      <trkpt lat="9.8452180" lon="-83.9498710">
        <ele>1388.6</ele>
        <time>2022-10-21T20:57:53Z</time>
      </trkpt>
      <trkpt lat="9.8452780" lon="-83.9498580">
        <ele>1388.7</ele>
        <time>2022-10-21T20:57:54Z</time>
      </trkpt>
      <trkpt lat="9.8453380" lon="-83.9498440">
        <ele>1388.7</ele>
        <time>2022-10-21T20:57:55Z</time>
      </trkpt>
      <trkpt lat="9.8453980" lon="-83.9498310">
        <ele>1388.7</ele>
        <time>2022-10-21T20:57:56Z</time>
      </trkpt>
      <trkpt lat="9.8454590" lon="-83.9498180">
        <ele>1388.8</ele>
        <time>2022-10-21T20:57:57Z</time>
      </trkpt>
      <trkpt lat="9.8455180" lon="-83.9498050">
        <ele>1388.8</ele>
        <time>2022-10-21T20:57:58Z</time>
      </trkpt>
      <trkpt lat="9.8455780" lon="-83.9497910">
        <ele>1388.9</ele>
        <time>2022-10-21T20:57:59Z</time>
      </trkpt>
      <trkpt lat="9.8456380" lon="-83.9497780">
        <ele>1389.0</ele>
        <time>2022-10-21T20:58:00Z</time>
      </trkpt>
      <trkpt lat="9.8456980" lon="-83.9497660">
        <ele>1389.0</ele>
        <time>2022-10-21T20:58:01Z</time>
      </trkpt>
      <trkpt lat="9.8457570" lon="-83.9497530">
        <ele>1389.1</ele>
        <time>2022-10-21T20:58:02Z</time>
      </trkpt>
      <trkpt lat="9.8458170" lon="-83.9497410">
        <ele>1389.1</ele>
        <time>2022-10-21T20:58:03Z</time>
      </trkpt>
      <trkpt lat="9.8458770" lon="-83.9497290">
        <ele>1389.1</ele>
        <time>2022-10-21T20:58:04Z</time>
      </trkpt>
      <trkpt lat="9.8459370" lon="-83.9497170">
        <ele>1389.1</ele>
        <time>2022-10-21T20:58:05Z</time>
      </trkpt>
      <trkpt lat="9.8459960" lon="-83.9497040">
        <ele>1389.1</ele>
        <time>2022-10-21T20:58:06Z</time>
      </trkpt>
      <trkpt lat="9.8460560" lon="-83.9496920">
        <ele>1389.1</ele>
        <time>2022-10-21T20:58:07Z</time>
      </trkpt>
      <trkpt lat="9.8461150" lon="-83.9496800">
        <ele>1389.2</ele>
        <time>2022-10-21T20:58:08Z</time>
      </trkpt>
      <trkpt lat="9.8461750" lon="-83.9496680">
        <ele>1389.2</ele>
        <time>2022-10-21T20:58:09Z</time>
      </trkpt>
      <trkpt lat="9.8462360" lon="-83.9496550">
        <ele>1389.3</ele>
        <time>2022-10-21T20:58:10Z</time>
      </trkpt>
      <trkpt lat="9.8462970" lon="-83.9496420">
        <ele>1389.3</ele>
        <time>2022-10-21T20:58:11Z</time>
      </trkpt>
      <trkpt lat="9.8463580" lon="-83.9496280">
        <ele>1389.3</ele>
        <time>2022-10-21T20:58:12Z</time>
      </trkpt>
      <trkpt lat="9.8464190" lon="-83.9496150">
        <ele>1389.4</ele>
        <time>2022-10-21T20:58:13Z</time>
      </trkpt>
      <trkpt lat="9.8464810" lon="-83.9496010">
        <ele>1389.4</ele>
        <time>2022-10-21T20:58:14Z</time>
      </trkpt>
      <trkpt lat="9.8465440" lon="-83.9495870">
        <ele>1389.4</ele>
        <time>2022-10-21T20:58:15Z</time>
      </trkpt>
      <trkpt lat="9.8466060" lon="-83.9495730">
        <ele>1389.5</ele>
        <time>2022-10-21T20:58:16Z</time>
      </trkpt>
      <trkpt lat="9.8466690" lon="-83.9495590">
        <ele>1389.5</ele>
        <time>2022-10-21T20:58:17Z</time>
      </trkpt>
      <trkpt lat="9.8467320" lon="-83.9495450">
        <ele>1389.5</ele>
        <time>2022-10-21T20:58:18Z</time>
      </trkpt>
      <trkpt lat="9.8467950" lon="-83.9495310">
        <ele>1389.6</ele>
        <time>2022-10-21T20:58:19Z</time>
      </trkpt>
      <trkpt lat="9.8468580" lon="-83.9495170">
        <ele>1389.6</ele>
        <time>2022-10-21T20:58:20Z</time>
      </trkpt>
      <trkpt lat="9.8469210" lon="-83.9495030">
        <ele>1389.6</ele>
        <time>2022-10-21T20:58:21Z</time>
      </trkpt>
      <trkpt lat="9.8469830" lon="-83.9494890">
        <ele>1389.7</ele>
        <time>2022-10-21T20:58:22Z</time>
      </trkpt>
      <trkpt lat="9.8470460" lon="-83.9494760">
        <ele>1389.7</ele>
        <time>2022-10-21T20:58:23Z</time>
      </trkpt>
      <trkpt lat="9.8471080" lon="-83.9494620">
        <ele>1389.8</ele>
        <time>2022-10-21T20:58:24Z</time>
      </trkpt>
      <trkpt lat="9.8471710" lon="-83.9494490">
        <ele>1389.8</ele>
        <time>2022-10-21T20:58:25Z</time>
      </trkpt>
      <trkpt lat="9.8472330" lon="-83.9494350">
        <ele>1389.8</ele>
        <time>2022-10-21T20:58:26Z</time>
      </trkpt>
      <trkpt lat="9.8472950" lon="-83.9494220">
        <ele>1389.9</ele>
        <time>2022-10-21T20:58:27Z</time>
      </trkpt>
      <trkpt lat="9.8473580" lon="-83.9494090">
        <ele>1389.9</ele>
        <time>2022-10-21T20:58:28Z</time>
      </trkpt>
      <trkpt lat="9.8474200" lon="-83.9493960">
        <ele>1389.9</ele>
        <time>2022-10-21T20:58:29Z</time>
      </trkpt>
      <trkpt lat="9.8474830" lon="-83.9493830">
        <ele>1389.9</ele>
        <time>2022-10-21T20:58:30Z</time>
      </trkpt>
      <trkpt lat="9.8475460" lon="-83.9493700">
        <ele>1390.0</ele>
        <time>2022-10-21T20:58:31Z</time>
      </trkpt>
      <trkpt lat="9.8476090" lon="-83.9493560">
        <ele>1390.0</ele>
        <time>2022-10-21T20:58:32Z</time>
      </trkpt>
      <trkpt lat="9.8476720" lon="-83.9493430">
        <ele>1390.0</ele>
        <time>2022-10-21T20:58:33Z</time>
      </trkpt>
      <trkpt lat="9.8477350" lon="-83.9493310">
        <ele>1390.1</ele>
        <time>2022-10-21T20:58:34Z</time>
      </trkpt>
      <trkpt lat="9.8477980" lon="-83.9493180">
        <ele>1390.1</ele>
        <time>2022-10-21T20:58:35Z</time>
      </trkpt>
      <trkpt lat="9.8478600" lon="-83.9493050">
        <ele>1390.1</ele>
        <time>2022-10-21T20:58:36Z</time>
      </trkpt>
      <trkpt lat="9.8479230" lon="-83.9492930">
        <ele>1390.2</ele>
        <time>2022-10-21T20:58:37Z</time>
      </trkpt>
      <trkpt lat="9.8479850" lon="-83.9492800">
        <ele>1390.2</ele>
        <time>2022-10-21T20:58:38Z</time>
      </trkpt>
      <trkpt lat="9.8480470" lon="-83.9492670">
        <ele>1390.3</ele>
        <time>2022-10-21T20:58:39Z</time>
      </trkpt>
      <trkpt lat="9.8481090" lon="-83.9492540">
        <ele>1390.3</ele>
        <time>2022-10-21T20:58:40Z</time>
      </trkpt>
      <trkpt lat="9.8481700" lon="-83.9492410">
        <ele>1390.4</ele>
        <time>2022-10-21T20:58:41Z</time>
      </trkpt>
      <trkpt lat="9.8482300" lon="-83.9492280">
        <ele>1390.4</ele>
        <time>2022-10-21T20:58:42Z</time>
      </trkpt>
      <trkpt lat="9.8482890" lon="-83.9492160">
        <ele>1390.5</ele>
        <time>2022-10-21T20:58:43Z</time>
      </trkpt>
      <trkpt lat="9.8483450" lon="-83.9492050">
        <ele>1390.5</ele>
        <time>2022-10-21T20:58:44Z</time>
      </trkpt>
      <trkpt lat="9.8483990" lon="-83.9491940">
        <ele>1390.6</ele>
        <time>2022-10-21T20:58:45Z</time>
      </trkpt>
      <trkpt lat="9.8484490" lon="-83.9491860">
        <ele>1390.6</ele>
        <time>2022-10-21T20:58:46Z</time>
      </trkpt>
      <trkpt lat="9.8484970" lon="-83.9491810">
        <ele>1390.6</ele>
        <time>2022-10-21T20:58:47Z</time>
      </trkpt>
      <trkpt lat="9.8485420" lon="-83.9491810">
        <ele>1390.7</ele>
        <time>2022-10-21T20:58:48Z</time>
      </trkpt>
      <trkpt lat="9.8485810" lon="-83.9491880">
        <ele>1390.7</ele>
        <time>2022-10-21T20:58:49Z</time>
      </trkpt>
      <trkpt lat="9.8486170" lon="-83.9492000">
        <ele>1390.7</ele>
        <time>2022-10-21T20:58:50Z</time>
      </trkpt>
      <trkpt lat="9.8486480" lon="-83.9492200">
        <ele>1390.7</ele>
        <time>2022-10-21T20:58:51Z</time>
      </trkpt>
      <trkpt lat="9.8486750" lon="-83.9492460">
        <ele>1390.6</ele>
        <time>2022-10-21T20:58:52Z</time>
      </trkpt>
      <trkpt lat="9.8486980" lon="-83.9492790">
        <ele>1390.6</ele>
        <time>2022-10-21T20:58:53Z</time>
      </trkpt>
      <trkpt lat="9.8487190" lon="-83.9493180">
        <ele>1390.5</ele>
        <time>2022-10-21T20:58:54Z</time>
      </trkpt>
      <trkpt lat="9.8487380" lon="-83.9493630">
        <ele>1390.4</ele>
        <time>2022-10-21T20:58:55Z</time>
      </trkpt>
      <trkpt lat="9.8487550" lon="-83.9494140">
        <ele>1390.4</ele>
        <time>2022-10-21T20:58:56Z</time>
      </trkpt>
      <trkpt lat="9.8487720" lon="-83.9494700">
        <ele>1390.3</ele>
        <time>2022-10-21T20:58:57Z</time>
      </trkpt>
      <trkpt lat="9.8487890" lon="-83.9495290">
        <ele>1390.3</ele>
        <time>2022-10-21T20:58:58Z</time>
      </trkpt>
      <trkpt lat="9.8488060" lon="-83.9495900">
        <ele>1390.3</ele>
        <time>2022-10-21T20:58:59Z</time>
      </trkpt>
      <trkpt lat="9.8488250" lon="-83.9496510">
        <ele>1390.3</ele>
        <time>2022-10-21T20:59:00Z</time>
      </trkpt>
      <trkpt lat="9.8488440" lon="-83.9497130">
        <ele>1390.3</ele>
        <time>2022-10-21T20:59:01Z</time>
      </trkpt>
      <trkpt lat="9.8488640" lon="-83.9497760">
        <ele>1390.4</ele>
        <time>2022-10-21T20:59:02Z</time>
      </trkpt>
      <trkpt lat="9.8488860" lon="-83.9498370">
        <ele>1390.4</ele>
        <time>2022-10-21T20:59:03Z</time>
      </trkpt>
      <trkpt lat="9.8489080" lon="-83.9498980">
        <ele>1390.5</ele>
        <time>2022-10-21T20:59:04Z</time>
      </trkpt>
      <trkpt lat="9.8489310" lon="-83.9499590">
        <ele>1390.5</ele>
        <time>2022-10-21T20:59:05Z</time>
      </trkpt>
      <trkpt lat="9.8489540" lon="-83.9500200">
        <ele>1390.5</ele>
        <time>2022-10-21T20:59:06Z</time>
      </trkpt>
      <trkpt lat="9.8489770" lon="-83.9500800">
        <ele>1390.5</ele>
        <time>2022-10-21T20:59:07Z</time>
      </trkpt>
      <trkpt lat="9.8489990" lon="-83.9501400">
        <ele>1390.5</ele>
        <time>2022-10-21T20:59:08Z</time>
      </trkpt>
      <trkpt lat="9.8490210" lon="-83.9502000">
        <ele>1390.5</ele>
        <time>2022-10-21T20:59:09Z</time>
      </trkpt>
      <trkpt lat="9.8490420" lon="-83.9502600">
        <ele>1390.5</ele>
        <time>2022-10-21T20:59:10Z</time>
      </trkpt>
      <trkpt lat="9.8490620" lon="-83.9503190">
        <ele>1390.5</ele>
        <time>2022-10-21T20:59:11Z</time>
      </trkpt>
      <trkpt lat="9.8490820" lon="-83.9503770">
        <ele>1390.6</ele>
        <time>2022-10-21T20:59:12Z</time>
      </trkpt>
      <trkpt lat="9.8491010" lon="-83.9504350">
        <ele>1390.6</ele>
        <time>2022-10-21T20:59:13Z</time>
      </trkpt>
      <trkpt lat="9.8491190" lon="-83.9504920">
        <ele>1390.7</ele>
        <time>2022-10-21T20:59:14Z</time>
      </trkpt>
      <trkpt lat="9.8491360" lon="-83.9505500">
        <ele>1390.7</ele>
        <time>2022-10-21T20:59:15Z</time>
      </trkpt>
      <trkpt lat="9.8491530" lon="-83.9506070">
        <ele>1390.7</ele>
        <time>2022-10-21T20:59:16Z</time>
      </trkpt>
      <trkpt lat="9.8491700" lon="-83.9506640">
        <ele>1390.8</ele>
        <time>2022-10-21T20:59:17Z</time>
      </trkpt>
      <trkpt lat="9.8491870" lon="-83.9507210">
        <ele>1390.8</ele>
        <time>2022-10-21T20:59:18Z</time>
      </trkpt>
      <trkpt lat="9.8492040" lon="-83.9507780">
        <ele>1390.8</ele>
        <time>2022-10-21T20:59:19Z</time>
      </trkpt>
      <trkpt lat="9.8492210" lon="-83.9508340">
        <ele>1390.8</ele>
        <time>2022-10-21T20:59:20Z</time>
      </trkpt>
      <trkpt lat="9.8492380" lon="-83.9508910">
        <ele>1390.9</ele>
        <time>2022-10-21T20:59:21Z</time>
      </trkpt>
      <trkpt lat="9.8492550" lon="-83.9509480">
        <ele>1390.9</ele>
        <time>2022-10-21T20:59:22Z</time>
      </trkpt>
      <trkpt lat="9.8492720" lon="-83.9510050">
        <ele>1390.9</ele>
        <time>2022-10-21T20:59:23Z</time>
      </trkpt>
      <trkpt lat="9.8492890" lon="-83.9510620">
        <ele>1391.0</ele>
        <time>2022-10-21T20:59:24Z</time>
      </trkpt>
      <trkpt lat="9.8493070" lon="-83.9511180">
        <ele>1391.0</ele>
        <time>2022-10-21T20:59:25Z</time>
      </trkpt>
      <trkpt lat="9.8493250" lon="-83.9511750">
        <ele>1391.1</ele>
        <time>2022-10-21T20:59:26Z</time>
      </trkpt>
      <trkpt lat="9.8493430" lon="-83.9512320">
        <ele>1391.1</ele>
        <time>2022-10-21T20:59:27Z</time>
      </trkpt>
      <trkpt lat="9.8493600" lon="-83.9512880">
        <ele>1391.2</ele>
        <time>2022-10-21T20:59:28Z</time>
      </trkpt>
      <trkpt lat="9.8493780" lon="-83.9513450">
        <ele>1391.2</ele>
        <time>2022-10-21T20:59:29Z</time>
      </trkpt>
      <trkpt lat="9.8493950" lon="-83.9514010">
        <ele>1391.3</ele>
        <time>2022-10-21T20:59:30Z</time>
      </trkpt>
      <trkpt lat="9.8494120" lon="-83.9514570">
        <ele>1391.3</ele>
        <time>2022-10-21T20:59:31Z</time>
      </trkpt>
      <trkpt lat="9.8494290" lon="-83.9515130">
        <ele>1391.3</ele>
        <time>2022-10-21T20:59:32Z</time>
      </trkpt>
      <trkpt lat="9.8494460" lon="-83.9515690">
        <ele>1391.4</ele>
        <time>2022-10-21T20:59:33Z</time>
      </trkpt>
      <trkpt lat="9.8494620" lon="-83.9516250">
        <ele>1391.4</ele>
        <time>2022-10-21T20:59:34Z</time>
      </trkpt>
      <trkpt lat="9.8494780" lon="-83.9516810">
        <ele>1391.5</ele>
        <time>2022-10-21T20:59:35Z</time>
      </trkpt>
      <trkpt lat="9.8494940" lon="-83.9517370">
        <ele>1391.5</ele>
        <time>2022-10-21T20:59:36Z</time>
      </trkpt>
      <trkpt lat="9.8495100" lon="-83.9517940">
        <ele>1391.5</ele>
        <time>2022-10-21T20:59:37Z</time>
      </trkpt>
      <trkpt lat="9.8495260" lon="-83.9518500">
        <ele>1391.5</ele>
        <time>2022-10-21T20:59:38Z</time>
      </trkpt>
      <trkpt lat="9.8495420" lon="-83.9519060">
        <ele>1391.5</ele>
        <time>2022-10-21T20:59:39Z</time>
      </trkpt>
      <trkpt lat="9.8495580" lon="-83.9519620">
        <ele>1391.5</ele>
        <time>2022-10-21T20:59:40Z</time>
      </trkpt>
      <trkpt lat="9.8495730" lon="-83.9520180">
        <ele>1391.5</ele>
        <time>2022-10-21T20:59:41Z</time>
      </trkpt>
      <trkpt lat="9.8495890" lon="-83.9520740">
        <ele>1391.6</ele>
        <time>2022-10-21T20:59:42Z</time>
      </trkpt>
      <trkpt lat="9.8496040" lon="-83.9521300">
        <ele>1391.6</ele>
        <time>2022-10-21T20:59:43Z</time>
      </trkpt>
      <trkpt lat="9.8496190" lon="-83.9521860">
        <ele>1391.6</ele>
        <time>2022-10-21T20:59:44Z</time>
      </trkpt>
      <trkpt lat="9.8496340" lon="-83.9522410">
        <ele>1391.6</ele>
        <time>2022-10-21T20:59:45Z</time>
      </trkpt>
      <trkpt lat="9.8496490" lon="-83.9522960">
        <ele>1391.7</ele>
        <time>2022-10-21T20:59:46Z</time>
      </trkpt>
      <trkpt lat="9.8496630" lon="-83.9523500">
        <ele>1391.7</ele>
        <time>2022-10-21T20:59:47Z</time>
      </trkpt>
      <trkpt lat="9.8496770" lon="-83.9524030">
        <ele>1391.7</ele>
        <time>2022-10-21T20:59:48Z</time>
      </trkpt>
      <trkpt lat="9.8496900" lon="-83.9524570">
        <ele>1391.8</ele>
        <time>2022-10-21T20:59:49Z</time>
      </trkpt>
      <trkpt lat="9.8497040" lon="-83.9525110">
        <ele>1391.8</ele>
        <time>2022-10-21T20:59:50Z</time>
      </trkpt>
      <trkpt lat="9.8497180" lon="-83.9525640">
        <ele>1391.8</ele>
        <time>2022-10-21T20:59:51Z</time>
      </trkpt>
      <trkpt lat="9.8497320" lon="-83.9526180">
        <ele>1391.8</ele>
        <time>2022-10-21T20:59:52Z</time>
      </trkpt>
      <trkpt lat="9.8497460" lon="-83.9526720">
        <ele>1391.8</ele>
        <time>2022-10-21T20:59:53Z</time>
      </trkpt>
      <trkpt lat="9.8497600" lon="-83.9527270">
        <ele>1391.9</ele>
        <time>2022-10-21T20:59:54Z</time>
      </trkpt>
      <trkpt lat="9.8497730" lon="-83.9527810">
        <ele>1391.9</ele>
        <time>2022-10-21T20:59:55Z</time>
      </trkpt>
      <trkpt lat="9.8497850" lon="-83.9528360">
        <ele>1391.9</ele>
        <time>2022-10-21T20:59:56Z</time>
      </trkpt>
      <trkpt lat="9.8497970" lon="-83.9528930">
        <ele>1391.9</ele>
        <time>2022-10-21T20:59:57Z</time>
      </trkpt>
      <trkpt lat="9.8498070" lon="-83.9529490">
        <ele>1391.9</ele>
        <time>2022-10-21T20:59:58Z</time>
      </trkpt>
      <trkpt lat="9.8498130" lon="-83.9530060">
        <ele>1392.0</ele>
        <time>2022-10-21T20:59:59Z</time>
      </trkpt>
      <trkpt lat="9.8498140" lon="-83.9530610">
        <ele>1392.0</ele>
        <time>2022-10-21T21:00:00Z</time>
      </trkpt>
      <trkpt lat="9.8498070" lon="-83.9531130">
        <ele>1392.1</ele>
        <time>2022-10-21T21:00:01Z</time>
      </trkpt>
      <trkpt lat="9.8497930" lon="-83.9531630">
        <ele>1392.1</ele>
        <time>2022-10-21T21:00:02Z</time>
      </trkpt>
      <trkpt lat="9.8497720" lon="-83.9532090">
        <ele>1392.2</ele>
        <time>2022-10-21T21:00:03Z</time>
      </trkpt>
      <trkpt lat="9.8497430" lon="-83.9532510">
        <ele>1392.1</ele>
        <time>2022-10-21T21:00:04Z</time>
      </trkpt>
      <trkpt lat="9.8497090" lon="-83.9532890">
        <ele>1392.0</ele>
        <time>2022-10-21T21:00:05Z</time>
      </trkpt>
      <trkpt lat="9.8496680" lon="-83.9533240">
        <ele>1391.9</ele>
        <time>2022-10-21T21:00:06Z</time>
      </trkpt>
      <trkpt lat="9.8496230" lon="-83.9533560">
        <ele>1391.9</ele>
        <time>2022-10-21T21:00:07Z</time>
      </trkpt>
      <trkpt lat="9.8495720" lon="-83.9533830">
        <ele>1391.8</ele>
        <time>2022-10-21T21:00:08Z</time>
      </trkpt>
      <trkpt lat="9.8495160" lon="-83.9534090">
        <ele>1391.7</ele>
        <time>2022-10-21T21:00:09Z</time>
      </trkpt>
      <trkpt lat="9.8494590" lon="-83.9534340">
        <ele>1391.6</ele>
        <time>2022-10-21T21:00:10Z</time>
      </trkpt>
      <trkpt lat="9.8494020" lon="-83.9534600">
        <ele>1391.5</ele>
        <time>2022-10-21T21:00:11Z</time>
      </trkpt>
      <trkpt lat="9.8493480" lon="-83.9534890">
        <ele>1391.3</ele>
        <time>2022-10-21T21:00:12Z</time>
      </trkpt>
      <trkpt lat="9.8492970" lon="-83.9535210">
        <ele>1391.3</ele>
        <time>2022-10-21T21:00:13Z</time>
      </trkpt>
      <trkpt lat="9.8492510" lon="-83.9535580">
        <ele>1391.2</ele>
        <time>2022-10-21T21:00:14Z</time>
      </trkpt>
      <trkpt lat="9.8492100" lon="-83.9535980">
        <ele>1391.2</ele>
        <time>2022-10-21T21:00:15Z</time>
      </trkpt>
      <trkpt lat="9.8491740" lon="-83.9536430">
        <ele>1391.1</ele>
        <time>2022-10-21T21:00:16Z</time>
      </trkpt>
      <trkpt lat="9.8491420" lon="-83.9536930">
        <ele>1391.1</ele>
        <time>2022-10-21T21:00:17Z</time>
      </trkpt>
      <trkpt lat="9.8491140" lon="-83.9537470">
        <ele>1391.0</ele>
        <time>2022-10-21T21:00:18Z</time>
      </trkpt>
      <trkpt lat="9.8490890" lon="-83.9538040">
        <ele>1390.9</ele>
        <time>2022-10-21T21:00:19Z</time>
      </trkpt>
      <trkpt lat="9.8490680" lon="-83.9538650">
        <ele>1390.9</ele>
        <time>2022-10-21T21:00:20Z</time>
      </trkpt>
      <trkpt lat="9.8490500" lon="-83.9539280">
        <ele>1390.8</ele>
        <time>2022-10-21T21:00:21Z</time>
      </trkpt>
      <trkpt lat="9.8490340" lon="-83.9539920">
        <ele>1390.7</ele>
        <time>2022-10-21T21:00:22Z</time>
      </trkpt>
      <trkpt lat="9.8490190" lon="-83.9540560">
        <ele>1390.7</ele>
        <time>2022-10-21T21:00:23Z</time>
      </trkpt>
      <trkpt lat="9.8490040" lon="-83.9541210">
        <ele>1390.6</ele>
        <time>2022-10-21T21:00:24Z</time>
      </trkpt>
      <trkpt lat="9.8489880" lon="-83.9541840">
        <ele>1390.5</ele>
        <time>2022-10-21T21:00:25Z</time>
      </trkpt>
      <trkpt lat="9.8489690" lon="-83.9542470">
        <ele>1390.5</ele>
        <time>2022-10-21T21:00:26Z</time>
      </trkpt>
      <trkpt lat="9.8489460" lon="-83.9543080">
        <ele>1390.5</ele>
        <time>2022-10-21T21:00:27Z</time>
      </trkpt>
      <trkpt lat="9.8489190" lon="-83.9543680">
        <ele>1390.4</ele>
        <time>2022-10-21T21:00:28Z</time>
      </trkpt>
      <trkpt lat="9.8488880" lon="-83.9544250">
        <ele>1390.3</ele>
        <time>2022-10-21T21:00:29Z</time>
      </trkpt>
      <trkpt lat="9.8488540" lon="-83.9544790">
        <ele>1390.3</ele>
        <time>2022-10-21T21:00:30Z</time>
      </trkpt>
      <trkpt lat="9.8488150" lon="-83.9545310">
        <ele>1390.2</ele>
        <time>2022-10-21T21:00:31Z</time>
      </trkpt>
      <trkpt lat="9.8487730" lon="-83.9545810">
        <ele>1390.2</ele>
        <time>2022-10-21T21:00:32Z</time>
      </trkpt>
      <trkpt lat="9.8487280" lon="-83.9546280">
        <ele>1390.2</ele>
        <time>2022-10-21T21:00:33Z</time>
      </trkpt>
      <trkpt lat="9.8486780" lon="-83.9546720">
        <ele>1390.2</ele>
        <time>2022-10-21T21:00:34Z</time>
      </trkpt>
      <trkpt lat="9.8486260" lon="-83.9547150">
        <ele>1390.1</ele>
        <time>2022-10-21T21:00:35Z</time>
      </trkpt>
      <trkpt lat="9.8485710" lon="-83.9547550">
        <ele>1390.1</ele>
        <time>2022-10-21T21:00:36Z</time>
      </trkpt>
      <trkpt lat="9.8485150" lon="-83.9547930">
        <ele>1390.1</ele>
        <time>2022-10-21T21:00:37Z</time>
      </trkpt>
      <trkpt lat="9.8484580" lon="-83.9548300">
        <ele>1390.1</ele>
        <time>2022-10-21T21:00:38Z</time>
      </trkpt>
      <trkpt lat="9.8484000" lon="-83.9548650">
        <ele>1390.1</ele>
        <time>2022-10-21T21:00:39Z</time>
      </trkpt>
      <trkpt lat="9.8483410" lon="-83.9549000">
        <ele>1390.1</ele>
        <time>2022-10-21T21:00:40Z</time>
      </trkpt>
      <trkpt lat="9.8482810" lon="-83.9549360">
        <ele>1390.1</ele>
        <time>2022-10-21T21:00:41Z</time>
      </trkpt>
      <trkpt lat="9.8482210" lon="-83.9549710">
        <ele>1390.1</ele>
        <time>2022-10-21T21:00:42Z</time>
      </trkpt>
      <trkpt lat="9.8481590" lon="-83.9550070">
        <ele>1390.1</ele>
        <time>2022-10-21T21:00:43Z</time>
      </trkpt>
      <trkpt lat="9.8480970" lon="-83.9550420">
        <ele>1390.0</ele>
        <time>2022-10-21T21:00:44Z</time>
      </trkpt>
      <trkpt lat="9.8480340" lon="-83.9550770">
        <ele>1390.0</ele>
        <time>2022-10-21T21:00:45Z</time>
      </trkpt>
      <trkpt lat="9.8479700" lon="-83.9551110">
        <ele>1389.8</ele>
        <time>2022-10-21T21:00:46Z</time>
      </trkpt>
      <trkpt lat="9.8479050" lon="-83.9551450">
        <ele>1389.7</ele>
        <time>2022-10-21T21:00:47Z</time>
      </trkpt>
      <trkpt lat="9.8478390" lon="-83.9551790">
        <ele>1389.6</ele>
        <time>2022-10-21T21:00:48Z</time>
      </trkpt>
      <trkpt lat="9.8477720" lon="-83.9552120">
        <ele>1389.5</ele>
        <time>2022-10-21T21:00:49Z</time>
      </trkpt>
      <trkpt lat="9.8477060" lon="-83.9552450">
        <ele>1389.4</ele>
        <time>2022-10-21T21:00:50Z</time>
      </trkpt>
      <trkpt lat="9.8476410" lon="-83.9552770">
        <ele>1389.3</ele>
        <time>2022-10-21T21:00:51Z</time>
      </trkpt>
      <trkpt lat="9.8475760" lon="-83.9553080">
        <ele>1389.3</ele>
        <time>2022-10-21T21:00:52Z</time>
      </trkpt>
      <trkpt lat="9.8475120" lon="-83.9553380">
        <ele>1389.2</ele>
        <time>2022-10-21T21:00:53Z</time>
      </trkpt>
      <trkpt lat="9.8474480" lon="-83.9553680">
        <ele>1389.2</ele>
        <time>2022-10-21T21:00:54Z</time>
      </trkpt>
      <trkpt lat="9.8473860" lon="-83.9553970">
        <ele>1389.1</ele>
        <time>2022-10-21T21:00:55Z</time>
      </trkpt>
      <trkpt lat="9.8473230" lon="-83.9554260">
        <ele>1389.1</ele>
        <time>2022-10-21T21:00:56Z</time>
      </trkpt>
      <trkpt lat="9.8472620" lon="-83.9554550">
        <ele>1389.0</ele>
        <time>2022-10-21T21:00:57Z</time>
      </trkpt>
      <trkpt lat="9.8472010" lon="-83.9554840">
        <ele>1389.0</ele>
        <time>2022-10-21T21:00:58Z</time>
      </trkpt>
      <trkpt lat="9.8471410" lon="-83.9555120">
        <ele>1388.9</ele>
        <time>2022-10-21T21:00:59Z</time>
      </trkpt>
      <trkpt lat="9.8470810" lon="-83.9555410">
        <ele>1388.8</ele>
        <time>2022-10-21T21:01:00Z</time>
      </trkpt>
      <trkpt lat="9.8470210" lon="-83.9555700">
        <ele>1388.7</ele>
        <time>2022-10-21T21:01:01Z</time>
      </trkpt>
      <trkpt lat="9.8469620" lon="-83.9555980">
        <ele>1388.7</ele>
        <time>2022-10-21T21:01:02Z</time>
      </trkpt>
      <trkpt lat="9.8469020" lon="-83.9556260">
        <ele>1388.6</ele>
        <time>2022-10-21T21:01:03Z</time>
      </trkpt>
      <trkpt lat="9.8468420" lon="-83.9556550">
        <ele>1388.5</ele>
        <time>2022-10-21T21:01:04Z</time>
      </trkpt>
      <trkpt lat="9.8467820" lon="-83.9556840">
        <ele>1388.4</ele>
        <time>2022-10-21T21:01:05Z</time>
      </trkpt>
      <trkpt lat="9.8467210" lon="-83.9557130">
        <ele>1388.3</ele>
        <time>2022-10-21T21:01:06Z</time>
      </trkpt>
      <trkpt lat="9.8466600" lon="-83.9557430">
        <ele>1388.2</ele>
        <time>2022-10-21T21:01:07Z</time>
      </trkpt>
      <trkpt lat="9.8466000" lon="-83.9557730">
        <ele>1388.1</ele>
        <time>2022-10-21T21:01:08Z</time>
      </trkpt>
      <trkpt lat="9.8465390" lon="-83.9558030">
        <ele>1388.1</ele>
        <time>2022-10-21T21:01:09Z</time>
      </trkpt>
      <trkpt lat="9.8464790" lon="-83.9558340">
        <ele>1388.0</ele>
        <time>2022-10-21T21:01:10Z</time>
      </trkpt>
      <trkpt lat="9.8464190" lon="-83.9558660">
        <ele>1387.9</ele>
        <time>2022-10-21T21:01:11Z</time>
      </trkpt>
      <trkpt lat="9.8463610" lon="-83.9558980">
        <ele>1387.8</ele>
        <time>2022-10-21T21:01:12Z</time>
      </trkpt>
      <trkpt lat="9.8463040" lon="-83.9559320">
        <ele>1387.8</ele>
        <time>2022-10-21T21:01:13Z</time>
      </trkpt>
      <trkpt lat="9.8462500" lon="-83.9559660">
        <ele>1387.7</ele>
        <time>2022-10-21T21:01:14Z</time>
      </trkpt>
      <trkpt lat="9.8461990" lon="-83.9560000">
        <ele>1387.7</ele>
        <time>2022-10-21T21:01:15Z</time>
      </trkpt>
      <trkpt lat="9.8461500" lon="-83.9560350">
        <ele>1387.7</ele>
        <time>2022-10-21T21:01:16Z</time>
      </trkpt>
      <trkpt lat="9.8461030" lon="-83.9560710">
        <ele>1387.7</ele>
        <time>2022-10-21T21:01:17Z</time>
      </trkpt>
      <trkpt lat="9.8460580" lon="-83.9561080">
        <ele>1387.7</ele>
        <time>2022-10-21T21:01:18Z</time>
      </trkpt>
      <trkpt lat="9.8460120" lon="-83.9561450">
        <ele>1387.8</ele>
        <time>2022-10-21T21:01:19Z</time>
      </trkpt>
      <trkpt lat="9.8459670" lon="-83.9561810">
        <ele>1387.8</ele>
        <time>2022-10-21T21:01:20Z</time>
      </trkpt>
      <trkpt lat="9.8459200" lon="-83.9562170">
        <ele>1387.9</ele>
        <time>2022-10-21T21:01:21Z</time>
      </trkpt>
      <trkpt lat="9.8458730" lon="-83.9562510">
        <ele>1387.7</ele>
        <time>2022-10-21T21:01:22Z</time>
      </trkpt>
      <trkpt lat="9.8458240" lon="-83.9562830">
        <ele>1387.6</ele>
        <time>2022-10-21T21:01:23Z</time>
      </trkpt>
      <trkpt lat="9.8457720" lon="-83.9563150">
        <ele>1387.4</ele>
        <time>2022-10-21T21:01:24Z</time>
      </trkpt>
      <trkpt lat="9.8457180" lon="-83.9563470">
        <ele>1387.3</ele>
        <time>2022-10-21T21:01:25Z</time>
      </trkpt>
      <trkpt lat="9.8456610" lon="-83.9563770">
        <ele>1387.2</ele>
        <time>2022-10-21T21:01:26Z</time>
      </trkpt>
      <trkpt lat="9.8456020" lon="-83.9564070">
        <ele>1387.1</ele>
        <time>2022-10-21T21:01:27Z</time>
      </trkpt>
      <trkpt lat="9.8455400" lon="-83.9564350">
        <ele>1387.1</ele>
        <time>2022-10-21T21:01:28Z</time>
      </trkpt>
      <trkpt lat="9.8454760" lon="-83.9564620">
        <ele>1387.1</ele>
        <time>2022-10-21T21:01:29Z</time>
      </trkpt>
      <trkpt lat="9.8454130" lon="-83.9564890">
        <ele>1387.0</ele>
        <time>2022-10-21T21:01:30Z</time>
      </trkpt>
      <trkpt lat="9.8453490" lon="-83.9565150">
        <ele>1387.0</ele>
        <time>2022-10-21T21:01:31Z</time>
      </trkpt>
      <trkpt lat="9.8452860" lon="-83.9565420">
        <ele>1387.0</ele>
        <time>2022-10-21T21:01:32Z</time>
      </trkpt>
      <trkpt lat="9.8452220" lon="-83.9565690">
        <ele>1387.0</ele>
        <time>2022-10-21T21:01:33Z</time>
      </trkpt>
      <trkpt lat="9.8451600" lon="-83.9565970">
        <ele>1387.0</ele>
        <time>2022-10-21T21:01:34Z</time>
      </trkpt>
      <trkpt lat="9.8450980" lon="-83.9566250">
        <ele>1387.0</ele>
        <time>2022-10-21T21:01:35Z</time>
      </trkpt>
      <trkpt lat="9.8450360" lon="-83.9566530">
        <ele>1387.0</ele>
        <time>2022-10-21T21:01:36Z</time>
      </trkpt>
      <trkpt lat="9.8449750" lon="-83.9566800">
        <ele>1386.9</ele>
        <time>2022-10-21T21:01:37Z</time>
      </trkpt>
      <trkpt lat="9.8449140" lon="-83.9567080">
        <ele>1386.9</ele>
        <time>2022-10-21T21:01:38Z</time>
      </trkpt>
      <trkpt lat="9.8448540" lon="-83.9567350">
        <ele>1386.8</ele>
        <time>2022-10-21T21:01:39Z</time>
      </trkpt>
      <trkpt lat="9.8447940" lon="-83.9567620">
        <ele>1386.8</ele>
        <time>2022-10-21T21:01:40Z</time>
      </trkpt>
      <trkpt lat="9.8447330" lon="-83.9567890">
        <ele>1386.7</ele>
        <time>2022-10-21T21:01:41Z</time>
      </trkpt>
      <trkpt lat="9.8446740" lon="-83.9568170">
        <ele>1386.7</ele>
        <time>2022-10-21T21:01:42Z</time>
      </trkpt>
      <trkpt lat="9.8446140" lon="-83.9568450">
        <ele>1386.6</ele>
        <time>2022-10-21T21:01:43Z</time>
      </trkpt>
      <trkpt lat="9.8445540" lon="-83.9568740">
        <ele>1386.6</ele>
        <time>2022-10-21T21:01:44Z</time>
      </trkpt>
      <trkpt lat="9.8444940" lon="-83.9569020">
        <ele>1386.5</ele>
        <time>2022-10-21T21:01:45Z</time>
      </trkpt>
      <trkpt lat="9.8444340" lon="-83.9569300">
        <ele>1386.5</ele>
        <time>2022-10-21T21:01:46Z</time>
      </trkpt>
      <trkpt lat="9.8443740" lon="-83.9569580">
        <ele>1386.4</ele>
        <time>2022-10-21T21:01:47Z</time>
      </trkpt>
      <trkpt lat="9.8443140" lon="-83.9569860">
        <ele>1386.4</ele>
        <time>2022-10-21T21:01:48Z</time>
      </trkpt>
      <trkpt lat="9.8442540" lon="-83.9570140">
        <ele>1386.4</ele>
        <time>2022-10-21T21:01:49Z</time>
      </trkpt>
      <trkpt lat="9.8441940" lon="-83.9570410">
        <ele>1386.3</ele>
        <time>2022-10-21T21:01:50Z</time>
      </trkpt>
      <trkpt lat="9.8441340" lon="-83.9570690">
        <ele>1386.3</ele>
        <time>2022-10-21T21:01:51Z</time>
      </trkpt>
      <trkpt lat="9.8440740" lon="-83.9570960">
        <ele>1386.3</ele>
        <time>2022-10-21T21:01:52Z</time>
      </trkpt>
      <trkpt lat="9.8440140" lon="-83.9571230">
        <ele>1386.2</ele>
        <time>2022-10-21T21:01:53Z</time>
      </trkpt>
      <trkpt lat="9.8439530" lon="-83.9571490">
        <ele>1386.2</ele>
        <time>2022-10-21T21:01:54Z</time>
      </trkpt>
      <trkpt lat="9.8438930" lon="-83.9571750">
        <ele>1386.1</ele>
        <time>2022-10-21T21:01:55Z</time>
      </trkpt>
      <trkpt lat="9.8438310" lon="-83.9572020">
        <ele>1386.1</ele>
        <time>2022-10-21T21:01:56Z</time>
      </trkpt>
      <trkpt lat="9.8437700" lon="-83.9572280">
        <ele>1386.1</ele>
        <time>2022-10-21T21:01:57Z</time>
      </trkpt>
      <trkpt lat="9.8437080" lon="-83.9572540">
        <ele>1386.0</ele>
        <time>2022-10-21T21:01:58Z</time>
      </trkpt>
      <trkpt lat="9.8436450" lon="-83.9572810">
        <ele>1385.9</ele>
        <time>2022-10-21T21:01:59Z</time>
      </trkpt>
      <trkpt lat="9.8435820" lon="-83.9573080">
        <ele>1385.8</ele>
        <time>2022-10-21T21:02:00Z</time>
      </trkpt>
      <trkpt lat="9.8435190" lon="-83.9573350">
        <ele>1385.7</ele>
        <time>2022-10-21T21:02:01Z</time>
      </trkpt>
      <trkpt lat="9.8434560" lon="-83.9573630">
        <ele>1385.7</ele>
        <time>2022-10-21T21:02:02Z</time>
      </trkpt>
      <trkpt lat="9.8433920" lon="-83.9573920">
        <ele>1385.5</ele>
        <time>2022-10-21T21:02:03Z</time>
      </trkpt>
      <trkpt lat="9.8433280" lon="-83.9574210">
        <ele>1385.4</ele>
        <time>2022-10-21T21:02:04Z</time>
      </trkpt>
      <trkpt lat="9.8432630" lon="-83.9574510">
        <ele>1385.3</ele>
        <time>2022-10-21T21:02:05Z</time>
      </trkpt>
      <trkpt lat="9.8431990" lon="-83.9574800">
        <ele>1385.2</ele>
        <time>2022-10-21T21:02:06Z</time>
      </trkpt>
      <trkpt lat="9.8431340" lon="-83.9575100">
        <ele>1385.1</ele>
        <time>2022-10-21T21:02:07Z</time>
      </trkpt>
      <trkpt lat="9.8430690" lon="-83.9575400">
        <ele>1384.9</ele>
        <time>2022-10-21T21:02:08Z</time>
      </trkpt>
      <trkpt lat="9.8430040" lon="-83.9575710">
        <ele>1384.8</ele>
        <time>2022-10-21T21:02:09Z</time>
      </trkpt>
      <trkpt lat="9.8429400" lon="-83.9576020">
        <ele>1384.7</ele>
        <time>2022-10-21T21:02:10Z</time>
      </trkpt>
      <trkpt lat="9.8428750" lon="-83.9576340">
        <ele>1384.6</ele>
        <time>2022-10-21T21:02:11Z</time>
      </trkpt>
      <trkpt lat="9.8428100" lon="-83.9576660">
        <ele>1384.5</ele>
        <time>2022-10-21T21:02:12Z</time>
      </trkpt>
      <trkpt lat="9.8427460" lon="-83.9576990">
        <ele>1384.5</ele>
        <time>2022-10-21T21:02:13Z</time>
      </trkpt>
      <trkpt lat="9.8426830" lon="-83.9577320">
        <ele>1384.4</ele>
        <time>2022-10-21T21:02:14Z</time>
      </trkpt>
      <trkpt lat="9.8426200" lon="-83.9577660">
        <ele>1384.4</ele>
        <time>2022-10-21T21:02:15Z</time>
      </trkpt>
      <trkpt lat="9.8425570" lon="-83.9578000">
        <ele>1384.3</ele>
        <time>2022-10-21T21:02:16Z</time>
      </trkpt>
      <trkpt lat="9.8424950" lon="-83.9578350">
        <ele>1384.3</ele>
        <time>2022-10-21T21:02:17Z</time>
      </trkpt>
      <trkpt lat="9.8424330" lon="-83.9578710">
        <ele>1384.2</ele>
        <time>2022-10-21T21:02:18Z</time>
      </trkpt>
      <trkpt lat="9.8423730" lon="-83.9579080">
        <ele>1384.2</ele>
        <time>2022-10-21T21:02:19Z</time>
      </trkpt>
      <trkpt lat="9.8423130" lon="-83.9579460">
        <ele>1384.2</ele>
        <time>2022-10-21T21:02:20Z</time>
      </trkpt>
      <trkpt lat="9.8422550" lon="-83.9579850">
        <ele>1384.1</ele>
        <time>2022-10-21T21:02:21Z</time>
      </trkpt>
      <trkpt lat="9.8421980" lon="-83.9580250">
        <ele>1384.1</ele>
        <time>2022-10-21T21:02:22Z</time>
      </trkpt>
      <trkpt lat="9.8421420" lon="-83.9580670">
        <ele>1384.1</ele>
        <time>2022-10-21T21:02:23Z</time>
      </trkpt>
      <trkpt lat="9.8420890" lon="-83.9581110">
        <ele>1384.1</ele>
        <time>2022-10-21T21:02:24Z</time>
      </trkpt>
      <trkpt lat="9.8420370" lon="-83.9581580">
        <ele>1384.0</ele>
        <time>2022-10-21T21:02:25Z</time>
      </trkpt>
      <trkpt lat="9.8419890" lon="-83.9582080">
        <ele>1384.0</ele>
        <time>2022-10-21T21:02:26Z</time>
      </trkpt>
      <trkpt lat="9.8419460" lon="-83.9582610">
        <ele>1383.9</ele>
        <time>2022-10-21T21:02:27Z</time>
      </trkpt>
      <trkpt lat="9.8419070" lon="-83.9583170">
        <ele>1383.9</ele>
        <time>2022-10-21T21:02:28Z</time>
      </trkpt>
      <trkpt lat="9.8418720" lon="-83.9583760">
        <ele>1383.9</ele>
        <time>2022-10-21T21:02:29Z</time>
      </trkpt>
      <trkpt lat="9.8418410" lon="-83.9584380">
        <ele>1383.9</ele>
        <time>2022-10-21T21:02:30Z</time>
      </trkpt>
      <trkpt lat="9.8418140" lon="-83.9585010">
        <ele>1384.0</ele>
        <time>2022-10-21T21:02:31Z</time>
      </trkpt>
      <trkpt lat="9.8417910" lon="-83.9585660">
        <ele>1384.1</ele>
        <time>2022-10-21T21:02:32Z</time>
      </trkpt>
      <trkpt lat="9.8417700" lon="-83.9586320">
        <ele>1384.2</ele>
        <time>2022-10-21T21:02:33Z</time>
      </trkpt>
      <trkpt lat="9.8417510" lon="-83.9586990">
        <ele>1384.3</ele>
        <time>2022-10-21T21:02:34Z</time>
      </trkpt>
      <trkpt lat="9.8417340" lon="-83.9587660">
        <ele>1384.4</ele>
        <time>2022-10-21T21:02:35Z</time>
      </trkpt>
      <trkpt lat="9.8417170" lon="-83.9588310">
        <ele>1384.5</ele>
        <time>2022-10-21T21:02:36Z</time>
      </trkpt>
      <trkpt lat="9.8417000" lon="-83.9588950">
        <ele>1384.6</ele>
        <time>2022-10-21T21:02:37Z</time>
      </trkpt>
      <trkpt lat="9.8416810" lon="-83.9589580">
        <ele>1384.7</ele>
        <time>2022-10-21T21:02:38Z</time>
      </trkpt>
      <trkpt lat="9.8416600" lon="-83.9590180">
        <ele>1384.8</ele>
        <time>2022-10-21T21:02:39Z</time>
      </trkpt>
      <trkpt lat="9.8416360" lon="-83.9590770">
        <ele>1384.9</ele>
        <time>2022-10-21T21:02:40Z</time>
      </trkpt>
      <trkpt lat="9.8416110" lon="-83.9591360">
        <ele>1384.9</ele>
        <time>2022-10-21T21:02:41Z</time>
      </trkpt>
      <trkpt lat="9.8415830" lon="-83.9591940">
        <ele>1384.9</ele>
        <time>2022-10-21T21:02:42Z</time>
      </trkpt>
      <trkpt lat="9.8415530" lon="-83.9592530">
        <ele>1384.9</ele>
        <time>2022-10-21T21:02:43Z</time>
      </trkpt>
      <trkpt lat="9.8415220" lon="-83.9593110">
        <ele>1384.9</ele>
        <time>2022-10-21T21:02:44Z</time>
      </trkpt>
      <trkpt lat="9.8414900" lon="-83.9593690">
        <ele>1384.7</ele>
        <time>2022-10-21T21:02:45Z</time>
      </trkpt>
      <trkpt lat="9.8414570" lon="-83.9594290">
        <ele>1384.5</ele>
        <time>2022-10-21T21:02:46Z</time>
      </trkpt>
      <trkpt lat="9.8414250" lon="-83.9594900">
        <ele>1384.5</ele>
        <time>2022-10-21T21:02:47Z</time>
      </trkpt>
      <trkpt lat="9.8413940" lon="-83.9595520">
        <ele>1384.4</ele>
        <time>2022-10-21T21:02:48Z</time>
      </trkpt>
      <trkpt lat="9.8413640" lon="-83.9596160">
        <ele>1384.4</ele>
        <time>2022-10-21T21:02:49Z</time>
      </trkpt>
      <trkpt lat="9.8413370" lon="-83.9596820">
        <ele>1384.3</ele>
        <time>2022-10-21T21:02:50Z</time>
      </trkpt>
      <trkpt lat="9.8413120" lon="-83.9597490">
        <ele>1384.3</ele>
        <time>2022-10-21T21:02:51Z</time>
      </trkpt>
      <trkpt lat="9.8412890" lon="-83.9598170">
        <ele>1384.2</ele>
        <time>2022-10-21T21:02:52Z</time>
      </trkpt>
      <trkpt lat="9.8412680" lon="-83.9598860">
        <ele>1384.2</ele>
        <time>2022-10-21T21:02:53Z</time>
      </trkpt>
      <trkpt lat="9.8412500" lon="-83.9599540">
        <ele>1384.1</ele>
        <time>2022-10-21T21:02:54Z</time>
      </trkpt>
      <trkpt lat="9.8412340" lon="-83.9600230">
        <ele>1384.1</ele>
        <time>2022-10-21T21:02:55Z</time>
      </trkpt>
      <trkpt lat="9.8412200" lon="-83.9600910">
        <ele>1384.2</ele>
        <time>2022-10-21T21:02:56Z</time>
      </trkpt>
      <trkpt lat="9.8412070" lon="-83.9601590">
        <ele>1384.3</ele>
        <time>2022-10-21T21:02:57Z</time>
      </trkpt>
      <trkpt lat="9.8411950" lon="-83.9602260">
        <ele>1384.4</ele>
        <time>2022-10-21T21:02:58Z</time>
      </trkpt>
      <trkpt lat="9.8411830" lon="-83.9602930">
        <ele>1384.4</ele>
        <time>2022-10-21T21:02:59Z</time>
      </trkpt>
      <trkpt lat="9.8411710" lon="-83.9603590">
        <ele>1384.4</ele>
        <time>2022-10-21T21:03:00Z</time>
      </trkpt>
      <trkpt lat="9.8411590" lon="-83.9604240">
        <ele>1384.4</ele>
        <time>2022-10-21T21:03:01Z</time>
      </trkpt>
      <trkpt lat="9.8411470" lon="-83.9604890">
        <ele>1384.5</ele>
        <time>2022-10-21T21:03:02Z</time>
      </trkpt>
      <trkpt lat="9.8411340" lon="-83.9605540">
        <ele>1384.5</ele>
        <time>2022-10-21T21:03:03Z</time>
      </trkpt>
      <trkpt lat="9.8411210" lon="-83.9606180">
        <ele>1384.5</ele>
        <time>2022-10-21T21:03:04Z</time>
      </trkpt>
      <trkpt lat="9.8411080" lon="-83.9606820">
        <ele>1384.6</ele>
        <time>2022-10-21T21:03:05Z</time>
      </trkpt>
      <trkpt lat="9.8410940" lon="-83.9607460">
        <ele>1384.6</ele>
        <time>2022-10-21T21:03:06Z</time>
      </trkpt>
      <trkpt lat="9.8410820" lon="-83.9608090">
        <ele>1384.6</ele>
        <time>2022-10-21T21:03:07Z</time>
      </trkpt>
      <trkpt lat="9.8410700" lon="-83.9608730">
        <ele>1384.6</ele>
        <time>2022-10-21T21:03:08Z</time>
      </trkpt>
      <trkpt lat="9.8410600" lon="-83.9609370">
        <ele>1384.6</ele>
        <time>2022-10-21T21:03:09Z</time>
      </trkpt>
      <trkpt lat="9.8410500" lon="-83.9610010">
        <ele>1384.7</ele>
        <time>2022-10-21T21:03:10Z</time>
      </trkpt>
      <trkpt lat="9.8410420" lon="-83.9610650">
        <ele>1384.7</ele>
        <time>2022-10-21T21:03:11Z</time>
      </trkpt>
      <trkpt lat="9.8410360" lon="-83.9611290">
        <ele>1384.7</ele>
        <time>2022-10-21T21:03:12Z</time>
      </trkpt>
      <trkpt lat="9.8410310" lon="-83.9611930">
        <ele>1384.7</ele>
        <time>2022-10-21T21:03:13Z</time>
      </trkpt>
      <trkpt lat="9.8410270" lon="-83.9612560">
        <ele>1384.7</ele>
        <time>2022-10-21T21:03:14Z</time>
      </trkpt>
      <trkpt lat="9.8410250" lon="-83.9613200">
        <ele>1384.8</ele>
        <time>2022-10-21T21:03:15Z</time>
      </trkpt>
      <trkpt lat="9.8410240" lon="-83.9613850">
        <ele>1384.8</ele>
        <time>2022-10-21T21:03:16Z</time>
      </trkpt>
      <trkpt lat="9.8410250" lon="-83.9614490">
        <ele>1384.8</ele>
        <time>2022-10-21T21:03:17Z</time>
      </trkpt>
      <trkpt lat="9.8410260" lon="-83.9615130">
        <ele>1384.9</ele>
        <time>2022-10-21T21:03:18Z</time>
      </trkpt>
      <trkpt lat="9.8410280" lon="-83.9615770">
        <ele>1384.9</ele>
        <time>2022-10-21T21:03:19Z</time>
      </trkpt>
      <trkpt lat="9.8410310" lon="-83.9616410">
        <ele>1384.9</ele>
        <time>2022-10-21T21:03:20Z</time>
      </trkpt>
      <trkpt lat="9.8410340" lon="-83.9617050">
        <ele>1384.9</ele>
        <time>2022-10-21T21:03:21Z</time>
      </trkpt>
      <trkpt lat="9.8410370" lon="-83.9617690">
        <ele>1385.0</ele>
        <time>2022-10-21T21:03:22Z</time>
      </trkpt>
      <trkpt lat="9.8410410" lon="-83.9618330">
        <ele>1385.0</ele>
        <time>2022-10-21T21:03:23Z</time>
      </trkpt>
      <trkpt lat="9.8410450" lon="-83.9618960">
        <ele>1385.1</ele>
        <time>2022-10-21T21:03:24Z</time>
      </trkpt>
      <trkpt lat="9.8410490" lon="-83.9619590">
        <ele>1385.1</ele>
        <time>2022-10-21T21:03:25Z</time>
      </trkpt>
      <trkpt lat="9.8410530" lon="-83.9620210">
        <ele>1385.2</ele>
        <time>2022-10-21T21:03:26Z</time>
      </trkpt>
      <trkpt lat="9.8410560" lon="-83.9620830">
        <ele>1385.3</ele>
        <time>2022-10-21T21:03:27Z</time>
      </trkpt>
      <trkpt lat="9.8410590" lon="-83.9621450">
        <ele>1385.3</ele>
        <time>2022-10-21T21:03:28Z</time>
      </trkpt>
      <trkpt lat="9.8410590" lon="-83.9622060">
        <ele>1385.4</ele>
        <time>2022-10-21T21:03:29Z</time>
      </trkpt>
      <trkpt lat="9.8410570" lon="-83.9622650">
        <ele>1385.4</ele>
        <time>2022-10-21T21:03:30Z</time>
      </trkpt>
      <trkpt lat="9.8410510" lon="-83.9623220">
        <ele>1385.5</ele>
        <time>2022-10-21T21:03:31Z</time>
      </trkpt>
      <trkpt lat="9.8410390" lon="-83.9623760">
        <ele>1385.5</ele>
        <time>2022-10-21T21:03:32Z</time>
      </trkpt>
      <trkpt lat="9.8410220" lon="-83.9624270">
        <ele>1385.6</ele>
        <time>2022-10-21T21:03:33Z</time>
      </trkpt>
      <trkpt lat="9.8409990" lon="-83.9624740">
        <ele>1385.6</ele>
        <time>2022-10-21T21:03:34Z</time>
      </trkpt>
      <trkpt lat="9.8409700" lon="-83.9625180">
        <ele>1385.6</ele>
        <time>2022-10-21T21:03:35Z</time>
      </trkpt>
      <trkpt lat="9.8409350" lon="-83.9625580">
        <ele>1385.6</ele>
        <time>2022-10-21T21:03:36Z</time>
      </trkpt>
      <trkpt lat="9.8408940" lon="-83.9625950">
        <ele>1385.7</ele>
        <time>2022-10-21T21:03:37Z</time>
      </trkpt>
      <trkpt lat="9.8408480" lon="-83.9626270">
        <ele>1385.6</ele>
        <time>2022-10-21T21:03:38Z</time>
      </trkpt>
      <trkpt lat="9.8407980" lon="-83.9626560">
        <ele>1385.6</ele>
        <time>2022-10-21T21:03:39Z</time>
      </trkpt>
      <trkpt lat="9.8407440" lon="-83.9626810">
        <ele>1385.6</ele>
        <time>2022-10-21T21:03:40Z</time>
      </trkpt>
      <trkpt lat="9.8406870" lon="-83.9627050">
        <ele>1385.6</ele>
        <time>2022-10-21T21:03:41Z</time>
      </trkpt>
      <trkpt lat="9.8406280" lon="-83.9627280">
        <ele>1385.5</ele>
        <time>2022-10-21T21:03:42Z</time>
      </trkpt>
      <trkpt lat="9.8405690" lon="-83.9627500">
        <ele>1385.5</ele>
        <time>2022-10-21T21:03:43Z</time>
      </trkpt>
      <trkpt lat="9.8405090" lon="-83.9627720">
        <ele>1385.5</ele>
        <time>2022-10-21T21:03:44Z</time>
      </trkpt>
      <trkpt lat="9.8404500" lon="-83.9627940">
        <ele>1385.5</ele>
        <time>2022-10-21T21:03:45Z</time>
      </trkpt>
      <trkpt lat="9.8403900" lon="-83.9628160">
        <ele>1385.5</ele>
        <time>2022-10-21T21:03:46Z</time>
      </trkpt>
      <trkpt lat="9.8403310" lon="-83.9628380">
        <ele>1385.5</ele>
        <time>2022-10-21T21:03:47Z</time>
      </trkpt>
      <trkpt lat="9.8402730" lon="-83.9628610">
        <ele>1385.5</ele>
        <time>2022-10-21T21:03:48Z</time>
      </trkpt>
      <trkpt lat="9.8402140" lon="-83.9628840">
        <ele>1385.6</ele>
        <time>2022-10-21T21:03:49Z</time>
      </trkpt>
      <trkpt lat="9.8401560" lon="-83.9629080">
        <ele>1385.6</ele>
        <time>2022-10-21T21:03:50Z</time>
      </trkpt>
      <trkpt lat="9.8400980" lon="-83.9629310">
        <ele>1385.6</ele>
        <time>2022-10-21T21:03:51Z</time>
      </trkpt>
      <trkpt lat="9.8400400" lon="-83.9629540">
        <ele>1385.7</ele>
        <time>2022-10-21T21:03:52Z</time>
      </trkpt>
      <trkpt lat="9.8399830" lon="-83.9629760">
        <ele>1385.7</ele>
        <time>2022-10-21T21:03:53Z</time>
      </trkpt>
      <trkpt lat="9.8399260" lon="-83.9629980">
        <ele>1385.7</ele>
        <time>2022-10-21T21:03:54Z</time>
      </trkpt>
      <trkpt lat="9.8398690" lon="-83.9630190">
        <ele>1385.8</ele>
        <time>2022-10-21T21:03:55Z</time>
      </trkpt>
      <trkpt lat="9.8398130" lon="-83.9630400">
        <ele>1385.9</ele>
        <time>2022-10-21T21:03:56Z</time>
      </trkpt>
      <trkpt lat="9.8397570" lon="-83.9630620">
        <ele>1386.0</ele>
        <time>2022-10-21T21:03:57Z</time>
      </trkpt>
      <trkpt lat="9.8397020" lon="-83.9630840">
        <ele>1386.0</ele>
        <time>2022-10-21T21:03:58Z</time>
      </trkpt>
      <trkpt lat="9.8396460" lon="-83.9631050">
        <ele>1386.1</ele>
        <time>2022-10-21T21:03:59Z</time>
      </trkpt>
      <trkpt lat="9.8395910" lon="-83.9631260">
        <ele>1386.1</ele>
        <time>2022-10-21T21:04:00Z</time>
      </trkpt>
      <trkpt lat="9.8395360" lon="-83.9631460">
        <ele>1386.2</ele>
        <time>2022-10-21T21:04:01Z</time>
      </trkpt>
      <trkpt lat="9.8394820" lon="-83.9631660">
        <ele>1386.2</ele>
        <time>2022-10-21T21:04:02Z</time>
      </trkpt>
      <trkpt lat="9.8394290" lon="-83.9631850">
        <ele>1386.3</ele>
        <time>2022-10-21T21:04:03Z</time>
      </trkpt>
      <trkpt lat="9.8393760" lon="-83.9632050">
        <ele>1386.4</ele>
        <time>2022-10-21T21:04:04Z</time>
      </trkpt>
      <trkpt lat="9.8393240" lon="-83.9632240">
        <ele>1386.5</ele>
        <time>2022-10-21T21:04:05Z</time>
      </trkpt>
      <trkpt lat="9.8392730" lon="-83.9632440">
        <ele>1386.6</ele>
        <time>2022-10-21T21:04:06Z</time>
      </trkpt>
      <trkpt lat="9.8392230" lon="-83.9632630">
        <ele>1386.7</ele>
        <time>2022-10-21T21:04:07Z</time>
      </trkpt>
      <trkpt lat="9.8391740" lon="-83.9632820">
        <ele>1386.8</ele>
        <time>2022-10-21T21:04:08Z</time>
      </trkpt>
      <trkpt lat="9.8391250" lon="-83.9633010">
        <ele>1387.0</ele>
        <time>2022-10-21T21:04:09Z</time>
      </trkpt>
      <trkpt lat="9.8390780" lon="-83.9633190">
        <ele>1387.1</ele>
        <time>2022-10-21T21:04:10Z</time>
      </trkpt>
      <trkpt lat="9.8390310" lon="-83.9633370">
        <ele>1387.2</ele>
        <time>2022-10-21T21:04:11Z</time>
      </trkpt>
      <trkpt lat="9.8389840" lon="-83.9633560">
        <ele>1387.3</ele>
        <time>2022-10-21T21:04:12Z</time>
      </trkpt>
      <trkpt lat="9.8389380" lon="-83.9633740">
        <ele>1387.4</ele>
        <time>2022-10-21T21:04:13Z</time>
      </trkpt>
      <trkpt lat="9.8388920" lon="-83.9633920">
        <ele>1387.6</ele>
        <time>2022-10-21T21:04:14Z</time>
      </trkpt>
      <trkpt lat="9.8388470" lon="-83.9634100">
        <ele>1387.7</ele>
        <time>2022-10-21T21:04:15Z</time>
      </trkpt>
      <trkpt lat="9.8388010" lon="-83.9634280">
        <ele>1387.8</ele>
        <time>2022-10-21T21:04:16Z</time>
      </trkpt>
      <trkpt lat="9.8387540" lon="-83.9634450">
        <ele>1387.9</ele>
        <time>2022-10-21T21:04:17Z</time>
      </trkpt>
      <trkpt lat="9.8387070" lon="-83.9634630">
        <ele>1388.0</ele>
        <time>2022-10-21T21:04:18Z</time>
      </trkpt>
      <trkpt lat="9.8386590" lon="-83.9634800">
        <ele>1388.1</ele>
        <time>2022-10-21T21:04:19Z</time>
      </trkpt>
      <trkpt lat="9.8386110" lon="-83.9634960">
        <ele>1388.2</ele>
        <time>2022-10-21T21:04:20Z</time>
      </trkpt>
      <trkpt lat="9.8385620" lon="-83.9635130">
        <ele>1388.3</ele>
        <time>2022-10-21T21:04:21Z</time>
      </trkpt>
      <trkpt lat="9.8385130" lon="-83.9635300">
        <ele>1388.4</ele>
        <time>2022-10-21T21:04:22Z</time>
      </trkpt>
      <trkpt lat="9.8384630" lon="-83.9635480">
        <ele>1388.5</ele>
        <time>2022-10-21T21:04:23Z</time>
      </trkpt>
      <trkpt lat="9.8384130" lon="-83.9635660">
        <ele>1388.7</ele>
        <time>2022-10-21T21:04:24Z</time>
      </trkpt>
      <trkpt lat="9.8383630" lon="-83.9635850">
        <ele>1388.8</ele>
        <time>2022-10-21T21:04:25Z</time>
      </trkpt>
      <trkpt lat="9.8383120" lon="-83.9636030">
        <ele>1388.9</ele>
        <time>2022-10-21T21:04:26Z</time>
      </trkpt>
      <trkpt lat="9.8382620" lon="-83.9636200">
        <ele>1389.1</ele>
        <time>2022-10-21T21:04:27Z</time>
      </trkpt>
      <trkpt lat="9.8382120" lon="-83.9636360">
        <ele>1389.3</ele>
        <time>2022-10-21T21:04:28Z</time>
      </trkpt>
      <trkpt lat="9.8381610" lon="-83.9636520">
        <ele>1389.5</ele>
        <time>2022-10-21T21:04:29Z</time>
      </trkpt>
      <trkpt lat="9.8381110" lon="-83.9636680">
        <ele>1389.7</ele>
        <time>2022-10-21T21:04:30Z</time>
      </trkpt>
      <trkpt lat="9.8380610" lon="-83.9636830">
        <ele>1390.0</ele>
        <time>2022-10-21T21:04:31Z</time>
      </trkpt>
      <trkpt lat="9.8380100" lon="-83.9636980">
        <ele>1390.2</ele>
        <time>2022-10-21T21:04:32Z</time>
      </trkpt>
      <trkpt lat="9.8379590" lon="-83.9637120">
        <ele>1390.4</ele>
        <time>2022-10-21T21:04:33Z</time>
      </trkpt>
      <trkpt lat="9.8379070" lon="-83.9637260">
        <ele>1390.6</ele>
        <time>2022-10-21T21:04:34Z</time>
      </trkpt>
      <trkpt lat="9.8378550" lon="-83.9637390">
        <ele>1390.5</ele>
        <time>2022-10-21T21:04:35Z</time>
      </trkpt>
      <trkpt lat="9.8378010" lon="-83.9637530">
        <ele>1390.4</ele>
        <time>2022-10-21T21:04:36Z</time>
      </trkpt>
      <trkpt lat="9.8377470" lon="-83.9637670">
        <ele>1390.3</ele>
        <time>2022-10-21T21:04:37Z</time>
      </trkpt>
      <trkpt lat="9.8376910" lon="-83.9637820">
        <ele>1390.2</ele>
        <time>2022-10-21T21:04:38Z</time>
      </trkpt>
      <trkpt lat="9.8376360" lon="-83.9637990">
        <ele>1390.2</ele>
        <time>2022-10-21T21:04:39Z</time>
      </trkpt>
      <trkpt lat="9.8375800" lon="-83.9638160">
        <ele>1390.1</ele>
        <time>2022-10-21T21:04:40Z</time>
      </trkpt>
      <trkpt lat="9.8375240" lon="-83.9638320">
        <ele>1390.1</ele>
        <time>2022-10-21T21:04:41Z</time>
      </trkpt>
      <trkpt lat="9.8374680" lon="-83.9638490">
        <ele>1390.1</ele>
        <time>2022-10-21T21:04:42Z</time>
      </trkpt>
      <trkpt lat="9.8374120" lon="-83.9638670">
        <ele>1390.1</ele>
        <time>2022-10-21T21:04:43Z</time>
      </trkpt>
      <trkpt lat="9.8373560" lon="-83.9638850">
        <ele>1390.2</ele>
        <time>2022-10-21T21:04:44Z</time>
      </trkpt>
      <trkpt lat="9.8373000" lon="-83.9639030">
        <ele>1390.2</ele>
        <time>2022-10-21T21:04:45Z</time>
      </trkpt>
      <trkpt lat="9.8372450" lon="-83.9639210">
        <ele>1390.3</ele>
        <time>2022-10-21T21:04:46Z</time>
      </trkpt>
      <trkpt lat="9.8371910" lon="-83.9639390">
        <ele>1390.3</ele>
        <time>2022-10-21T21:04:47Z</time>
      </trkpt>
      <trkpt lat="9.8371360" lon="-83.9639570">
        <ele>1390.4</ele>
        <time>2022-10-21T21:04:48Z</time>
      </trkpt>
      <trkpt lat="9.8370820" lon="-83.9639750">
        <ele>1390.5</ele>
        <time>2022-10-21T21:04:49Z</time>
      </trkpt>
      <trkpt lat="9.8370280" lon="-83.9639920">
        <ele>1390.5</ele>
        <time>2022-10-21T21:04:50Z</time>
      </trkpt>
      <trkpt lat="9.8369730" lon="-83.9640100">
        <ele>1390.6</ele>
        <time>2022-10-21T21:04:51Z</time>
      </trkpt>
      <trkpt lat="9.8369180" lon="-83.9640270">
        <ele>1390.7</ele>
        <time>2022-10-21T21:04:52Z</time>
      </trkpt>
      <trkpt lat="9.8368640" lon="-83.9640440">
        <ele>1390.8</ele>
        <time>2022-10-21T21:04:53Z</time>
      </trkpt>
      <trkpt lat="9.8368100" lon="-83.9640610">
        <ele>1390.9</ele>
        <time>2022-10-21T21:04:54Z</time>
      </trkpt>
      <trkpt lat="9.8367570" lon="-83.9640770">
        <ele>1391.0</ele>
        <time>2022-10-21T21:04:55Z</time>
      </trkpt>
      <trkpt lat="9.8367050" lon="-83.9640920">
        <ele>1391.1</ele>
        <time>2022-10-21T21:04:56Z</time>
      </trkpt>
      <trkpt lat="9.8366540" lon="-83.9641070">
        <ele>1391.2</ele>
        <time>2022-10-21T21:04:57Z</time>
      </trkpt>
      <trkpt lat="9.8366030" lon="-83.9641230">
        <ele>1391.3</ele>
        <time>2022-10-21T21:04:58Z</time>
      </trkpt>
      <trkpt lat="9.8365520" lon="-83.9641380">
        <ele>1391.4</ele>
        <time>2022-10-21T21:04:59Z</time>
      </trkpt>
      <trkpt lat="9.8365020" lon="-83.9641520">
        <ele>1391.5</ele>
        <time>2022-10-21T21:05:00Z</time>
      </trkpt>
      <trkpt lat="9.8364520" lon="-83.9641680">
        <ele>1391.6</ele>
        <time>2022-10-21T21:05:01Z</time>
      </trkpt>
      <trkpt lat="9.8364040" lon="-83.9641830">
        <ele>1391.7</ele>
        <time>2022-10-21T21:05:02Z</time>
      </trkpt>
      <trkpt lat="9.8363550" lon="-83.9641980">
        <ele>1391.9</ele>
        <time>2022-10-21T21:05:03Z</time>
      </trkpt>
      <trkpt lat="9.8363070" lon="-83.9642130">
        <ele>1392.0</ele>
        <time>2022-10-21T21:05:04Z</time>
      </trkpt>
      <trkpt lat="9.8362590" lon="-83.9642280">
        <ele>1392.2</ele>
        <time>2022-10-21T21:05:05Z</time>
      </trkpt>
      <trkpt lat="9.8362110" lon="-83.9642430">
        <ele>1392.3</ele>
        <time>2022-10-21T21:05:06Z</time>
      </trkpt>
      <trkpt lat="9.8361630" lon="-83.9642590">
        <ele>1392.5</ele>
        <time>2022-10-21T21:05:07Z</time>
      </trkpt>
      <trkpt lat="9.8361150" lon="-83.9642750">
        <ele>1392.7</ele>
        <time>2022-10-21T21:05:08Z</time>
      </trkpt>
      <trkpt lat="9.8360690" lon="-83.9642900">
        <ele>1392.9</ele>
        <time>2022-10-21T21:05:09Z</time>
      </trkpt>
      <trkpt lat="9.8360230" lon="-83.9643040">
        <ele>1393.1</ele>
        <time>2022-10-21T21:05:10Z</time>
      </trkpt>
      <trkpt lat="9.8359780" lon="-83.9643190">
        <ele>1393.2</ele>
        <time>2022-10-21T21:05:11Z</time>
      </trkpt>
      <trkpt lat="9.8359340" lon="-83.9643330">
        <ele>1393.4</ele>
        <time>2022-10-21T21:05:12Z</time>
      </trkpt>
      <trkpt lat="9.8358910" lon="-83.9643470">
        <ele>1393.6</ele>
        <time>2022-10-21T21:05:13Z</time>
      </trkpt>
      <trkpt lat="9.8358480" lon="-83.9643600">
        <ele>1393.8</ele>
        <time>2022-10-21T21:05:14Z</time>
      </trkpt>
      <trkpt lat="9.8358060" lon="-83.9643740">
        <ele>1394.0</ele>
        <time>2022-10-21T21:05:15Z</time>
      </trkpt>
      <trkpt lat="9.8357650" lon="-83.9643880">
        <ele>1394.2</ele>
        <time>2022-10-21T21:05:16Z</time>
      </trkpt>
      <trkpt lat="9.8357250" lon="-83.9644010">
        <ele>1394.4</ele>
        <time>2022-10-21T21:05:17Z</time>
      </trkpt>
      <trkpt lat="9.8356850" lon="-83.9644130">
        <ele>1394.6</ele>
        <time>2022-10-21T21:05:18Z</time>
      </trkpt>
      <trkpt lat="9.8356460" lon="-83.9644260">
        <ele>1394.8</ele>
        <time>2022-10-21T21:05:19Z</time>
      </trkpt>
      <trkpt lat="9.8356080" lon="-83.9644390">
        <ele>1395.0</ele>
        <time>2022-10-21T21:05:20Z</time>
      </trkpt>
      <trkpt lat="9.8355710" lon="-83.9644510">
        <ele>1395.2</ele>
        <time>2022-10-21T21:05:21Z</time>
      </trkpt>
      <trkpt lat="9.8355350" lon="-83.9644640">
        <ele>1395.4</ele>
        <time>2022-10-21T21:05:22Z</time>
      </trkpt>
      <trkpt lat="9.8354990" lon="-83.9644760">
        <ele>1395.6</ele>
        <time>2022-10-21T21:05:23Z</time>
      </trkpt>
      <trkpt lat="9.8354640" lon="-83.9644880">
        <ele>1395.8</ele>
        <time>2022-10-21T21:05:24Z</time>
      </trkpt>
      <trkpt lat="9.8354290" lon="-83.9644990">
        <ele>1396.0</ele>
        <time>2022-10-21T21:05:25Z</time>
      </trkpt>
      <trkpt lat="9.8353950" lon="-83.9645090">
        <ele>1396.2</ele>
        <time>2022-10-21T21:05:26Z</time>
      </trkpt>
      <trkpt lat="9.8353620" lon="-83.9645190">
        <ele>1396.3</ele>
        <time>2022-10-21T21:05:27Z</time>
      </trkpt>
      <trkpt lat="9.8353280" lon="-83.9645290">
        <ele>1396.5</ele>
        <time>2022-10-21T21:05:28Z</time>
      </trkpt>
      <trkpt lat="9.8352950" lon="-83.9645390">
        <ele>1396.7</ele>
        <time>2022-10-21T21:05:29Z</time>
      </trkpt>
      <trkpt lat="9.8352620" lon="-83.9645490">
        <ele>1396.8</ele>
        <time>2022-10-21T21:05:30Z</time>
      </trkpt>
      <trkpt lat="9.8352280" lon="-83.9645590">
        <ele>1397.0</ele>
        <time>2022-10-21T21:05:31Z</time>
      </trkpt>
      <trkpt lat="9.8351940" lon="-83.9645690">
        <ele>1397.2</ele>
        <time>2022-10-21T21:05:32Z</time>
      </trkpt>
      <trkpt lat="9.8351590" lon="-83.9645790">
        <ele>1397.4</ele>
        <time>2022-10-21T21:05:33Z</time>
      </trkpt>
      <trkpt lat="9.8351240" lon="-83.9645890">
        <ele>1397.6</ele>
        <time>2022-10-21T21:05:34Z</time>
      </trkpt>
      <trkpt lat="9.8350890" lon="-83.9646010">
        <ele>1397.8</ele>
        <time>2022-10-21T21:05:35Z</time>
      </trkpt>
      <trkpt lat="9.8350540" lon="-83.9646130">
        <ele>1397.9</ele>
        <time>2022-10-21T21:05:36Z</time>
      </trkpt>
      <trkpt lat="9.8350190" lon="-83.9646250">
        <ele>1398.1</ele>
        <time>2022-10-21T21:05:37Z</time>
      </trkpt>
      <trkpt lat="9.8349840" lon="-83.9646390">
        <ele>1398.2</ele>
        <time>2022-10-21T21:05:38Z</time>
      </trkpt>
      <trkpt lat="9.8349490" lon="-83.9646540">
        <ele>1398.4</ele>
        <time>2022-10-21T21:05:39Z</time>
      </trkpt>
      <trkpt lat="9.8349150" lon="-83.9646710">
        <ele>1398.5</ele>
        <time>2022-10-21T21:05:40Z</time>
      </trkpt>
      <trkpt lat="9.8348800" lon="-83.9646880">
        <ele>1398.7</ele>
        <time>2022-10-21T21:05:41Z</time>
      </trkpt>
      <trkpt lat="9.8348460" lon="-83.9647060">
        <ele>1398.8</ele>
        <time>2022-10-21T21:05:42Z</time>
      </trkpt>
      <trkpt lat="9.8348130" lon="-83.9647250">
        <ele>1399.0</ele>
        <time>2022-10-21T21:05:43Z</time>
      </trkpt>
      <trkpt lat="9.8347800" lon="-83.9647450">
        <ele>1399.1</ele>
        <time>2022-10-21T21:05:44Z</time>
      </trkpt>
      <trkpt lat="9.8347480" lon="-83.9647650">
        <ele>1399.3</ele>
        <time>2022-10-21T21:05:45Z</time>
      </trkpt>
      <trkpt lat="9.8347160" lon="-83.9647850">
        <ele>1399.5</ele>
        <time>2022-10-21T21:05:46Z</time>
      </trkpt>
      <trkpt lat="9.8346850" lon="-83.9648050">
        <ele>1399.6</ele>
        <time>2022-10-21T21:05:47Z</time>
      </trkpt>
      <trkpt lat="9.8346540" lon="-83.9648250">
        <ele>1399.7</ele>
        <time>2022-10-21T21:05:48Z</time>
      </trkpt>
      <trkpt lat="9.8346230" lon="-83.9648450">
        <ele>1399.9</ele>
        <time>2022-10-21T21:05:49Z</time>
      </trkpt>
      <trkpt lat="9.8345930" lon="-83.9648640">
        <ele>1400.0</ele>
        <time>2022-10-21T21:05:50Z</time>
      </trkpt>
      <trkpt lat="9.8345630" lon="-83.9648830">
        <ele>1400.1</ele>
        <time>2022-10-21T21:05:51Z</time>
      </trkpt>
      <trkpt lat="9.8345330" lon="-83.9649020">
        <ele>1400.2</ele>
        <time>2022-10-21T21:05:52Z</time>
      </trkpt>
      <trkpt lat="9.8345030" lon="-83.9649200">
        <ele>1400.4</ele>
        <time>2022-10-21T21:05:53Z</time>
      </trkpt>
      <trkpt lat="9.8344740" lon="-83.9649380">
        <ele>1400.5</ele>
        <time>2022-10-21T21:05:54Z</time>
      </trkpt>
      <trkpt lat="9.8344450" lon="-83.9649550">
        <ele>1400.6</ele>
        <time>2022-10-21T21:05:55Z</time>
      </trkpt>
      <trkpt lat="9.8344160" lon="-83.9649730">
        <ele>1400.8</ele>
        <time>2022-10-21T21:05:56Z</time>
      </trkpt>
      <trkpt lat="9.8343880" lon="-83.9649910">
        <ele>1400.9</ele>
        <time>2022-10-21T21:05:57Z</time>
      </trkpt>
      <trkpt lat="9.8343590" lon="-83.9650100">
        <ele>1401.1</ele>
        <time>2022-10-21T21:05:58Z</time>
      </trkpt>
      <trkpt lat="9.8343320" lon="-83.9650290">
        <ele>1401.2</ele>
        <time>2022-10-21T21:05:59Z</time>
      </trkpt>
      <trkpt lat="9.8343050" lon="-83.9650490">
        <ele>1401.3</ele>
        <time>2022-10-21T21:06:00Z</time>
      </trkpt>
      <trkpt lat="9.8342790" lon="-83.9650690">
        <ele>1401.5</ele>
        <time>2022-10-21T21:06:01Z</time>
      </trkpt>
      <trkpt lat="9.8342530" lon="-83.9650890">
        <ele>1401.6</ele>
        <time>2022-10-21T21:06:02Z</time>
      </trkpt>
      <trkpt lat="9.8342270" lon="-83.9651100">
        <ele>1401.7</ele>
        <time>2022-10-21T21:06:03Z</time>
      </trkpt>
      <trkpt lat="9.8342010" lon="-83.9651300">
        <ele>1401.9</ele>
        <time>2022-10-21T21:06:04Z</time>
      </trkpt>
      <trkpt lat="9.8341760" lon="-83.9651510">
        <ele>1402.0</ele>
        <time>2022-10-21T21:06:05Z</time>
      </trkpt>
      <trkpt lat="9.8341510" lon="-83.9651720">
        <ele>1402.2</ele>
        <time>2022-10-21T21:06:06Z</time>
      </trkpt>
      <trkpt lat="9.8341270" lon="-83.9651930">
        <ele>1402.3</ele>
        <time>2022-10-21T21:06:07Z</time>
      </trkpt>
      <trkpt lat="9.8341020" lon="-83.9652130">
        <ele>1402.4</ele>
        <time>2022-10-21T21:06:08Z</time>
      </trkpt>
      <trkpt lat="9.8340780" lon="-83.9652330">
        <ele>1402.6</ele>
        <time>2022-10-21T21:06:09Z</time>
      </trkpt>
      <trkpt lat="9.8340550" lon="-83.9652530">
        <ele>1402.7</ele>
        <time>2022-10-21T21:06:10Z</time>
      </trkpt>
      <trkpt lat="9.8340310" lon="-83.9652710">
        <ele>1402.8</ele>
        <time>2022-10-21T21:06:11Z</time>
      </trkpt>
      <trkpt lat="9.8340090" lon="-83.9652890">
        <ele>1403.0</ele>
        <time>2022-10-21T21:06:12Z</time>
      </trkpt>
      <trkpt lat="9.8339870" lon="-83.9653070">
        <ele>1403.1</ele>
        <time>2022-10-21T21:06:13Z</time>
      </trkpt>
      <trkpt lat="9.8339670" lon="-83.9653250">
        <ele>1403.3</ele>
        <time>2022-10-21T21:06:14Z</time>
      </trkpt>
      <trkpt lat="9.8339480" lon="-83.9653410">
        <ele>1403.4</ele>
        <time>2022-10-21T21:06:15Z</time>
      </trkpt>
      <trkpt lat="9.8339300" lon="-83.9653560">
        <ele>1403.6</ele>
        <time>2022-10-21T21:06:16Z</time>
      </trkpt>
      <trkpt lat="9.8339130" lon="-83.9653710">
        <ele>1403.8</ele>
        <time>2022-10-21T21:06:17Z</time>
      </trkpt>
      <trkpt lat="9.8338980" lon="-83.9653840">
        <ele>1403.9</ele>
        <time>2022-10-21T21:06:18Z</time>
      </trkpt>
      <trkpt lat="9.8338830" lon="-83.9653970">
        <ele>1404.1</ele>
        <time>2022-10-21T21:06:19Z</time>
      </trkpt>
      <trkpt lat="9.8338700" lon="-83.9654090">
        <ele>1404.2</ele>
        <time>2022-10-21T21:06:20Z</time>
      </trkpt>
      <trkpt lat="9.8338570" lon="-83.9654200">
        <ele>1404.4</ele>
        <time>2022-10-21T21:06:21Z</time>
      </trkpt>
      <trkpt lat="9.8338450" lon="-83.9654320">
        <ele>1404.6</ele>
        <time>2022-10-21T21:06:22Z</time>
      </trkpt>
      <trkpt lat="9.8338340" lon="-83.9654430">
        <ele>1404.7</ele>
        <time>2022-10-21T21:06:23Z</time>
      </trkpt>
      <trkpt lat="9.8338230" lon="-83.9654530">
        <ele>1404.9</ele>
        <time>2022-10-21T21:06:24Z</time>
      </trkpt>
      <trkpt lat="9.8338130" lon="-83.9654630">
        <ele>1405.1</ele>
        <time>2022-10-21T21:06:25Z</time>
      </trkpt>
      <trkpt lat="9.8338030" lon="-83.9654730">
        <ele>1405.2</ele>
        <time>2022-10-21T21:06:26Z</time>
      </trkpt>
      <trkpt lat="9.8337920" lon="-83.9654830">
        <ele>1405.4</ele>
        <time>2022-10-21T21:06:27Z</time>
      </trkpt>
      <trkpt lat="9.8337820" lon="-83.9654930">
        <ele>1405.6</ele>
        <time>2022-10-21T21:06:28Z</time>
      </trkpt>
      <trkpt lat="9.8337720" lon="-83.9655030">
        <ele>1405.7</ele>
        <time>2022-10-21T21:06:29Z</time>
      </trkpt>
      <trkpt lat="9.8337620" lon="-83.9655130">
        <ele>1405.9</ele>
        <time>2022-10-21T21:06:30Z</time>
      </trkpt>
      <trkpt lat="9.8337520" lon="-83.9655230">
        <ele>1406.1</ele>
        <time>2022-10-21T21:06:31Z</time>
      </trkpt>
      <trkpt lat="9.8337420" lon="-83.9655320">
        <ele>1406.3</ele>
        <time>2022-10-21T21:06:32Z</time>
      </trkpt>
      <trkpt lat="9.8337320" lon="-83.9655410">
        <ele>1406.5</ele>
        <time>2022-10-21T21:06:33Z</time>
      </trkpt>
      <trkpt lat="9.8337210" lon="-83.9655490">
        <ele>1406.6</ele>
        <time>2022-10-21T21:06:34Z</time>
      </trkpt>
      <trkpt lat="9.8337100" lon="-83.9655580">
        <ele>1406.8</ele>
        <time>2022-10-21T21:06:35Z</time>
      </trkpt>
      <trkpt lat="9.8336990" lon="-83.9655650">
        <ele>1407.0</ele>
        <time>2022-10-21T21:06:36Z</time>
      </trkpt>
      <trkpt lat="9.8336870" lon="-83.9655730">
        <ele>1407.2</ele>
        <time>2022-10-21T21:06:37Z</time>
      </trkpt>
      <trkpt lat="9.8336750" lon="-83.9655800">
        <ele>1407.4</ele>
        <time>2022-10-21T21:06:38Z</time>
      </trkpt>
      <trkpt lat="9.8336640" lon="-83.9655880">
        <ele>1407.6</ele>
        <time>2022-10-21T21:06:39Z</time>
      </trkpt>
      <trkpt lat="9.8336530" lon="-83.9655950">
        <ele>1407.8</ele>
        <time>2022-10-21T21:06:40Z</time>
      </trkpt>
      <trkpt lat="9.8336410" lon="-83.9656030">
        <ele>1408.1</ele>
        <time>2022-10-21T21:06:41Z</time>
      </trkpt>
      <trkpt lat="9.8336300" lon="-83.9656110">
        <ele>1408.3</ele>
        <time>2022-10-21T21:06:42Z</time>
      </trkpt>
      <trkpt lat="9.8336180" lon="-83.9656190">
        <ele>1408.5</ele>
        <time>2022-10-21T21:06:43Z</time>
      </trkpt>
      <trkpt lat="9.8336060" lon="-83.9656270">
        <ele>1408.7</ele>
        <time>2022-10-21T21:06:44Z</time>
      </trkpt>
      <trkpt lat="9.8335950" lon="-83.9656350">
        <ele>1408.9</ele>
        <time>2022-10-21T21:06:45Z</time>
      </trkpt>
      <trkpt lat="9.8335840" lon="-83.9656450">
        <ele>1409.2</ele>
        <time>2022-10-21T21:06:46Z</time>
      </trkpt>
      <trkpt lat="9.8335730" lon="-83.9656550">
        <ele>1409.4</ele>
        <time>2022-10-21T21:06:47Z</time>
      </trkpt>
      <trkpt lat="9.8335630" lon="-83.9656650">
        <ele>1409.6</ele>
        <time>2022-10-21T21:06:48Z</time>
      </trkpt>
      <trkpt lat="9.8335530" lon="-83.9656760">
        <ele>1409.9</ele>
        <time>2022-10-21T21:06:49Z</time>
      </trkpt>
      <trkpt lat="9.8335430" lon="-83.9656860">
        <ele>1410.1</ele>
        <time>2022-10-21T21:06:50Z</time>
      </trkpt>
      <trkpt lat="9.8335320" lon="-83.9656950">
        <ele>1410.3</ele>
        <time>2022-10-21T21:06:51Z</time>
      </trkpt>
      <trkpt lat="9.8335210" lon="-83.9657050">
        <ele>1410.6</ele>
        <time>2022-10-21T21:06:52Z</time>
      </trkpt>
      <trkpt lat="9.8335100" lon="-83.9657160">
        <ele>1410.9</ele>
        <time>2022-10-21T21:06:53Z</time>
      </trkpt>
      <trkpt lat="9.8335000" lon="-83.9657270">
        <ele>1411.1</ele>
        <time>2022-10-21T21:06:54Z</time>
      </trkpt>
      <trkpt lat="9.8334900" lon="-83.9657380">
        <ele>1411.4</ele>
        <time>2022-10-21T21:06:55Z</time>
      </trkpt>
      <trkpt lat="9.8334800" lon="-83.9657490">
        <ele>1411.6</ele>
        <time>2022-10-21T21:06:56Z</time>
      </trkpt>
      <trkpt lat="9.8334690" lon="-83.9657590">
        <ele>1411.9</ele>
        <time>2022-10-21T21:06:57Z</time>
      </trkpt>
      <trkpt lat="9.8334570" lon="-83.9657680">
        <ele>1412.1</ele>
        <time>2022-10-21T21:06:58Z</time>
      </trkpt>
      <trkpt lat="9.8334450" lon="-83.9657770">
        <ele>1412.4</ele>
        <time>2022-10-21T21:06:59Z</time>
      </trkpt>
      <trkpt lat="9.8334330" lon="-83.9657870">
        <ele>1412.7</ele>
        <time>2022-10-21T21:07:00Z</time>
      </trkpt>
      <trkpt lat="9.8334220" lon="-83.9657970">
        <ele>1412.9</ele>
        <time>2022-10-21T21:07:01Z</time>
      </trkpt>
      <trkpt lat="9.8334100" lon="-83.9658080">
        <ele>1413.2</ele>
        <time>2022-10-21T21:07:02Z</time>
      </trkpt>
      <trkpt lat="9.8333980" lon="-83.9658190">
        <ele>1413.5</ele>
        <time>2022-10-21T21:07:03Z</time>
      </trkpt>
      <trkpt lat="9.8333860" lon="-83.9658300">
        <ele>1413.8</ele>
        <time>2022-10-21T21:07:04Z</time>
      </trkpt>
      <trkpt lat="9.8333740" lon="-83.9658400">
        <ele>1414.1</ele>
        <time>2022-10-21T21:07:05Z</time>
      </trkpt>
      <trkpt lat="9.8333600" lon="-83.9658500">
        <ele>1414.4</ele>
        <time>2022-10-21T21:07:06Z</time>
      </trkpt>
      <trkpt lat="9.8333470" lon="-83.9658610">
        <ele>1414.7</ele>
        <time>2022-10-21T21:07:07Z</time>
      </trkpt>
      <trkpt lat="9.8333330" lon="-83.9658710">
        <ele>1415.0</ele>
        <time>2022-10-21T21:07:08Z</time>
      </trkpt>
      <trkpt lat="9.8333190" lon="-83.9658820">
        <ele>1415.3</ele>
        <time>2022-10-21T21:07:09Z</time>
      </trkpt>
      <trkpt lat="9.8333060" lon="-83.9658920">
        <ele>1415.6</ele>
        <time>2022-10-21T21:07:10Z</time>
      </trkpt>
      <trkpt lat="9.8332930" lon="-83.9659030">
        <ele>1415.9</ele>
        <time>2022-10-21T21:07:11Z</time>
      </trkpt>
      <trkpt lat="9.8332800" lon="-83.9659140">
        <ele>1416.2</ele>
        <time>2022-10-21T21:07:12Z</time>
      </trkpt>
      <trkpt lat="9.8332670" lon="-83.9659240">
        <ele>1416.5</ele>
        <time>2022-10-21T21:07:13Z</time>
      </trkpt>
      <trkpt lat="9.8332540" lon="-83.9659360">
        <ele>1416.8</ele>
        <time>2022-10-21T21:07:14Z</time>
      </trkpt>
      <trkpt lat="9.8332420" lon="-83.9659470">
        <ele>1417.1</ele>
        <time>2022-10-21T21:07:15Z</time>
      </trkpt>
      <trkpt lat="9.8332310" lon="-83.9659590">
        <ele>1417.4</ele>
        <time>2022-10-21T21:07:16Z</time>
      </trkpt>
      <trkpt lat="9.8332200" lon="-83.9659700">
        <ele>1417.7</ele>
        <time>2022-10-21T21:07:17Z</time>
      </trkpt>
      <trkpt lat="9.8332090" lon="-83.9659820">
        <ele>1417.9</ele>
        <time>2022-10-21T21:07:18Z</time>
      </trkpt>
      <trkpt lat="9.8332000" lon="-83.9659940">
        <ele>1418.2</ele>
        <time>2022-10-21T21:07:19Z</time>
      </trkpt>
      <trkpt lat="9.8331900" lon="-83.9660070">
        <ele>1418.5</ele>
        <time>2022-10-21T21:07:20Z</time>
      </trkpt>
      <trkpt lat="9.8331810" lon="-83.9660200">
        <ele>1418.8</ele>
        <time>2022-10-21T21:07:21Z</time>
      </trkpt>
      <trkpt lat="9.8331720" lon="-83.9660320">
        <ele>1419.0</ele>
        <time>2022-10-21T21:07:22Z</time>
      </trkpt>
      <trkpt lat="9.8331630" lon="-83.9660450">
        <ele>1419.3</ele>
        <time>2022-10-21T21:07:23Z</time>
      </trkpt>
      <trkpt lat="9.8331540" lon="-83.9660570">
        <ele>1419.6</ele>
        <time>2022-10-21T21:07:24Z</time>
      </trkpt>
      <trkpt lat="9.8331450" lon="-83.9660700">
        <ele>1419.8</ele>
        <time>2022-10-21T21:07:25Z</time>
      </trkpt>
      <trkpt lat="9.8331370" lon="-83.9660830">
        <ele>1420.1</ele>
        <time>2022-10-21T21:07:26Z</time>
      </trkpt>
      <trkpt lat="9.8331280" lon="-83.9660960">
        <ele>1420.4</ele>
        <time>2022-10-21T21:07:27Z</time>
      </trkpt>
      <trkpt lat="9.8331200" lon="-83.9661100">
        <ele>1420.7</ele>
        <time>2022-10-21T21:07:28Z</time>
      </trkpt>
      <trkpt lat="9.8331120" lon="-83.9661240">
        <ele>1420.9</ele>
        <time>2022-10-21T21:07:29Z</time>
      </trkpt>
      <trkpt lat="9.8331050" lon="-83.9661400">
        <ele>1421.2</ele>
        <time>2022-10-21T21:07:30Z</time>
      </trkpt>
      <trkpt lat="9.8330980" lon="-83.9661560">
        <ele>1421.5</ele>
        <time>2022-10-21T21:07:31Z</time>
      </trkpt>
      <trkpt lat="9.8330920" lon="-83.9661730">
        <ele>1421.8</ele>
        <time>2022-10-21T21:07:32Z</time>
      </trkpt>
      <trkpt lat="9.8330870" lon="-83.9661900">
        <ele>1422.1</ele>
        <time>2022-10-21T21:07:33Z</time>
      </trkpt>
      <trkpt lat="9.8330830" lon="-83.9662080">
        <ele>1422.4</ele>
        <time>2022-10-21T21:07:34Z</time>
      </trkpt>
      <trkpt lat="9.8330800" lon="-83.9662270">
        <ele>1422.6</ele>
        <time>2022-10-21T21:07:35Z</time>
      </trkpt>
      <trkpt lat="9.8330780" lon="-83.9662450">
        <ele>1422.9</ele>
        <time>2022-10-21T21:07:36Z</time>
      </trkpt>
      <trkpt lat="9.8330780" lon="-83.9662640">
        <ele>1423.1</ele>
        <time>2022-10-21T21:07:37Z</time>
      </trkpt>
      <trkpt lat="9.8330790" lon="-83.9662830">
        <ele>1423.4</ele>
        <time>2022-10-21T21:07:38Z</time>
      </trkpt>
      <trkpt lat="9.8330810" lon="-83.9663020">
        <ele>1423.6</ele>
        <time>2022-10-21T21:07:39Z</time>
      </trkpt>
      <trkpt lat="9.8330860" lon="-83.9663210">
        <ele>1423.8</ele>
        <time>2022-10-21T21:07:40Z</time>
      </trkpt>
      <trkpt lat="9.8330910" lon="-83.9663400">
        <ele>1424.0</ele>
        <time>2022-10-21T21:07:41Z</time>
      </trkpt>
      <trkpt lat="9.8330980" lon="-83.9663580">
        <ele>1424.2</ele>
        <time>2022-10-21T21:07:42Z</time>
      </trkpt>
      <trkpt lat="9.8331060" lon="-83.9663760">
        <ele>1424.4</ele>
        <time>2022-10-21T21:07:43Z</time>
      </trkpt>
      <trkpt lat="9.8331140" lon="-83.9663940">
        <ele>1424.6</ele>
        <time>2022-10-21T21:07:44Z</time>
      </trkpt>
      <trkpt lat="9.8331240" lon="-83.9664130">
        <ele>1424.7</ele>
        <time>2022-10-21T21:07:45Z</time>
      </trkpt>
      <trkpt lat="9.8331330" lon="-83.9664320">
        <ele>1424.9</ele>
        <time>2022-10-21T21:07:46Z</time>
      </trkpt>
      <trkpt lat="9.8331430" lon="-83.9664510">
        <ele>1425.0</ele>
        <time>2022-10-21T21:07:47Z</time>
      </trkpt>
      <trkpt lat="9.8331520" lon="-83.9664710">
        <ele>1425.1</ele>
        <time>2022-10-21T21:07:48Z</time>
      </trkpt>
      <trkpt lat="9.8331620" lon="-83.9664910">
        <ele>1425.3</ele>
        <time>2022-10-21T21:07:49Z</time>
      </trkpt>
      <trkpt lat="9.8331730" lon="-83.9665110">
        <ele>1425.4</ele>
        <time>2022-10-21T21:07:50Z</time>
      </trkpt>
      <trkpt lat="9.8331830" lon="-83.9665310">
        <ele>1425.5</ele>
        <time>2022-10-21T21:07:51Z</time>
      </trkpt>
      <trkpt lat="9.8331940" lon="-83.9665520">
        <ele>1425.6</ele>
        <time>2022-10-21T21:07:52Z</time>
      </trkpt>
      <trkpt lat="9.8332050" lon="-83.9665730">
        <ele>1425.7</ele>
        <time>2022-10-21T21:07:53Z</time>
      </trkpt>
      <trkpt lat="9.8332160" lon="-83.9665940">
        <ele>1425.8</ele>
        <time>2022-10-21T21:07:54Z</time>
      </trkpt>
      <trkpt lat="9.8332270" lon="-83.9666160">
        <ele>1425.8</ele>
        <time>2022-10-21T21:07:55Z</time>
      </trkpt>
      <trkpt lat="9.8332390" lon="-83.9666380">
        <ele>1425.9</ele>
        <time>2022-10-21T21:07:56Z</time>
      </trkpt>
      <trkpt lat="9.8332520" lon="-83.9666600">
        <ele>1426.0</ele>
        <time>2022-10-21T21:07:57Z</time>
      </trkpt>
      <trkpt lat="9.8332670" lon="-83.9666820">
        <ele>1426.1</ele>
        <time>2022-10-21T21:07:58Z</time>
      </trkpt>
      <trkpt lat="9.8332830" lon="-83.9667050">
        <ele>1426.1</ele>
        <time>2022-10-21T21:07:59Z</time>
      </trkpt>
      <trkpt lat="9.8333000" lon="-83.9667300">
        <ele>1426.2</ele>
        <time>2022-10-21T21:08:00Z</time>
      </trkpt>
      <trkpt lat="9.8333190" lon="-83.9667550">
        <ele>1426.3</ele>
        <time>2022-10-21T21:08:01Z</time>
      </trkpt>
      <trkpt lat="9.8333400" lon="-83.9667840">
        <ele>1426.2</ele>
        <time>2022-10-21T21:08:02Z</time>
      </trkpt>
      <trkpt lat="9.8333630" lon="-83.9668140">
        <ele>1426.0</ele>
        <time>2022-10-21T21:08:03Z</time>
      </trkpt>
      <trkpt lat="9.8333870" lon="-83.9668470">
        <ele>1425.8</ele>
        <time>2022-10-21T21:08:04Z</time>
      </trkpt>
      <trkpt lat="9.8334120" lon="-83.9668830">
        <ele>1425.6</ele>
        <time>2022-10-21T21:08:05Z</time>
      </trkpt>
      <trkpt lat="9.8334380" lon="-83.9669230">
        <ele>1425.3</ele>
        <time>2022-10-21T21:08:06Z</time>
      </trkpt>
      <trkpt lat="9.8334650" lon="-83.9669670">
        <ele>1425.0</ele>
        <time>2022-10-21T21:08:07Z</time>
      </trkpt>
      <trkpt lat="9.8334920" lon="-83.9670150">
        <ele>1424.6</ele>
        <time>2022-10-21T21:08:08Z</time>
      </trkpt>
      <trkpt lat="9.8335180" lon="-83.9670680">
        <ele>1424.2</ele>
        <time>2022-10-21T21:08:09Z</time>
      </trkpt>
      <trkpt lat="9.8335440" lon="-83.9671260">
        <ele>1423.7</ele>
        <time>2022-10-21T21:08:10Z</time>
      </trkpt>
      <trkpt lat="9.8335700" lon="-83.9671890">
        <ele>1423.1</ele>
        <time>2022-10-21T21:08:11Z</time>
      </trkpt>
      <trkpt lat="9.8335970" lon="-83.9672560">
        <ele>1422.6</ele>
        <time>2022-10-21T21:08:12Z</time>
      </trkpt>
      <trkpt lat="9.8336270" lon="-83.9673250">
        <ele>1422.0</ele>
        <time>2022-10-21T21:08:13Z</time>
      </trkpt>
      <trkpt lat="9.8336590" lon="-83.9673960">
        <ele>1421.4</ele>
        <time>2022-10-21T21:08:14Z</time>
      </trkpt>
      <trkpt lat="9.8336930" lon="-83.9674690">
        <ele>1420.8</ele>
        <time>2022-10-21T21:08:15Z</time>
      </trkpt>
      <trkpt lat="9.8337280" lon="-83.9675440">
        <ele>1420.1</ele>
        <time>2022-10-21T21:08:16Z</time>
      </trkpt>
      <trkpt lat="9.8337620" lon="-83.9676210">
        <ele>1419.6</ele>
        <time>2022-10-21T21:08:17Z</time>
      </trkpt>
      <trkpt lat="9.8337950" lon="-83.9676990">
        <ele>1419.1</ele>
        <time>2022-10-21T21:08:18Z</time>
      </trkpt>
      <trkpt lat="9.8338250" lon="-83.9677780">
        <ele>1418.7</ele>
        <time>2022-10-21T21:08:19Z</time>
      </trkpt>
      <trkpt lat="9.8338520" lon="-83.9678560">
        <ele>1418.3</ele>
        <time>2022-10-21T21:08:20Z</time>
      </trkpt>
      <trkpt lat="9.8338760" lon="-83.9679310">
        <ele>1418.1</ele>
        <time>2022-10-21T21:08:21Z</time>
      </trkpt>
      <trkpt lat="9.8338950" lon="-83.9680020">
        <ele>1418.0</ele>
        <time>2022-10-21T21:08:22Z</time>
      </trkpt>
      <trkpt lat="9.8339090" lon="-83.9680690">
        <ele>1418.0</ele>
        <time>2022-10-21T21:08:23Z</time>
      </trkpt>
      <trkpt lat="9.8339160" lon="-83.9681320">
        <ele>1418.0</ele>
        <time>2022-10-21T21:08:24Z</time>
      </trkpt>
      <trkpt lat="9.8339160" lon="-83.9681940">
        <ele>1418.1</ele>
        <time>2022-10-21T21:08:25Z</time>
      </trkpt>
      <trkpt lat="9.8339100" lon="-83.9682530">
        <ele>1418.2</ele>
        <time>2022-10-21T21:08:26Z</time>
      </trkpt>
      <trkpt lat="9.8338990" lon="-83.9683080">
        <ele>1418.3</ele>
        <time>2022-10-21T21:08:27Z</time>
      </trkpt>
      <trkpt lat="9.8338850" lon="-83.9683600">
        <ele>1418.4</ele>
        <time>2022-10-21T21:08:28Z</time>
      </trkpt>
      <trkpt lat="9.8338700" lon="-83.9684090">
        <ele>1418.6</ele>
        <time>2022-10-21T21:08:29Z</time>
      </trkpt>
      <trkpt lat="9.8338540" lon="-83.9684540">
        <ele>1418.7</ele>
        <time>2022-10-21T21:08:30Z</time>
      </trkpt>
      <trkpt lat="9.8338370" lon="-83.9684960">
        <ele>1418.8</ele>
        <time>2022-10-21T21:08:31Z</time>
      </trkpt>
      <trkpt lat="9.8338210" lon="-83.9685380">
        <ele>1419.0</ele>
        <time>2022-10-21T21:08:32Z</time>
      </trkpt>
      <trkpt lat="9.8338040" lon="-83.9685800">
        <ele>1419.2</ele>
        <time>2022-10-21T21:08:33Z</time>
      </trkpt>
      <trkpt lat="9.8337860" lon="-83.9686220">
        <ele>1419.3</ele>
        <time>2022-10-21T21:08:34Z</time>
      </trkpt>
      <trkpt lat="9.8337680" lon="-83.9686660">
        <ele>1419.5</ele>
        <time>2022-10-21T21:08:35Z</time>
      </trkpt>
      <trkpt lat="9.8337490" lon="-83.9687100">
        <ele>1419.8</ele>
        <time>2022-10-21T21:08:36Z</time>
      </trkpt>
      <trkpt lat="9.8337280" lon="-83.9687550">
        <ele>1420.0</ele>
        <time>2022-10-21T21:08:37Z</time>
      </trkpt>
      <trkpt lat="9.8337070" lon="-83.9688000">
        <ele>1420.3</ele>
        <time>2022-10-21T21:08:38Z</time>
      </trkpt>
      <trkpt lat="9.8336850" lon="-83.9688450">
        <ele>1420.7</ele>
        <time>2022-10-21T21:08:39Z</time>
      </trkpt>
      <trkpt lat="9.8336610" lon="-83.9688900">
        <ele>1421.1</ele>
        <time>2022-10-21T21:08:40Z</time>
      </trkpt>
      <trkpt lat="9.8336370" lon="-83.9689350">
        <ele>1421.5</ele>
        <time>2022-10-21T21:08:41Z</time>
      </trkpt>
      <trkpt lat="9.8336130" lon="-83.9689790">
        <ele>1422.0</ele>
        <time>2022-10-21T21:08:42Z</time>
      </trkpt>
      <trkpt lat="9.8335890" lon="-83.9690240">
        <ele>1422.5</ele>
        <time>2022-10-21T21:08:43Z</time>
      </trkpt>
      <trkpt lat="9.8335650" lon="-83.9690680">
        <ele>1422.9</ele>
        <time>2022-10-21T21:08:44Z</time>
      </trkpt>
      <trkpt lat="9.8335420" lon="-83.9691110">
        <ele>1423.5</ele>
        <time>2022-10-21T21:08:45Z</time>
      </trkpt>
      <trkpt lat="9.8335220" lon="-83.9691530">
        <ele>1424.0</ele>
        <time>2022-10-21T21:08:46Z</time>
      </trkpt>
      <trkpt lat="9.8335030" lon="-83.9691940">
        <ele>1424.5</ele>
        <time>2022-10-21T21:08:47Z</time>
      </trkpt>
      <trkpt lat="9.8334860" lon="-83.9692340">
        <ele>1424.9</ele>
        <time>2022-10-21T21:08:48Z</time>
      </trkpt>
      <trkpt lat="9.8334730" lon="-83.9692730">
        <ele>1425.4</ele>
        <time>2022-10-21T21:08:49Z</time>
      </trkpt>
      <trkpt lat="9.8334630" lon="-83.9693120">
        <ele>1425.8</ele>
        <time>2022-10-21T21:08:50Z</time>
      </trkpt>
      <trkpt lat="9.8334560" lon="-83.9693500">
        <ele>1426.2</ele>
        <time>2022-10-21T21:08:51Z</time>
      </trkpt>
      <trkpt lat="9.8334530" lon="-83.9693870">
        <ele>1426.6</ele>
        <time>2022-10-21T21:08:52Z</time>
      </trkpt>
      <trkpt lat="9.8334540" lon="-83.9694220">
        <ele>1426.9</ele>
        <time>2022-10-21T21:08:53Z</time>
      </trkpt>
      <trkpt lat="9.8334570" lon="-83.9694570">
        <ele>1427.2</ele>
        <time>2022-10-21T21:08:54Z</time>
      </trkpt>
      <trkpt lat="9.8334640" lon="-83.9694910">
        <ele>1427.4</ele>
        <time>2022-10-21T21:08:55Z</time>
      </trkpt>
      <trkpt lat="9.8334730" lon="-83.9695250">
        <ele>1427.6</ele>
        <time>2022-10-21T21:08:56Z</time>
      </trkpt>
      <trkpt lat="9.8334830" lon="-83.9695570">
        <ele>1427.9</ele>
        <time>2022-10-21T21:08:57Z</time>
      </trkpt>
      <trkpt lat="9.8334950" lon="-83.9695890">
        <ele>1428.1</ele>
        <time>2022-10-21T21:08:58Z</time>
      </trkpt>
      <trkpt lat="9.8335070" lon="-83.9696190">
        <ele>1428.3</ele>
        <time>2022-10-21T21:08:59Z</time>
      </trkpt>
      <trkpt lat="9.8335210" lon="-83.9696480">
        <ele>1428.5</ele>
        <time>2022-10-21T21:09:00Z</time>
      </trkpt>
      <trkpt lat="9.8335340" lon="-83.9696750">
        <ele>1428.8</ele>
        <time>2022-10-21T21:09:01Z</time>
      </trkpt>
      <trkpt lat="9.8335470" lon="-83.9697020">
        <ele>1429.0</ele>
        <time>2022-10-21T21:09:02Z</time>
      </trkpt>
      <trkpt lat="9.8335590" lon="-83.9697280">
        <ele>1429.2</ele>
        <time>2022-10-21T21:09:03Z</time>
      </trkpt>
      <trkpt lat="9.8335700" lon="-83.9697520">
        <ele>1429.5</ele>
        <time>2022-10-21T21:09:04Z</time>
      </trkpt>
      <trkpt lat="9.8335800" lon="-83.9697760">
        <ele>1429.7</ele>
        <time>2022-10-21T21:09:05Z</time>
      </trkpt>
      <trkpt lat="9.8335890" lon="-83.9697980">
        <ele>1429.9</ele>
        <time>2022-10-21T21:09:06Z</time>
      </trkpt>
      <trkpt lat="9.8335970" lon="-83.9698190">
        <ele>1430.2</ele>
        <time>2022-10-21T21:09:07Z</time>
      </trkpt>
      <trkpt lat="9.8336050" lon="-83.9698390">
        <ele>1430.4</ele>
        <time>2022-10-21T21:09:08Z</time>
      </trkpt>
      <trkpt lat="9.8336120" lon="-83.9698570">
        <ele>1430.6</ele>
        <time>2022-10-21T21:09:09Z</time>
      </trkpt>
      <trkpt lat="9.8336170" lon="-83.9698750">
        <ele>1430.8</ele>
        <time>2022-10-21T21:09:10Z</time>
      </trkpt>
      <trkpt lat="9.8336220" lon="-83.9698920">
        <ele>1431.0</ele>
        <time>2022-10-21T21:09:11Z</time>
      </trkpt>
      <trkpt lat="9.8336250" lon="-83.9699090">
        <ele>1431.2</ele>
        <time>2022-10-21T21:09:12Z</time>
      </trkpt>
      <trkpt lat="9.8336280" lon="-83.9699260">
        <ele>1431.3</ele>
        <time>2022-10-21T21:09:13Z</time>
      </trkpt>
      <trkpt lat="9.8336310" lon="-83.9699410">
        <ele>1431.5</ele>
        <time>2022-10-21T21:09:14Z</time>
      </trkpt>
      <trkpt lat="9.8336340" lon="-83.9699570">
        <ele>1431.7</ele>
        <time>2022-10-21T21:09:15Z</time>
      </trkpt>
      <trkpt lat="9.8336360" lon="-83.9699730">
        <ele>1431.8</ele>
        <time>2022-10-21T21:09:16Z</time>
      </trkpt>
      <trkpt lat="9.8336370" lon="-83.9699900">
        <ele>1432.0</ele>
        <time>2022-10-21T21:09:17Z</time>
      </trkpt>
      <trkpt lat="9.8336380" lon="-83.9700080">
        <ele>1432.2</ele>
        <time>2022-10-21T21:09:18Z</time>
      </trkpt>
      <trkpt lat="9.8336390" lon="-83.9700250">
        <ele>1432.4</ele>
        <time>2022-10-21T21:09:19Z</time>
      </trkpt>
      <trkpt lat="9.8336390" lon="-83.9700440">
        <ele>1432.6</ele>
        <time>2022-10-21T21:09:20Z</time>
      </trkpt>
      <trkpt lat="9.8336400" lon="-83.9700620">
        <ele>1432.7</ele>
        <time>2022-10-21T21:09:21Z</time>
      </trkpt>
      <trkpt lat="9.8336400" lon="-83.9700810">
        <ele>1432.9</ele>
        <time>2022-10-21T21:09:22Z</time>
      </trkpt>
      <trkpt lat="9.8336410" lon="-83.9701000">
        <ele>1433.1</ele>
        <time>2022-10-21T21:09:23Z</time>
      </trkpt>
      <trkpt lat="9.8336430" lon="-83.9701180">
        <ele>1433.3</ele>
        <time>2022-10-21T21:09:24Z</time>
      </trkpt>
      <trkpt lat="9.8336440" lon="-83.9701370">
        <ele>1433.5</ele>
        <time>2022-10-21T21:09:25Z</time>
      </trkpt>
      <trkpt lat="9.8336450" lon="-83.9701550">
        <ele>1433.7</ele>
        <time>2022-10-21T21:09:26Z</time>
      </trkpt>
      <trkpt lat="9.8336470" lon="-83.9701730">
        <ele>1433.8</ele>
        <time>2022-10-21T21:09:27Z</time>
      </trkpt>
      <trkpt lat="9.8336480" lon="-83.9701920">
        <ele>1434.0</ele>
        <time>2022-10-21T21:09:28Z</time>
      </trkpt>
      <trkpt lat="9.8336490" lon="-83.9702090">
        <ele>1434.2</ele>
        <time>2022-10-21T21:09:29Z</time>
      </trkpt>
      <trkpt lat="9.8336490" lon="-83.9702270">
        <ele>1434.4</ele>
        <time>2022-10-21T21:09:30Z</time>
      </trkpt>
      <trkpt lat="9.8336490" lon="-83.9702440">
        <ele>1434.6</ele>
        <time>2022-10-21T21:09:31Z</time>
      </trkpt>
      <trkpt lat="9.8336480" lon="-83.9702610">
        <ele>1434.7</ele>
        <time>2022-10-21T21:09:32Z</time>
      </trkpt>
      <trkpt lat="9.8336460" lon="-83.9702760">
        <ele>1434.9</ele>
        <time>2022-10-21T21:09:33Z</time>
      </trkpt>
      <trkpt lat="9.8336430" lon="-83.9702920">
        <ele>1435.1</ele>
        <time>2022-10-21T21:09:34Z</time>
      </trkpt>
      <trkpt lat="9.8336390" lon="-83.9703080">
        <ele>1435.3</ele>
        <time>2022-10-21T21:09:35Z</time>
      </trkpt>
      <trkpt lat="9.8336350" lon="-83.9703240">
        <ele>1435.5</ele>
        <time>2022-10-21T21:09:36Z</time>
      </trkpt>
      <trkpt lat="9.8336300" lon="-83.9703400">
        <ele>1435.7</ele>
        <time>2022-10-21T21:09:37Z</time>
      </trkpt>
      <trkpt lat="9.8336250" lon="-83.9703560">
        <ele>1435.8</ele>
        <time>2022-10-21T21:09:38Z</time>
      </trkpt>
      <trkpt lat="9.8336200" lon="-83.9703720">
        <ele>1436.0</ele>
        <time>2022-10-21T21:09:39Z</time>
      </trkpt>
      <trkpt lat="9.8336150" lon="-83.9703890">
        <ele>1436.2</ele>
        <time>2022-10-21T21:09:40Z</time>
      </trkpt>
      <trkpt lat="9.8336110" lon="-83.9704060">
        <ele>1436.5</ele>
        <time>2022-10-21T21:09:41Z</time>
      </trkpt>
      <trkpt lat="9.8336080" lon="-83.9704220">
        <ele>1436.7</ele>
        <time>2022-10-21T21:09:42Z</time>
      </trkpt>
      <trkpt lat="9.8336060" lon="-83.9704400">
        <ele>1436.9</ele>
        <time>2022-10-21T21:09:43Z</time>
      </trkpt>
      <trkpt lat="9.8336040" lon="-83.9704590">
        <ele>1437.1</ele>
        <time>2022-10-21T21:09:44Z</time>
      </trkpt>
      <trkpt lat="9.8336020" lon="-83.9704780">
        <ele>1437.3</ele>
        <time>2022-10-21T21:09:45Z</time>
      </trkpt>
      <trkpt lat="9.8336010" lon="-83.9704970">
        <ele>1437.5</ele>
        <time>2022-10-21T21:09:46Z</time>
      </trkpt>
      <trkpt lat="9.8336000" lon="-83.9705160">
        <ele>1437.8</ele>
        <time>2022-10-21T21:09:47Z</time>
      </trkpt>
      <trkpt lat="9.8335990" lon="-83.9705360">
        <ele>1438.0</ele>
        <time>2022-10-21T21:09:48Z</time>
      </trkpt>
      <trkpt lat="9.8335980" lon="-83.9705560">
        <ele>1438.2</ele>
        <time>2022-10-21T21:09:49Z</time>
      </trkpt>
      <trkpt lat="9.8335960" lon="-83.9705780">
        <ele>1438.5</ele>
        <time>2022-10-21T21:09:50Z</time>
      </trkpt>
      <trkpt lat="9.8335940" lon="-83.9706000">
        <ele>1438.8</ele>
        <time>2022-10-21T21:09:51Z</time>
      </trkpt>
      <trkpt lat="9.8335910" lon="-83.9706220">
        <ele>1439.0</ele>
        <time>2022-10-21T21:09:52Z</time>
      </trkpt>
      <trkpt lat="9.8335870" lon="-83.9706460">
        <ele>1439.2</ele>
        <time>2022-10-21T21:09:53Z</time>
      </trkpt>
      <trkpt lat="9.8335830" lon="-83.9706690">
        <ele>1439.5</ele>
        <time>2022-10-21T21:09:54Z</time>
      </trkpt>
      <trkpt lat="9.8335780" lon="-83.9706940">
        <ele>1439.7</ele>
        <time>2022-10-21T21:09:55Z</time>
      </trkpt>
      <trkpt lat="9.8335730" lon="-83.9707190">
        <ele>1439.9</ele>
        <time>2022-10-21T21:09:56Z</time>
      </trkpt>
      <trkpt lat="9.8335690" lon="-83.9707450">
        <ele>1440.1</ele>
        <time>2022-10-21T21:09:57Z</time>
      </trkpt>
      <trkpt lat="9.8335640" lon="-83.9707720">
        <ele>1440.3</ele>
        <time>2022-10-21T21:09:58Z</time>
      </trkpt>
      <trkpt lat="9.8335600" lon="-83.9707990">
        <ele>1440.4</ele>
        <time>2022-10-21T21:09:59Z</time>
      </trkpt>
      <trkpt lat="9.8335560" lon="-83.9708280">
        <ele>1440.5</ele>
        <time>2022-10-21T21:10:00Z</time>
      </trkpt>
      <trkpt lat="9.8335540" lon="-83.9708570">
        <ele>1440.6</ele>
        <time>2022-10-21T21:10:01Z</time>
      </trkpt>
      <trkpt lat="9.8335520" lon="-83.9708880">
        <ele>1440.7</ele>
        <time>2022-10-21T21:10:02Z</time>
      </trkpt>
      <trkpt lat="9.8335510" lon="-83.9709200">
        <ele>1440.7</ele>
        <time>2022-10-21T21:10:03Z</time>
      </trkpt>
      <trkpt lat="9.8335530" lon="-83.9709530">
        <ele>1440.7</ele>
        <time>2022-10-21T21:10:04Z</time>
      </trkpt>
      <trkpt lat="9.8335570" lon="-83.9709870">
        <ele>1440.7</ele>
        <time>2022-10-21T21:10:05Z</time>
      </trkpt>
      <trkpt lat="9.8335610" lon="-83.9710220">
        <ele>1440.6</ele>
        <time>2022-10-21T21:10:06Z</time>
      </trkpt>
      <trkpt lat="9.8335670" lon="-83.9710560">
        <ele>1440.6</ele>
        <time>2022-10-21T21:10:07Z</time>
      </trkpt>
      <trkpt lat="9.8335730" lon="-83.9710890">
        <ele>1440.6</ele>
        <time>2022-10-21T21:10:08Z</time>
      </trkpt>
      <trkpt lat="9.8335790" lon="-83.9711220">
        <ele>1440.7</ele>
        <time>2022-10-21T21:10:09Z</time>
      </trkpt>
      <trkpt lat="9.8335860" lon="-83.9711530">
        <ele>1440.7</ele>
        <time>2022-10-21T21:10:10Z</time>
      </trkpt>
      <trkpt lat="9.8335930" lon="-83.9711830">
        <ele>1440.8</ele>
        <time>2022-10-21T21:10:11Z</time>
      </trkpt>
      <trkpt lat="9.8335990" lon="-83.9712110">
        <ele>1441.0</ele>
        <time>2022-10-21T21:10:12Z</time>
      </trkpt>
      <trkpt lat="9.8336060" lon="-83.9712390">
        <ele>1441.1</ele>
        <time>2022-10-21T21:10:13Z</time>
      </trkpt>
      <trkpt lat="9.8336110" lon="-83.9712660">
        <ele>1441.3</ele>
        <time>2022-10-21T21:10:14Z</time>
      </trkpt>
      <trkpt lat="9.8336160" lon="-83.9712930">
        <ele>1441.5</ele>
        <time>2022-10-21T21:10:15Z</time>
      </trkpt>
      <trkpt lat="9.8336200" lon="-83.9713200">
        <ele>1441.7</ele>
        <time>2022-10-21T21:10:16Z</time>
      </trkpt>
      <trkpt lat="9.8336240" lon="-83.9713480">
        <ele>1442.0</ele>
        <time>2022-10-21T21:10:17Z</time>
      </trkpt>
      <trkpt lat="9.8336280" lon="-83.9713760">
        <ele>1442.3</ele>
        <time>2022-10-21T21:10:18Z</time>
      </trkpt>
      <trkpt lat="9.8336330" lon="-83.9714050">
        <ele>1442.6</ele>
        <time>2022-10-21T21:10:19Z</time>
      </trkpt>
      <trkpt lat="9.8336380" lon="-83.9714340">
        <ele>1443.0</ele>
        <time>2022-10-21T21:10:20Z</time>
      </trkpt>
      <trkpt lat="9.8336440" lon="-83.9714650">
        <ele>1443.4</ele>
        <time>2022-10-21T21:10:21Z</time>
      </trkpt>
      <trkpt lat="9.8336500" lon="-83.9714950">
        <ele>1443.8</ele>
        <time>2022-10-21T21:10:22Z</time>
      </trkpt>
      <trkpt lat="9.8336570" lon="-83.9715250">
        <ele>1444.2</ele>
        <time>2022-10-21T21:10:23Z</time>
      </trkpt>
      <trkpt lat="9.8336650" lon="-83.9715540">
        <ele>1444.6</ele>
        <time>2022-10-21T21:10:24Z</time>
      </trkpt>
      <trkpt lat="9.8336730" lon="-83.9715810">
        <ele>1445.0</ele>
        <time>2022-10-21T21:10:25Z</time>
      </trkpt>
      <trkpt lat="9.8336820" lon="-83.9716050">
        <ele>1445.4</ele>
        <time>2022-10-21T21:10:26Z</time>
      </trkpt>
      <trkpt lat="9.8336890" lon="-83.9716260">
        <ele>1445.7</ele>
        <time>2022-10-21T21:10:27Z</time>
      </trkpt>
      <trkpt lat="9.8336960" lon="-83.9716460">
        <ele>1446.1</ele>
        <time>2022-10-21T21:10:28Z</time>
      </trkpt>
      <trkpt lat="9.8337030" lon="-83.9716640">
        <ele>1446.3</ele>
        <time>2022-10-21T21:10:29Z</time>
      </trkpt>
      <trkpt lat="9.8337080" lon="-83.9716800">
        <ele>1446.6</ele>
        <time>2022-10-21T21:10:30Z</time>
      </trkpt>
      <trkpt lat="9.8337140" lon="-83.9716940">
        <ele>1446.8</ele>
        <time>2022-10-21T21:10:31Z</time>
      </trkpt>
      <trkpt lat="9.8337190" lon="-83.9717070">
        <ele>1447.0</ele>
        <time>2022-10-21T21:10:32Z</time>
      </trkpt>
      <trkpt lat="9.8337250" lon="-83.9717180">
        <ele>1447.2</ele>
        <time>2022-10-21T21:10:33Z</time>
      </trkpt>
      <trkpt lat="9.8337310" lon="-83.9717300">
        <ele>1447.3</ele>
        <time>2022-10-21T21:10:34Z</time>
      </trkpt>
      <trkpt lat="9.8337370" lon="-83.9717420">
        <ele>1447.5</ele>
        <time>2022-10-21T21:10:35Z</time>
      </trkpt>
      <trkpt lat="9.8337430" lon="-83.9717550">
        <ele>1447.7</ele>
        <time>2022-10-21T21:10:36Z</time>
      </trkpt>
      <trkpt lat="9.8337490" lon="-83.9717680">
        <ele>1447.9</ele>
        <time>2022-10-21T21:10:37Z</time>
      </trkpt>
      <trkpt lat="9.8337560" lon="-83.9717820">
        <ele>1448.1</ele>
        <time>2022-10-21T21:10:38Z</time>
      </trkpt>
      <trkpt lat="9.8337630" lon="-83.9717960">
        <ele>1448.3</ele>
        <time>2022-10-21T21:10:39Z</time>
      </trkpt>
      <trkpt lat="9.8337710" lon="-83.9718120">
        <ele>1448.5</ele>
        <time>2022-10-21T21:10:40Z</time>
      </trkpt>
      <trkpt lat="9.8337790" lon="-83.9718270">
        <ele>1448.7</ele>
        <time>2022-10-21T21:10:41Z</time>
      </trkpt>
      <trkpt lat="9.8337880" lon="-83.9718430">
        <ele>1448.9</ele>
        <time>2022-10-21T21:10:42Z</time>
      </trkpt>
      <trkpt lat="9.8337950" lon="-83.9718600">
        <ele>1449.0</ele>
        <time>2022-10-21T21:10:43Z</time>
      </trkpt>
      <trkpt lat="9.8338010" lon="-83.9718770">
        <ele>1449.2</ele>
        <time>2022-10-21T21:10:44Z</time>
      </trkpt>
      <trkpt lat="9.8338070" lon="-83.9718940">
        <ele>1449.4</ele>
        <time>2022-10-21T21:10:45Z</time>
      </trkpt>
      <trkpt lat="9.8338120" lon="-83.9719110">
        <ele>1449.6</ele>
        <time>2022-10-21T21:10:46Z</time>
      </trkpt>
      <trkpt lat="9.8338170" lon="-83.9719280">
        <ele>1449.8</ele>
        <time>2022-10-21T21:10:47Z</time>
      </trkpt>
      <trkpt lat="9.8338210" lon="-83.9719440">
        <ele>1449.9</ele>
        <time>2022-10-21T21:10:48Z</time>
      </trkpt>
      <trkpt lat="9.8338250" lon="-83.9719590">
        <ele>1450.1</ele>
        <time>2022-10-21T21:10:49Z</time>
      </trkpt>
      <trkpt lat="9.8338270" lon="-83.9719750">
        <ele>1450.2</ele>
        <time>2022-10-21T21:10:50Z</time>
      </trkpt>
      <trkpt lat="9.8338290" lon="-83.9719890">
        <ele>1450.4</ele>
        <time>2022-10-21T21:10:51Z</time>
      </trkpt>
      <trkpt lat="9.8338280" lon="-83.9720040">
        <ele>1450.5</ele>
        <time>2022-10-21T21:10:52Z</time>
      </trkpt>
      <trkpt lat="9.8338260" lon="-83.9720190">
        <ele>1450.7</ele>
        <time>2022-10-21T21:10:53Z</time>
      </trkpt>
      <trkpt lat="9.8338230" lon="-83.9720330">
        <ele>1450.8</ele>
        <time>2022-10-21T21:10:54Z</time>
      </trkpt>
      <trkpt lat="9.8338180" lon="-83.9720470">
        <ele>1451.1</ele>
        <time>2022-10-21T21:10:55Z</time>
      </trkpt>
      <trkpt lat="9.8338110" lon="-83.9720610">
        <ele>1451.1</ele>
        <time>2022-10-21T21:10:56Z</time>
      </trkpt>
      <trkpt lat="9.8338030" lon="-83.9720750">
        <ele>1451.1</ele>
        <time>2022-10-21T21:10:57Z</time>
      </trkpt>
      <trkpt lat="9.8337920" lon="-83.9720890">
        <ele>1451.2</ele>
        <time>2022-10-21T21:10:58Z</time>
      </trkpt>
      <trkpt lat="9.8337810" lon="-83.9721040">
        <ele>1451.2</ele>
        <time>2022-10-21T21:10:59Z</time>
      </trkpt>
      <trkpt lat="9.8337670" lon="-83.9721190">
        <ele>1451.2</ele>
        <time>2022-10-21T21:11:00Z</time>
      </trkpt>
      <trkpt lat="9.8337520" lon="-83.9721340">
        <ele>1451.2</ele>
        <time>2022-10-21T21:11:01Z</time>
      </trkpt>
      <trkpt lat="9.8337370" lon="-83.9721500">
        <ele>1451.2</ele>
        <time>2022-10-21T21:11:02Z</time>
      </trkpt>
      <trkpt lat="9.8337200" lon="-83.9721670">
        <ele>1451.2</ele>
        <time>2022-10-21T21:11:03Z</time>
      </trkpt>
      <trkpt lat="9.8337030" lon="-83.9721830">
        <ele>1451.1</ele>
        <time>2022-10-21T21:11:04Z</time>
      </trkpt>
      <trkpt lat="9.8336850" lon="-83.9722010">
        <ele>1451.1</ele>
        <time>2022-10-21T21:11:05Z</time>
      </trkpt>
      <trkpt lat="9.8336660" lon="-83.9722190">
        <ele>1451.1</ele>
        <time>2022-10-21T21:11:06Z</time>
      </trkpt>
      <trkpt lat="9.8336470" lon="-83.9722370">
        <ele>1451.1</ele>
        <time>2022-10-21T21:11:07Z</time>
      </trkpt>
      <trkpt lat="9.8336260" lon="-83.9722570">
        <ele>1451.1</ele>
        <time>2022-10-21T21:11:08Z</time>
      </trkpt>
      <trkpt lat="9.8336050" lon="-83.9722770">
        <ele>1451.1</ele>
        <time>2022-10-21T21:11:09Z</time>
      </trkpt>
      <trkpt lat="9.8335820" lon="-83.9722980">
        <ele>1451.0</ele>
        <time>2022-10-21T21:11:10Z</time>
      </trkpt>
      <trkpt lat="9.8335580" lon="-83.9723190">
        <ele>1451.0</ele>
        <time>2022-10-21T21:11:11Z</time>
      </trkpt>
      <trkpt lat="9.8335340" lon="-83.9723400">
        <ele>1451.0</ele>
        <time>2022-10-21T21:11:12Z</time>
      </trkpt>
      <trkpt lat="9.8335080" lon="-83.9723620">
        <ele>1451.0</ele>
        <time>2022-10-21T21:11:13Z</time>
      </trkpt>
      <trkpt lat="9.8334810" lon="-83.9723850">
        <ele>1451.0</ele>
        <time>2022-10-21T21:11:14Z</time>
      </trkpt>
      <trkpt lat="9.8334530" lon="-83.9724080">
        <ele>1451.0</ele>
        <time>2022-10-21T21:11:15Z</time>
      </trkpt>
      <trkpt lat="9.8334250" lon="-83.9724310">
        <ele>1451.1</ele>
        <time>2022-10-21T21:11:16Z</time>
      </trkpt>
      <trkpt lat="9.8333960" lon="-83.9724550">
        <ele>1451.1</ele>
        <time>2022-10-21T21:11:17Z</time>
      </trkpt>
      <trkpt lat="9.8333670" lon="-83.9724790">
        <ele>1451.2</ele>
        <time>2022-10-21T21:11:18Z</time>
      </trkpt>
      <trkpt lat="9.8333380" lon="-83.9725020">
        <ele>1451.2</ele>
        <time>2022-10-21T21:11:19Z</time>
      </trkpt>
      <trkpt lat="9.8333080" lon="-83.9725250">
        <ele>1451.3</ele>
        <time>2022-10-21T21:11:20Z</time>
      </trkpt>
      <trkpt lat="9.8332790" lon="-83.9725470">
        <ele>1451.4</ele>
        <time>2022-10-21T21:11:21Z</time>
      </trkpt>
      <trkpt lat="9.8332500" lon="-83.9725690">
        <ele>1451.4</ele>
        <time>2022-10-21T21:11:22Z</time>
      </trkpt>
      <trkpt lat="9.8332210" lon="-83.9725910">
        <ele>1451.5</ele>
        <time>2022-10-21T21:11:23Z</time>
      </trkpt>
      <trkpt lat="9.8331930" lon="-83.9726130">
        <ele>1451.6</ele>
        <time>2022-10-21T21:11:24Z</time>
      </trkpt>
      <trkpt lat="9.8331660" lon="-83.9726360">
        <ele>1451.7</ele>
        <time>2022-10-21T21:11:25Z</time>
      </trkpt>
      <trkpt lat="9.8331410" lon="-83.9726580">
        <ele>1451.8</ele>
        <time>2022-10-21T21:11:26Z</time>
      </trkpt>
      <trkpt lat="9.8331160" lon="-83.9726810">
        <ele>1451.9</ele>
        <time>2022-10-21T21:11:27Z</time>
      </trkpt>
      <trkpt lat="9.8330930" lon="-83.9727040">
        <ele>1452.0</ele>
        <time>2022-10-21T21:11:28Z</time>
      </trkpt>
      <trkpt lat="9.8330700" lon="-83.9727270">
        <ele>1452.1</ele>
        <time>2022-10-21T21:11:29Z</time>
      </trkpt>
      <trkpt lat="9.8330490" lon="-83.9727510">
        <ele>1452.3</ele>
        <time>2022-10-21T21:11:30Z</time>
      </trkpt>
      <trkpt lat="9.8330290" lon="-83.9727760">
        <ele>1452.4</ele>
        <time>2022-10-21T21:11:31Z</time>
      </trkpt>
      <trkpt lat="9.8330090" lon="-83.9728020">
        <ele>1452.5</ele>
        <time>2022-10-21T21:11:32Z</time>
      </trkpt>
      <trkpt lat="9.8329910" lon="-83.9728290">
        <ele>1452.7</ele>
        <time>2022-10-21T21:11:33Z</time>
      </trkpt>
      <trkpt lat="9.8329730" lon="-83.9728570">
        <ele>1452.8</ele>
        <time>2022-10-21T21:11:34Z</time>
      </trkpt>
      <trkpt lat="9.8329550" lon="-83.9728850">
        <ele>1453.0</ele>
        <time>2022-10-21T21:11:35Z</time>
      </trkpt>
      <trkpt lat="9.8329380" lon="-83.9729120">
        <ele>1453.1</ele>
        <time>2022-10-21T21:11:36Z</time>
      </trkpt>
      <trkpt lat="9.8329210" lon="-83.9729400">
        <ele>1453.2</ele>
        <time>2022-10-21T21:11:37Z</time>
      </trkpt>
      <trkpt lat="9.8329050" lon="-83.9729670">
        <ele>1453.4</ele>
        <time>2022-10-21T21:11:38Z</time>
      </trkpt>
      <trkpt lat="9.8328900" lon="-83.9729950">
        <ele>1453.5</ele>
        <time>2022-10-21T21:11:39Z</time>
      </trkpt>
      <trkpt lat="9.8328760" lon="-83.9730220">
        <ele>1453.6</ele>
        <time>2022-10-21T21:11:40Z</time>
      </trkpt>
      <trkpt lat="9.8328630" lon="-83.9730490">
        <ele>1453.8</ele>
        <time>2022-10-21T21:11:41Z</time>
      </trkpt>
      <trkpt lat="9.8328500" lon="-83.9730750">
        <ele>1453.9</ele>
        <time>2022-10-21T21:11:42Z</time>
      </trkpt>
      <trkpt lat="9.8328380" lon="-83.9731000">
        <ele>1454.0</ele>
        <time>2022-10-21T21:11:43Z</time>
      </trkpt>
      <trkpt lat="9.8328270" lon="-83.9731250">
        <ele>1454.1</ele>
        <time>2022-10-21T21:11:44Z</time>
      </trkpt>
      <trkpt lat="9.8328180" lon="-83.9731480">
        <ele>1454.2</ele>
        <time>2022-10-21T21:11:45Z</time>
      </trkpt>
      <trkpt lat="9.8328090" lon="-83.9731710">
        <ele>1454.4</ele>
        <time>2022-10-21T21:11:46Z</time>
      </trkpt>
      <trkpt lat="9.8328010" lon="-83.9731940">
        <ele>1454.5</ele>
        <time>2022-10-21T21:11:47Z</time>
      </trkpt>
      <trkpt lat="9.8327930" lon="-83.9732150">
        <ele>1454.6</ele>
        <time>2022-10-21T21:11:48Z</time>
      </trkpt>
      <trkpt lat="9.8327850" lon="-83.9732360">
        <ele>1454.7</ele>
        <time>2022-10-21T21:11:49Z</time>
      </trkpt>
      <trkpt lat="9.8327780" lon="-83.9732570">
        <ele>1454.8</ele>
        <time>2022-10-21T21:11:50Z</time>
      </trkpt>
      <trkpt lat="9.8327710" lon="-83.9732780">
        <ele>1454.9</ele>
        <time>2022-10-21T21:11:51Z</time>
      </trkpt>
      <trkpt lat="9.8327650" lon="-83.9732990">
        <ele>1455.1</ele>
        <time>2022-10-21T21:11:52Z</time>
      </trkpt>
      <trkpt lat="9.8327590" lon="-83.9733200">
        <ele>1455.2</ele>
        <time>2022-10-21T21:11:53Z</time>
      </trkpt>
      <trkpt lat="9.8327530" lon="-83.9733400">
        <ele>1455.3</ele>
        <time>2022-10-21T21:11:54Z</time>
      </trkpt>
      <trkpt lat="9.8327470" lon="-83.9733610">
        <ele>1455.5</ele>
        <time>2022-10-21T21:11:55Z</time>
      </trkpt>
      <trkpt lat="9.8327420" lon="-83.9733820">
        <ele>1455.6</ele>
        <time>2022-10-21T21:11:56Z</time>
      </trkpt>
      <trkpt lat="9.8327360" lon="-83.9734030">
        <ele>1455.8</ele>
        <time>2022-10-21T21:11:57Z</time>
      </trkpt>
      <trkpt lat="9.8327310" lon="-83.9734260">
        <ele>1456.0</ele>
        <time>2022-10-21T21:11:58Z</time>
      </trkpt>
      <trkpt lat="9.8327260" lon="-83.9734480">
        <ele>1456.2</ele>
        <time>2022-10-21T21:11:59Z</time>
      </trkpt>
      <trkpt lat="9.8327210" lon="-83.9734690">
        <ele>1456.4</ele>
        <time>2022-10-21T21:12:00Z</time>
      </trkpt>
      <trkpt lat="9.8327150" lon="-83.9734910">
        <ele>1456.6</ele>
        <time>2022-10-21T21:12:01Z</time>
      </trkpt>
      <trkpt lat="9.8327090" lon="-83.9735110">
        <ele>1456.8</ele>
        <time>2022-10-21T21:12:02Z</time>
      </trkpt>
      <trkpt lat="9.8327010" lon="-83.9735300">
        <ele>1457.0</ele>
        <time>2022-10-21T21:12:03Z</time>
      </trkpt>
      <trkpt lat="9.8326920" lon="-83.9735490">
        <ele>1457.2</ele>
        <time>2022-10-21T21:12:04Z</time>
      </trkpt>
      <trkpt lat="9.8326830" lon="-83.9735670">
        <ele>1457.5</ele>
        <time>2022-10-21T21:12:05Z</time>
      </trkpt>
      <trkpt lat="9.8326720" lon="-83.9735840">
        <ele>1457.7</ele>
        <time>2022-10-21T21:12:06Z</time>
      </trkpt>
      <trkpt lat="9.8326610" lon="-83.9736000">
        <ele>1457.9</ele>
        <time>2022-10-21T21:12:07Z</time>
      </trkpt>
      <trkpt lat="9.8326490" lon="-83.9736140">
        <ele>1458.1</ele>
        <time>2022-10-21T21:12:08Z</time>
      </trkpt>
      <trkpt lat="9.8326360" lon="-83.9736270">
        <ele>1458.4</ele>
        <time>2022-10-21T21:12:09Z</time>
      </trkpt>
      <trkpt lat="9.8326220" lon="-83.9736380">
        <ele>1458.6</ele>
        <time>2022-10-21T21:12:10Z</time>
      </trkpt>
      <trkpt lat="9.8326080" lon="-83.9736500">
        <ele>1458.8</ele>
        <time>2022-10-21T21:12:11Z</time>
      </trkpt>
      <trkpt lat="9.8325930" lon="-83.9736610">
        <ele>1459.0</ele>
        <time>2022-10-21T21:12:12Z</time>
      </trkpt>
      <trkpt lat="9.8325780" lon="-83.9736710">
        <ele>1459.3</ele>
        <time>2022-10-21T21:12:13Z</time>
      </trkpt>
      <trkpt lat="9.8325620" lon="-83.9736810">
        <ele>1459.5</ele>
        <time>2022-10-21T21:12:14Z</time>
      </trkpt>
      <trkpt lat="9.8325460" lon="-83.9736900">
        <ele>1459.7</ele>
        <time>2022-10-21T21:12:15Z</time>
      </trkpt>
      <trkpt lat="9.8325300" lon="-83.9737000">
        <ele>1459.9</ele>
        <time>2022-10-21T21:12:16Z</time>
      </trkpt>
      <trkpt lat="9.8325130" lon="-83.9737080">
        <ele>1460.2</ele>
        <time>2022-10-21T21:12:17Z</time>
      </trkpt>
      <trkpt lat="9.8324970" lon="-83.9737160">
        <ele>1460.4</ele>
        <time>2022-10-21T21:12:18Z</time>
      </trkpt>
      <trkpt lat="9.8324810" lon="-83.9737240">
        <ele>1460.6</ele>
        <time>2022-10-21T21:12:19Z</time>
      </trkpt>
      <trkpt lat="9.8324640" lon="-83.9737320">
        <ele>1460.8</ele>
        <time>2022-10-21T21:12:20Z</time>
      </trkpt>
      <trkpt lat="9.8324470" lon="-83.9737400">
        <ele>1461.0</ele>
        <time>2022-10-21T21:12:21Z</time>
      </trkpt>
      <trkpt lat="9.8324290" lon="-83.9737460">
        <ele>1461.3</ele>
        <time>2022-10-21T21:12:22Z</time>
      </trkpt>
      <trkpt lat="9.8324110" lon="-83.9737530">
        <ele>1461.5</ele>
        <time>2022-10-21T21:12:23Z</time>
      </trkpt>
      <trkpt lat="9.8323940" lon="-83.9737600">
        <ele>1461.7</ele>
        <time>2022-10-21T21:12:24Z</time>
      </trkpt>
      <trkpt lat="9.8323760" lon="-83.9737680">
        <ele>1461.9</ele>
        <time>2022-10-21T21:12:25Z</time>
      </trkpt>
      <trkpt lat="9.8323590" lon="-83.9737750">
        <ele>1462.1</ele>
        <time>2022-10-21T21:12:26Z</time>
      </trkpt>
      <trkpt lat="9.8323420" lon="-83.9737820">
        <ele>1462.3</ele>
        <time>2022-10-21T21:12:27Z</time>
      </trkpt>
      <trkpt lat="9.8323240" lon="-83.9737900">
        <ele>1462.5</ele>
        <time>2022-10-21T21:12:28Z</time>
      </trkpt>
      <trkpt lat="9.8323070" lon="-83.9737970">
        <ele>1462.7</ele>
        <time>2022-10-21T21:12:29Z</time>
      </trkpt>
      <trkpt lat="9.8322890" lon="-83.9738060">
        <ele>1462.9</ele>
        <time>2022-10-21T21:12:30Z</time>
      </trkpt>
      <trkpt lat="9.8322720" lon="-83.9738140">
        <ele>1463.1</ele>
        <time>2022-10-21T21:12:31Z</time>
      </trkpt>
      <trkpt lat="9.8322550" lon="-83.9738230">
        <ele>1463.3</ele>
        <time>2022-10-21T21:12:32Z</time>
      </trkpt>
      <trkpt lat="9.8322390" lon="-83.9738320">
        <ele>1463.4</ele>
        <time>2022-10-21T21:12:33Z</time>
      </trkpt>
      <trkpt lat="9.8322220" lon="-83.9738410">
        <ele>1463.6</ele>
        <time>2022-10-21T21:12:34Z</time>
      </trkpt>
      <trkpt lat="9.8322060" lon="-83.9738510">
        <ele>1463.8</ele>
        <time>2022-10-21T21:12:35Z</time>
      </trkpt>
      <trkpt lat="9.8321900" lon="-83.9738620">
        <ele>1464.0</ele>
        <time>2022-10-21T21:12:36Z</time>
      </trkpt>
      <trkpt lat="9.8321750" lon="-83.9738730">
        <ele>1464.1</ele>
        <time>2022-10-21T21:12:37Z</time>
      </trkpt>
      <trkpt lat="9.8321590" lon="-83.9738850">
        <ele>1464.3</ele>
        <time>2022-10-21T21:12:38Z</time>
      </trkpt>
      <trkpt lat="9.8321450" lon="-83.9738970">
        <ele>1464.4</ele>
        <time>2022-10-21T21:12:39Z</time>
      </trkpt>
      <trkpt lat="9.8321310" lon="-83.9739100">
        <ele>1464.6</ele>
        <time>2022-10-21T21:12:40Z</time>
      </trkpt>
      <trkpt lat="9.8321170" lon="-83.9739230">
        <ele>1464.8</ele>
        <time>2022-10-21T21:12:41Z</time>
      </trkpt>
      <trkpt lat="9.8321060" lon="-83.9739380">
        <ele>1464.9</ele>
        <time>2022-10-21T21:12:42Z</time>
      </trkpt>
      <trkpt lat="9.8320950" lon="-83.9739540">
        <ele>1465.1</ele>
        <time>2022-10-21T21:12:43Z</time>
      </trkpt>
      <trkpt lat="9.8320850" lon="-83.9739710">
        <ele>1465.2</ele>
        <time>2022-10-21T21:12:44Z</time>
      </trkpt>
      <trkpt lat="9.8320750" lon="-83.9739890">
        <ele>1465.4</ele>
        <time>2022-10-21T21:12:45Z</time>
      </trkpt>
      <trkpt lat="9.8320660" lon="-83.9740060">
        <ele>1465.5</ele>
        <time>2022-10-21T21:12:46Z</time>
      </trkpt>
      <trkpt lat="9.8320580" lon="-83.9740240">
        <ele>1465.7</ele>
        <time>2022-10-21T21:12:47Z</time>
      </trkpt>
      <trkpt lat="9.8320510" lon="-83.9740420">
        <ele>1465.8</ele>
        <time>2022-10-21T21:12:48Z</time>
      </trkpt>
      <trkpt lat="9.8320460" lon="-83.9740600">
        <ele>1465.9</ele>
        <time>2022-10-21T21:12:49Z</time>
      </trkpt>
      <trkpt lat="9.8320410" lon="-83.9740770">
        <ele>1466.1</ele>
        <time>2022-10-21T21:12:50Z</time>
      </trkpt>
      <trkpt lat="9.8320360" lon="-83.9740940">
        <ele>1466.2</ele>
        <time>2022-10-21T21:12:51Z</time>
      </trkpt>
      <trkpt lat="9.8320310" lon="-83.9741110">
        <ele>1466.3</ele>
        <time>2022-10-21T21:12:52Z</time>
      </trkpt>
      <trkpt lat="9.8320260" lon="-83.9741280">
        <ele>1466.5</ele>
        <time>2022-10-21T21:12:53Z</time>
      </trkpt>
      <trkpt lat="9.8320220" lon="-83.9741440">
        <ele>1466.6</ele>
        <time>2022-10-21T21:12:54Z</time>
      </trkpt>
      <trkpt lat="9.8320190" lon="-83.9741600">
        <ele>1466.7</ele>
        <time>2022-10-21T21:12:55Z</time>
      </trkpt>
      <trkpt lat="9.8320160" lon="-83.9741750">
        <ele>1466.8</ele>
        <time>2022-10-21T21:12:56Z</time>
      </trkpt>
      <trkpt lat="9.8320140" lon="-83.9741900">
        <ele>1466.9</ele>
        <time>2022-10-21T21:12:57Z</time>
      </trkpt>
      <trkpt lat="9.8320130" lon="-83.9742050">
        <ele>1467.0</ele>
        <time>2022-10-21T21:12:58Z</time>
      </trkpt>
      <trkpt lat="9.8320110" lon="-83.9742200">
        <ele>1467.2</ele>
        <time>2022-10-21T21:12:59Z</time>
      </trkpt>
      <trkpt lat="9.8320090" lon="-83.9742350">
        <ele>1467.3</ele>
        <time>2022-10-21T21:13:00Z</time>
      </trkpt>
      <trkpt lat="9.8320070" lon="-83.9742510">
        <ele>1467.4</ele>
        <time>2022-10-21T21:13:01Z</time>
      </trkpt>
      <trkpt lat="9.8320070" lon="-83.9742680">
        <ele>1467.5</ele>
        <time>2022-10-21T21:13:02Z</time>
      </trkpt>
      <trkpt lat="9.8320060" lon="-83.9742850">
        <ele>1467.7</ele>
        <time>2022-10-21T21:13:03Z</time>
      </trkpt>
      <trkpt lat="9.8320060" lon="-83.9743020">
        <ele>1467.8</ele>
        <time>2022-10-21T21:13:04Z</time>
      </trkpt>
      <trkpt lat="9.8320060" lon="-83.9743200">
        <ele>1468.0</ele>
        <time>2022-10-21T21:13:05Z</time>
      </trkpt>
      <trkpt lat="9.8320040" lon="-83.9743380">
        <ele>1468.1</ele>
        <time>2022-10-21T21:13:06Z</time>
      </trkpt>
      <trkpt lat="9.8320030" lon="-83.9743560">
        <ele>1468.3</ele>
        <time>2022-10-21T21:13:07Z</time>
      </trkpt>
      <trkpt lat="9.8320010" lon="-83.9743750">
        <ele>1468.5</ele>
        <time>2022-10-21T21:13:08Z</time>
      </trkpt>
      <trkpt lat="9.8320000" lon="-83.9743940">
        <ele>1468.7</ele>
        <time>2022-10-21T21:13:09Z</time>
      </trkpt>
      <trkpt lat="9.8319980" lon="-83.9744130">
        <ele>1468.8</ele>
        <time>2022-10-21T21:13:10Z</time>
      </trkpt>
      <trkpt lat="9.8319950" lon="-83.9744330">
        <ele>1469.0</ele>
        <time>2022-10-21T21:13:11Z</time>
      </trkpt>
      <trkpt lat="9.8319930" lon="-83.9744520">
        <ele>1469.2</ele>
        <time>2022-10-21T21:13:12Z</time>
      </trkpt>
      <trkpt lat="9.8319900" lon="-83.9744710">
        <ele>1469.4</ele>
        <time>2022-10-21T21:13:13Z</time>
      </trkpt>
      <trkpt lat="9.8319870" lon="-83.9744900">
        <ele>1469.6</ele>
        <time>2022-10-21T21:13:14Z</time>
      </trkpt>
      <trkpt lat="9.8319830" lon="-83.9745090">
        <ele>1469.8</ele>
        <time>2022-10-21T21:13:15Z</time>
      </trkpt>
      <trkpt lat="9.8319780" lon="-83.9745270">
        <ele>1470.0</ele>
        <time>2022-10-21T21:13:16Z</time>
      </trkpt>
      <trkpt lat="9.8319720" lon="-83.9745430">
        <ele>1470.2</ele>
        <time>2022-10-21T21:13:17Z</time>
      </trkpt>
      <trkpt lat="9.8319660" lon="-83.9745590">
        <ele>1470.4</ele>
        <time>2022-10-21T21:13:18Z</time>
      </trkpt>
      <trkpt lat="9.8319580" lon="-83.9745740">
        <ele>1470.6</ele>
        <time>2022-10-21T21:13:19Z</time>
      </trkpt>
      <trkpt lat="9.8319500" lon="-83.9745870">
        <ele>1470.8</ele>
        <time>2022-10-21T21:13:20Z</time>
      </trkpt>
      <trkpt lat="9.8319410" lon="-83.9745980">
        <ele>1471.0</ele>
        <time>2022-10-21T21:13:21Z</time>
      </trkpt>
      <trkpt lat="9.8319340" lon="-83.9746080">
        <ele>1471.2</ele>
        <time>2022-10-21T21:13:22Z</time>
      </trkpt>
      <trkpt lat="9.8319270" lon="-83.9746150">
        <ele>1471.3</ele>
        <time>2022-10-21T21:13:23Z</time>
      </trkpt>
      <trkpt lat="9.8319230" lon="-83.9746190">
        <ele>1471.3</ele>
        <time>2022-10-21T21:13:24Z</time>
      </trkpt>
      <trkpt lat="9.8319230" lon="-83.9746180">
        <ele>1471.4</ele>
        <time>2022-10-21T21:13:25Z</time>
      </trkpt>
      <trkpt lat="9.8319270" lon="-83.9746100">
        <ele>1471.5</ele>
        <time>2022-10-21T21:13:26Z</time>
      </trkpt>
      <trkpt lat="9.8319330" lon="-83.9745950">
        <ele>1471.7</ele>
        <time>2022-10-21T21:13:27Z</time>
      </trkpt>
      <trkpt lat="9.8319420" lon="-83.9745700">
        <ele>1472.0</ele>
        <time>2022-10-21T21:13:28Z</time>
      </trkpt>
      <trkpt lat="9.8319520" lon="-83.9745350">
        <ele>1472.6</ele>
        <time>2022-10-21T21:13:29Z</time>
      </trkpt>
      <trkpt lat="9.8319640" lon="-83.9744900">
        <ele>1472.1</ele>
        <time>2022-10-21T21:13:30Z</time>
      </trkpt>
      <trkpt lat="9.8319780" lon="-83.9744350">
        <ele>1471.2</ele>
        <time>2022-10-21T21:13:31Z</time>
      </trkpt>
      <trkpt lat="9.8319950" lon="-83.9743710">
        <ele>1470.3</ele>
        <time>2022-10-21T21:13:32Z</time>
      </trkpt>
      <trkpt lat="9.8320180" lon="-83.9742980">
        <ele>1469.4</ele>
        <time>2022-10-21T21:13:33Z</time>
      </trkpt>
      <trkpt lat="9.8320480" lon="-83.9742210">
        <ele>1468.5</ele>
        <time>2022-10-21T21:13:34Z</time>
      </trkpt>
      <trkpt lat="9.8320840" lon="-83.9741410">
        <ele>1467.7</ele>
        <time>2022-10-21T21:13:35Z</time>
      </trkpt>
      <trkpt lat="9.8321270" lon="-83.9740610">
        <ele>1466.9</ele>
        <time>2022-10-21T21:13:36Z</time>
      </trkpt>
      <trkpt lat="9.8321750" lon="-83.9739810">
        <ele>1466.1</ele>
        <time>2022-10-21T21:13:37Z</time>
      </trkpt>
      <trkpt lat="9.8322300" lon="-83.9739040">
        <ele>1465.4</ele>
        <time>2022-10-21T21:13:38Z</time>
      </trkpt>
      <trkpt lat="9.8322900" lon="-83.9738280">
        <ele>1464.5</ele>
        <time>2022-10-21T21:13:39Z</time>
      </trkpt>
      <trkpt lat="9.8323560" lon="-83.9737540">
        <ele>1463.6</ele>
        <time>2022-10-21T21:13:40Z</time>
      </trkpt>
      <trkpt lat="9.8324260" lon="-83.9736800">
        <ele>1462.5</ele>
        <time>2022-10-21T21:13:41Z</time>
      </trkpt>
      <trkpt lat="9.8324970" lon="-83.9736060">
        <ele>1461.3</ele>
        <time>2022-10-21T21:13:42Z</time>
      </trkpt>
      <trkpt lat="9.8325700" lon="-83.9735300">
        <ele>1459.9</ele>
        <time>2022-10-21T21:13:43Z</time>
      </trkpt>
      <trkpt lat="9.8326420" lon="-83.9734530">
        <ele>1458.5</ele>
        <time>2022-10-21T21:13:44Z</time>
      </trkpt>
      <trkpt lat="9.8327120" lon="-83.9733730">
        <ele>1457.1</ele>
        <time>2022-10-21T21:13:45Z</time>
      </trkpt>
      <trkpt lat="9.8327790" lon="-83.9732870">
        <ele>1456.0</ele>
        <time>2022-10-21T21:13:46Z</time>
      </trkpt>
      <trkpt lat="9.8328430" lon="-83.9731970">
        <ele>1455.1</ele>
        <time>2022-10-21T21:13:47Z</time>
      </trkpt>
      <trkpt lat="9.8329060" lon="-83.9731040">
        <ele>1454.5</ele>
        <time>2022-10-21T21:13:48Z</time>
      </trkpt>
      <trkpt lat="9.8329670" lon="-83.9730090">
        <ele>1453.9</ele>
        <time>2022-10-21T21:13:49Z</time>
      </trkpt>
      <trkpt lat="9.8330290" lon="-83.9729130">
        <ele>1453.4</ele>
        <time>2022-10-21T21:13:50Z</time>
      </trkpt>
      <trkpt lat="9.8330920" lon="-83.9728190">
        <ele>1452.8</ele>
        <time>2022-10-21T21:13:51Z</time>
      </trkpt>
      <trkpt lat="9.8331580" lon="-83.9727270">
        <ele>1452.3</ele>
        <time>2022-10-21T21:13:52Z</time>
      </trkpt>
      <trkpt lat="9.8332280" lon="-83.9726380">
        <ele>1451.8</ele>
        <time>2022-10-21T21:13:53Z</time>
      </trkpt>
      <trkpt lat="9.8333000" lon="-83.9725510">
        <ele>1451.5</ele>
        <time>2022-10-21T21:13:54Z</time>
      </trkpt>
      <trkpt lat="9.8333720" lon="-83.9724660">
        <ele>1451.3</ele>
        <time>2022-10-21T21:13:55Z</time>
      </trkpt>
      <trkpt lat="9.8334450" lon="-83.9723850">
        <ele>1451.1</ele>
        <time>2022-10-21T21:13:56Z</time>
      </trkpt>
      <trkpt lat="9.8335190" lon="-83.9723070">
        <ele>1451.0</ele>
        <time>2022-10-21T21:13:57Z</time>
      </trkpt>
      <trkpt lat="9.8335930" lon="-83.9722330">
        <ele>1451.0</ele>
        <time>2022-10-21T21:13:58Z</time>
      </trkpt>
      <trkpt lat="9.8336690" lon="-83.9721640">
        <ele>1451.1</ele>
        <time>2022-10-21T21:13:59Z</time>
      </trkpt>
      <trkpt lat="9.8337440" lon="-83.9720990">
        <ele>1451.2</ele>
        <time>2022-10-21T21:14:00Z</time>
      </trkpt>
      <trkpt lat="9.8338210" lon="-83.9720380">
        <ele>1451.1</ele>
        <time>2022-10-21T21:14:01Z</time>
      </trkpt>
      <trkpt lat="9.8338980" lon="-83.9719810">
        <ele>1450.9</ele>
        <time>2022-10-21T21:14:02Z</time>
      </trkpt>
      <trkpt lat="9.8339760" lon="-83.9719270">
        <ele>1450.4</ele>
        <time>2022-10-21T21:14:03Z</time>
      </trkpt>
      <trkpt lat="9.8340560" lon="-83.9718750">
        <ele>1449.9</ele>
        <time>2022-10-21T21:14:04Z</time>
      </trkpt>
      <trkpt lat="9.8341390" lon="-83.9718270">
        <ele>1449.2</ele>
        <time>2022-10-21T21:14:05Z</time>
      </trkpt>
      <trkpt lat="9.8342240" lon="-83.9717830">
        <ele>1448.4</ele>
        <time>2022-10-21T21:14:06Z</time>
      </trkpt>
      <trkpt lat="9.8343100" lon="-83.9717410">
        <ele>1447.4</ele>
        <time>2022-10-21T21:14:07Z</time>
      </trkpt>
      <trkpt lat="9.8343950" lon="-83.9717000">
        <ele>1446.3</ele>
        <time>2022-10-21T21:14:08Z</time>
      </trkpt>
      <trkpt lat="9.8344800" lon="-83.9716560">
        <ele>1445.1</ele>
        <time>2022-10-21T21:14:09Z</time>
      </trkpt>
      <trkpt lat="9.8345610" lon="-83.9716060">
        <ele>1444.2</ele>
        <time>2022-10-21T21:14:10Z</time>
      </trkpt>
      <trkpt lat="9.8346390" lon="-83.9715520">
        <ele>1443.7</ele>
        <time>2022-10-21T21:14:11Z</time>
      </trkpt>
      <trkpt lat="9.8347120" lon="-83.9714910">
        <ele>1443.3</ele>
        <time>2022-10-21T21:14:12Z</time>
      </trkpt>
      <trkpt lat="9.8347820" lon="-83.9714260">
        <ele>1443.1</ele>
        <time>2022-10-21T21:14:13Z</time>
      </trkpt>
      <trkpt lat="9.8348490" lon="-83.9713570">
        <ele>1442.9</ele>
        <time>2022-10-21T21:14:14Z</time>
      </trkpt>
      <trkpt lat="9.8349130" lon="-83.9712840">
        <ele>1442.6</ele>
        <time>2022-10-21T21:14:15Z</time>
      </trkpt>
      <trkpt lat="9.8349740" lon="-83.9712070">
        <ele>1442.2</ele>
        <time>2022-10-21T21:14:16Z</time>
      </trkpt>
      <trkpt lat="9.8350330" lon="-83.9711250">
        <ele>1441.6</ele>
        <time>2022-10-21T21:14:17Z</time>
      </trkpt>
      <trkpt lat="9.8350900" lon="-83.9710370">
        <ele>1440.8</ele>
        <time>2022-10-21T21:14:18Z</time>
      </trkpt>
      <trkpt lat="9.8351460" lon="-83.9709440">
        <ele>1439.9</ele>
        <time>2022-10-21T21:14:19Z</time>
      </trkpt>
      <trkpt lat="9.8352030" lon="-83.9708490">
        <ele>1438.9</ele>
        <time>2022-10-21T21:14:20Z</time>
      </trkpt>
      <trkpt lat="9.8352620" lon="-83.9707510">
        <ele>1438.0</ele>
        <time>2022-10-21T21:14:21Z</time>
      </trkpt>
      <trkpt lat="9.8353250" lon="-83.9706540">
        <ele>1437.1</ele>
        <time>2022-10-21T21:14:22Z</time>
      </trkpt>
      <trkpt lat="9.8353930" lon="-83.9705580">
        <ele>1436.1</ele>
        <time>2022-10-21T21:14:23Z</time>
      </trkpt>
      <trkpt lat="9.8354650" lon="-83.9704630">
        <ele>1435.1</ele>
        <time>2022-10-21T21:14:24Z</time>
      </trkpt>
      <trkpt lat="9.8355400" lon="-83.9703720">
        <ele>1434.2</ele>
        <time>2022-10-21T21:14:25Z</time>
      </trkpt>
      <trkpt lat="9.8356180" lon="-83.9702840">
        <ele>1433.5</ele>
        <time>2022-10-21T21:14:26Z</time>
      </trkpt>
      <trkpt lat="9.8356960" lon="-83.9702000">
        <ele>1432.9</ele>
        <time>2022-10-21T21:14:27Z</time>
      </trkpt>
      <trkpt lat="9.8357740" lon="-83.9701210">
        <ele>1432.1</ele>
        <time>2022-10-21T21:14:28Z</time>
      </trkpt>
      <trkpt lat="9.8358490" lon="-83.9700450">
        <ele>1431.0</ele>
        <time>2022-10-21T21:14:29Z</time>
      </trkpt>
      <trkpt lat="9.8359220" lon="-83.9699750">
        <ele>1429.7</ele>
        <time>2022-10-21T21:14:30Z</time>
      </trkpt>
      <trkpt lat="9.8359870" lon="-83.9699090">
        <ele>1428.4</ele>
        <time>2022-10-21T21:14:31Z</time>
      </trkpt>
      <trkpt lat="9.8360430" lon="-83.9698480">
        <ele>1427.1</ele>
        <time>2022-10-21T21:14:32Z</time>
      </trkpt>
      <trkpt lat="9.8360880" lon="-83.9697890">
        <ele>1425.9</ele>
        <time>2022-10-21T21:14:33Z</time>
      </trkpt>
      <trkpt lat="9.8361220" lon="-83.9697310">
        <ele>1424.8</ele>
        <time>2022-10-21T21:14:34Z</time>
      </trkpt>
      <trkpt lat="9.8361470" lon="-83.9696720">
        <ele>1423.8</ele>
        <time>2022-10-21T21:14:35Z</time>
      </trkpt>
      <trkpt lat="9.8361630" lon="-83.9696100">
        <ele>1422.8</ele>
        <time>2022-10-21T21:14:36Z</time>
      </trkpt>
      <trkpt lat="9.8361730" lon="-83.9695440">
        <ele>1421.8</ele>
        <time>2022-10-21T21:14:37Z</time>
      </trkpt>
      <trkpt lat="9.8361800" lon="-83.9694750">
        <ele>1420.7</ele>
        <time>2022-10-21T21:14:38Z</time>
      </trkpt>
      <trkpt lat="9.8361880" lon="-83.9694010">
        <ele>1419.6</ele>
        <time>2022-10-21T21:14:39Z</time>
      </trkpt>
      <trkpt lat="9.8361980" lon="-83.9693240">
        <ele>1418.5</ele>
        <time>2022-10-21T21:14:40Z</time>
      </trkpt>
      <trkpt lat="9.8362120" lon="-83.9692440">
        <ele>1417.4</ele>
        <time>2022-10-21T21:14:41Z</time>
      </trkpt>
      <trkpt lat="9.8362330" lon="-83.9691620">
        <ele>1416.3</ele>
        <time>2022-10-21T21:14:42Z</time>
      </trkpt>
      <trkpt lat="9.8362620" lon="-83.9690750">
        <ele>1415.2</ele>
        <time>2022-10-21T21:14:43Z</time>
      </trkpt>
      <trkpt lat="9.8362990" lon="-83.9689850">
        <ele>1414.1</ele>
        <time>2022-10-21T21:14:44Z</time>
      </trkpt>
      <trkpt lat="9.8363450" lon="-83.9688920">
        <ele>1413.1</ele>
        <time>2022-10-21T21:14:45Z</time>
      </trkpt>
      <trkpt lat="9.8363970" lon="-83.9687970">
        <ele>1412.1</ele>
        <time>2022-10-21T21:14:46Z</time>
      </trkpt>
      <trkpt lat="9.8364550" lon="-83.9687000">
        <ele>1411.3</ele>
        <time>2022-10-21T21:14:47Z</time>
      </trkpt>
      <trkpt lat="9.8365150" lon="-83.9686030">
        <ele>1410.7</ele>
        <time>2022-10-21T21:14:48Z</time>
      </trkpt>
      <trkpt lat="9.8365750" lon="-83.9685050">
        <ele>1410.3</ele>
        <time>2022-10-21T21:14:49Z</time>
      </trkpt>
      <trkpt lat="9.8366330" lon="-83.9684060">
        <ele>1409.9</ele>
        <time>2022-10-21T21:14:50Z</time>
      </trkpt>
      <trkpt lat="9.8366860" lon="-83.9683050">
        <ele>1409.6</ele>
        <time>2022-10-21T21:14:51Z</time>
      </trkpt>
      <trkpt lat="9.8367340" lon="-83.9682030">
        <ele>1409.3</ele>
        <time>2022-10-21T21:14:52Z</time>
      </trkpt>
      <trkpt lat="9.8367810" lon="-83.9681040">
        <ele>1408.9</ele>
        <time>2022-10-21T21:14:53Z</time>
      </trkpt>
      <trkpt lat="9.8368270" lon="-83.9680100">
        <ele>1408.3</ele>
        <time>2022-10-21T21:14:54Z</time>
      </trkpt>
      <trkpt lat="9.8368780" lon="-83.9679240">
        <ele>1407.6</ele>
        <time>2022-10-21T21:14:55Z</time>
      </trkpt>
      <trkpt lat="9.8369330" lon="-83.9678480">
        <ele>1406.8</ele>
        <time>2022-10-21T21:14:56Z</time>
      </trkpt>
      <trkpt lat="9.8369930" lon="-83.9677800">
        <ele>1406.0</ele>
        <time>2022-10-21T21:14:57Z</time>
      </trkpt>
      <trkpt lat="9.8370580" lon="-83.9677180">
        <ele>1405.1</ele>
        <time>2022-10-21T21:14:58Z</time>
      </trkpt>
      <trkpt lat="9.8371280" lon="-83.9676620">
        <ele>1404.1</ele>
        <time>2022-10-21T21:14:59Z</time>
      </trkpt>
      <trkpt lat="9.8372020" lon="-83.9676140">
        <ele>1403.0</ele>
        <time>2022-10-21T21:15:00Z</time>
      </trkpt>
      <trkpt lat="9.8372800" lon="-83.9675770">
        <ele>1401.9</ele>
        <time>2022-10-21T21:15:01Z</time>
      </trkpt>
      <trkpt lat="9.8373650" lon="-83.9675530">
        <ele>1400.8</ele>
        <time>2022-10-21T21:15:02Z</time>
      </trkpt>
      <trkpt lat="9.8374540" lon="-83.9675440">
        <ele>1399.8</ele>
        <time>2022-10-21T21:15:03Z</time>
      </trkpt>
      <trkpt lat="9.8375420" lon="-83.9675510">
        <ele>1398.2</ele>
        <time>2022-10-21T21:15:04Z</time>
      </trkpt>
      <trkpt lat="9.8376290" lon="-83.9675710">
        <ele>1396.9</ele>
        <time>2022-10-21T21:15:05Z</time>
      </trkpt>
      <trkpt lat="9.8377110" lon="-83.9676030">
        <ele>1395.1</ele>
        <time>2022-10-21T21:15:06Z</time>
      </trkpt>
      <trkpt lat="9.8377860" lon="-83.9676450">
        <ele>1393.4</ele>
        <time>2022-10-21T21:15:07Z</time>
      </trkpt>
      <trkpt lat="9.8378560" lon="-83.9676980">
        <ele>1393.0</ele>
        <time>2022-10-21T21:15:08Z</time>
      </trkpt>
      <trkpt lat="9.8379210" lon="-83.9677630">
        <ele>1392.6</ele>
        <time>2022-10-21T21:15:09Z</time>
      </trkpt>
      <trkpt lat="9.8379820" lon="-83.9678390">
        <ele>1392.2</ele>
        <time>2022-10-21T21:15:10Z</time>
      </trkpt>
      <trkpt lat="9.8380400" lon="-83.9679250">
        <ele>1391.8</ele>
        <time>2022-10-21T21:15:11Z</time>
      </trkpt>
      <trkpt lat="9.8380970" lon="-83.9680170">
        <ele>1391.5</ele>
        <time>2022-10-21T21:15:12Z</time>
      </trkpt>
      <trkpt lat="9.8381510" lon="-83.9681130">
        <ele>1391.1</ele>
        <time>2022-10-21T21:15:13Z</time>
      </trkpt>
      <trkpt lat="9.8382050" lon="-83.9682100">
        <ele>1390.8</ele>
        <time>2022-10-21T21:15:14Z</time>
      </trkpt>
      <trkpt lat="9.8382600" lon="-83.9683050">
        <ele>1390.5</ele>
        <time>2022-10-21T21:15:15Z</time>
      </trkpt>
      <trkpt lat="9.8383170" lon="-83.9683980">
        <ele>1390.3</ele>
        <time>2022-10-21T21:15:16Z</time>
      </trkpt>
      <trkpt lat="9.8383750" lon="-83.9684870">
        <ele>1390.1</ele>
        <time>2022-10-21T21:15:17Z</time>
      </trkpt>
      <trkpt lat="9.8384340" lon="-83.9685730">
        <ele>1389.9</ele>
        <time>2022-10-21T21:15:18Z</time>
      </trkpt>
      <trkpt lat="9.8384940" lon="-83.9686570">
        <ele>1389.8</ele>
        <time>2022-10-21T21:15:19Z</time>
      </trkpt>
      <trkpt lat="9.8385540" lon="-83.9687390">
        <ele>1389.6</ele>
        <time>2022-10-21T21:15:20Z</time>
      </trkpt>
      <trkpt lat="9.8386160" lon="-83.9688190">
        <ele>1389.6</ele>
        <time>2022-10-21T21:15:21Z</time>
      </trkpt>
      <trkpt lat="9.8386780" lon="-83.9688980">
        <ele>1389.5</ele>
        <time>2022-10-21T21:15:22Z</time>
      </trkpt>
      <trkpt lat="9.8387390" lon="-83.9689750">
        <ele>1389.5</ele>
        <time>2022-10-21T21:15:23Z</time>
      </trkpt>
      <trkpt lat="9.8388000" lon="-83.9690500">
        <ele>1389.5</ele>
        <time>2022-10-21T21:15:24Z</time>
      </trkpt>
      <trkpt lat="9.8388590" lon="-83.9691210">
        <ele>1389.6</ele>
        <time>2022-10-21T21:15:25Z</time>
      </trkpt>
      <trkpt lat="9.8389150" lon="-83.9691900">
        <ele>1389.6</ele>
        <time>2022-10-21T21:15:26Z</time>
      </trkpt>
      <trkpt lat="9.8389700" lon="-83.9692540">
        <ele>1389.8</ele>
        <time>2022-10-21T21:15:27Z</time>
      </trkpt>
      <trkpt lat="9.8390220" lon="-83.9693140">
        <ele>1390.1</ele>
        <time>2022-10-21T21:15:28Z</time>
      </trkpt>
      <trkpt lat="9.8390720" lon="-83.9693710">
        <ele>1390.4</ele>
        <time>2022-10-21T21:15:29Z</time>
      </trkpt>
      <trkpt lat="9.8391200" lon="-83.9694250">
        <ele>1390.7</ele>
        <time>2022-10-21T21:15:30Z</time>
      </trkpt>
      <trkpt lat="9.8391670" lon="-83.9694780">
        <ele>1390.9</ele>
        <time>2022-10-21T21:15:31Z</time>
      </trkpt>
      <trkpt lat="9.8392110" lon="-83.9695280">
        <ele>1391.0</ele>
        <time>2022-10-21T21:15:32Z</time>
      </trkpt>
      <trkpt lat="9.8392540" lon="-83.9695760">
        <ele>1391.0</ele>
        <time>2022-10-21T21:15:33Z</time>
      </trkpt>
      <trkpt lat="9.8392950" lon="-83.9696230">
        <ele>1391.0</ele>
        <time>2022-10-21T21:15:34Z</time>
      </trkpt>
      <trkpt lat="9.8393360" lon="-83.9696700">
        <ele>1391.0</ele>
        <time>2022-10-21T21:15:35Z</time>
      </trkpt>
      <trkpt lat="9.8393770" lon="-83.9697170">
        <ele>1390.8</ele>
        <time>2022-10-21T21:15:36Z</time>
      </trkpt>
      <trkpt lat="9.8394190" lon="-83.9697660">
        <ele>1390.5</ele>
        <time>2022-10-21T21:15:37Z</time>
      </trkpt>
      <trkpt lat="9.8394600" lon="-83.9698170">
        <ele>1390.3</ele>
        <time>2022-10-21T21:15:38Z</time>
      </trkpt>
      <trkpt lat="9.8395010" lon="-83.9698690">
        <ele>1390.0</ele>
        <time>2022-10-21T21:15:39Z</time>
      </trkpt>
      <trkpt lat="9.8395430" lon="-83.9699230">
        <ele>1389.8</ele>
        <time>2022-10-21T21:15:40Z</time>
      </trkpt>
      <trkpt lat="9.8395850" lon="-83.9699780">
        <ele>1389.6</ele>
        <time>2022-10-21T21:15:41Z</time>
      </trkpt>
      <trkpt lat="9.8396260" lon="-83.9700350">
        <ele>1389.5</ele>
        <time>2022-10-21T21:15:42Z</time>
      </trkpt>
      <trkpt lat="9.8396680" lon="-83.9700930">
        <ele>1389.4</ele>
        <time>2022-10-21T21:15:43Z</time>
      </trkpt>
      <trkpt lat="9.8397100" lon="-83.9701530">
        <ele>1389.3</ele>
        <time>2022-10-21T21:15:44Z</time>
      </trkpt>
      <trkpt lat="9.8397520" lon="-83.9702130">
        <ele>1389.3</ele>
        <time>2022-10-21T21:15:45Z</time>
      </trkpt>
      <trkpt lat="9.8397940" lon="-83.9702730">
        <ele>1389.3</ele>
        <time>2022-10-21T21:15:46Z</time>
      </trkpt>
      <trkpt lat="9.8398350" lon="-83.9703330">
        <ele>1389.2</ele>
        <time>2022-10-21T21:15:47Z</time>
      </trkpt>
      <trkpt lat="9.8398760" lon="-83.9703940">
        <ele>1389.2</ele>
        <time>2022-10-21T21:15:48Z</time>
      </trkpt>
      <trkpt lat="9.8399170" lon="-83.9704550">
        <ele>1389.2</ele>
        <time>2022-10-21T21:15:49Z</time>
      </trkpt>
      <trkpt lat="9.8399570" lon="-83.9705150">
        <ele>1389.1</ele>
        <time>2022-10-21T21:15:50Z</time>
      </trkpt>
      <trkpt lat="9.8399970" lon="-83.9705750">
        <ele>1389.0</ele>
        <time>2022-10-21T21:15:51Z</time>
      </trkpt>
      <trkpt lat="9.8400360" lon="-83.9706330">
        <ele>1389.0</ele>
        <time>2022-10-21T21:15:52Z</time>
      </trkpt>
      <trkpt lat="9.8400740" lon="-83.9706920">
        <ele>1388.9</ele>
        <time>2022-10-21T21:15:53Z</time>
      </trkpt>
      <trkpt lat="9.8401120" lon="-83.9707500">
        <ele>1388.9</ele>
        <time>2022-10-21T21:15:54Z</time>
      </trkpt>
      <trkpt lat="9.8401480" lon="-83.9708080">
        <ele>1388.9</ele>
        <time>2022-10-21T21:15:55Z</time>
      </trkpt>
      <trkpt lat="9.8401840" lon="-83.9708650">
        <ele>1388.8</ele>
        <time>2022-10-21T21:15:56Z</time>
      </trkpt>
      <trkpt lat="9.8402180" lon="-83.9709230">
        <ele>1388.8</ele>
        <time>2022-10-21T21:15:57Z</time>
      </trkpt>
      <trkpt lat="9.8402520" lon="-83.9709810">
        <ele>1388.7</ele>
        <time>2022-10-21T21:15:58Z</time>
      </trkpt>
      <trkpt lat="9.8402840" lon="-83.9710380">
        <ele>1388.7</ele>
        <time>2022-10-21T21:15:59Z</time>
      </trkpt>
      <trkpt lat="9.8403160" lon="-83.9710960">
        <ele>1388.7</ele>
        <time>2022-10-21T21:16:00Z</time>
      </trkpt>
      <trkpt lat="9.8403460" lon="-83.9711540">
        <ele>1388.6</ele>
        <time>2022-10-21T21:16:01Z</time>
      </trkpt>
      <trkpt lat="9.8403750" lon="-83.9712130">
        <ele>1388.6</ele>
        <time>2022-10-21T21:16:02Z</time>
      </trkpt>
      <trkpt lat="9.8404030" lon="-83.9712710">
        <ele>1388.5</ele>
        <time>2022-10-21T21:16:03Z</time>
      </trkpt>
      <trkpt lat="9.8404290" lon="-83.9713300">
        <ele>1388.5</ele>
        <time>2022-10-21T21:16:04Z</time>
      </trkpt>
      <trkpt lat="9.8404540" lon="-83.9713900">
        <ele>1388.5</ele>
        <time>2022-10-21T21:16:05Z</time>
      </trkpt>
      <trkpt lat="9.8404770" lon="-83.9714490">
        <ele>1388.5</ele>
        <time>2022-10-21T21:16:06Z</time>
      </trkpt>
      <trkpt lat="9.8404990" lon="-83.9715080">
        <ele>1388.5</ele>
        <time>2022-10-21T21:16:07Z</time>
      </trkpt>
      <trkpt lat="9.8405190" lon="-83.9715670">
        <ele>1388.6</ele>
        <time>2022-10-21T21:16:08Z</time>
      </trkpt>
      <trkpt lat="9.8405370" lon="-83.9716250">
        <ele>1388.7</ele>
        <time>2022-10-21T21:16:09Z</time>
      </trkpt>
      <trkpt lat="9.8405530" lon="-83.9716830">
        <ele>1388.7</ele>
        <time>2022-10-21T21:16:10Z</time>
      </trkpt>
      <trkpt lat="9.8405680" lon="-83.9717400">
        <ele>1388.8</ele>
        <time>2022-10-21T21:16:11Z</time>
      </trkpt>
      <trkpt lat="9.8405830" lon="-83.9717960">
        <ele>1388.8</ele>
        <time>2022-10-21T21:16:12Z</time>
      </trkpt>
      <trkpt lat="9.8405970" lon="-83.9718520">
        <ele>1388.9</ele>
        <time>2022-10-21T21:16:13Z</time>
      </trkpt>
      <trkpt lat="9.8406100" lon="-83.9719070">
        <ele>1388.9</ele>
        <time>2022-10-21T21:16:14Z</time>
      </trkpt>
      <trkpt lat="9.8406240" lon="-83.9719620">
        <ele>1389.0</ele>
        <time>2022-10-21T21:16:15Z</time>
      </trkpt>
      <trkpt lat="9.8406370" lon="-83.9720160">
        <ele>1389.0</ele>
        <time>2022-10-21T21:16:16Z</time>
      </trkpt>
      <trkpt lat="9.8406500" lon="-83.9720700">
        <ele>1389.1</ele>
        <time>2022-10-21T21:16:17Z</time>
      </trkpt>
      <trkpt lat="9.8406630" lon="-83.9721240">
        <ele>1389.1</ele>
        <time>2022-10-21T21:16:18Z</time>
      </trkpt>
      <trkpt lat="9.8406770" lon="-83.9721770">
        <ele>1389.1</ele>
        <time>2022-10-21T21:16:19Z</time>
      </trkpt>
      <trkpt lat="9.8406920" lon="-83.9722300">
        <ele>1389.2</ele>
        <time>2022-10-21T21:16:20Z</time>
      </trkpt>
      <trkpt lat="9.8407080" lon="-83.9722830">
        <ele>1389.2</ele>
        <time>2022-10-21T21:16:21Z</time>
      </trkpt>
      <trkpt lat="9.8407240" lon="-83.9723360">
        <ele>1389.2</ele>
        <time>2022-10-21T21:16:22Z</time>
      </trkpt>
      <trkpt lat="9.8407400" lon="-83.9723880">
        <ele>1389.2</ele>
        <time>2022-10-21T21:16:23Z</time>
      </trkpt>
      <trkpt lat="9.8407560" lon="-83.9724400">
        <ele>1389.3</ele>
        <time>2022-10-21T21:16:24Z</time>
      </trkpt>
      <trkpt lat="9.8407720" lon="-83.9724920">
        <ele>1389.3</ele>
        <time>2022-10-21T21:16:25Z</time>
      </trkpt>
      <trkpt lat="9.8407870" lon="-83.9725440">
        <ele>1389.3</ele>
        <time>2022-10-21T21:16:26Z</time>
      </trkpt>
      <trkpt lat="9.8408020" lon="-83.9725960">
        <ele>1389.3</ele>
        <time>2022-10-21T21:16:27Z</time>
      </trkpt>
      <trkpt lat="9.8408170" lon="-83.9726480">
        <ele>1389.4</ele>
        <time>2022-10-21T21:16:28Z</time>
      </trkpt>
      <trkpt lat="9.8408320" lon="-83.9727000">
        <ele>1389.4</ele>
        <time>2022-10-21T21:16:29Z</time>
      </trkpt>
      <trkpt lat="9.8408460" lon="-83.9727510">
        <ele>1389.4</ele>
        <time>2022-10-21T21:16:30Z</time>
      </trkpt>
      <trkpt lat="9.8408590" lon="-83.9728020">
        <ele>1389.5</ele>
        <time>2022-10-21T21:16:31Z</time>
      </trkpt>
      <trkpt lat="9.8408710" lon="-83.9728520">
        <ele>1389.5</ele>
        <time>2022-10-21T21:16:32Z</time>
      </trkpt>
      <trkpt lat="9.8408840" lon="-83.9729030">
        <ele>1389.6</ele>
        <time>2022-10-21T21:16:33Z</time>
      </trkpt>
      <trkpt lat="9.8408960" lon="-83.9729540">
        <ele>1389.6</ele>
        <time>2022-10-21T21:16:34Z</time>
      </trkpt>
      <trkpt lat="9.8409080" lon="-83.9730060">
        <ele>1389.7</ele>
        <time>2022-10-21T21:16:35Z</time>
      </trkpt>
      <trkpt lat="9.8409200" lon="-83.9730580">
        <ele>1389.7</ele>
        <time>2022-10-21T21:16:36Z</time>
      </trkpt>
      <trkpt lat="9.8409310" lon="-83.9731090">
        <ele>1389.8</ele>
        <time>2022-10-21T21:16:37Z</time>
      </trkpt>
      <trkpt lat="9.8409430" lon="-83.9731610">
        <ele>1389.8</ele>
        <time>2022-10-21T21:16:38Z</time>
      </trkpt>
      <trkpt lat="9.8409540" lon="-83.9732130">
        <ele>1389.8</ele>
        <time>2022-10-21T21:16:39Z</time>
      </trkpt>
      <trkpt lat="9.8409660" lon="-83.9732650">
        <ele>1389.8</ele>
        <time>2022-10-21T21:16:40Z</time>
      </trkpt>
      <trkpt lat="9.8409780" lon="-83.9733180">
        <ele>1389.8</ele>
        <time>2022-10-21T21:16:41Z</time>
      </trkpt>
      <trkpt lat="9.8409890" lon="-83.9733710">
        <ele>1389.9</ele>
        <time>2022-10-21T21:16:42Z</time>
      </trkpt>
      <trkpt lat="9.8410010" lon="-83.9734250">
        <ele>1389.9</ele>
        <time>2022-10-21T21:16:43Z</time>
      </trkpt>
      <trkpt lat="9.8410120" lon="-83.9734790">
        <ele>1389.9</ele>
        <time>2022-10-21T21:16:44Z</time>
      </trkpt>
      <trkpt lat="9.8410230" lon="-83.9735340">
        <ele>1389.9</ele>
        <time>2022-10-21T21:16:45Z</time>
      </trkpt>
      <trkpt lat="9.8410320" lon="-83.9735880">
        <ele>1390.0</ele>
        <time>2022-10-21T21:16:46Z</time>
      </trkpt>
      <trkpt lat="9.8410400" lon="-83.9736430">
        <ele>1390.0</ele>
        <time>2022-10-21T21:16:47Z</time>
      </trkpt>
      <trkpt lat="9.8410480" lon="-83.9736970">
        <ele>1390.1</ele>
        <time>2022-10-21T21:16:48Z</time>
      </trkpt>
      <trkpt lat="9.8410550" lon="-83.9737520">
        <ele>1390.1</ele>
        <time>2022-10-21T21:16:49Z</time>
      </trkpt>
      <trkpt lat="9.8410610" lon="-83.9738070">
        <ele>1390.2</ele>
        <time>2022-10-21T21:16:50Z</time>
      </trkpt>
      <trkpt lat="9.8410670" lon="-83.9738610">
        <ele>1390.3</ele>
        <time>2022-10-21T21:16:51Z</time>
      </trkpt>
      <trkpt lat="9.8410710" lon="-83.9739150">
        <ele>1390.4</ele>
        <time>2022-10-21T21:16:52Z</time>
      </trkpt>
      <trkpt lat="9.8410760" lon="-83.9739690">
        <ele>1390.4</ele>
        <time>2022-10-21T21:16:53Z</time>
      </trkpt>
      <trkpt lat="9.8410810" lon="-83.9740230">
        <ele>1390.5</ele>
        <time>2022-10-21T21:16:54Z</time>
      </trkpt>
      <trkpt lat="9.8410860" lon="-83.9740760">
        <ele>1390.6</ele>
        <time>2022-10-21T21:16:55Z</time>
      </trkpt>
      <trkpt lat="9.8410900" lon="-83.9741300">
        <ele>1390.6</ele>
        <time>2022-10-21T21:16:56Z</time>
      </trkpt>
      <trkpt lat="9.8410950" lon="-83.9741830">
        <ele>1390.7</ele>
        <time>2022-10-21T21:16:57Z</time>
      </trkpt>
      <trkpt lat="9.8411010" lon="-83.9742370">
        <ele>1390.7</ele>
        <time>2022-10-21T21:16:58Z</time>
      </trkpt>
      <trkpt lat="9.8411060" lon="-83.9742920">
        <ele>1390.8</ele>
        <time>2022-10-21T21:16:59Z</time>
      </trkpt>
      <trkpt lat="9.8411110" lon="-83.9743460">
        <ele>1390.9</ele>
        <time>2022-10-21T21:17:00Z</time>
      </trkpt>
      <trkpt lat="9.8411150" lon="-83.9744010">
        <ele>1390.9</ele>
        <time>2022-10-21T21:17:01Z</time>
      </trkpt>
      <trkpt lat="9.8411200" lon="-83.9744570">
        <ele>1390.9</ele>
        <time>2022-10-21T21:17:02Z</time>
      </trkpt>
      <trkpt lat="9.8411230" lon="-83.9745130">
        <ele>1390.9</ele>
        <time>2022-10-21T21:17:03Z</time>
      </trkpt>
      <trkpt lat="9.8411250" lon="-83.9745690">
        <ele>1390.9</ele>
        <time>2022-10-21T21:17:04Z</time>
      </trkpt>
      <trkpt lat="9.8411250" lon="-83.9746260">
        <ele>1390.9</ele>
        <time>2022-10-21T21:17:05Z</time>
      </trkpt>
      <trkpt lat="9.8411230" lon="-83.9746840">
        <ele>1390.9</ele>
        <time>2022-10-21T21:17:06Z</time>
      </trkpt>
      <trkpt lat="9.8411210" lon="-83.9747410">
        <ele>1390.9</ele>
        <time>2022-10-21T21:17:07Z</time>
      </trkpt>
      <trkpt lat="9.8411180" lon="-83.9747980">
        <ele>1391.0</ele>
        <time>2022-10-21T21:17:08Z</time>
      </trkpt>
      <trkpt lat="9.8411140" lon="-83.9748560">
        <ele>1391.0</ele>
        <time>2022-10-21T21:17:09Z</time>
      </trkpt>
      <trkpt lat="9.8411090" lon="-83.9749150">
        <ele>1391.0</ele>
        <time>2022-10-21T21:17:10Z</time>
      </trkpt>
      <trkpt lat="9.8411030" lon="-83.9749730">
        <ele>1391.1</ele>
        <time>2022-10-21T21:17:11Z</time>
      </trkpt>
      <trkpt lat="9.8410970" lon="-83.9750320">
        <ele>1391.1</ele>
        <time>2022-10-21T21:17:12Z</time>
      </trkpt>
      <trkpt lat="9.8410910" lon="-83.9750900">
        <ele>1391.1</ele>
        <time>2022-10-21T21:17:13Z</time>
      </trkpt>
      <trkpt lat="9.8410840" lon="-83.9751490">
        <ele>1391.1</ele>
        <time>2022-10-21T21:17:14Z</time>
      </trkpt>
      <trkpt lat="9.8410780" lon="-83.9752080">
        <ele>1391.1</ele>
        <time>2022-10-21T21:17:15Z</time>
      </trkpt>
      <trkpt lat="9.8410720" lon="-83.9752680">
        <ele>1391.2</ele>
        <time>2022-10-21T21:17:16Z</time>
      </trkpt>
      <trkpt lat="9.8410650" lon="-83.9753280">
        <ele>1391.2</ele>
        <time>2022-10-21T21:17:17Z</time>
      </trkpt>
      <trkpt lat="9.8410570" lon="-83.9753890">
        <ele>1391.3</ele>
        <time>2022-10-21T21:17:18Z</time>
      </trkpt>
      <trkpt lat="9.8410500" lon="-83.9754490">
        <ele>1391.4</ele>
        <time>2022-10-21T21:17:19Z</time>
      </trkpt>
      <trkpt lat="9.8410420" lon="-83.9755100">
        <ele>1391.4</ele>
        <time>2022-10-21T21:17:20Z</time>
      </trkpt>
      <trkpt lat="9.8410350" lon="-83.9755700">
        <ele>1391.5</ele>
        <time>2022-10-21T21:17:21Z</time>
      </trkpt>
      <trkpt lat="9.8410280" lon="-83.9756290">
        <ele>1391.6</ele>
        <time>2022-10-21T21:17:22Z</time>
      </trkpt>
      <trkpt lat="9.8410210" lon="-83.9756890">
        <ele>1391.8</ele>
        <time>2022-10-21T21:17:23Z</time>
      </trkpt>
      <trkpt lat="9.8410150" lon="-83.9757470">
        <ele>1391.9</ele>
        <time>2022-10-21T21:17:24Z</time>
      </trkpt>
      <trkpt lat="9.8410090" lon="-83.9758060">
        <ele>1391.9</ele>
        <time>2022-10-21T21:17:25Z</time>
      </trkpt>
      <trkpt lat="9.8410030" lon="-83.9758640">
        <ele>1392.0</ele>
        <time>2022-10-21T21:17:26Z</time>
      </trkpt>
      <trkpt lat="9.8409980" lon="-83.9759210">
        <ele>1392.0</ele>
        <time>2022-10-21T21:17:27Z</time>
      </trkpt>
      <trkpt lat="9.8409940" lon="-83.9759780">
        <ele>1392.0</ele>
        <time>2022-10-21T21:17:28Z</time>
      </trkpt>
      <trkpt lat="9.8409890" lon="-83.9760360">
        <ele>1392.0</ele>
        <time>2022-10-21T21:17:29Z</time>
      </trkpt>
      <trkpt lat="9.8409850" lon="-83.9760930">
        <ele>1392.1</ele>
        <time>2022-10-21T21:17:30Z</time>
      </trkpt>
      <trkpt lat="9.8409800" lon="-83.9761500">
        <ele>1392.1</ele>
        <time>2022-10-21T21:17:31Z</time>
      </trkpt>
      <trkpt lat="9.8409760" lon="-83.9762080">
        <ele>1392.1</ele>
        <time>2022-10-21T21:17:32Z</time>
      </trkpt>
      <trkpt lat="9.8409710" lon="-83.9762660">
        <ele>1392.2</ele>
        <time>2022-10-21T21:17:33Z</time>
      </trkpt>
      <trkpt lat="9.8409650" lon="-83.9763240">
        <ele>1392.3</ele>
        <time>2022-10-21T21:17:34Z</time>
      </trkpt>
      <trkpt lat="9.8409600" lon="-83.9763820">
        <ele>1392.4</ele>
        <time>2022-10-21T21:17:35Z</time>
      </trkpt>
      <trkpt lat="9.8409540" lon="-83.9764390">
        <ele>1392.5</ele>
        <time>2022-10-21T21:17:36Z</time>
      </trkpt>
      <trkpt lat="9.8409480" lon="-83.9764950">
        <ele>1392.6</ele>
        <time>2022-10-21T21:17:37Z</time>
      </trkpt>
      <trkpt lat="9.8409420" lon="-83.9765500">
        <ele>1392.8</ele>
        <time>2022-10-21T21:17:38Z</time>
      </trkpt>
      <trkpt lat="9.8409360" lon="-83.9766030">
        <ele>1392.9</ele>
        <time>2022-10-21T21:17:39Z</time>
      </trkpt>
      <trkpt lat="9.8409290" lon="-83.9766540">
        <ele>1393.1</ele>
        <time>2022-10-21T21:17:40Z</time>
      </trkpt>
      <trkpt lat="9.8409200" lon="-83.9767010">
        <ele>1393.3</ele>
        <time>2022-10-21T21:17:41Z</time>
      </trkpt>
      <trkpt lat="9.8409100" lon="-83.9767460">
        <ele>1393.6</ele>
        <time>2022-10-21T21:17:42Z</time>
      </trkpt>
      <trkpt lat="9.8408960" lon="-83.9767880">
        <ele>1393.8</ele>
        <time>2022-10-21T21:17:43Z</time>
      </trkpt>
      <trkpt lat="9.8408790" lon="-83.9768280">
        <ele>1394.0</ele>
        <time>2022-10-21T21:17:44Z</time>
      </trkpt>
      <trkpt lat="9.8408590" lon="-83.9768660">
        <ele>1394.1</ele>
        <time>2022-10-21T21:17:45Z</time>
      </trkpt>
      <trkpt lat="9.8408350" lon="-83.9769010">
        <ele>1394.3</ele>
        <time>2022-10-21T21:17:46Z</time>
      </trkpt>
      <trkpt lat="9.8408080" lon="-83.9769350">
        <ele>1394.4</ele>
        <time>2022-10-21T21:17:47Z</time>
      </trkpt>
      <trkpt lat="9.8407770" lon="-83.9769670">
        <ele>1394.3</ele>
        <time>2022-10-21T21:17:48Z</time>
      </trkpt>
      <trkpt lat="9.8407420" lon="-83.9769970">
        <ele>1394.3</ele>
        <time>2022-10-21T21:17:49Z</time>
      </trkpt>
      <trkpt lat="9.8407030" lon="-83.9770270">
        <ele>1394.3</ele>
        <time>2022-10-21T21:17:50Z</time>
      </trkpt>
      <trkpt lat="9.8406620" lon="-83.9770560">
        <ele>1394.3</ele>
        <time>2022-10-21T21:17:51Z</time>
      </trkpt>
      <trkpt lat="9.8406200" lon="-83.9770850">
        <ele>1394.2</ele>
        <time>2022-10-21T21:17:52Z</time>
      </trkpt>
      <trkpt lat="9.8405760" lon="-83.9771140">
        <ele>1394.2</ele>
        <time>2022-10-21T21:17:53Z</time>
      </trkpt>
      <trkpt lat="9.8405320" lon="-83.9771430">
        <ele>1394.2</ele>
        <time>2022-10-21T21:17:54Z</time>
      </trkpt>
      <trkpt lat="9.8404880" lon="-83.9771730">
        <ele>1394.2</ele>
        <time>2022-10-21T21:17:55Z</time>
      </trkpt>
      <trkpt lat="9.8404440" lon="-83.9772030">
        <ele>1394.2</ele>
        <time>2022-10-21T21:17:56Z</time>
      </trkpt>
      <trkpt lat="9.8404000" lon="-83.9772340">
        <ele>1394.2</ele>
        <time>2022-10-21T21:17:57Z</time>
      </trkpt>
      <trkpt lat="9.8403560" lon="-83.9772660">
        <ele>1394.2</ele>
        <time>2022-10-21T21:17:58Z</time>
      </trkpt>
      <trkpt lat="9.8403130" lon="-83.9772980">
        <ele>1394.2</ele>
        <time>2022-10-21T21:17:59Z</time>
      </trkpt>
      <trkpt lat="9.8402700" lon="-83.9773310">
        <ele>1394.2</ele>
        <time>2022-10-21T21:18:00Z</time>
      </trkpt>
      <trkpt lat="9.8402280" lon="-83.9773660">
        <ele>1394.2</ele>
        <time>2022-10-21T21:18:01Z</time>
      </trkpt>
      <trkpt lat="9.8401860" lon="-83.9774020">
        <ele>1394.2</ele>
        <time>2022-10-21T21:18:02Z</time>
      </trkpt>
      <trkpt lat="9.8401450" lon="-83.9774390">
        <ele>1394.1</ele>
        <time>2022-10-21T21:18:03Z</time>
      </trkpt>
      <trkpt lat="9.8401030" lon="-83.9774780">
        <ele>1394.1</ele>
        <time>2022-10-21T21:18:04Z</time>
      </trkpt>
      <trkpt lat="9.8400620" lon="-83.9775180">
        <ele>1394.1</ele>
        <time>2022-10-21T21:18:05Z</time>
      </trkpt>
      <trkpt lat="9.8400210" lon="-83.9775590">
        <ele>1394.2</ele>
        <time>2022-10-21T21:18:06Z</time>
      </trkpt>
      <trkpt lat="9.8399800" lon="-83.9776010">
        <ele>1394.2</ele>
        <time>2022-10-21T21:18:07Z</time>
      </trkpt>
      <trkpt lat="9.8399390" lon="-83.9776430">
        <ele>1394.2</ele>
        <time>2022-10-21T21:18:08Z</time>
      </trkpt>
      <trkpt lat="9.8398970" lon="-83.9776850">
        <ele>1394.3</ele>
        <time>2022-10-21T21:18:09Z</time>
      </trkpt>
      <trkpt lat="9.8398550" lon="-83.9777280">
        <ele>1394.4</ele>
        <time>2022-10-21T21:18:10Z</time>
      </trkpt>
      <trkpt lat="9.8398130" lon="-83.9777710">
        <ele>1394.4</ele>
        <time>2022-10-21T21:18:11Z</time>
      </trkpt>
      <trkpt lat="9.8397710" lon="-83.9778150">
        <ele>1394.5</ele>
        <time>2022-10-21T21:18:12Z</time>
      </trkpt>
      <trkpt lat="9.8397290" lon="-83.9778590">
        <ele>1394.5</ele>
        <time>2022-10-21T21:18:13Z</time>
      </trkpt>
      <trkpt lat="9.8396870" lon="-83.9779020">
        <ele>1394.6</ele>
        <time>2022-10-21T21:18:14Z</time>
      </trkpt>
      <trkpt lat="9.8396450" lon="-83.9779450">
        <ele>1394.6</ele>
        <time>2022-10-21T21:18:15Z</time>
      </trkpt>
      <trkpt lat="9.8396030" lon="-83.9779880">
        <ele>1394.7</ele>
        <time>2022-10-21T21:18:16Z</time>
      </trkpt>
      <trkpt lat="9.8395610" lon="-83.9780300">
        <ele>1394.7</ele>
        <time>2022-10-21T21:18:17Z</time>
      </trkpt>
      <trkpt lat="9.8395190" lon="-83.9780710">
        <ele>1394.7</ele>
        <time>2022-10-21T21:18:18Z</time>
      </trkpt>
      <trkpt lat="9.8394780" lon="-83.9781140">
        <ele>1394.7</ele>
        <time>2022-10-21T21:18:19Z</time>
      </trkpt>
      <trkpt lat="9.8394380" lon="-83.9781580">
        <ele>1394.6</ele>
        <time>2022-10-21T21:18:20Z</time>
      </trkpt>
      <trkpt lat="9.8394000" lon="-83.9782020">
        <ele>1394.6</ele>
        <time>2022-10-21T21:18:21Z</time>
      </trkpt>
      <trkpt lat="9.8393620" lon="-83.9782460">
        <ele>1394.5</ele>
        <time>2022-10-21T21:18:22Z</time>
      </trkpt>
      <trkpt lat="9.8393260" lon="-83.9782910">
        <ele>1394.5</ele>
        <time>2022-10-21T21:18:23Z</time>
      </trkpt>
      <trkpt lat="9.8392900" lon="-83.9783360">
        <ele>1394.5</ele>
        <time>2022-10-21T21:18:24Z</time>
      </trkpt>
      <trkpt lat="9.8392560" lon="-83.9783820">
        <ele>1394.6</ele>
        <time>2022-10-21T21:18:25Z</time>
      </trkpt>
      <trkpt lat="9.8392240" lon="-83.9784270">
        <ele>1394.7</ele>
        <time>2022-10-21T21:18:26Z</time>
      </trkpt>
      <trkpt lat="9.8391930" lon="-83.9784730">
        <ele>1394.8</ele>
        <time>2022-10-21T21:18:27Z</time>
      </trkpt>
      <trkpt lat="9.8391650" lon="-83.9785180">
        <ele>1394.8</ele>
        <time>2022-10-21T21:18:28Z</time>
      </trkpt>
      <trkpt lat="9.8391380" lon="-83.9785630">
        <ele>1394.9</ele>
        <time>2022-10-21T21:18:29Z</time>
      </trkpt>
      <trkpt lat="9.8391140" lon="-83.9786080">
        <ele>1395.0</ele>
        <time>2022-10-21T21:18:30Z</time>
      </trkpt>
      <trkpt lat="9.8390900" lon="-83.9786500">
        <ele>1395.1</ele>
        <time>2022-10-21T21:18:31Z</time>
      </trkpt>
      <trkpt lat="9.8390680" lon="-83.9786910">
        <ele>1395.3</ele>
        <time>2022-10-21T21:18:32Z</time>
      </trkpt>
      <trkpt lat="9.8390470" lon="-83.9787310">
        <ele>1395.5</ele>
        <time>2022-10-21T21:18:33Z</time>
      </trkpt>
      <trkpt lat="9.8390270" lon="-83.9787690">
        <ele>1395.6</ele>
        <time>2022-10-21T21:18:34Z</time>
      </trkpt>
      <trkpt lat="9.8390070" lon="-83.9788070">
        <ele>1395.8</ele>
        <time>2022-10-21T21:18:35Z</time>
      </trkpt>
      <trkpt lat="9.8389890" lon="-83.9788450">
        <ele>1396.0</ele>
        <time>2022-10-21T21:18:36Z</time>
      </trkpt>
      <trkpt lat="9.8389700" lon="-83.9788810">
        <ele>1396.2</ele>
        <time>2022-10-21T21:18:37Z</time>
      </trkpt>
      <trkpt lat="9.8389510" lon="-83.9789180">
        <ele>1396.4</ele>
        <time>2022-10-21T21:18:38Z</time>
      </trkpt>
      <trkpt lat="9.8389320" lon="-83.9789550">
        <ele>1396.5</ele>
        <time>2022-10-21T21:18:39Z</time>
      </trkpt>
      <trkpt lat="9.8389120" lon="-83.9789930">
        <ele>1396.5</ele>
        <time>2022-10-21T21:18:40Z</time>
      </trkpt>
      <trkpt lat="9.8388920" lon="-83.9790340">
        <ele>1396.5</ele>
        <time>2022-10-21T21:18:41Z</time>
      </trkpt>
      <trkpt lat="9.8388720" lon="-83.9790770">
        <ele>1396.5</ele>
        <time>2022-10-21T21:18:42Z</time>
      </trkpt>
      <trkpt lat="9.8388520" lon="-83.9791220">
        <ele>1396.5</ele>
        <time>2022-10-21T21:18:43Z</time>
      </trkpt>
      <trkpt lat="9.8388320" lon="-83.9791710">
        <ele>1396.6</ele>
        <time>2022-10-21T21:18:44Z</time>
      </trkpt>
      <trkpt lat="9.8388130" lon="-83.9792200">
        <ele>1396.6</ele>
        <time>2022-10-21T21:18:45Z</time>
      </trkpt>
      <trkpt lat="9.8387940" lon="-83.9792720">
        <ele>1396.6</ele>
        <time>2022-10-21T21:18:46Z</time>
      </trkpt>
      <trkpt lat="9.8387750" lon="-83.9793250">
        <ele>1396.6</ele>
        <time>2022-10-21T21:18:47Z</time>
      </trkpt>
      <trkpt lat="9.8387590" lon="-83.9793800">
        <ele>1396.6</ele>
        <time>2022-10-21T21:18:48Z</time>
      </trkpt>
      <trkpt lat="9.8387440" lon="-83.9794370">
        <ele>1396.7</ele>
        <time>2022-10-21T21:18:49Z</time>
      </trkpt>
      <trkpt lat="9.8387300" lon="-83.9794950">
        <ele>1396.7</ele>
        <time>2022-10-21T21:18:50Z</time>
      </trkpt>
      <trkpt lat="9.8387180" lon="-83.9795540">
        <ele>1396.7</ele>
        <time>2022-10-21T21:18:51Z</time>
      </trkpt>
      <trkpt lat="9.8387070" lon="-83.9796120">
        <ele>1396.7</ele>
        <time>2022-10-21T21:18:52Z</time>
      </trkpt>
      <trkpt lat="9.8386980" lon="-83.9796700">
        <ele>1396.8</ele>
        <time>2022-10-21T21:18:53Z</time>
      </trkpt>
      <trkpt lat="9.8386890" lon="-83.9797270">
        <ele>1396.8</ele>
        <time>2022-10-21T21:18:54Z</time>
      </trkpt>
      <trkpt lat="9.8386810" lon="-83.9797850">
        <ele>1396.9</ele>
        <time>2022-10-21T21:18:55Z</time>
      </trkpt>
      <trkpt lat="9.8386750" lon="-83.9798420">
        <ele>1396.9</ele>
        <time>2022-10-21T21:18:56Z</time>
      </trkpt>
      <trkpt lat="9.8386720" lon="-83.9799000">
        <ele>1397.0</ele>
        <time>2022-10-21T21:18:57Z</time>
      </trkpt>
      <trkpt lat="9.8386700" lon="-83.9799570">
        <ele>1397.1</ele>
        <time>2022-10-21T21:18:58Z</time>
      </trkpt>
      <trkpt lat="9.8386700" lon="-83.9800130">
        <ele>1397.2</ele>
        <time>2022-10-21T21:18:59Z</time>
      </trkpt>
      <trkpt lat="9.8386730" lon="-83.9800690">
        <ele>1397.3</ele>
        <time>2022-10-21T21:19:00Z</time>
      </trkpt>
      <trkpt lat="9.8386770" lon="-83.9801240">
        <ele>1397.4</ele>
        <time>2022-10-21T21:19:01Z</time>
      </trkpt>
      <trkpt lat="9.8386850" lon="-83.9801780">
        <ele>1397.6</ele>
        <time>2022-10-21T21:19:02Z</time>
      </trkpt>
      <trkpt lat="9.8386950" lon="-83.9802310">
        <ele>1397.6</ele>
        <time>2022-10-21T21:19:03Z</time>
      </trkpt>
      <trkpt lat="9.8387070" lon="-83.9802840">
        <ele>1397.7</ele>
        <time>2022-10-21T21:19:04Z</time>
      </trkpt>
      <trkpt lat="9.8387220" lon="-83.9803370">
        <ele>1397.8</ele>
        <time>2022-10-21T21:19:05Z</time>
      </trkpt>
      <trkpt lat="9.8387380" lon="-83.9803890">
        <ele>1397.8</ele>
        <time>2022-10-21T21:19:06Z</time>
      </trkpt>
      <trkpt lat="9.8387550" lon="-83.9804410">
        <ele>1397.9</ele>
        <time>2022-10-21T21:19:07Z</time>
      </trkpt>
      <trkpt lat="9.8387730" lon="-83.9804930">
        <ele>1397.9</ele>
        <time>2022-10-21T21:19:08Z</time>
      </trkpt>
      <trkpt lat="9.8387910" lon="-83.9805440">
        <ele>1397.9</ele>
        <time>2022-10-21T21:19:09Z</time>
      </trkpt>
      <trkpt lat="9.8388090" lon="-83.9805950">
        <ele>1397.9</ele>
        <time>2022-10-21T21:19:10Z</time>
      </trkpt>
      <trkpt lat="9.8388270" lon="-83.9806460">
        <ele>1398.0</ele>
        <time>2022-10-21T21:19:11Z</time>
      </trkpt>
      <trkpt lat="9.8388440" lon="-83.9806960">
        <ele>1398.0</ele>
        <time>2022-10-21T21:19:12Z</time>
      </trkpt>
      <trkpt lat="9.8388610" lon="-83.9807450">
        <ele>1398.1</ele>
        <time>2022-10-21T21:19:13Z</time>
      </trkpt>
      <trkpt lat="9.8388780" lon="-83.9807950">
        <ele>1398.1</ele>
        <time>2022-10-21T21:19:14Z</time>
      </trkpt>
      <trkpt lat="9.8388960" lon="-83.9808450">
        <ele>1398.2</ele>
        <time>2022-10-21T21:19:15Z</time>
      </trkpt>
      <trkpt lat="9.8389130" lon="-83.9808940">
        <ele>1398.3</ele>
        <time>2022-10-21T21:19:16Z</time>
      </trkpt>
      <trkpt lat="9.8389310" lon="-83.9809450">
        <ele>1398.4</ele>
        <time>2022-10-21T21:19:17Z</time>
      </trkpt>
      <trkpt lat="9.8389480" lon="-83.9809960">
        <ele>1398.5</ele>
        <time>2022-10-21T21:19:18Z</time>
      </trkpt>
      <trkpt lat="9.8389660" lon="-83.9810470">
        <ele>1398.6</ele>
        <time>2022-10-21T21:19:19Z</time>
      </trkpt>
      <trkpt lat="9.8389830" lon="-83.9810990">
        <ele>1398.7</ele>
        <time>2022-10-21T21:19:20Z</time>
      </trkpt>
      <trkpt lat="9.8390000" lon="-83.9811510">
        <ele>1398.7</ele>
        <time>2022-10-21T21:19:21Z</time>
      </trkpt>
      <trkpt lat="9.8390170" lon="-83.9812040">
        <ele>1398.8</ele>
        <time>2022-10-21T21:19:22Z</time>
      </trkpt>
      <trkpt lat="9.8390330" lon="-83.9812580">
        <ele>1398.9</ele>
        <time>2022-10-21T21:19:23Z</time>
      </trkpt>
      <trkpt lat="9.8390490" lon="-83.9813140">
        <ele>1399.1</ele>
        <time>2022-10-21T21:19:24Z</time>
      </trkpt>
      <trkpt lat="9.8390640" lon="-83.9813700">
        <ele>1399.2</ele>
        <time>2022-10-21T21:19:25Z</time>
      </trkpt>
      <trkpt lat="9.8390780" lon="-83.9814270">
        <ele>1399.3</ele>
        <time>2022-10-21T21:19:26Z</time>
      </trkpt>
      <trkpt lat="9.8390920" lon="-83.9814840">
        <ele>1399.4</ele>
        <time>2022-10-21T21:19:27Z</time>
      </trkpt>
      <trkpt lat="9.8391050" lon="-83.9815410">
        <ele>1399.5</ele>
        <time>2022-10-21T21:19:28Z</time>
      </trkpt>
      <trkpt lat="9.8391160" lon="-83.9815980">
        <ele>1399.6</ele>
        <time>2022-10-21T21:19:29Z</time>
      </trkpt>
      <trkpt lat="9.8391280" lon="-83.9816550">
        <ele>1399.7</ele>
        <time>2022-10-21T21:19:30Z</time>
      </trkpt>
      <trkpt lat="9.8391380" lon="-83.9817120">
        <ele>1399.8</ele>
        <time>2022-10-21T21:19:31Z</time>
      </trkpt>
      <trkpt lat="9.8391480" lon="-83.9817690">
        <ele>1399.9</ele>
        <time>2022-10-21T21:19:32Z</time>
      </trkpt>
      <trkpt lat="9.8391570" lon="-83.9818240">
        <ele>1400.0</ele>
        <time>2022-10-21T21:19:33Z</time>
      </trkpt>
      <trkpt lat="9.8391650" lon="-83.9818790">
        <ele>1400.1</ele>
        <time>2022-10-21T21:19:34Z</time>
      </trkpt>
      <trkpt lat="9.8391720" lon="-83.9819330">
        <ele>1400.2</ele>
        <time>2022-10-21T21:19:35Z</time>
      </trkpt>
      <trkpt lat="9.8391780" lon="-83.9819860">
        <ele>1400.3</ele>
        <time>2022-10-21T21:19:36Z</time>
      </trkpt>
      <trkpt lat="9.8391830" lon="-83.9820380">
        <ele>1400.4</ele>
        <time>2022-10-21T21:19:37Z</time>
      </trkpt>
      <trkpt lat="9.8391870" lon="-83.9820890">
        <ele>1400.5</ele>
        <time>2022-10-21T21:19:38Z</time>
      </trkpt>
      <trkpt lat="9.8391910" lon="-83.9821400">
        <ele>1400.5</ele>
        <time>2022-10-21T21:19:39Z</time>
      </trkpt>
      <trkpt lat="9.8391940" lon="-83.9821900">
        <ele>1400.6</ele>
        <time>2022-10-21T21:19:40Z</time>
      </trkpt>
      <trkpt lat="9.8391970" lon="-83.9822390">
        <ele>1400.7</ele>
        <time>2022-10-21T21:19:41Z</time>
      </trkpt>
      <trkpt lat="9.8391990" lon="-83.9822880">
        <ele>1400.7</ele>
        <time>2022-10-21T21:19:42Z</time>
      </trkpt>
      <trkpt lat="9.8392010" lon="-83.9823370">
        <ele>1400.8</ele>
        <time>2022-10-21T21:19:43Z</time>
      </trkpt>
      <trkpt lat="9.8392020" lon="-83.9823850">
        <ele>1400.9</ele>
        <time>2022-10-21T21:19:44Z</time>
      </trkpt>
      <trkpt lat="9.8392040" lon="-83.9824340">
        <ele>1400.9</ele>
        <time>2022-10-21T21:19:45Z</time>
      </trkpt>
      <trkpt lat="9.8392060" lon="-83.9824830">
        <ele>1401.0</ele>
        <time>2022-10-21T21:19:46Z</time>
      </trkpt>
      <trkpt lat="9.8392080" lon="-83.9825320">
        <ele>1401.1</ele>
        <time>2022-10-21T21:19:47Z</time>
      </trkpt>
      <trkpt lat="9.8392100" lon="-83.9825790">
        <ele>1401.2</ele>
        <time>2022-10-21T21:19:48Z</time>
      </trkpt>
      <trkpt lat="9.8392120" lon="-83.9826260">
        <ele>1401.3</ele>
        <time>2022-10-21T21:19:49Z</time>
      </trkpt>
      <trkpt lat="9.8392140" lon="-83.9826720">
        <ele>1401.4</ele>
        <time>2022-10-21T21:19:50Z</time>
      </trkpt>
      <trkpt lat="9.8392180" lon="-83.9827170">
        <ele>1401.6</ele>
        <time>2022-10-21T21:19:51Z</time>
      </trkpt>
      <trkpt lat="9.8392210" lon="-83.9827620">
        <ele>1401.7</ele>
        <time>2022-10-21T21:19:52Z</time>
      </trkpt>
      <trkpt lat="9.8392260" lon="-83.9828060">
        <ele>1401.8</ele>
        <time>2022-10-21T21:19:53Z</time>
      </trkpt>
      <trkpt lat="9.8392300" lon="-83.9828500">
        <ele>1401.9</ele>
        <time>2022-10-21T21:19:54Z</time>
      </trkpt>
      <trkpt lat="9.8392350" lon="-83.9828940">
        <ele>1401.9</ele>
        <time>2022-10-21T21:19:55Z</time>
      </trkpt>
      <trkpt lat="9.8392400" lon="-83.9829370">
        <ele>1401.9</ele>
        <time>2022-10-21T21:19:56Z</time>
      </trkpt>
      <trkpt lat="9.8392460" lon="-83.9829810">
        <ele>1401.9</ele>
        <time>2022-10-21T21:19:57Z</time>
      </trkpt>
      <trkpt lat="9.8392510" lon="-83.9830260">
        <ele>1401.9</ele>
        <time>2022-10-21T21:19:58Z</time>
      </trkpt>
      <trkpt lat="9.8392570" lon="-83.9830720">
        <ele>1401.9</ele>
        <time>2022-10-21T21:19:59Z</time>
      </trkpt>
      <trkpt lat="9.8392630" lon="-83.9831180">
        <ele>1401.9</ele>
        <time>2022-10-21T21:20:00Z</time>
      </trkpt>
      <trkpt lat="9.8392700" lon="-83.9831650">
        <ele>1401.9</ele>
        <time>2022-10-21T21:20:01Z</time>
      </trkpt>
      <trkpt lat="9.8392770" lon="-83.9832110">
        <ele>1401.9</ele>
        <time>2022-10-21T21:20:02Z</time>
      </trkpt>
      <trkpt lat="9.8392850" lon="-83.9832570">
        <ele>1401.9</ele>
        <time>2022-10-21T21:20:03Z</time>
      </trkpt>
      <trkpt lat="9.8392970" lon="-83.9833010">
        <ele>1402.0</ele>
        <time>2022-10-21T21:20:04Z</time>
      </trkpt>
      <trkpt lat="9.8393130" lon="-83.9833400">
        <ele>1402.0</ele>
        <time>2022-10-21T21:20:05Z</time>
      </trkpt>
      <trkpt lat="9.8393350" lon="-83.9833740">
        <ele>1402.0</ele>
        <time>2022-10-21T21:20:06Z</time>
      </trkpt>
      <trkpt lat="9.8393610" lon="-83.9834030">
        <ele>1402.1</ele>
        <time>2022-10-21T21:20:07Z</time>
      </trkpt>
      <trkpt lat="9.8393930" lon="-83.9834260">
        <ele>1402.1</ele>
        <time>2022-10-21T21:20:08Z</time>
      </trkpt>
      <trkpt lat="9.8394290" lon="-83.9834430">
        <ele>1402.0</ele>
        <time>2022-10-21T21:20:09Z</time>
      </trkpt>
      <trkpt lat="9.8394710" lon="-83.9834550">
        <ele>1401.9</ele>
        <time>2022-10-21T21:20:10Z</time>
      </trkpt>
      <trkpt lat="9.8395180" lon="-83.9834620">
        <ele>1401.8</ele>
        <time>2022-10-21T21:20:11Z</time>
      </trkpt>
      <trkpt lat="9.8395700" lon="-83.9834630">
        <ele>1401.7</ele>
        <time>2022-10-21T21:20:12Z</time>
      </trkpt>
      <trkpt lat="9.8396260" lon="-83.9834610">
        <ele>1401.6</ele>
        <time>2022-10-21T21:20:13Z</time>
      </trkpt>
      <trkpt lat="9.8396860" lon="-83.9834550">
        <ele>1401.5</ele>
        <time>2022-10-21T21:20:14Z</time>
      </trkpt>
      <trkpt lat="9.8397470" lon="-83.9834480">
        <ele>1401.4</ele>
        <time>2022-10-21T21:20:15Z</time>
      </trkpt>
      <trkpt lat="9.8398100" lon="-83.9834410">
        <ele>1401.4</ele>
        <time>2022-10-21T21:20:16Z</time>
      </trkpt>
      <trkpt lat="9.8398720" lon="-83.9834360">
        <ele>1401.3</ele>
        <time>2022-10-21T21:20:17Z</time>
      </trkpt>
      <trkpt lat="9.8399350" lon="-83.9834330">
        <ele>1401.3</ele>
        <time>2022-10-21T21:20:18Z</time>
      </trkpt>
      <trkpt lat="9.8399970" lon="-83.9834310">
        <ele>1401.3</ele>
        <time>2022-10-21T21:20:19Z</time>
      </trkpt>
      <trkpt lat="9.8400600" lon="-83.9834310">
        <ele>1401.3</ele>
        <time>2022-10-21T21:20:20Z</time>
      </trkpt>
      <trkpt lat="9.8401220" lon="-83.9834310">
        <ele>1401.4</ele>
        <time>2022-10-21T21:20:21Z</time>
      </trkpt>
      <trkpt lat="9.8401850" lon="-83.9834320">
        <ele>1401.4</ele>
        <time>2022-10-21T21:20:22Z</time>
      </trkpt>
      <trkpt lat="9.8402480" lon="-83.9834340">
        <ele>1401.4</ele>
        <time>2022-10-21T21:20:23Z</time>
      </trkpt>
      <trkpt lat="9.8403120" lon="-83.9834350">
        <ele>1401.3</ele>
        <time>2022-10-21T21:20:24Z</time>
      </trkpt>
      <trkpt lat="9.8403750" lon="-83.9834370">
        <ele>1401.2</ele>
        <time>2022-10-21T21:20:25Z</time>
      </trkpt>
      <trkpt lat="9.8404390" lon="-83.9834390">
        <ele>1401.1</ele>
        <time>2022-10-21T21:20:26Z</time>
      </trkpt>
      <trkpt lat="9.8405020" lon="-83.9834400">
        <ele>1401.0</ele>
        <time>2022-10-21T21:20:27Z</time>
      </trkpt>
      <trkpt lat="9.8405660" lon="-83.9834390">
        <ele>1401.0</ele>
        <time>2022-10-21T21:20:28Z</time>
      </trkpt>
      <trkpt lat="9.8406290" lon="-83.9834360">
        <ele>1400.9</ele>
        <time>2022-10-21T21:20:29Z</time>
      </trkpt>
      <trkpt lat="9.8406920" lon="-83.9834320">
        <ele>1400.8</ele>
        <time>2022-10-21T21:20:30Z</time>
      </trkpt>
      <trkpt lat="9.8407550" lon="-83.9834290">
        <ele>1400.7</ele>
        <time>2022-10-21T21:20:31Z</time>
      </trkpt>
      <trkpt lat="9.8408160" lon="-83.9834280">
        <ele>1400.7</ele>
        <time>2022-10-21T21:20:32Z</time>
      </trkpt>
      <trkpt lat="9.8408740" lon="-83.9834310">
        <ele>1400.6</ele>
        <time>2022-10-21T21:20:33Z</time>
      </trkpt>
      <trkpt lat="9.8409260" lon="-83.9834400">
        <ele>1400.6</ele>
        <time>2022-10-21T21:20:34Z</time>
      </trkpt>
      <trkpt lat="9.8409730" lon="-83.9834550">
        <ele>1400.6</ele>
        <time>2022-10-21T21:20:35Z</time>
      </trkpt>
      <trkpt lat="9.8410140" lon="-83.9834760">
        <ele>1400.6</ele>
        <time>2022-10-21T21:20:36Z</time>
      </trkpt>
      <trkpt lat="9.8410480" lon="-83.9835030">
        <ele>1400.6</ele>
        <time>2022-10-21T21:20:37Z</time>
      </trkpt>
      <trkpt lat="9.8410780" lon="-83.9835360">
        <ele>1400.7</ele>
        <time>2022-10-21T21:20:38Z</time>
      </trkpt>
      <trkpt lat="9.8411020" lon="-83.9835740">
        <ele>1400.7</ele>
        <time>2022-10-21T21:20:39Z</time>
      </trkpt>
      <trkpt lat="9.8411210" lon="-83.9836170">
        <ele>1400.8</ele>
        <time>2022-10-21T21:20:40Z</time>
      </trkpt>
      <trkpt lat="9.8411340" lon="-83.9836650">
        <ele>1400.9</ele>
        <time>2022-10-21T21:20:41Z</time>
      </trkpt>
      <trkpt lat="9.8411420" lon="-83.9837170">
        <ele>1401.0</ele>
        <time>2022-10-21T21:20:42Z</time>
      </trkpt>
      <trkpt lat="9.8411460" lon="-83.9837710">
        <ele>1401.1</ele>
        <time>2022-10-21T21:20:43Z</time>
      </trkpt>
      <trkpt lat="9.8411480" lon="-83.9838260">
        <ele>1401.1</ele>
        <time>2022-10-21T21:20:44Z</time>
      </trkpt>
      <trkpt lat="9.8411480" lon="-83.9838800">
        <ele>1401.2</ele>
        <time>2022-10-21T21:20:45Z</time>
      </trkpt>
      <trkpt lat="9.8411500" lon="-83.9839320">
        <ele>1401.3</ele>
        <time>2022-10-21T21:20:46Z</time>
      </trkpt>
      <trkpt lat="9.8411520" lon="-83.9839820">
        <ele>1401.4</ele>
        <time>2022-10-21T21:20:47Z</time>
      </trkpt>
      <trkpt lat="9.8411540" lon="-83.9840320">
        <ele>1401.4</ele>
        <time>2022-10-21T21:20:48Z</time>
      </trkpt>
      <trkpt lat="9.8411580" lon="-83.9840810">
        <ele>1401.5</ele>
        <time>2022-10-21T21:20:49Z</time>
      </trkpt>
      <trkpt lat="9.8411610" lon="-83.9841300">
        <ele>1401.6</ele>
        <time>2022-10-21T21:20:50Z</time>
      </trkpt>
      <trkpt lat="9.8411650" lon="-83.9841780">
        <ele>1401.7</ele>
        <time>2022-10-21T21:20:51Z</time>
      </trkpt>
      <trkpt lat="9.8411700" lon="-83.9842270">
        <ele>1401.7</ele>
        <time>2022-10-21T21:20:52Z</time>
      </trkpt>
      <trkpt lat="9.8411750" lon="-83.9842750">
        <ele>1401.8</ele>
        <time>2022-10-21T21:20:53Z</time>
      </trkpt>
      <trkpt lat="9.8411810" lon="-83.9843240">
        <ele>1401.9</ele>
        <time>2022-10-21T21:20:54Z</time>
      </trkpt>
      <trkpt lat="9.8411880" lon="-83.9843730">
        <ele>1402.0</ele>
        <time>2022-10-21T21:20:55Z</time>
      </trkpt>
      <trkpt lat="9.8411950" lon="-83.9844220">
        <ele>1402.1</ele>
        <time>2022-10-21T21:20:56Z</time>
      </trkpt>
      <trkpt lat="9.8412030" lon="-83.9844710">
        <ele>1402.2</ele>
        <time>2022-10-21T21:20:57Z</time>
      </trkpt>
      <trkpt lat="9.8412100" lon="-83.9845200">
        <ele>1402.2</ele>
        <time>2022-10-21T21:20:58Z</time>
      </trkpt>
      <trkpt lat="9.8412170" lon="-83.9845690">
        <ele>1402.3</ele>
        <time>2022-10-21T21:20:59Z</time>
      </trkpt>
      <trkpt lat="9.8412240" lon="-83.9846190">
        <ele>1402.4</ele>
        <time>2022-10-21T21:21:00Z</time>
      </trkpt>
      <trkpt lat="9.8412300" lon="-83.9846680">
        <ele>1402.4</ele>
        <time>2022-10-21T21:21:01Z</time>
      </trkpt>
      <trkpt lat="9.8412360" lon="-83.9847160">
        <ele>1402.5</ele>
        <time>2022-10-21T21:21:02Z</time>
      </trkpt>
      <trkpt lat="9.8412430" lon="-83.9847650">
        <ele>1402.6</ele>
        <time>2022-10-21T21:21:03Z</time>
      </trkpt>
      <trkpt lat="9.8412490" lon="-83.9848140">
        <ele>1402.6</ele>
        <time>2022-10-21T21:21:04Z</time>
      </trkpt>
      <trkpt lat="9.8412550" lon="-83.9848620">
        <ele>1402.7</ele>
        <time>2022-10-21T21:21:05Z</time>
      </trkpt>
      <trkpt lat="9.8412600" lon="-83.9849100">
        <ele>1402.8</ele>
        <time>2022-10-21T21:21:06Z</time>
      </trkpt>
      <trkpt lat="9.8412650" lon="-83.9849580">
        <ele>1402.9</ele>
        <time>2022-10-21T21:21:07Z</time>
      </trkpt>
      <trkpt lat="9.8412680" lon="-83.9850050">
        <ele>1402.9</ele>
        <time>2022-10-21T21:21:08Z</time>
      </trkpt>
      <trkpt lat="9.8412680" lon="-83.9850500">
        <ele>1403.0</ele>
        <time>2022-10-21T21:21:09Z</time>
      </trkpt>
      <trkpt lat="9.8412630" lon="-83.9850920">
        <ele>1403.1</ele>
        <time>2022-10-21T21:21:10Z</time>
      </trkpt>
      <trkpt lat="9.8412540" lon="-83.9851310">
        <ele>1403.1</ele>
        <time>2022-10-21T21:21:11Z</time>
      </trkpt>
      <trkpt lat="9.8412400" lon="-83.9851640">
        <ele>1403.2</ele>
        <time>2022-10-21T21:21:12Z</time>
      </trkpt>
      <trkpt lat="9.8412210" lon="-83.9851930">
        <ele>1403.3</ele>
        <time>2022-10-21T21:21:13Z</time>
      </trkpt>
      <trkpt lat="9.8411970" lon="-83.9852170">
        <ele>1403.3</ele>
        <time>2022-10-21T21:21:14Z</time>
      </trkpt>
      <trkpt lat="9.8411680" lon="-83.9852360">
        <ele>1403.3</ele>
        <time>2022-10-21T21:21:15Z</time>
      </trkpt>
      <trkpt lat="9.8411340" lon="-83.9852510">
        <ele>1403.2</ele>
        <time>2022-10-21T21:21:16Z</time>
      </trkpt>
      <trkpt lat="9.8410950" lon="-83.9852620">
        <ele>1403.2</ele>
        <time>2022-10-21T21:21:17Z</time>
      </trkpt>
      <trkpt lat="9.8410530" lon="-83.9852690">
        <ele>1403.2</ele>
        <time>2022-10-21T21:21:18Z</time>
      </trkpt>
      <trkpt lat="9.8410070" lon="-83.9852710">
        <ele>1403.2</ele>
        <time>2022-10-21T21:21:19Z</time>
      </trkpt>
      <trkpt lat="9.8409600" lon="-83.9852720">
        <ele>1403.2</ele>
        <time>2022-10-21T21:21:20Z</time>
      </trkpt>
      <trkpt lat="9.8409140" lon="-83.9852740">
        <ele>1403.2</ele>
        <time>2022-10-21T21:21:21Z</time>
      </trkpt>
      <trkpt lat="9.8408710" lon="-83.9852780">
        <ele>1403.2</ele>
        <time>2022-10-21T21:21:22Z</time>
      </trkpt>
      <trkpt lat="9.8408330" lon="-83.9852870">
        <ele>1403.2</ele>
        <time>2022-10-21T21:21:23Z</time>
      </trkpt>
      <trkpt lat="9.8408010" lon="-83.9853000">
        <ele>1403.3</ele>
        <time>2022-10-21T21:21:24Z</time>
      </trkpt>
      <trkpt lat="9.8407750" lon="-83.9853180">
        <ele>1403.3</ele>
        <time>2022-10-21T21:21:25Z</time>
      </trkpt>
      <trkpt lat="9.8407550" lon="-83.9853400">
        <ele>1403.4</ele>
        <time>2022-10-21T21:21:26Z</time>
      </trkpt>
      <trkpt lat="9.8407400" lon="-83.9853650">
        <ele>1403.5</ele>
        <time>2022-10-21T21:21:27Z</time>
      </trkpt>
      <trkpt lat="9.8407310" lon="-83.9853940">
        <ele>1403.5</ele>
        <time>2022-10-21T21:21:28Z</time>
      </trkpt>
      <trkpt lat="9.8407280" lon="-83.9854270">
        <ele>1403.6</ele>
        <time>2022-10-21T21:21:29Z</time>
      </trkpt>
      <trkpt lat="9.8407300" lon="-83.9854640">
        <ele>1403.7</ele>
        <time>2022-10-21T21:21:30Z</time>
      </trkpt>
      <trkpt lat="9.8407370" lon="-83.9855050">
        <ele>1403.8</ele>
        <time>2022-10-21T21:21:31Z</time>
      </trkpt>
      <trkpt lat="9.8407480" lon="-83.9855490">
        <ele>1403.9</ele>
        <time>2022-10-21T21:21:32Z</time>
      </trkpt>
      <trkpt lat="9.8407620" lon="-83.9855930">
        <ele>1404.0</ele>
        <time>2022-10-21T21:21:33Z</time>
      </trkpt>
      <trkpt lat="9.8407770" lon="-83.9856380">
        <ele>1404.1</ele>
        <time>2022-10-21T21:21:34Z</time>
      </trkpt>
      <trkpt lat="9.8407910" lon="-83.9856820">
        <ele>1404.2</ele>
        <time>2022-10-21T21:21:35Z</time>
      </trkpt>
      <trkpt lat="9.8408040" lon="-83.9857280">
        <ele>1404.3</ele>
        <time>2022-10-21T21:21:36Z</time>
      </trkpt>
      <trkpt lat="9.8408160" lon="-83.9857740">
        <ele>1404.4</ele>
        <time>2022-10-21T21:21:37Z</time>
      </trkpt>
      <trkpt lat="9.8408270" lon="-83.9858220">
        <ele>1404.5</ele>
        <time>2022-10-21T21:21:38Z</time>
      </trkpt>
      <trkpt lat="9.8408380" lon="-83.9858700">
        <ele>1404.6</ele>
        <time>2022-10-21T21:21:39Z</time>
      </trkpt>
      <trkpt lat="9.8408480" lon="-83.9859190">
        <ele>1404.7</ele>
        <time>2022-10-21T21:21:40Z</time>
      </trkpt>
      <trkpt lat="9.8408570" lon="-83.9859690">
        <ele>1404.8</ele>
        <time>2022-10-21T21:21:41Z</time>
      </trkpt>
      <trkpt lat="9.8408650" lon="-83.9860200">
        <ele>1404.9</ele>
        <time>2022-10-21T21:21:42Z</time>
      </trkpt>
      <trkpt lat="9.8408740" lon="-83.9860710">
        <ele>1405.1</ele>
        <time>2022-10-21T21:21:43Z</time>
      </trkpt>
      <trkpt lat="9.8408810" lon="-83.9861240">
        <ele>1405.2</ele>
        <time>2022-10-21T21:21:44Z</time>
      </trkpt>
      <trkpt lat="9.8408880" lon="-83.9861780">
        <ele>1405.3</ele>
        <time>2022-10-21T21:21:45Z</time>
      </trkpt>
      <trkpt lat="9.8408950" lon="-83.9862330">
        <ele>1405.4</ele>
        <time>2022-10-21T21:21:46Z</time>
      </trkpt>
      <trkpt lat="9.8409020" lon="-83.9862890">
        <ele>1405.6</ele>
        <time>2022-10-21T21:21:47Z</time>
      </trkpt>
      <trkpt lat="9.8409080" lon="-83.9863460">
        <ele>1405.7</ele>
        <time>2022-10-21T21:21:48Z</time>
      </trkpt>
      <trkpt lat="9.8409150" lon="-83.9864040">
        <ele>1405.8</ele>
        <time>2022-10-21T21:21:49Z</time>
      </trkpt>
      <trkpt lat="9.8409220" lon="-83.9864620">
        <ele>1406.0</ele>
        <time>2022-10-21T21:21:50Z</time>
      </trkpt>
      <trkpt lat="9.8409280" lon="-83.9865200">
        <ele>1406.1</ele>
        <time>2022-10-21T21:21:51Z</time>
      </trkpt>
      <trkpt lat="9.8409350" lon="-83.9865780">
        <ele>1406.3</ele>
        <time>2022-10-21T21:21:52Z</time>
      </trkpt>
      <trkpt lat="9.8409410" lon="-83.9866370">
        <ele>1406.4</ele>
        <time>2022-10-21T21:21:53Z</time>
      </trkpt>
      <trkpt lat="9.8409470" lon="-83.9866950">
        <ele>1406.6</ele>
        <time>2022-10-21T21:21:54Z</time>
      </trkpt>
      <trkpt lat="9.8409520" lon="-83.9867530">
        <ele>1406.7</ele>
        <time>2022-10-21T21:21:55Z</time>
      </trkpt>
      <trkpt lat="9.8409570" lon="-83.9868100">
        <ele>1406.9</ele>
        <time>2022-10-21T21:21:56Z</time>
      </trkpt>
      <trkpt lat="9.8409620" lon="-83.9868670">
        <ele>1407.1</ele>
        <time>2022-10-21T21:21:57Z</time>
      </trkpt>
      <trkpt lat="9.8409660" lon="-83.9869240">
        <ele>1407.2</ele>
        <time>2022-10-21T21:21:58Z</time>
      </trkpt>
      <trkpt lat="9.8409710" lon="-83.9869800">
        <ele>1407.3</ele>
        <time>2022-10-21T21:21:59Z</time>
      </trkpt>
      <trkpt lat="9.8409750" lon="-83.9870360">
        <ele>1407.5</ele>
        <time>2022-10-21T21:22:00Z</time>
      </trkpt>
      <trkpt lat="9.8409780" lon="-83.9870920">
        <ele>1407.6</ele>
        <time>2022-10-21T21:22:01Z</time>
      </trkpt>
      <trkpt lat="9.8409810" lon="-83.9871470">
        <ele>1407.8</ele>
        <time>2022-10-21T21:22:02Z</time>
      </trkpt>
      <trkpt lat="9.8409830" lon="-83.9872020">
        <ele>1407.9</ele>
        <time>2022-10-21T21:22:03Z</time>
      </trkpt>
      <trkpt lat="9.8409860" lon="-83.9872560">
        <ele>1408.1</ele>
        <time>2022-10-21T21:22:04Z</time>
      </trkpt>
      <trkpt lat="9.8409880" lon="-83.9873100">
        <ele>1408.2</ele>
        <time>2022-10-21T21:22:05Z</time>
      </trkpt>
      <trkpt lat="9.8409910" lon="-83.9873640">
        <ele>1408.4</ele>
        <time>2022-10-21T21:22:06Z</time>
      </trkpt>
      <trkpt lat="9.8409940" lon="-83.9874170">
        <ele>1408.5</ele>
        <time>2022-10-21T21:22:07Z</time>
      </trkpt>
      <trkpt lat="9.8409960" lon="-83.9874690">
        <ele>1408.6</ele>
        <time>2022-10-21T21:22:08Z</time>
      </trkpt>
      <trkpt lat="9.8409990" lon="-83.9875210">
        <ele>1408.8</ele>
        <time>2022-10-21T21:22:09Z</time>
      </trkpt>
      <trkpt lat="9.8410030" lon="-83.9875720">
        <ele>1408.9</ele>
        <time>2022-10-21T21:22:10Z</time>
      </trkpt>
      <trkpt lat="9.8410060" lon="-83.9876220">
        <ele>1409.0</ele>
        <time>2022-10-21T21:22:11Z</time>
      </trkpt>
      <trkpt lat="9.8410110" lon="-83.9876730">
        <ele>1409.1</ele>
        <time>2022-10-21T21:22:12Z</time>
      </trkpt>
      <trkpt lat="9.8410160" lon="-83.9877230">
        <ele>1409.2</ele>
        <time>2022-10-21T21:22:13Z</time>
      </trkpt>
      <trkpt lat="9.8410210" lon="-83.9877730">
        <ele>1409.3</ele>
        <time>2022-10-21T21:22:14Z</time>
      </trkpt>
      <trkpt lat="9.8410270" lon="-83.9878230">
        <ele>1409.4</ele>
        <time>2022-10-21T21:22:15Z</time>
      </trkpt>
      <trkpt lat="9.8410320" lon="-83.9878720">
        <ele>1409.5</ele>
        <time>2022-10-21T21:22:16Z</time>
      </trkpt>
      <trkpt lat="9.8410370" lon="-83.9879220">
        <ele>1409.5</ele>
        <time>2022-10-21T21:22:17Z</time>
      </trkpt>
      <trkpt lat="9.8410420" lon="-83.9879720">
        <ele>1409.6</ele>
        <time>2022-10-21T21:22:18Z</time>
      </trkpt>
      <trkpt lat="9.8410460" lon="-83.9880210">
        <ele>1409.7</ele>
        <time>2022-10-21T21:22:19Z</time>
      </trkpt>
      <trkpt lat="9.8410510" lon="-83.9880710">
        <ele>1409.8</ele>
        <time>2022-10-21T21:22:20Z</time>
      </trkpt>
      <trkpt lat="9.8410550" lon="-83.9881220">
        <ele>1409.9</ele>
        <time>2022-10-21T21:22:21Z</time>
      </trkpt>
      <trkpt lat="9.8410580" lon="-83.9881720">
        <ele>1410.0</ele>
        <time>2022-10-21T21:22:22Z</time>
      </trkpt>
      <trkpt lat="9.8410610" lon="-83.9882230">
        <ele>1410.1</ele>
        <time>2022-10-21T21:22:23Z</time>
      </trkpt>
      <trkpt lat="9.8410630" lon="-83.9882750">
        <ele>1410.3</ele>
        <time>2022-10-21T21:22:24Z</time>
      </trkpt>
      <trkpt lat="9.8410660" lon="-83.9883270">
        <ele>1410.4</ele>
        <time>2022-10-21T21:22:25Z</time>
      </trkpt>
      <trkpt lat="9.8410690" lon="-83.9883800">
        <ele>1410.5</ele>
        <time>2022-10-21T21:22:26Z</time>
      </trkpt>
      <trkpt lat="9.8410750" lon="-83.9884340">
        <ele>1410.6</ele>
        <time>2022-10-21T21:22:27Z</time>
      </trkpt>
      <trkpt lat="9.8410830" lon="-83.9884880">
        <ele>1410.7</ele>
        <time>2022-10-21T21:22:28Z</time>
      </trkpt>
      <trkpt lat="9.8410960" lon="-83.9885400">
        <ele>1410.7</ele>
        <time>2022-10-21T21:22:29Z</time>
      </trkpt>
      <trkpt lat="9.8411140" lon="-83.9885900">
        <ele>1410.7</ele>
        <time>2022-10-21T21:22:30Z</time>
      </trkpt>
      <trkpt lat="9.8411380" lon="-83.9886350">
        <ele>1410.7</ele>
        <time>2022-10-21T21:22:31Z</time>
      </trkpt>
      <trkpt lat="9.8411650" lon="-83.9886760">
        <ele>1410.7</ele>
        <time>2022-10-21T21:22:32Z</time>
      </trkpt>
      <trkpt lat="9.8411940" lon="-83.9887120">
        <ele>1410.7</ele>
        <time>2022-10-21T21:22:33Z</time>
      </trkpt>
      <trkpt lat="9.8412260" lon="-83.9887420">
        <ele>1410.5</ele>
        <time>2022-10-21T21:22:34Z</time>
      </trkpt>
      <trkpt lat="9.8412590" lon="-83.9887680">
        <ele>1410.5</ele>
        <time>2022-10-21T21:22:35Z</time>
      </trkpt>
      <trkpt lat="9.8412960" lon="-83.9887890">
        <ele>1410.5</ele>
        <time>2022-10-21T21:22:36Z</time>
      </trkpt>
      <trkpt lat="9.8413340" lon="-83.9888050">
        <ele>1410.5</ele>
        <time>2022-10-21T21:22:37Z</time>
      </trkpt>
      <trkpt lat="9.8413740" lon="-83.9888180">
        <ele>1410.5</ele>
        <time>2022-10-21T21:22:38Z</time>
      </trkpt>
      <trkpt lat="9.8414140" lon="-83.9888270">
        <ele>1410.5</ele>
        <time>2022-10-21T21:22:39Z</time>
      </trkpt>
      <trkpt lat="9.8414540" lon="-83.9888330">
        <ele>1410.5</ele>
        <time>2022-10-21T21:22:40Z</time>
      </trkpt>
      <trkpt lat="9.8414930" lon="-83.9888390">
        <ele>1410.5</ele>
        <time>2022-10-21T21:22:41Z</time>
      </trkpt>
      <trkpt lat="9.8415300" lon="-83.9888450">
        <ele>1410.5</ele>
        <time>2022-10-21T21:22:42Z</time>
      </trkpt>
      <trkpt lat="9.8415690" lon="-83.9888520">
        <ele>1410.5</ele>
        <time>2022-10-21T21:22:43Z</time>
      </trkpt>
      <trkpt lat="9.8416110" lon="-83.9888610">
        <ele>1410.5</ele>
        <time>2022-10-21T21:22:44Z</time>
      </trkpt>
      <trkpt lat="9.8416560" lon="-83.9888700">
        <ele>1410.5</ele>
        <time>2022-10-21T21:22:45Z</time>
      </trkpt>
      <trkpt lat="9.8417040" lon="-83.9888810">
        <ele>1410.5</ele>
        <time>2022-10-21T21:22:46Z</time>
      </trkpt>
      <trkpt lat="9.8417540" lon="-83.9888910">
        <ele>1410.5</ele>
        <time>2022-10-21T21:22:47Z</time>
      </trkpt>
      <trkpt lat="9.8418070" lon="-83.9889010">
        <ele>1410.5</ele>
        <time>2022-10-21T21:22:48Z</time>
      </trkpt>
      <trkpt lat="9.8418620" lon="-83.9889110">
        <ele>1410.5</ele>
        <time>2022-10-21T21:22:49Z</time>
      </trkpt>
      <trkpt lat="9.8419180" lon="-83.9889200">
        <ele>1410.5</ele>
        <time>2022-10-21T21:22:50Z</time>
      </trkpt>
      <trkpt lat="9.8419760" lon="-83.9889290">
        <ele>1410.5</ele>
        <time>2022-10-21T21:22:51Z</time>
      </trkpt>
      <trkpt lat="9.8420360" lon="-83.9889390">
        <ele>1410.6</ele>
        <time>2022-10-21T21:22:52Z</time>
      </trkpt>
      <trkpt lat="9.8420960" lon="-83.9889490">
        <ele>1410.6</ele>
        <time>2022-10-21T21:22:53Z</time>
      </trkpt>
      <trkpt lat="9.8421570" lon="-83.9889580">
        <ele>1410.7</ele>
        <time>2022-10-21T21:22:54Z</time>
      </trkpt>
      <trkpt lat="9.8422180" lon="-83.9889670">
        <ele>1410.7</ele>
        <time>2022-10-21T21:22:55Z</time>
      </trkpt>
      <trkpt lat="9.8422780" lon="-83.9889760">
        <ele>1410.8</ele>
        <time>2022-10-21T21:22:56Z</time>
      </trkpt>
      <trkpt lat="9.8423370" lon="-83.9889840">
        <ele>1410.9</ele>
        <time>2022-10-21T21:22:57Z</time>
      </trkpt>
      <trkpt lat="9.8423950" lon="-83.9889930">
        <ele>1410.9</ele>
        <time>2022-10-21T21:22:58Z</time>
      </trkpt>
      <trkpt lat="9.8424500" lon="-83.9890020">
        <ele>1411.0</ele>
        <time>2022-10-21T21:22:59Z</time>
      </trkpt>
      <trkpt lat="9.8425010" lon="-83.9890110">
        <ele>1411.1</ele>
        <time>2022-10-21T21:23:00Z</time>
      </trkpt>
      <trkpt lat="9.8425460" lon="-83.9890230">
        <ele>1411.1</ele>
        <time>2022-10-21T21:23:01Z</time>
      </trkpt>
      <trkpt lat="9.8425820" lon="-83.9890360">
        <ele>1411.2</ele>
        <time>2022-10-21T21:23:02Z</time>
      </trkpt>
      <trkpt lat="9.8426090" lon="-83.9890520">
        <ele>1411.3</ele>
        <time>2022-10-21T21:23:03Z</time>
      </trkpt>
      <trkpt lat="9.8426270" lon="-83.9890700">
        <ele>1411.4</ele>
        <time>2022-10-21T21:23:04Z</time>
      </trkpt>
      <trkpt lat="9.8426350" lon="-83.9890900">
        <ele>1411.5</ele>
        <time>2022-10-21T21:23:05Z</time>
      </trkpt>
      <trkpt lat="9.8426370" lon="-83.9891140">
        <ele>1411.5</ele>
        <time>2022-10-21T21:23:06Z</time>
      </trkpt>
      <trkpt lat="9.8426310" lon="-83.9891400">
        <ele>1411.5</ele>
        <time>2022-10-21T21:23:07Z</time>
      </trkpt>
      <trkpt lat="9.8426180" lon="-83.9891700">
        <ele>1411.6</ele>
        <time>2022-10-21T21:23:08Z</time>
      </trkpt>
      <trkpt lat="9.8426000" lon="-83.9892050">
        <ele>1411.6</ele>
        <time>2022-10-21T21:23:09Z</time>
      </trkpt>
      <trkpt lat="9.8425770" lon="-83.9892430">
        <ele>1411.7</ele>
        <time>2022-10-21T21:23:10Z</time>
      </trkpt>
      <trkpt lat="9.8425530" lon="-83.9892840">
        <ele>1411.8</ele>
        <time>2022-10-21T21:23:11Z</time>
      </trkpt>
      <trkpt lat="9.8425320" lon="-83.9893260">
        <ele>1411.8</ele>
        <time>2022-10-21T21:23:12Z</time>
      </trkpt>
      <trkpt lat="9.8425190" lon="-83.9893670">
        <ele>1411.9</ele>
        <time>2022-10-21T21:23:13Z</time>
      </trkpt>
      <trkpt lat="9.8425150" lon="-83.9894060">
        <ele>1411.9</ele>
        <time>2022-10-21T21:23:14Z</time>
      </trkpt>
      <trkpt lat="9.8425200" lon="-83.9894430">
        <ele>1412.0</ele>
        <time>2022-10-21T21:23:15Z</time>
      </trkpt>
      <trkpt lat="9.8425340" lon="-83.9894770">
        <ele>1412.0</ele>
        <time>2022-10-21T21:23:16Z</time>
      </trkpt>
      <trkpt lat="9.8425550" lon="-83.9895080">
        <ele>1412.2</ele>
        <time>2022-10-21T21:23:17Z</time>
      </trkpt>
      <trkpt lat="9.8425850" lon="-83.9895370">
        <ele>1412.1</ele>
        <time>2022-10-21T21:23:18Z</time>
      </trkpt>
      <trkpt lat="9.8426210" lon="-83.9895630">
        <ele>1412.1</ele>
        <time>2022-10-21T21:23:19Z</time>
      </trkpt>
      <trkpt lat="9.8426650" lon="-83.9895850">
        <ele>1412.0</ele>
        <time>2022-10-21T21:23:20Z</time>
      </trkpt>
      <trkpt lat="9.8427150" lon="-83.9896030">
        <ele>1412.0</ele>
        <time>2022-10-21T21:23:21Z</time>
      </trkpt>
      <trkpt lat="9.8427710" lon="-83.9896180">
        <ele>1412.0</ele>
        <time>2022-10-21T21:23:22Z</time>
      </trkpt>
      <trkpt lat="9.8428300" lon="-83.9896290">
        <ele>1412.1</ele>
        <time>2022-10-21T21:23:23Z</time>
      </trkpt>
      <trkpt lat="9.8428900" lon="-83.9896390">
        <ele>1412.1</ele>
        <time>2022-10-21T21:23:24Z</time>
      </trkpt>
      <trkpt lat="9.8429500" lon="-83.9896480">
        <ele>1412.1</ele>
        <time>2022-10-21T21:23:25Z</time>
      </trkpt>
      <trkpt lat="9.8430100" lon="-83.9896570">
        <ele>1412.2</ele>
        <time>2022-10-21T21:23:26Z</time>
      </trkpt>
      <trkpt lat="9.8430700" lon="-83.9896640">
        <ele>1412.3</ele>
        <time>2022-10-21T21:23:27Z</time>
      </trkpt>
      <trkpt lat="9.8431290" lon="-83.9896710">
        <ele>1412.4</ele>
        <time>2022-10-21T21:23:28Z</time>
      </trkpt>
      <trkpt lat="9.8431880" lon="-83.9896760">
        <ele>1412.4</ele>
        <time>2022-10-21T21:23:29Z</time>
      </trkpt>
      <trkpt lat="9.8432450" lon="-83.9896810">
        <ele>1412.5</ele>
        <time>2022-10-21T21:23:30Z</time>
      </trkpt>
      <trkpt lat="9.8433000" lon="-83.9896880">
        <ele>1412.6</ele>
        <time>2022-10-21T21:23:31Z</time>
      </trkpt>
      <trkpt lat="9.8433520" lon="-83.9896980">
        <ele>1412.7</ele>
        <time>2022-10-21T21:23:32Z</time>
      </trkpt>
      <trkpt lat="9.8434010" lon="-83.9897110">
        <ele>1412.7</ele>
        <time>2022-10-21T21:23:33Z</time>
      </trkpt>
      <trkpt lat="9.8434460" lon="-83.9897270">
        <ele>1412.7</ele>
        <time>2022-10-21T21:23:34Z</time>
      </trkpt>
      <trkpt lat="9.8434850" lon="-83.9897450">
        <ele>1412.7</ele>
        <time>2022-10-21T21:23:35Z</time>
      </trkpt>
      <trkpt lat="9.8435190" lon="-83.9897660">
        <ele>1412.7</ele>
        <time>2022-10-21T21:23:36Z</time>
      </trkpt>
      <trkpt lat="9.8435480" lon="-83.9897890">
        <ele>1412.8</ele>
        <time>2022-10-21T21:23:37Z</time>
      </trkpt>
      <trkpt lat="9.8435730" lon="-83.9898150">
        <ele>1412.8</ele>
        <time>2022-10-21T21:23:38Z</time>
      </trkpt>
      <trkpt lat="9.8435930" lon="-83.9898450">
        <ele>1412.8</ele>
        <time>2022-10-21T21:23:39Z</time>
      </trkpt>
      <trkpt lat="9.8436100" lon="-83.9898790">
        <ele>1412.8</ele>
        <time>2022-10-21T21:23:40Z</time>
      </trkpt>
      <trkpt lat="9.8436240" lon="-83.9899150">
        <ele>1412.9</ele>
        <time>2022-10-21T21:23:41Z</time>
      </trkpt>
      <trkpt lat="9.8436370" lon="-83.9899520">
        <ele>1412.9</ele>
        <time>2022-10-21T21:23:42Z</time>
      </trkpt>
      <trkpt lat="9.8436480" lon="-83.9899890">
        <ele>1412.9</ele>
        <time>2022-10-21T21:23:43Z</time>
      </trkpt>
      <trkpt lat="9.8436590" lon="-83.9900260">
        <ele>1413.0</ele>
        <time>2022-10-21T21:23:44Z</time>
      </trkpt>
      <trkpt lat="9.8436700" lon="-83.9900650">
        <ele>1413.0</ele>
        <time>2022-10-21T21:23:45Z</time>
      </trkpt>
      <trkpt lat="9.8436830" lon="-83.9901050">
        <ele>1413.0</ele>
        <time>2022-10-21T21:23:46Z</time>
      </trkpt>
      <trkpt lat="9.8436970" lon="-83.9901470">
        <ele>1413.1</ele>
        <time>2022-10-21T21:23:47Z</time>
      </trkpt>
      <trkpt lat="9.8437140" lon="-83.9901910">
        <ele>1413.1</ele>
        <time>2022-10-21T21:23:48Z</time>
      </trkpt>
      <trkpt lat="9.8437320" lon="-83.9902380">
        <ele>1413.2</ele>
        <time>2022-10-21T21:23:49Z</time>
      </trkpt>
      <trkpt lat="9.8437510" lon="-83.9902860">
        <ele>1413.2</ele>
        <time>2022-10-21T21:23:50Z</time>
      </trkpt>
      <trkpt lat="9.8437720" lon="-83.9903350">
        <ele>1413.3</ele>
        <time>2022-10-21T21:23:51Z</time>
      </trkpt>
      <trkpt lat="9.8437950" lon="-83.9903850">
        <ele>1413.3</ele>
        <time>2022-10-21T21:23:52Z</time>
      </trkpt>
      <trkpt lat="9.8438180" lon="-83.9904360">
        <ele>1413.4</ele>
        <time>2022-10-21T21:23:53Z</time>
      </trkpt>
      <trkpt lat="9.8438420" lon="-83.9904880">
        <ele>1413.4</ele>
        <time>2022-10-21T21:23:54Z</time>
      </trkpt>
      <trkpt lat="9.8438660" lon="-83.9905400">
        <ele>1413.5</ele>
        <time>2022-10-21T21:23:55Z</time>
      </trkpt>
      <trkpt lat="9.8438910" lon="-83.9905930">
        <ele>1413.6</ele>
        <time>2022-10-21T21:23:56Z</time>
      </trkpt>
      <trkpt lat="9.8439150" lon="-83.9906450">
        <ele>1413.7</ele>
        <time>2022-10-21T21:23:57Z</time>
      </trkpt>
      <trkpt lat="9.8439390" lon="-83.9906980">
        <ele>1413.9</ele>
        <time>2022-10-21T21:23:58Z</time>
      </trkpt>
      <trkpt lat="9.8439630" lon="-83.9907510">
        <ele>1414.0</ele>
        <time>2022-10-21T21:23:59Z</time>
      </trkpt>
      <trkpt lat="9.8439850" lon="-83.9908030">
        <ele>1414.1</ele>
        <time>2022-10-21T21:24:00Z</time>
      </trkpt>
      <trkpt lat="9.8440070" lon="-83.9908550">
        <ele>1414.2</ele>
        <time>2022-10-21T21:24:01Z</time>
      </trkpt>
      <trkpt lat="9.8440270" lon="-83.9909080">
        <ele>1414.2</ele>
        <time>2022-10-21T21:24:02Z</time>
      </trkpt>
      <trkpt lat="9.8440470" lon="-83.9909600">
        <ele>1414.3</ele>
        <time>2022-10-21T21:24:03Z</time>
      </trkpt>
      <trkpt lat="9.8440670" lon="-83.9910130">
        <ele>1414.3</ele>
        <time>2022-10-21T21:24:04Z</time>
      </trkpt>
      <trkpt lat="9.8440860" lon="-83.9910650">
        <ele>1414.4</ele>
        <time>2022-10-21T21:24:05Z</time>
      </trkpt>
      <trkpt lat="9.8441050" lon="-83.9911180">
        <ele>1414.5</ele>
        <time>2022-10-21T21:24:06Z</time>
      </trkpt>
      <trkpt lat="9.8441230" lon="-83.9911710">
        <ele>1414.5</ele>
        <time>2022-10-21T21:24:07Z</time>
      </trkpt>
      <trkpt lat="9.8441420" lon="-83.9912250">
        <ele>1414.6</ele>
        <time>2022-10-21T21:24:08Z</time>
      </trkpt>
      <trkpt lat="9.8441610" lon="-83.9912790">
        <ele>1414.6</ele>
        <time>2022-10-21T21:24:09Z</time>
      </trkpt>
      <trkpt lat="9.8441820" lon="-83.9913320">
        <ele>1414.7</ele>
        <time>2022-10-21T21:24:10Z</time>
      </trkpt>
      <trkpt lat="9.8442060" lon="-83.9913820">
        <ele>1414.7</ele>
        <time>2022-10-21T21:24:11Z</time>
      </trkpt>
      <trkpt lat="9.8442330" lon="-83.9914290">
        <ele>1414.7</ele>
        <time>2022-10-21T21:24:12Z</time>
      </trkpt>
      <trkpt lat="9.8442650" lon="-83.9914720">
        <ele>1414.8</ele>
        <time>2022-10-21T21:24:13Z</time>
      </trkpt>
      <trkpt lat="9.8442990" lon="-83.9915090">
        <ele>1414.8</ele>
        <time>2022-10-21T21:24:14Z</time>
      </trkpt>
      <trkpt lat="9.8443360" lon="-83.9915410">
        <ele>1414.8</ele>
        <time>2022-10-21T21:24:15Z</time>
      </trkpt>
      <trkpt lat="9.8443760" lon="-83.9915670">
        <ele>1414.9</ele>
        <time>2022-10-21T21:24:16Z</time>
      </trkpt>
      <trkpt lat="9.8444180" lon="-83.9915880">
        <ele>1415.1</ele>
        <time>2022-10-21T21:24:17Z</time>
      </trkpt>
      <trkpt lat="9.8444640" lon="-83.9916030">
        <ele>1415.1</ele>
        <time>2022-10-21T21:24:18Z</time>
      </trkpt>
      <trkpt lat="9.8445110" lon="-83.9916130">
        <ele>1415.1</ele>
        <time>2022-10-21T21:24:19Z</time>
      </trkpt>
      <trkpt lat="9.8445610" lon="-83.9916170">
        <ele>1415.1</ele>
        <time>2022-10-21T21:24:20Z</time>
      </trkpt>
      <trkpt lat="9.8446130" lon="-83.9916180">
        <ele>1415.1</ele>
        <time>2022-10-21T21:24:21Z</time>
      </trkpt>
      <trkpt lat="9.8446650" lon="-83.9916170">
        <ele>1415.0</ele>
        <time>2022-10-21T21:24:22Z</time>
      </trkpt>
      <trkpt lat="9.8447170" lon="-83.9916170">
        <ele>1414.9</ele>
        <time>2022-10-21T21:24:23Z</time>
      </trkpt>
      <trkpt lat="9.8447700" lon="-83.9916190">
        <ele>1414.7</ele>
        <time>2022-10-21T21:24:24Z</time>
      </trkpt>
      <trkpt lat="9.8448220" lon="-83.9916230">
        <ele>1414.6</ele>
        <time>2022-10-21T21:24:25Z</time>
      </trkpt>
      <trkpt lat="9.8448720" lon="-83.9916300">
        <ele>1414.4</ele>
        <time>2022-10-21T21:24:26Z</time>
      </trkpt>
      <trkpt lat="9.8449210" lon="-83.9916390">
        <ele>1414.2</ele>
        <time>2022-10-21T21:24:27Z</time>
      </trkpt>
      <trkpt lat="9.8449690" lon="-83.9916510">
        <ele>1414.1</ele>
        <time>2022-10-21T21:24:28Z</time>
      </trkpt>
      <trkpt lat="9.8450150" lon="-83.9916650">
        <ele>1413.9</ele>
        <time>2022-10-21T21:24:29Z</time>
      </trkpt>
      <trkpt lat="9.8450600" lon="-83.9916810">
        <ele>1413.7</ele>
        <time>2022-10-21T21:24:30Z</time>
      </trkpt>
      <trkpt lat="9.8451030" lon="-83.9917000">
        <ele>1413.6</ele>
        <time>2022-10-21T21:24:31Z</time>
      </trkpt>
      <trkpt lat="9.8451460" lon="-83.9917210">
        <ele>1413.4</ele>
        <time>2022-10-21T21:24:32Z</time>
      </trkpt>
      <trkpt lat="9.8451860" lon="-83.9917420">
        <ele>1413.3</ele>
        <time>2022-10-21T21:24:33Z</time>
      </trkpt>
      <trkpt lat="9.8452250" lon="-83.9917620">
        <ele>1413.2</ele>
        <time>2022-10-21T21:24:34Z</time>
      </trkpt>
      <trkpt lat="9.8452630" lon="-83.9917820">
        <ele>1413.1</ele>
        <time>2022-10-21T21:24:35Z</time>
      </trkpt>
      <trkpt lat="9.8453000" lon="-83.9918010">
        <ele>1413.0</ele>
        <time>2022-10-21T21:24:36Z</time>
      </trkpt>
      <trkpt lat="9.8453390" lon="-83.9918200">
        <ele>1412.9</ele>
        <time>2022-10-21T21:24:37Z</time>
      </trkpt>
      <trkpt lat="9.8453780" lon="-83.9918400">
        <ele>1412.9</ele>
        <time>2022-10-21T21:24:38Z</time>
      </trkpt>
      <trkpt lat="9.8454190" lon="-83.9918590">
        <ele>1412.9</ele>
        <time>2022-10-21T21:24:39Z</time>
      </trkpt>
      <trkpt lat="9.8454610" lon="-83.9918790">
        <ele>1412.8</ele>
        <time>2022-10-21T21:24:40Z</time>
      </trkpt>
      <trkpt lat="9.8455040" lon="-83.9919000">
        <ele>1412.8</ele>
        <time>2022-10-21T21:24:41Z</time>
      </trkpt>
      <trkpt lat="9.8455470" lon="-83.9919210">
        <ele>1412.8</ele>
        <time>2022-10-21T21:24:42Z</time>
      </trkpt>
      <trkpt lat="9.8455920" lon="-83.9919420">
        <ele>1412.8</ele>
        <time>2022-10-21T21:24:43Z</time>
      </trkpt>
      <trkpt lat="9.8456360" lon="-83.9919620">
        <ele>1412.8</ele>
        <time>2022-10-21T21:24:44Z</time>
      </trkpt>
      <trkpt lat="9.8456810" lon="-83.9919810">
        <ele>1412.8</ele>
        <time>2022-10-21T21:24:45Z</time>
      </trkpt>
      <trkpt lat="9.8457250" lon="-83.9919960">
        <ele>1412.8</ele>
        <time>2022-10-21T21:24:46Z</time>
      </trkpt>
      <trkpt lat="9.8457690" lon="-83.9920070">
        <ele>1412.8</ele>
        <time>2022-10-21T21:24:47Z</time>
      </trkpt>
      <trkpt lat="9.8458110" lon="-83.9920150">
        <ele>1412.8</ele>
        <time>2022-10-21T21:24:48Z</time>
      </trkpt>
      <trkpt lat="9.8458510" lon="-83.9920180">
        <ele>1412.7</ele>
        <time>2022-10-21T21:24:49Z</time>
      </trkpt>
      <trkpt lat="9.8458890" lon="-83.9920170">
        <ele>1412.7</ele>
        <time>2022-10-21T21:24:50Z</time>
      </trkpt>
      <trkpt lat="9.8459250" lon="-83.9920120">
        <ele>1412.7</ele>
        <time>2022-10-21T21:24:51Z</time>
      </trkpt>
      <trkpt lat="9.8459590" lon="-83.9920050">
        <ele>1412.7</ele>
        <time>2022-10-21T21:24:52Z</time>
      </trkpt>
      <trkpt lat="9.8459920" lon="-83.9919950">
        <ele>1412.7</ele>
        <time>2022-10-21T21:24:53Z</time>
      </trkpt>
      <trkpt lat="9.8460230" lon="-83.9919830">
        <ele>1412.7</ele>
        <time>2022-10-21T21:24:54Z</time>
      </trkpt>
      <trkpt lat="9.8460520" lon="-83.9919710">
        <ele>1412.7</ele>
        <time>2022-10-21T21:24:55Z</time>
      </trkpt>
      <trkpt lat="9.8460800" lon="-83.9919610">
        <ele>1412.7</ele>
        <time>2022-10-21T21:24:56Z</time>
      </trkpt>
      <trkpt lat="9.8461070" lon="-83.9919530">
        <ele>1412.7</ele>
        <time>2022-10-21T21:24:57Z</time>
      </trkpt>
      <trkpt lat="9.8461340" lon="-83.9919480">
        <ele>1412.6</ele>
        <time>2022-10-21T21:24:58Z</time>
      </trkpt>
      <trkpt lat="9.8461620" lon="-83.9919470">
        <ele>1412.6</ele>
        <time>2022-10-21T21:24:59Z</time>
      </trkpt>
      <trkpt lat="9.8461910" lon="-83.9919470">
        <ele>1412.6</ele>
        <time>2022-10-21T21:25:00Z</time>
      </trkpt>
      <trkpt lat="9.8462200" lon="-83.9919480">
        <ele>1412.6</ele>
        <time>2022-10-21T21:25:01Z</time>
      </trkpt>
      <trkpt lat="9.8462490" lon="-83.9919490">
        <ele>1412.6</ele>
        <time>2022-10-21T21:25:02Z</time>
      </trkpt>
      <trkpt lat="9.8462790" lon="-83.9919480">
        <ele>1412.6</ele>
        <time>2022-10-21T21:25:03Z</time>
      </trkpt>
      <trkpt lat="9.8463090" lon="-83.9919460">
        <ele>1412.6</ele>
        <time>2022-10-21T21:25:04Z</time>
      </trkpt>
      <trkpt lat="9.8463390" lon="-83.9919420">
        <ele>1412.6</ele>
        <time>2022-10-21T21:25:05Z</time>
      </trkpt>
      <trkpt lat="9.8463700" lon="-83.9919370">
        <ele>1412.6</ele>
        <time>2022-10-21T21:25:06Z</time>
      </trkpt>
      <trkpt lat="9.8464000" lon="-83.9919300">
        <ele>1412.6</ele>
        <time>2022-10-21T21:25:07Z</time>
      </trkpt>
      <trkpt lat="9.8464300" lon="-83.9919220">
        <ele>1412.6</ele>
        <time>2022-10-21T21:25:08Z</time>
      </trkpt>
      <trkpt lat="9.8464590" lon="-83.9919120">
        <ele>1412.7</ele>
        <time>2022-10-21T21:25:09Z</time>
      </trkpt>
      <trkpt lat="9.8464850" lon="-83.9919000">
        <ele>1412.7</ele>
        <time>2022-10-21T21:25:10Z</time>
      </trkpt>
      <trkpt lat="9.8465090" lon="-83.9918860">
        <ele>1412.7</ele>
        <time>2022-10-21T21:25:11Z</time>
      </trkpt>
      <trkpt lat="9.8465310" lon="-83.9918710">
        <ele>1412.7</ele>
        <time>2022-10-21T21:25:12Z</time>
      </trkpt>
      <trkpt lat="9.8465510" lon="-83.9918560">
        <ele>1412.7</ele>
        <time>2022-10-21T21:25:13Z</time>
      </trkpt>
      <trkpt lat="9.8465690" lon="-83.9918410">
        <ele>1412.7</ele>
        <time>2022-10-21T21:25:14Z</time>
      </trkpt>
      <trkpt lat="9.8465840" lon="-83.9918260">
        <ele>1412.8</ele>
        <time>2022-10-21T21:25:15Z</time>
      </trkpt>
      <trkpt lat="9.8466070" lon="-83.9918140">
        <ele>1412.8</ele>
        <time>2022-10-21T21:25:16Z</time>
      </trkpt>
      <trkpt lat="9.8466180" lon="-83.9917950">
        <ele>1412.8</ele>
        <time>2022-10-21T21:25:17Z</time>
      </trkpt>
      <trkpt lat="9.8466250" lon="-83.9917750">
        <ele>1412.8</ele>
        <time>2022-10-21T21:25:18Z</time>
      </trkpt>
      <trkpt lat="9.8466280" lon="-83.9917560">
        <ele>1412.8</ele>
        <time>2022-10-21T21:25:19Z</time>
      </trkpt>
      <trkpt lat="9.8466280" lon="-83.9917370">
        <ele>1412.8</ele>
        <time>2022-10-21T21:25:20Z</time>
      </trkpt>
      <trkpt lat="9.8466230" lon="-83.9917160">
        <ele>1412.9</ele>
        <time>2022-10-21T21:25:21Z</time>
      </trkpt>
      <trkpt lat="9.8466200" lon="-83.9917120">
        <ele>1412.9</ele>
        <time>2022-10-21T21:25:22Z</time>
      </trkpt>
      <trkpt lat="9.8466180" lon="-83.9917080">
        <ele>1412.9</ele>
        <time>2022-10-21T21:25:23Z</time>
      </trkpt>
      <trkpt lat="9.8466150" lon="-83.9917040">
        <ele>1412.9</ele>
        <time>2022-10-21T21:25:24Z</time>
      </trkpt>
      <trkpt lat="9.8466130" lon="-83.9916990">
        <ele>1412.9</ele>
        <time>2022-10-21T21:25:25Z</time>
      </trkpt>
      <trkpt lat="9.8466100" lon="-83.9916950">
        <ele>1412.9</ele>
        <time>2022-10-21T21:25:26Z</time>
      </trkpt>
      <trkpt lat="9.8466080" lon="-83.9916910">
        <ele>1412.9</ele>
        <time>2022-10-21T21:25:27Z</time>
      </trkpt>
      <trkpt lat="9.8466050" lon="-83.9916870">
        <ele>1412.9</ele>
        <time>2022-10-21T21:25:28Z</time>
      </trkpt>
      <trkpt lat="9.8466030" lon="-83.9916820">
        <ele>1412.9</ele>
        <time>2022-10-21T21:25:29Z</time>
      </trkpt>
      <trkpt lat="9.8466000" lon="-83.9916780">
        <ele>1412.9</ele>
        <time>2022-10-21T21:25:30Z</time>
      </trkpt>
      <trkpt lat="9.8465980" lon="-83.9916740">
        <ele>1412.9</ele>
        <time>2022-10-21T21:25:31Z</time>
      </trkpt>
      <trkpt lat="9.8465950" lon="-83.9916700">
        <ele>1412.9</ele>
        <time>2022-10-21T21:25:32Z</time>
      </trkpt>
      <trkpt lat="9.8465930" lon="-83.9916660">
        <ele>1412.9</ele>
        <time>2022-10-21T21:25:33Z</time>
      </trkpt>
      <trkpt lat="9.8465900" lon="-83.9916610">
        <ele>1412.9</ele>
        <time>2022-10-21T21:25:34Z</time>
      </trkpt>
      <trkpt lat="9.8465880" lon="-83.9916570">
        <ele>1412.9</ele>
        <time>2022-10-21T21:25:35Z</time>
      </trkpt>
      <trkpt lat="9.8465850" lon="-83.9916530">
        <ele>1412.9</ele>
        <time>2022-10-21T21:25:36Z</time>
      </trkpt>
      <trkpt lat="9.8465830" lon="-83.9916490">
        <ele>1412.9</ele>
        <time>2022-10-21T21:25:37Z</time>
      </trkpt>
      <trkpt lat="9.8465800" lon="-83.9916450">
        <ele>1412.9</ele>
        <time>2022-10-21T21:25:38Z</time>
      </trkpt>
      <trkpt lat="9.8465780" lon="-83.9916400">
        <ele>1412.9</ele>
        <time>2022-10-21T21:25:39Z</time>
      </trkpt>
      <trkpt lat="9.8465750" lon="-83.9916360">
        <ele>1412.9</ele>
        <time>2022-10-21T21:25:40Z</time>
      </trkpt>
      <trkpt lat="9.8465730" lon="-83.9916320">
        <ele>1413.0</ele>
        <time>2022-10-21T21:25:41Z</time>
      </trkpt>
      <trkpt lat="9.8465670" lon="-83.9916840">
        <ele>1413.0</ele>
        <time>2022-10-21T21:25:42Z</time>
      </trkpt>
      <trkpt lat="9.8465600" lon="-83.9916540">
        <ele>1413.1</ele>
        <time>2022-10-21T21:25:43Z</time>
      </trkpt>
      <trkpt lat="9.8465600" lon="-83.9916540">
        <ele>1413.1</ele>
        <time>2022-10-21T21:25:44Z</time>
      </trkpt>
    </trkseg>
  </trk>
</gpx>
